<?xml version="1.0" encoding="UTF-8" standalone="no" ?>
<gpx xmlns="http://www.topografix.com/GPX/1/1" xmlns:xsi="http://www.w3.org/2001/XMLSchema-instance" xsi:schemaLocation="http://www.topografix.com/GPX/1/1 http://www.topografix.com/GPX/1/1/gpx.xsd" version="1.1" creator="VisuGPX - https://www.visugpx.com">
  <metadata>
    <name>Pornichet 04/03/2021</name>
    <desc><![CDATA[Sortie VTT du jeudi 04 mars 2021]]></desc>
  </metadata>
  <trk>
    <name><![CDATA[Pornichet Cyclisme]]></name>
    <trkseg>
      <trkpt lat="47.26407" lon="-2.31598">
        <ele>7.4000000953674</ele>
        <time>2021-03-04T08:20:12.000Z</time>
      </trkpt>
      <trkpt lat="47.26407" lon="-2.31613">
        <ele>7.4000000953674</ele>
        <time>2021-03-04T08:20:15.000Z</time>
      </trkpt>
      <trkpt lat="47.26407" lon="-2.31618">
        <ele>7.8000001907349</ele>
        <time>2021-03-04T08:20:16.000Z</time>
      </trkpt>
      <trkpt lat="47.26408" lon="-2.31642">
        <ele>7.8000001907349</ele>
        <time>2021-03-04T08:20:20.000Z</time>
      </trkpt>
      <trkpt lat="47.26408" lon="-2.3166">
        <ele>7.8000001907349</ele>
        <time>2021-03-04T08:20:23.000Z</time>
      </trkpt>
      <trkpt lat="47.26406" lon="-2.31664">
        <ele>7.8000001907349</ele>
        <time>2021-03-04T08:20:24.000Z</time>
      </trkpt>
      <trkpt lat="47.26396" lon="-2.31671">
        <ele>7.8000001907349</ele>
        <time>2021-03-04T08:20:27.000Z</time>
      </trkpt>
      <trkpt lat="47.26366" lon="-2.31689">
        <ele>7.8000001907349</ele>
        <time>2021-03-04T08:20:33.000Z</time>
      </trkpt>
      <trkpt lat="47.26345" lon="-2.31701">
        <ele>7.8000001907349</ele>
        <time>2021-03-04T08:20:37.000Z</time>
      </trkpt>
      <trkpt lat="47.26333" lon="-2.31706">
        <ele>7.8000001907349</ele>
        <time>2021-03-04T08:20:39.000Z</time>
      </trkpt>
      <trkpt lat="47.26326" lon="-2.31709">
        <ele>7.4000000953674</ele>
        <time>2021-03-04T08:20:40.000Z</time>
      </trkpt>
      <trkpt lat="47.2632" lon="-2.31712">
        <ele>7</ele>
        <time>2021-03-04T08:20:41.000Z</time>
      </trkpt>
      <trkpt lat="47.26315" lon="-2.31714">
        <ele>6.5999999046326</ele>
        <time>2021-03-04T08:20:42.000Z</time>
      </trkpt>
      <trkpt lat="47.26309" lon="-2.31716">
        <ele>6</ele>
        <time>2021-03-04T08:20:43.000Z</time>
      </trkpt>
      <trkpt lat="47.26304" lon="-2.31719">
        <ele>5.5999999046326</ele>
        <time>2021-03-04T08:20:44.000Z</time>
      </trkpt>
      <trkpt lat="47.263" lon="-2.3173">
        <ele>5.1999998092651</ele>
        <time>2021-03-04T08:20:46.000Z</time>
      </trkpt>
      <trkpt lat="47.263" lon="-2.31736">
        <ele>4.8000001907349</ele>
        <time>2021-03-04T08:20:47.000Z</time>
      </trkpt>
      <trkpt lat="47.26301" lon="-2.31742">
        <ele>4.4000000953674</ele>
        <time>2021-03-04T08:20:48.000Z</time>
      </trkpt>
      <trkpt lat="47.26302" lon="-2.31748">
        <ele>4</ele>
        <time>2021-03-04T08:20:49.000Z</time>
      </trkpt>
      <trkpt lat="47.26302" lon="-2.31754">
        <ele>3.5999999046326</ele>
        <time>2021-03-04T08:20:50.000Z</time>
      </trkpt>
      <trkpt lat="47.26303" lon="-2.31761">
        <ele>3.5999999046326</ele>
        <time>2021-03-04T08:20:51.000Z</time>
      </trkpt>
      <trkpt lat="47.26305" lon="-2.31811">
        <ele>3.5999999046326</ele>
        <time>2021-03-04T08:20:58.000Z</time>
      </trkpt>
      <trkpt lat="47.26302" lon="-2.31854">
        <ele>3.5999999046326</ele>
        <time>2021-03-04T08:21:04.000Z</time>
      </trkpt>
      <trkpt lat="47.26298" lon="-2.31882">
        <ele>3.5999999046326</ele>
        <time>2021-03-04T08:21:09.000Z</time>
      </trkpt>
      <trkpt lat="47.26294" lon="-2.31885">
        <ele>3.5999999046326</ele>
        <time>2021-03-04T08:21:10.000Z</time>
      </trkpt>
      <trkpt lat="47.26279" lon="-2.31901">
        <ele>3.5999999046326</ele>
        <time>2021-03-04T08:21:14.000Z</time>
      </trkpt>
      <trkpt lat="47.26264" lon="-2.31926">
        <ele>3.5999999046326</ele>
        <time>2021-03-04T08:21:19.000Z</time>
      </trkpt>
      <trkpt lat="47.26252" lon="-2.31946">
        <ele>3.5999999046326</ele>
        <time>2021-03-04T08:21:24.000Z</time>
      </trkpt>
      <trkpt lat="47.26244" lon="-2.31969">
        <ele>3.2000000476837</ele>
        <time>2021-03-04T08:21:29.000Z</time>
      </trkpt>
      <trkpt lat="47.26242" lon="-2.31972">
        <ele>2.7999999523163</ele>
        <time>2021-03-04T08:21:30.000Z</time>
      </trkpt>
      <trkpt lat="47.26239" lon="-2.31972">
        <ele>2.4000000953674</ele>
        <time>2021-03-04T08:21:31.000Z</time>
      </trkpt>
      <trkpt lat="47.26236" lon="-2.31972">
        <ele>2</ele>
        <time>2021-03-04T08:21:32.000Z</time>
      </trkpt>
      <trkpt lat="47.26233" lon="-2.31972">
        <ele>1.6000000238419</ele>
        <time>2021-03-04T08:21:33.000Z</time>
      </trkpt>
      <trkpt lat="47.26231" lon="-2.31974">
        <ele>1.6000000238419</ele>
        <time>2021-03-04T08:21:34.000Z</time>
      </trkpt>
      <trkpt lat="47.26227" lon="-2.31979">
        <ele>1.6000000238419</ele>
        <time>2021-03-04T08:21:36.000Z</time>
      </trkpt>
      <trkpt lat="47.26213" lon="-2.31994">
        <ele>1.6000000238419</ele>
        <time>2021-03-04T08:21:41.000Z</time>
      </trkpt>
      <trkpt lat="47.26204" lon="-2.32005">
        <ele>1.6000000238419</ele>
        <time>2021-03-04T08:21:45.000Z</time>
      </trkpt>
      <trkpt lat="47.26203" lon="-2.32009">
        <ele>1.6000000238419</ele>
        <time>2021-03-04T08:21:46.000Z</time>
      </trkpt>
      <trkpt lat="47.26199" lon="-2.3202">
        <ele>1.6000000238419</ele>
        <time>2021-03-04T08:21:49.000Z</time>
      </trkpt>
      <trkpt lat="47.26197" lon="-2.3202">
        <ele>1.6000000238419</ele>
        <time>2021-03-04T08:21:50.000Z</time>
      </trkpt>
      <trkpt lat="47.26177" lon="-2.32025">
        <ele>1.6000000238419</ele>
        <time>2021-03-04T08:21:57.000Z</time>
      </trkpt>
      <trkpt lat="47.26169" lon="-2.32029">
        <ele>1.6000000238419</ele>
        <time>2021-03-04T08:21:59.000Z</time>
      </trkpt>
      <trkpt lat="47.26162" lon="-2.32038">
        <ele>1.6000000238419</ele>
        <time>2021-03-04T08:22:01.000Z</time>
      </trkpt>
      <trkpt lat="47.26152" lon="-2.32062">
        <ele>1.6000000238419</ele>
        <time>2021-03-04T08:22:05.000Z</time>
      </trkpt>
      <trkpt lat="47.2615" lon="-2.32069">
        <ele>1.6000000238419</ele>
        <time>2021-03-04T08:22:06.000Z</time>
      </trkpt>
      <trkpt lat="47.26133" lon="-2.32123">
        <ele>1.6000000238419</ele>
        <time>2021-03-04T08:22:14.000Z</time>
      </trkpt>
      <trkpt lat="47.26116" lon="-2.32167">
        <ele>1.6000000238419</ele>
        <time>2021-03-04T08:22:21.000Z</time>
      </trkpt>
      <trkpt lat="47.26106" lon="-2.32191">
        <ele>1.6000000238419</ele>
        <time>2021-03-04T08:22:25.000Z</time>
      </trkpt>
      <trkpt lat="47.26097" lon="-2.32209">
        <ele>1.6000000238419</ele>
        <time>2021-03-04T08:22:28.000Z</time>
      </trkpt>
      <trkpt lat="47.26093" lon="-2.32214">
        <ele>1.6000000238419</ele>
        <time>2021-03-04T08:22:29.000Z</time>
      </trkpt>
      <trkpt lat="47.26075" lon="-2.3224">
        <ele>1.6000000238419</ele>
        <time>2021-03-04T08:22:34.000Z</time>
      </trkpt>
      <trkpt lat="47.26043" lon="-2.32278">
        <ele>1.6000000238419</ele>
        <time>2021-03-04T08:22:42.000Z</time>
      </trkpt>
      <trkpt lat="47.26016" lon="-2.32312">
        <ele>1.6000000238419</ele>
        <time>2021-03-04T08:22:49.000Z</time>
      </trkpt>
      <trkpt lat="47.26012" lon="-2.32316">
        <ele>1.6000000238419</ele>
        <time>2021-03-04T08:22:50.000Z</time>
      </trkpt>
      <trkpt lat="47.26" lon="-2.3233">
        <ele>1.6000000238419</ele>
        <time>2021-03-04T08:22:53.000Z</time>
      </trkpt>
      <trkpt lat="47.25992" lon="-2.3234">
        <ele>1.6000000238419</ele>
        <time>2021-03-04T08:22:55.000Z</time>
      </trkpt>
      <trkpt lat="47.25962" lon="-2.32381">
        <ele>1.6000000238419</ele>
        <time>2021-03-04T08:23:03.000Z</time>
      </trkpt>
      <trkpt lat="47.25932" lon="-2.3242">
        <ele>1.6000000238419</ele>
        <time>2021-03-04T08:23:11.000Z</time>
      </trkpt>
      <trkpt lat="47.25907" lon="-2.32452">
        <ele>1.6000000238419</ele>
        <time>2021-03-04T08:23:18.000Z</time>
      </trkpt>
      <trkpt lat="47.25904" lon="-2.32456">
        <ele>1.6000000238419</ele>
        <time>2021-03-04T08:23:19.000Z</time>
      </trkpt>
      <trkpt lat="47.25903" lon="-2.32467">
        <ele>1.6000000238419</ele>
        <time>2021-03-04T08:23:21.000Z</time>
      </trkpt>
      <trkpt lat="47.25912" lon="-2.32476">
        <ele>1.6000000238419</ele>
        <time>2021-03-04T08:23:24.000Z</time>
      </trkpt>
      <trkpt lat="47.25925" lon="-2.32496">
        <ele>1.6000000238419</ele>
        <time>2021-03-04T08:23:28.000Z</time>
      </trkpt>
      <trkpt lat="47.25927" lon="-2.32503">
        <ele>1.6000000238419</ele>
        <time>2021-03-04T08:23:29.000Z</time>
      </trkpt>
      <trkpt lat="47.25941" lon="-2.32544">
        <ele>1.6000000238419</ele>
        <time>2021-03-04T08:23:35.000Z</time>
      </trkpt>
      <trkpt lat="47.25957" lon="-2.32606">
        <ele>1.6000000238419</ele>
        <time>2021-03-04T08:23:44.000Z</time>
      </trkpt>
      <trkpt lat="47.25962" lon="-2.32634">
        <ele>1.6000000238419</ele>
        <time>2021-03-04T08:23:48.000Z</time>
      </trkpt>
      <trkpt lat="47.25963" lon="-2.32647">
        <ele>1.6000000238419</ele>
        <time>2021-03-04T08:23:50.000Z</time>
      </trkpt>
      <trkpt lat="47.25966" lon="-2.32656">
        <ele>1.6000000238419</ele>
        <time>2021-03-04T08:23:52.000Z</time>
      </trkpt>
      <trkpt lat="47.25969" lon="-2.32657">
        <ele>1.6000000238419</ele>
        <time>2021-03-04T08:23:53.000Z</time>
      </trkpt>
      <trkpt lat="47.25985" lon="-2.32657">
        <ele>1.6000000238419</ele>
        <time>2021-03-04T08:23:57.000Z</time>
      </trkpt>
      <trkpt lat="47.25993" lon="-2.32658">
        <ele>1.6000000238419</ele>
        <time>2021-03-04T08:23:59.000Z</time>
      </trkpt>
      <trkpt lat="47.26012" lon="-2.32654">
        <ele>1.6000000238419</ele>
        <time>2021-03-04T08:24:03.000Z</time>
      </trkpt>
      <trkpt lat="47.26049" lon="-2.32649">
        <ele>1.6000000238419</ele>
        <time>2021-03-04T08:24:11.000Z</time>
      </trkpt>
      <trkpt lat="47.2609" lon="-2.32641">
        <ele>1.6000000238419</ele>
        <time>2021-03-04T08:24:20.000Z</time>
      </trkpt>
      <trkpt lat="47.26104" lon="-2.32639">
        <ele>2</ele>
        <time>2021-03-04T08:24:23.000Z</time>
      </trkpt>
      <trkpt lat="47.26108" lon="-2.32638">
        <ele>2.4000000953674</ele>
        <time>2021-03-04T08:24:24.000Z</time>
      </trkpt>
      <trkpt lat="47.26113" lon="-2.32638">
        <ele>2.7999999523163</ele>
        <time>2021-03-04T08:24:25.000Z</time>
      </trkpt>
      <trkpt lat="47.26118" lon="-2.32637">
        <ele>3.2000000476837</ele>
        <time>2021-03-04T08:24:26.000Z</time>
      </trkpt>
      <trkpt lat="47.26122" lon="-2.32637">
        <ele>3.5999999046326</ele>
        <time>2021-03-04T08:24:27.000Z</time>
      </trkpt>
      <trkpt lat="47.26141" lon="-2.3264">
        <ele>3.5999999046326</ele>
        <time>2021-03-04T08:24:31.000Z</time>
      </trkpt>
      <trkpt lat="47.26178" lon="-2.32659">
        <ele>3.5999999046326</ele>
        <time>2021-03-04T08:24:39.000Z</time>
      </trkpt>
      <trkpt lat="47.26208" lon="-2.32689">
        <ele>3.5999999046326</ele>
        <time>2021-03-04T08:24:46.000Z</time>
      </trkpt>
      <trkpt lat="47.26237" lon="-2.32729">
        <ele>3.5999999046326</ele>
        <time>2021-03-04T08:24:53.000Z</time>
      </trkpt>
      <trkpt lat="47.26271" lon="-2.32783">
        <ele>3.5999999046326</ele>
        <time>2021-03-04T08:25:01.000Z</time>
      </trkpt>
      <trkpt lat="47.26285" lon="-2.32825">
        <ele>3.5999999046326</ele>
        <time>2021-03-04T08:25:06.000Z</time>
      </trkpt>
      <trkpt lat="47.26286" lon="-2.32833">
        <ele>3.5999999046326</ele>
        <time>2021-03-04T08:25:07.000Z</time>
      </trkpt>
      <trkpt lat="47.2629" lon="-2.3285">
        <ele>3.5999999046326</ele>
        <time>2021-03-04T08:25:09.000Z</time>
      </trkpt>
      <trkpt lat="47.26293" lon="-2.32857">
        <ele>3.5999999046326</ele>
        <time>2021-03-04T08:25:10.000Z</time>
      </trkpt>
      <trkpt lat="47.26308" lon="-2.32866">
        <ele>3.5999999046326</ele>
        <time>2021-03-04T08:25:13.000Z</time>
      </trkpt>
      <trkpt lat="47.26313" lon="-2.3287">
        <ele>3.5999999046326</ele>
        <time>2021-03-04T08:25:14.000Z</time>
      </trkpt>
      <trkpt lat="47.26321" lon="-2.32882">
        <ele>3.5999999046326</ele>
        <time>2021-03-04T08:25:16.000Z</time>
      </trkpt>
      <trkpt lat="47.26328" lon="-2.32905">
        <ele>3.5999999046326</ele>
        <time>2021-03-04T08:25:19.000Z</time>
      </trkpt>
      <trkpt lat="47.26333" lon="-2.32921">
        <ele>3.5999999046326</ele>
        <time>2021-03-04T08:25:21.000Z</time>
      </trkpt>
      <trkpt lat="47.26348" lon="-2.32966">
        <ele>3.5999999046326</ele>
        <time>2021-03-04T08:25:27.000Z</time>
      </trkpt>
      <trkpt lat="47.26355" lon="-2.32978">
        <ele>3.5999999046326</ele>
        <time>2021-03-04T08:25:29.000Z</time>
      </trkpt>
      <trkpt lat="47.26367" lon="-2.33002">
        <ele>3.5999999046326</ele>
        <time>2021-03-04T08:25:33.000Z</time>
      </trkpt>
      <trkpt lat="47.26367" lon="-2.3301">
        <ele>3.2000000476837</ele>
        <time>2021-03-04T08:25:34.000Z</time>
      </trkpt>
      <trkpt lat="47.26367" lon="-2.33017">
        <ele>2.7999999523163</ele>
        <time>2021-03-04T08:25:35.000Z</time>
      </trkpt>
      <trkpt lat="47.26367" lon="-2.33026">
        <ele>2.4000000953674</ele>
        <time>2021-03-04T08:25:36.000Z</time>
      </trkpt>
      <trkpt lat="47.26368" lon="-2.33034">
        <ele>2</ele>
        <time>2021-03-04T08:25:37.000Z</time>
      </trkpt>
      <trkpt lat="47.26368" lon="-2.33042">
        <ele>1.6000000238419</ele>
        <time>2021-03-04T08:25:38.000Z</time>
      </trkpt>
      <trkpt lat="47.26371" lon="-2.33115">
        <ele>1.6000000238419</ele>
        <time>2021-03-04T08:25:47.000Z</time>
      </trkpt>
      <trkpt lat="47.26376" lon="-2.33197">
        <ele>1.6000000238419</ele>
        <time>2021-03-04T08:25:57.000Z</time>
      </trkpt>
      <trkpt lat="47.26382" lon="-2.33253">
        <ele>1.6000000238419</ele>
        <time>2021-03-04T08:26:04.000Z</time>
      </trkpt>
      <trkpt lat="47.26385" lon="-2.33259">
        <ele>1.6000000238419</ele>
        <time>2021-03-04T08:26:05.000Z</time>
      </trkpt>
      <trkpt lat="47.26399" lon="-2.33271">
        <ele>1.6000000238419</ele>
        <time>2021-03-04T08:26:08.000Z</time>
      </trkpt>
      <trkpt lat="47.26404" lon="-2.33273">
        <ele>1.6000000238419</ele>
        <time>2021-03-04T08:26:09.000Z</time>
      </trkpt>
      <trkpt lat="47.26414" lon="-2.33277">
        <ele>1.6000000238419</ele>
        <time>2021-03-04T08:26:11.000Z</time>
      </trkpt>
      <trkpt lat="47.26425" lon="-2.33278">
        <ele>1.6000000238419</ele>
        <time>2021-03-04T08:26:13.000Z</time>
      </trkpt>
      <trkpt lat="47.26458" lon="-2.33278">
        <ele>1.6000000238419</ele>
        <time>2021-03-04T08:26:19.000Z</time>
      </trkpt>
      <trkpt lat="47.26469" lon="-2.33278">
        <ele>1.6000000238419</ele>
        <time>2021-03-04T08:26:21.000Z</time>
      </trkpt>
      <trkpt lat="47.265" lon="-2.3328">
        <ele>1.6000000238419</ele>
        <time>2021-03-04T08:26:27.000Z</time>
      </trkpt>
      <trkpt lat="47.26517" lon="-2.33288">
        <ele>1.6000000238419</ele>
        <time>2021-03-04T08:26:31.000Z</time>
      </trkpt>
      <trkpt lat="47.26535" lon="-2.33294">
        <ele>1.6000000238419</ele>
        <time>2021-03-04T08:26:35.000Z</time>
      </trkpt>
      <trkpt lat="47.26543" lon="-2.33297">
        <ele>1.6000000238419</ele>
        <time>2021-03-04T08:26:38.000Z</time>
      </trkpt>
      <trkpt lat="47.26549" lon="-2.3329">
        <ele>1.6000000238419</ele>
        <time>2021-03-04T08:26:40.000Z</time>
      </trkpt>
      <trkpt lat="47.26556" lon="-2.33282">
        <ele>1.6000000238419</ele>
        <time>2021-03-04T08:26:42.000Z</time>
      </trkpt>
      <trkpt lat="47.26584" lon="-2.33253">
        <ele>1.6000000238419</ele>
        <time>2021-03-04T08:26:49.000Z</time>
      </trkpt>
      <trkpt lat="47.26624" lon="-2.33212">
        <ele>1.6000000238419</ele>
        <time>2021-03-04T08:26:58.000Z</time>
      </trkpt>
      <trkpt lat="47.2665" lon="-2.33185">
        <ele>1.6000000238419</ele>
        <time>2021-03-04T08:27:04.000Z</time>
      </trkpt>
      <trkpt lat="47.26655" lon="-2.33181">
        <ele>1.6000000238419</ele>
        <time>2021-03-04T08:27:05.000Z</time>
      </trkpt>
      <trkpt lat="47.26676" lon="-2.33159">
        <ele>1.6000000238419</ele>
        <time>2021-03-04T08:27:10.000Z</time>
      </trkpt>
      <trkpt lat="47.26711" lon="-2.33123">
        <ele>1.6000000238419</ele>
        <time>2021-03-04T08:27:18.000Z</time>
      </trkpt>
      <trkpt lat="47.26731" lon="-2.33101">
        <ele>1.6000000238419</ele>
        <time>2021-03-04T08:27:23.000Z</time>
      </trkpt>
      <trkpt lat="47.26735" lon="-2.33098">
        <ele>1.6000000238419</ele>
        <time>2021-03-04T08:27:24.000Z</time>
      </trkpt>
      <trkpt lat="47.26754" lon="-2.33088">
        <ele>1.6000000238419</ele>
        <time>2021-03-04T08:27:29.000Z</time>
      </trkpt>
      <trkpt lat="47.26763" lon="-2.33107">
        <ele>1.6000000238419</ele>
        <time>2021-03-04T08:27:32.000Z</time>
      </trkpt>
      <trkpt lat="47.26763" lon="-2.3314">
        <ele>1.6000000238419</ele>
        <time>2021-03-04T08:27:36.000Z</time>
      </trkpt>
      <trkpt lat="47.26757" lon="-2.33163">
        <ele>1.6000000238419</ele>
        <time>2021-03-04T08:27:39.000Z</time>
      </trkpt>
      <trkpt lat="47.26752" lon="-2.33178">
        <ele>1.6000000238419</ele>
        <time>2021-03-04T08:27:41.000Z</time>
      </trkpt>
      <trkpt lat="47.26736" lon="-2.33235">
        <ele>1.6000000238419</ele>
        <time>2021-03-04T08:27:49.000Z</time>
      </trkpt>
      <trkpt lat="47.26734" lon="-2.33242">
        <ele>1.6000000238419</ele>
        <time>2021-03-04T08:27:50.000Z</time>
      </trkpt>
      <trkpt lat="47.26726" lon="-2.33272">
        <ele>1.6000000238419</ele>
        <time>2021-03-04T08:27:54.000Z</time>
      </trkpt>
      <trkpt lat="47.26728" lon="-2.33303">
        <ele>1.6000000238419</ele>
        <time>2021-03-04T08:27:58.000Z</time>
      </trkpt>
      <trkpt lat="47.26735" lon="-2.33319">
        <ele>1.6000000238419</ele>
        <time>2021-03-04T08:28:00.000Z</time>
      </trkpt>
      <trkpt lat="47.26743" lon="-2.33343">
        <ele>1.6000000238419</ele>
        <time>2021-03-04T08:28:03.000Z</time>
      </trkpt>
      <trkpt lat="47.26744" lon="-2.33351">
        <ele>1.6000000238419</ele>
        <time>2021-03-04T08:28:04.000Z</time>
      </trkpt>
      <trkpt lat="47.26749" lon="-2.33382">
        <ele>1.6000000238419</ele>
        <time>2021-03-04T08:28:08.000Z</time>
      </trkpt>
      <trkpt lat="47.2675" lon="-2.33398">
        <ele>1.6000000238419</ele>
        <time>2021-03-04T08:28:10.000Z</time>
      </trkpt>
      <trkpt lat="47.26753" lon="-2.33429">
        <ele>1.6000000238419</ele>
        <time>2021-03-04T08:28:14.000Z</time>
      </trkpt>
      <trkpt lat="47.26761" lon="-2.33484">
        <ele>1.6000000238419</ele>
        <time>2021-03-04T08:28:21.000Z</time>
      </trkpt>
      <trkpt lat="47.26772" lon="-2.33533">
        <ele>1.6000000238419</ele>
        <time>2021-03-04T08:28:27.000Z</time>
      </trkpt>
      <trkpt lat="47.26773" lon="-2.33542">
        <ele>1.6000000238419</ele>
        <time>2021-03-04T08:28:28.000Z</time>
      </trkpt>
      <trkpt lat="47.26778" lon="-2.33595">
        <ele>1.6000000238419</ele>
        <time>2021-03-04T08:28:35.000Z</time>
      </trkpt>
      <trkpt lat="47.26779" lon="-2.33632">
        <ele>2</ele>
        <time>2021-03-04T08:28:40.000Z</time>
      </trkpt>
      <trkpt lat="47.26778" lon="-2.33639">
        <ele>2.4000000953674</ele>
        <time>2021-03-04T08:28:41.000Z</time>
      </trkpt>
      <trkpt lat="47.26778" lon="-2.33645">
        <ele>2.7999999523163</ele>
        <time>2021-03-04T08:28:42.000Z</time>
      </trkpt>
      <trkpt lat="47.26778" lon="-2.33652">
        <ele>3.2000000476837</ele>
        <time>2021-03-04T08:28:43.000Z</time>
      </trkpt>
      <trkpt lat="47.26777" lon="-2.33659">
        <ele>3.5999999046326</ele>
        <time>2021-03-04T08:28:44.000Z</time>
      </trkpt>
      <trkpt lat="47.26777" lon="-2.33665">
        <ele>3.5999999046326</ele>
        <time>2021-03-04T08:28:45.000Z</time>
      </trkpt>
      <trkpt lat="47.26779" lon="-2.33695">
        <ele>3.5999999046326</ele>
        <time>2021-03-04T08:28:50.000Z</time>
      </trkpt>
      <trkpt lat="47.26781" lon="-2.33701">
        <ele>3.5999999046326</ele>
        <time>2021-03-04T08:28:51.000Z</time>
      </trkpt>
      <trkpt lat="47.2679" lon="-2.33715">
        <ele>3.5999999046326</ele>
        <time>2021-03-04T08:28:54.000Z</time>
      </trkpt>
      <trkpt lat="47.26798" lon="-2.33723">
        <ele>3.5999999046326</ele>
        <time>2021-03-04T08:28:56.000Z</time>
      </trkpt>
      <trkpt lat="47.26813" lon="-2.33739">
        <ele>4</ele>
        <time>2021-03-04T08:29:00.000Z</time>
      </trkpt>
      <trkpt lat="47.26816" lon="-2.33744">
        <ele>4.4000000953674</ele>
        <time>2021-03-04T08:29:01.000Z</time>
      </trkpt>
      <trkpt lat="47.2682" lon="-2.33748">
        <ele>4.8000001907349</ele>
        <time>2021-03-04T08:29:02.000Z</time>
      </trkpt>
      <trkpt lat="47.26823" lon="-2.33753">
        <ele>5.1999998092651</ele>
        <time>2021-03-04T08:29:03.000Z</time>
      </trkpt>
      <trkpt lat="47.26827" lon="-2.33758">
        <ele>5.5999999046326</ele>
        <time>2021-03-04T08:29:04.000Z</time>
      </trkpt>
      <trkpt lat="47.26838" lon="-2.33772">
        <ele>5.5999999046326</ele>
        <time>2021-03-04T08:29:07.000Z</time>
      </trkpt>
      <trkpt lat="47.26846" lon="-2.33779">
        <ele>5.5999999046326</ele>
        <time>2021-03-04T08:29:09.000Z</time>
      </trkpt>
      <trkpt lat="47.2686" lon="-2.33784">
        <ele>5.5999999046326</ele>
        <time>2021-03-04T08:29:12.000Z</time>
      </trkpt>
      <trkpt lat="47.26889" lon="-2.33796">
        <ele>5.5999999046326</ele>
        <time>2021-03-04T08:29:18.000Z</time>
      </trkpt>
      <trkpt lat="47.26893" lon="-2.338">
        <ele>5.5999999046326</ele>
        <time>2021-03-04T08:29:19.000Z</time>
      </trkpt>
      <trkpt lat="47.26901" lon="-2.33825">
        <ele>5.5999999046326</ele>
        <time>2021-03-04T08:29:23.000Z</time>
      </trkpt>
      <trkpt lat="47.26912" lon="-2.33873">
        <ele>5.5999999046326</ele>
        <time>2021-03-04T08:29:30.000Z</time>
      </trkpt>
      <trkpt lat="47.26924" lon="-2.33926">
        <ele>5.5999999046326</ele>
        <time>2021-03-04T08:29:38.000Z</time>
      </trkpt>
      <trkpt lat="47.2694" lon="-2.33991">
        <ele>5.5999999046326</ele>
        <time>2021-03-04T08:29:48.000Z</time>
      </trkpt>
      <trkpt lat="47.26948" lon="-2.34026">
        <ele>6</ele>
        <time>2021-03-04T08:29:53.000Z</time>
      </trkpt>
      <trkpt lat="47.2695" lon="-2.34033">
        <ele>6.4000000953674</ele>
        <time>2021-03-04T08:29:54.000Z</time>
      </trkpt>
      <trkpt lat="47.26951" lon="-2.34039">
        <ele>6.8000001907349</ele>
        <time>2021-03-04T08:29:55.000Z</time>
      </trkpt>
      <trkpt lat="47.26953" lon="-2.34046">
        <ele>7.1999998092651</ele>
        <time>2021-03-04T08:29:56.000Z</time>
      </trkpt>
      <trkpt lat="47.26955" lon="-2.34052">
        <ele>7.5999999046326</ele>
        <time>2021-03-04T08:29:57.000Z</time>
      </trkpt>
      <trkpt lat="47.26965" lon="-2.34101">
        <ele>7.5999999046326</ele>
        <time>2021-03-04T08:30:04.000Z</time>
      </trkpt>
      <trkpt lat="47.26966" lon="-2.34108">
        <ele>7.5999999046326</ele>
        <time>2021-03-04T08:30:05.000Z</time>
      </trkpt>
      <trkpt lat="47.26982" lon="-2.34179">
        <ele>7.5999999046326</ele>
        <time>2021-03-04T08:30:15.000Z</time>
      </trkpt>
      <trkpt lat="47.26997" lon="-2.34242">
        <ele>7.5999999046326</ele>
        <time>2021-03-04T08:30:24.000Z</time>
      </trkpt>
      <trkpt lat="47.27007" lon="-2.34289">
        <ele>7.5999999046326</ele>
        <time>2021-03-04T08:30:31.000Z</time>
      </trkpt>
      <trkpt lat="47.27007" lon="-2.34296">
        <ele>7.5999999046326</ele>
        <time>2021-03-04T08:30:32.000Z</time>
      </trkpt>
      <trkpt lat="47.27007" lon="-2.34315">
        <ele>7.5999999046326</ele>
        <time>2021-03-04T08:30:35.000Z</time>
      </trkpt>
      <trkpt lat="47.27013" lon="-2.34322">
        <ele>7.5999999046326</ele>
        <time>2021-03-04T08:30:37.000Z</time>
      </trkpt>
      <trkpt lat="47.2703" lon="-2.34327">
        <ele>7.5999999046326</ele>
        <time>2021-03-04T08:30:41.000Z</time>
      </trkpt>
      <trkpt lat="47.27034" lon="-2.34329">
        <ele>7.5999999046326</ele>
        <time>2021-03-04T08:30:42.000Z</time>
      </trkpt>
      <trkpt lat="47.27042" lon="-2.34345">
        <ele>7.5999999046326</ele>
        <time>2021-03-04T08:30:45.000Z</time>
      </trkpt>
      <trkpt lat="47.27045" lon="-2.34359">
        <ele>7.5999999046326</ele>
        <time>2021-03-04T08:30:47.000Z</time>
      </trkpt>
      <trkpt lat="47.27054" lon="-2.34395">
        <ele>7.5999999046326</ele>
        <time>2021-03-04T08:30:52.000Z</time>
      </trkpt>
      <trkpt lat="47.27065" lon="-2.34446">
        <ele>8</ele>
        <time>2021-03-04T08:30:59.000Z</time>
      </trkpt>
      <trkpt lat="47.27067" lon="-2.34454">
        <ele>9</ele>
        <time>2021-03-04T08:31:00.000Z</time>
      </trkpt>
      <trkpt lat="47.27069" lon="-2.3446">
        <ele>9.3999996185303</ele>
        <time>2021-03-04T08:31:01.000Z</time>
      </trkpt>
      <trkpt lat="47.2707" lon="-2.34467">
        <ele>9.8000001907349</ele>
        <time>2021-03-04T08:31:02.000Z</time>
      </trkpt>
      <trkpt lat="47.27083" lon="-2.34522">
        <ele>9.8000001907349</ele>
        <time>2021-03-04T08:31:10.000Z</time>
      </trkpt>
      <trkpt lat="47.271" lon="-2.34591">
        <ele>9.8000001907349</ele>
        <time>2021-03-04T08:31:20.000Z</time>
      </trkpt>
      <trkpt lat="47.27114" lon="-2.34652">
        <ele>9.8000001907349</ele>
        <time>2021-03-04T08:31:28.000Z</time>
      </trkpt>
      <trkpt lat="47.27128" lon="-2.34714">
        <ele>9.8000001907349</ele>
        <time>2021-03-04T08:31:36.000Z</time>
      </trkpt>
      <trkpt lat="47.27138" lon="-2.34772">
        <ele>9.8000001907349</ele>
        <time>2021-03-04T08:31:44.000Z</time>
      </trkpt>
      <trkpt lat="47.27154" lon="-2.34844">
        <ele>9.8000001907349</ele>
        <time>2021-03-04T08:31:54.000Z</time>
      </trkpt>
      <trkpt lat="47.27165" lon="-2.34893">
        <ele>9.8000001907349</ele>
        <time>2021-03-04T08:32:01.000Z</time>
      </trkpt>
      <trkpt lat="47.27184" lon="-2.34952">
        <ele>9.8000001907349</ele>
        <time>2021-03-04T08:32:10.000Z</time>
      </trkpt>
      <trkpt lat="47.27203" lon="-2.35004">
        <ele>9.8000001907349</ele>
        <time>2021-03-04T08:32:18.000Z</time>
      </trkpt>
      <trkpt lat="47.27222" lon="-2.35055">
        <ele>9.8000001907349</ele>
        <time>2021-03-04T08:32:26.000Z</time>
      </trkpt>
      <trkpt lat="47.27235" lon="-2.35089">
        <ele>9.8000001907349</ele>
        <time>2021-03-04T08:32:31.000Z</time>
      </trkpt>
      <trkpt lat="47.2724" lon="-2.351">
        <ele>9.8000001907349</ele>
        <time>2021-03-04T08:32:33.000Z</time>
      </trkpt>
      <trkpt lat="47.27257" lon="-2.35126">
        <ele>9.8000001907349</ele>
        <time>2021-03-04T08:32:39.000Z</time>
      </trkpt>
      <trkpt lat="47.27269" lon="-2.35122">
        <ele>9.8000001907349</ele>
        <time>2021-03-04T08:32:42.000Z</time>
      </trkpt>
      <trkpt lat="47.27273" lon="-2.35119">
        <ele>9.8000001907349</ele>
        <time>2021-03-04T08:32:43.000Z</time>
      </trkpt>
      <trkpt lat="47.27288" lon="-2.35109">
        <ele>9.8000001907349</ele>
        <time>2021-03-04T08:32:47.000Z</time>
      </trkpt>
      <trkpt lat="47.27298" lon="-2.35105">
        <ele>9.8000001907349</ele>
        <time>2021-03-04T08:32:50.000Z</time>
      </trkpt>
      <trkpt lat="47.273" lon="-2.35107">
        <ele>9.8000001907349</ele>
        <time>2021-03-04T08:32:51.000Z</time>
      </trkpt>
      <trkpt lat="47.27304" lon="-2.35118">
        <ele>9.8000001907349</ele>
        <time>2021-03-04T08:32:54.000Z</time>
      </trkpt>
      <trkpt lat="47.27305" lon="-2.35122">
        <ele>9.8000001907349</ele>
        <time>2021-03-04T08:32:55.000Z</time>
      </trkpt>
      <trkpt lat="47.27312" lon="-2.35141">
        <ele>10.199999809265</ele>
        <time>2021-03-04T08:32:59.000Z</time>
      </trkpt>
      <trkpt lat="47.27314" lon="-2.35146">
        <ele>10.60000038147</ele>
        <time>2021-03-04T08:33:00.000Z</time>
      </trkpt>
      <trkpt lat="47.27316" lon="-2.35153">
        <ele>11</ele>
        <time>2021-03-04T08:33:01.000Z</time>
      </trkpt>
      <trkpt lat="47.27318" lon="-2.3516">
        <ele>11.39999961853</ele>
        <time>2021-03-04T08:33:02.000Z</time>
      </trkpt>
      <trkpt lat="47.27319" lon="-2.35167">
        <ele>11.800000190735</ele>
        <time>2021-03-04T08:33:03.000Z</time>
      </trkpt>
      <trkpt lat="47.27322" lon="-2.35181">
        <ele>11.800000190735</ele>
        <time>2021-03-04T08:33:05.000Z</time>
      </trkpt>
      <trkpt lat="47.27333" lon="-2.35234">
        <ele>11.800000190735</ele>
        <time>2021-03-04T08:33:12.000Z</time>
      </trkpt>
      <trkpt lat="47.27344" lon="-2.3528">
        <ele>11.800000190735</ele>
        <time>2021-03-04T08:33:18.000Z</time>
      </trkpt>
      <trkpt lat="47.27356" lon="-2.3533">
        <ele>11.800000190735</ele>
        <time>2021-03-04T08:33:24.000Z</time>
      </trkpt>
      <trkpt lat="47.2737" lon="-2.35396">
        <ele>11.800000190735</ele>
        <time>2021-03-04T08:33:31.000Z</time>
      </trkpt>
      <trkpt lat="47.27375" lon="-2.35415">
        <ele>11.39999961853</ele>
        <time>2021-03-04T08:33:33.000Z</time>
      </trkpt>
      <trkpt lat="47.27377" lon="-2.35424">
        <ele>11</ele>
        <time>2021-03-04T08:33:34.000Z</time>
      </trkpt>
      <trkpt lat="47.2738" lon="-2.35433">
        <ele>10.60000038147</ele>
        <time>2021-03-04T08:33:35.000Z</time>
      </trkpt>
      <trkpt lat="47.27382" lon="-2.35443">
        <ele>10.199999809265</ele>
        <time>2021-03-04T08:33:36.000Z</time>
      </trkpt>
      <trkpt lat="47.27384" lon="-2.35452">
        <ele>9.8000001907349</ele>
        <time>2021-03-04T08:33:37.000Z</time>
      </trkpt>
      <trkpt lat="47.27386" lon="-2.35461">
        <ele>9.8000001907349</ele>
        <time>2021-03-04T08:33:38.000Z</time>
      </trkpt>
      <trkpt lat="47.27393" lon="-2.35498">
        <ele>9.8000001907349</ele>
        <time>2021-03-04T08:33:42.000Z</time>
      </trkpt>
      <trkpt lat="47.27396" lon="-2.35515">
        <ele>9.3999996185303</ele>
        <time>2021-03-04T08:33:44.000Z</time>
      </trkpt>
      <trkpt lat="47.27398" lon="-2.35524">
        <ele>9</ele>
        <time>2021-03-04T08:33:45.000Z</time>
      </trkpt>
      <trkpt lat="47.274" lon="-2.35533">
        <ele>8.6000003814697</ele>
        <time>2021-03-04T08:33:46.000Z</time>
      </trkpt>
      <trkpt lat="47.27401" lon="-2.35543">
        <ele>8</ele>
        <time>2021-03-04T08:33:47.000Z</time>
      </trkpt>
      <trkpt lat="47.27403" lon="-2.35553">
        <ele>7.5999999046326</ele>
        <time>2021-03-04T08:33:48.000Z</time>
      </trkpt>
      <trkpt lat="47.27407" lon="-2.35583">
        <ele>7.5999999046326</ele>
        <time>2021-03-04T08:33:51.000Z</time>
      </trkpt>
      <trkpt lat="47.27414" lon="-2.35632">
        <ele>7.1999998092651</ele>
        <time>2021-03-04T08:33:56.000Z</time>
      </trkpt>
      <trkpt lat="47.27415" lon="-2.35642">
        <ele>6.8000001907349</ele>
        <time>2021-03-04T08:33:57.000Z</time>
      </trkpt>
      <trkpt lat="47.27419" lon="-2.35651">
        <ele>6.4000000953674</ele>
        <time>2021-03-04T08:33:58.000Z</time>
      </trkpt>
      <trkpt lat="47.27423" lon="-2.3566">
        <ele>6</ele>
        <time>2021-03-04T08:33:59.000Z</time>
      </trkpt>
      <trkpt lat="47.27428" lon="-2.35666">
        <ele>5.5999999046326</ele>
        <time>2021-03-04T08:34:00.000Z</time>
      </trkpt>
      <trkpt lat="47.27434" lon="-2.3567">
        <ele>5.5999999046326</ele>
        <time>2021-03-04T08:34:01.000Z</time>
      </trkpt>
      <trkpt lat="47.27452" lon="-2.35673">
        <ele>5.5999999046326</ele>
        <time>2021-03-04T08:34:04.000Z</time>
      </trkpt>
      <trkpt lat="47.27471" lon="-2.35676">
        <ele>5.5999999046326</ele>
        <time>2021-03-04T08:34:07.000Z</time>
      </trkpt>
      <trkpt lat="47.27483" lon="-2.35678">
        <ele>5.5999999046326</ele>
        <time>2021-03-04T08:34:09.000Z</time>
      </trkpt>
      <trkpt lat="47.2753" lon="-2.35689">
        <ele>5.5999999046326</ele>
        <time>2021-03-04T08:34:17.000Z</time>
      </trkpt>
      <trkpt lat="47.27557" lon="-2.35696">
        <ele>5.5999999046326</ele>
        <time>2021-03-04T08:34:22.000Z</time>
      </trkpt>
      <trkpt lat="47.27569" lon="-2.35698">
        <ele>5.5999999046326</ele>
        <time>2021-03-04T08:34:24.000Z</time>
      </trkpt>
      <trkpt lat="47.27613" lon="-2.35709">
        <ele>5.5999999046326</ele>
        <time>2021-03-04T08:34:32.000Z</time>
      </trkpt>
      <trkpt lat="47.27645" lon="-2.35715">
        <ele>5.5999999046326</ele>
        <time>2021-03-04T08:34:38.000Z</time>
      </trkpt>
      <trkpt lat="47.2765" lon="-2.35717">
        <ele>6</ele>
        <time>2021-03-04T08:34:39.000Z</time>
      </trkpt>
      <trkpt lat="47.27655" lon="-2.35719">
        <ele>6.4000000953674</ele>
        <time>2021-03-04T08:34:40.000Z</time>
      </trkpt>
      <trkpt lat="47.2766" lon="-2.35721">
        <ele>6.8000001907349</ele>
        <time>2021-03-04T08:34:41.000Z</time>
      </trkpt>
      <trkpt lat="47.27665" lon="-2.35722">
        <ele>7.4000000953674</ele>
        <time>2021-03-04T08:34:42.000Z</time>
      </trkpt>
      <trkpt lat="47.27669" lon="-2.35724">
        <ele>7.8000001907349</ele>
        <time>2021-03-04T08:34:43.000Z</time>
      </trkpt>
      <trkpt lat="47.27674" lon="-2.35724">
        <ele>7.8000001907349</ele>
        <time>2021-03-04T08:34:44.000Z</time>
      </trkpt>
      <trkpt lat="47.27683" lon="-2.35726">
        <ele>7.8000001907349</ele>
        <time>2021-03-04T08:34:46.000Z</time>
      </trkpt>
      <trkpt lat="47.27698" lon="-2.35722">
        <ele>7.8000001907349</ele>
        <time>2021-03-04T08:34:49.000Z</time>
      </trkpt>
      <trkpt lat="47.2771" lon="-2.35712">
        <ele>7.8000001907349</ele>
        <time>2021-03-04T08:34:52.000Z</time>
      </trkpt>
      <trkpt lat="47.27714" lon="-2.35708">
        <ele>8.1999998092651</ele>
        <time>2021-03-04T08:34:53.000Z</time>
      </trkpt>
      <trkpt lat="47.27718" lon="-2.35703">
        <ele>8.6000003814697</ele>
        <time>2021-03-04T08:34:54.000Z</time>
      </trkpt>
      <trkpt lat="47.27722" lon="-2.35699">
        <ele>9</ele>
        <time>2021-03-04T08:34:55.000Z</time>
      </trkpt>
      <trkpt lat="47.27725" lon="-2.35694">
        <ele>9.3999996185303</ele>
        <time>2021-03-04T08:34:56.000Z</time>
      </trkpt>
      <trkpt lat="47.27729" lon="-2.35689">
        <ele>10</ele>
        <time>2021-03-04T08:34:57.000Z</time>
      </trkpt>
      <trkpt lat="47.27738" lon="-2.35674">
        <ele>10</ele>
        <time>2021-03-04T08:35:00.000Z</time>
      </trkpt>
      <trkpt lat="47.27762" lon="-2.35638">
        <ele>10.39999961853</ele>
        <time>2021-03-04T08:35:07.000Z</time>
      </trkpt>
      <trkpt lat="47.27765" lon="-2.35634">
        <ele>10.800000190735</ele>
        <time>2021-03-04T08:35:08.000Z</time>
      </trkpt>
      <trkpt lat="47.27769" lon="-2.3563">
        <ele>11.60000038147</ele>
        <time>2021-03-04T08:35:09.000Z</time>
      </trkpt>
      <trkpt lat="47.27773" lon="-2.35626">
        <ele>12</ele>
        <time>2021-03-04T08:35:10.000Z</time>
      </trkpt>
      <trkpt lat="47.27781" lon="-2.3562">
        <ele>12</ele>
        <time>2021-03-04T08:35:12.000Z</time>
      </trkpt>
      <trkpt lat="47.27795" lon="-2.35613">
        <ele>12</ele>
        <time>2021-03-04T08:35:15.000Z</time>
      </trkpt>
      <trkpt lat="47.2781" lon="-2.35608">
        <ele>12</ele>
        <time>2021-03-04T08:35:18.000Z</time>
      </trkpt>
      <trkpt lat="47.27839" lon="-2.35601">
        <ele>12</ele>
        <time>2021-03-04T08:35:24.000Z</time>
      </trkpt>
      <trkpt lat="47.27844" lon="-2.35599">
        <ele>12.39999961853</ele>
        <time>2021-03-04T08:35:25.000Z</time>
      </trkpt>
      <trkpt lat="47.27849" lon="-2.35599">
        <ele>12.800000190735</ele>
        <time>2021-03-04T08:35:26.000Z</time>
      </trkpt>
      <trkpt lat="47.27853" lon="-2.35598">
        <ele>13.199999809265</ele>
        <time>2021-03-04T08:35:27.000Z</time>
      </trkpt>
      <trkpt lat="47.27857" lon="-2.35597">
        <ele>13.60000038147</ele>
        <time>2021-03-04T08:35:28.000Z</time>
      </trkpt>
      <trkpt lat="47.27862" lon="-2.35595">
        <ele>14</ele>
        <time>2021-03-04T08:35:29.000Z</time>
      </trkpt>
      <trkpt lat="47.27893" lon="-2.35589">
        <ele>14</ele>
        <time>2021-03-04T08:35:36.000Z</time>
      </trkpt>
      <trkpt lat="47.27905" lon="-2.35586">
        <ele>14.39999961853</ele>
        <time>2021-03-04T08:35:39.000Z</time>
      </trkpt>
      <trkpt lat="47.27909" lon="-2.35584">
        <ele>14.800000190735</ele>
        <time>2021-03-04T08:35:40.000Z</time>
      </trkpt>
      <trkpt lat="47.27913" lon="-2.35584">
        <ele>15.199999809265</ele>
        <time>2021-03-04T08:35:41.000Z</time>
      </trkpt>
      <trkpt lat="47.27918" lon="-2.35583">
        <ele>15.60000038147</ele>
        <time>2021-03-04T08:35:42.000Z</time>
      </trkpt>
      <trkpt lat="47.27922" lon="-2.35581">
        <ele>16</ele>
        <time>2021-03-04T08:35:43.000Z</time>
      </trkpt>
      <trkpt lat="47.27926" lon="-2.3558">
        <ele>16</ele>
        <time>2021-03-04T08:35:44.000Z</time>
      </trkpt>
      <trkpt lat="47.27947" lon="-2.35575">
        <ele>16</ele>
        <time>2021-03-04T08:35:49.000Z</time>
      </trkpt>
      <trkpt lat="47.27955" lon="-2.35577">
        <ele>16</ele>
        <time>2021-03-04T08:35:51.000Z</time>
      </trkpt>
      <trkpt lat="47.27978" lon="-2.35584">
        <ele>16.39999961853</ele>
        <time>2021-03-04T08:35:57.000Z</time>
      </trkpt>
      <trkpt lat="47.27982" lon="-2.35585">
        <ele>17.200000762939</ele>
        <time>2021-03-04T08:35:58.000Z</time>
      </trkpt>
      <trkpt lat="47.27986" lon="-2.35585">
        <ele>17.60000038147</ele>
        <time>2021-03-04T08:35:59.000Z</time>
      </trkpt>
      <trkpt lat="47.2799" lon="-2.35584">
        <ele>18</ele>
        <time>2021-03-04T08:36:00.000Z</time>
      </trkpt>
      <trkpt lat="47.28007" lon="-2.35578">
        <ele>18</ele>
        <time>2021-03-04T08:36:04.000Z</time>
      </trkpt>
      <trkpt lat="47.28034" lon="-2.35576">
        <ele>18</ele>
        <time>2021-03-04T08:36:11.000Z</time>
      </trkpt>
      <trkpt lat="47.28055" lon="-2.35582">
        <ele>18</ele>
        <time>2021-03-04T08:36:17.000Z</time>
      </trkpt>
      <trkpt lat="47.28066" lon="-2.35587">
        <ele>18.39999961853</ele>
        <time>2021-03-04T08:36:21.000Z</time>
      </trkpt>
      <trkpt lat="47.28069" lon="-2.35589">
        <ele>18.799999237061</ele>
        <time>2021-03-04T08:36:22.000Z</time>
      </trkpt>
      <trkpt lat="47.28071" lon="-2.35592">
        <ele>19.60000038147</ele>
        <time>2021-03-04T08:36:23.000Z</time>
      </trkpt>
      <trkpt lat="47.28072" lon="-2.35595">
        <ele>20.200000762939</ele>
        <time>2021-03-04T08:36:24.000Z</time>
      </trkpt>
      <trkpt lat="47.2808" lon="-2.35612">
        <ele>20.200000762939</ele>
        <time>2021-03-04T08:36:29.000Z</time>
      </trkpt>
      <trkpt lat="47.28082" lon="-2.35613">
        <ele>20.200000762939</ele>
        <time>2021-03-04T08:36:30.000Z</time>
      </trkpt>
      <trkpt lat="47.28084" lon="-2.35615">
        <ele>20.200000762939</ele>
        <time>2021-03-04T08:36:33.000Z</time>
      </trkpt>
      <trkpt lat="47.28085" lon="-2.35615">
        <ele>20.200000762939</ele>
        <time>2021-03-04T08:36:36.000Z</time>
      </trkpt>
      <trkpt lat="47.28081" lon="-2.35613">
        <ele>20.200000762939</ele>
        <time>2021-03-04T08:39:43.000Z</time>
      </trkpt>
      <trkpt lat="47.28079" lon="-2.35611">
        <ele>20.200000762939</ele>
        <time>2021-03-04T08:39:44.000Z</time>
      </trkpt>
      <trkpt lat="47.28071" lon="-2.35601">
        <ele>20.200000762939</ele>
        <time>2021-03-04T08:39:48.000Z</time>
      </trkpt>
      <trkpt lat="47.28067" lon="-2.35596">
        <ele>20.200000762939</ele>
        <time>2021-03-04T08:39:50.000Z</time>
      </trkpt>
      <trkpt lat="47.28058" lon="-2.35576">
        <ele>20.200000762939</ele>
        <time>2021-03-04T08:39:56.000Z</time>
      </trkpt>
      <trkpt lat="47.28059" lon="-2.35569">
        <ele>20.200000762939</ele>
        <time>2021-03-04T08:39:58.000Z</time>
      </trkpt>
      <trkpt lat="47.28061" lon="-2.35564">
        <ele>20.200000762939</ele>
        <time>2021-03-04T08:40:00.000Z</time>
      </trkpt>
      <trkpt lat="47.28071" lon="-2.35561">
        <ele>20.200000762939</ele>
        <time>2021-03-04T08:40:04.000Z</time>
      </trkpt>
      <trkpt lat="47.281" lon="-2.3556">
        <ele>20.60000038147</ele>
        <time>2021-03-04T08:40:11.000Z</time>
      </trkpt>
      <trkpt lat="47.28105" lon="-2.3556">
        <ele>21</ele>
        <time>2021-03-04T08:40:12.000Z</time>
      </trkpt>
      <trkpt lat="47.28115" lon="-2.3556">
        <ele>21.39999961853</ele>
        <time>2021-03-04T08:40:13.000Z</time>
      </trkpt>
      <trkpt lat="47.28121" lon="-2.3556">
        <ele>21.799999237061</ele>
        <time>2021-03-04T08:40:14.000Z</time>
      </trkpt>
      <trkpt lat="47.28127" lon="-2.35559">
        <ele>22.200000762939</ele>
        <time>2021-03-04T08:40:15.000Z</time>
      </trkpt>
      <trkpt lat="47.28138" lon="-2.35559">
        <ele>22.200000762939</ele>
        <time>2021-03-04T08:40:17.000Z</time>
      </trkpt>
      <trkpt lat="47.28161" lon="-2.35567">
        <ele>22.60000038147</ele>
        <time>2021-03-04T08:40:23.000Z</time>
      </trkpt>
      <trkpt lat="47.28165" lon="-2.35569">
        <ele>23</ele>
        <time>2021-03-04T08:40:24.000Z</time>
      </trkpt>
      <trkpt lat="47.28169" lon="-2.35571">
        <ele>23.39999961853</ele>
        <time>2021-03-04T08:40:25.000Z</time>
      </trkpt>
      <trkpt lat="47.28173" lon="-2.35573">
        <ele>23.799999237061</ele>
        <time>2021-03-04T08:40:26.000Z</time>
      </trkpt>
      <trkpt lat="47.28176" lon="-2.35576">
        <ele>24.39999961853</ele>
        <time>2021-03-04T08:40:27.000Z</time>
      </trkpt>
      <trkpt lat="47.28185" lon="-2.35583">
        <ele>24.39999961853</ele>
        <time>2021-03-04T08:40:29.000Z</time>
      </trkpt>
      <trkpt lat="47.28203" lon="-2.356">
        <ele>24.39999961853</ele>
        <time>2021-03-04T08:40:33.000Z</time>
      </trkpt>
      <trkpt lat="47.28216" lon="-2.35615">
        <ele>24.39999961853</ele>
        <time>2021-03-04T08:40:36.000Z</time>
      </trkpt>
      <trkpt lat="47.28233" lon="-2.35639">
        <ele>24.799999237061</ele>
        <time>2021-03-04T08:40:41.000Z</time>
      </trkpt>
      <trkpt lat="47.28237" lon="-2.35644">
        <ele>25.200000762939</ele>
        <time>2021-03-04T08:40:42.000Z</time>
      </trkpt>
      <trkpt lat="47.2824" lon="-2.35649">
        <ele>25.60000038147</ele>
        <time>2021-03-04T08:40:43.000Z</time>
      </trkpt>
      <trkpt lat="47.28244" lon="-2.35653">
        <ele>26</ele>
        <time>2021-03-04T08:40:44.000Z</time>
      </trkpt>
      <trkpt lat="47.28247" lon="-2.35658">
        <ele>26.39999961853</ele>
        <time>2021-03-04T08:40:45.000Z</time>
      </trkpt>
      <trkpt lat="47.28267" lon="-2.35684">
        <ele>26.39999961853</ele>
        <time>2021-03-04T08:40:51.000Z</time>
      </trkpt>
      <trkpt lat="47.28296" lon="-2.35717">
        <ele>26.799999237061</ele>
        <time>2021-03-04T08:40:59.000Z</time>
      </trkpt>
      <trkpt lat="47.283" lon="-2.3572">
        <ele>27.200000762939</ele>
        <time>2021-03-04T08:41:00.000Z</time>
      </trkpt>
      <trkpt lat="47.28303" lon="-2.35724">
        <ele>27.60000038147</ele>
        <time>2021-03-04T08:41:01.000Z</time>
      </trkpt>
      <trkpt lat="47.28307" lon="-2.35727">
        <ele>28</ele>
        <time>2021-03-04T08:41:02.000Z</time>
      </trkpt>
      <trkpt lat="47.28311" lon="-2.35731">
        <ele>28.39999961853</ele>
        <time>2021-03-04T08:41:03.000Z</time>
      </trkpt>
      <trkpt lat="47.28319" lon="-2.35737">
        <ele>28.39999961853</ele>
        <time>2021-03-04T08:41:05.000Z</time>
      </trkpt>
      <trkpt lat="47.28343" lon="-2.35753">
        <ele>28.39999961853</ele>
        <time>2021-03-04T08:41:11.000Z</time>
      </trkpt>
      <trkpt lat="47.28362" lon="-2.35762">
        <ele>28.39999961853</ele>
        <time>2021-03-04T08:41:16.000Z</time>
      </trkpt>
      <trkpt lat="47.28383" lon="-2.35775">
        <ele>28.39999961853</ele>
        <time>2021-03-04T08:41:22.000Z</time>
      </trkpt>
      <trkpt lat="47.28395" lon="-2.35779">
        <ele>28.799999237061</ele>
        <time>2021-03-04T08:41:25.000Z</time>
      </trkpt>
      <trkpt lat="47.284" lon="-2.3578">
        <ele>29.200000762939</ele>
        <time>2021-03-04T08:41:26.000Z</time>
      </trkpt>
      <trkpt lat="47.28404" lon="-2.35782">
        <ele>29.60000038147</ele>
        <time>2021-03-04T08:41:27.000Z</time>
      </trkpt>
      <trkpt lat="47.28408" lon="-2.35783">
        <ele>30</ele>
        <time>2021-03-04T08:41:28.000Z</time>
      </trkpt>
      <trkpt lat="47.28412" lon="-2.35785">
        <ele>30.39999961853</ele>
        <time>2021-03-04T08:41:29.000Z</time>
      </trkpt>
      <trkpt lat="47.28417" lon="-2.35786">
        <ele>30.39999961853</ele>
        <time>2021-03-04T08:41:30.000Z</time>
      </trkpt>
      <trkpt lat="47.28447" lon="-2.35798">
        <ele>30.39999961853</ele>
        <time>2021-03-04T08:41:38.000Z</time>
      </trkpt>
      <trkpt lat="47.28471" lon="-2.35807">
        <ele>30.39999961853</ele>
        <time>2021-03-04T08:41:44.000Z</time>
      </trkpt>
      <trkpt lat="47.28498" lon="-2.35815">
        <ele>30.39999961853</ele>
        <time>2021-03-04T08:41:52.000Z</time>
      </trkpt>
      <trkpt lat="47.28519" lon="-2.35826">
        <ele>30.39999961853</ele>
        <time>2021-03-04T08:41:58.000Z</time>
      </trkpt>
      <trkpt lat="47.28544" lon="-2.35838">
        <ele>30.39999961853</ele>
        <time>2021-03-04T08:42:05.000Z</time>
      </trkpt>
      <trkpt lat="47.28556" lon="-2.35833">
        <ele>30.39999961853</ele>
        <time>2021-03-04T08:42:09.000Z</time>
      </trkpt>
      <trkpt lat="47.28567" lon="-2.35811">
        <ele>30.39999961853</ele>
        <time>2021-03-04T08:42:13.000Z</time>
      </trkpt>
      <trkpt lat="47.28588" lon="-2.35775">
        <ele>30.39999961853</ele>
        <time>2021-03-04T08:42:19.000Z</time>
      </trkpt>
      <trkpt lat="47.28606" lon="-2.35735">
        <ele>30.39999961853</ele>
        <time>2021-03-04T08:42:26.000Z</time>
      </trkpt>
      <trkpt lat="47.28611" lon="-2.35732">
        <ele>30.39999961853</ele>
        <time>2021-03-04T08:42:28.000Z</time>
      </trkpt>
      <trkpt lat="47.2862" lon="-2.3574">
        <ele>30.39999961853</ele>
        <time>2021-03-04T08:42:30.000Z</time>
      </trkpt>
      <trkpt lat="47.28631" lon="-2.3576">
        <ele>30.39999961853</ele>
        <time>2021-03-04T08:42:34.000Z</time>
      </trkpt>
      <trkpt lat="47.28637" lon="-2.35788">
        <ele>30.39999961853</ele>
        <time>2021-03-04T08:42:39.000Z</time>
      </trkpt>
      <trkpt lat="47.28642" lon="-2.35805">
        <ele>30.39999961853</ele>
        <time>2021-03-04T08:42:45.000Z</time>
      </trkpt>
      <trkpt lat="47.28642" lon="-2.3581">
        <ele>30.39999961853</ele>
        <time>2021-03-04T08:42:48.000Z</time>
      </trkpt>
      <trkpt lat="47.28642" lon="-2.35817">
        <ele>30.39999961853</ele>
        <time>2021-03-04T08:42:51.000Z</time>
      </trkpt>
      <trkpt lat="47.28646" lon="-2.35839">
        <ele>30.39999961853</ele>
        <time>2021-03-04T08:42:55.000Z</time>
      </trkpt>
      <trkpt lat="47.28662" lon="-2.35885">
        <ele>30.39999961853</ele>
        <time>2021-03-04T08:43:03.000Z</time>
      </trkpt>
      <trkpt lat="47.28666" lon="-2.35896">
        <ele>30.799999237061</ele>
        <time>2021-03-04T08:43:05.000Z</time>
      </trkpt>
      <trkpt lat="47.28667" lon="-2.35901">
        <ele>31.200000762939</ele>
        <time>2021-03-04T08:43:06.000Z</time>
      </trkpt>
      <trkpt lat="47.28669" lon="-2.35906">
        <ele>31.60000038147</ele>
        <time>2021-03-04T08:43:07.000Z</time>
      </trkpt>
      <trkpt lat="47.28671" lon="-2.3591">
        <ele>32</ele>
        <time>2021-03-04T08:43:08.000Z</time>
      </trkpt>
      <trkpt lat="47.28672" lon="-2.35915">
        <ele>32.400001525879</ele>
        <time>2021-03-04T08:43:09.000Z</time>
      </trkpt>
      <trkpt lat="47.28674" lon="-2.35918">
        <ele>32.400001525879</ele>
        <time>2021-03-04T08:43:10.000Z</time>
      </trkpt>
      <trkpt lat="47.28676" lon="-2.35919">
        <ele>32.400001525879</ele>
        <time>2021-03-04T08:43:11.000Z</time>
      </trkpt>
      <trkpt lat="47.28686" lon="-2.35909">
        <ele>32.400001525879</ele>
        <time>2021-03-04T08:43:15.000Z</time>
      </trkpt>
      <trkpt lat="47.28706" lon="-2.35878">
        <ele>32.400001525879</ele>
        <time>2021-03-04T08:43:22.000Z</time>
      </trkpt>
      <trkpt lat="47.28728" lon="-2.35838">
        <ele>32.400001525879</ele>
        <time>2021-03-04T08:43:30.000Z</time>
      </trkpt>
      <trkpt lat="47.28731" lon="-2.35832">
        <ele>32.799999237061</ele>
        <time>2021-03-04T08:43:31.000Z</time>
      </trkpt>
      <trkpt lat="47.28734" lon="-2.35827">
        <ele>33.200000762939</ele>
        <time>2021-03-04T08:43:32.000Z</time>
      </trkpt>
      <trkpt lat="47.28737" lon="-2.35822">
        <ele>33.599998474121</ele>
        <time>2021-03-04T08:43:33.000Z</time>
      </trkpt>
      <trkpt lat="47.28739" lon="-2.35816">
        <ele>34</ele>
        <time>2021-03-04T08:43:34.000Z</time>
      </trkpt>
      <trkpt lat="47.28742" lon="-2.3581">
        <ele>34.400001525879</ele>
        <time>2021-03-04T08:43:35.000Z</time>
      </trkpt>
      <trkpt lat="47.28749" lon="-2.35799">
        <ele>34.400001525879</ele>
        <time>2021-03-04T08:43:37.000Z</time>
      </trkpt>
      <trkpt lat="47.28777" lon="-2.35748">
        <ele>34.400001525879</ele>
        <time>2021-03-04T08:43:46.000Z</time>
      </trkpt>
      <trkpt lat="47.28801" lon="-2.35698">
        <ele>34.400001525879</ele>
        <time>2021-03-04T08:43:54.000Z</time>
      </trkpt>
      <trkpt lat="47.28824" lon="-2.35663">
        <ele>34.400001525879</ele>
        <time>2021-03-04T08:44:00.000Z</time>
      </trkpt>
      <trkpt lat="47.28858" lon="-2.35624">
        <ele>34.400001525879</ele>
        <time>2021-03-04T08:44:08.000Z</time>
      </trkpt>
      <trkpt lat="47.28893" lon="-2.35586">
        <ele>34.400001525879</ele>
        <time>2021-03-04T08:44:16.000Z</time>
      </trkpt>
      <trkpt lat="47.2891" lon="-2.35566">
        <ele>34.400001525879</ele>
        <time>2021-03-04T08:44:21.000Z</time>
      </trkpt>
      <trkpt lat="47.28923" lon="-2.35554">
        <ele>34.400001525879</ele>
        <time>2021-03-04T08:44:26.000Z</time>
      </trkpt>
      <trkpt lat="47.28928" lon="-2.35559">
        <ele>34.400001525879</ele>
        <time>2021-03-04T08:44:29.000Z</time>
      </trkpt>
      <trkpt lat="47.28937" lon="-2.3558">
        <ele>34.400001525879</ele>
        <time>2021-03-04T08:44:34.000Z</time>
      </trkpt>
      <trkpt lat="47.28951" lon="-2.35617">
        <ele>34.400001525879</ele>
        <time>2021-03-04T08:44:40.000Z</time>
      </trkpt>
      <trkpt lat="47.28973" lon="-2.35671">
        <ele>34.400001525879</ele>
        <time>2021-03-04T08:44:48.000Z</time>
      </trkpt>
      <trkpt lat="47.28983" lon="-2.35688">
        <ele>34.400001525879</ele>
        <time>2021-03-04T08:44:51.000Z</time>
      </trkpt>
      <trkpt lat="47.28992" lon="-2.35697">
        <ele>34.799999237061</ele>
        <time>2021-03-04T08:44:53.000Z</time>
      </trkpt>
      <trkpt lat="47.28996" lon="-2.357">
        <ele>35.200000762939</ele>
        <time>2021-03-04T08:44:54.000Z</time>
      </trkpt>
      <trkpt lat="47.29001" lon="-2.35702">
        <ele>35.599998474121</ele>
        <time>2021-03-04T08:44:55.000Z</time>
      </trkpt>
      <trkpt lat="47.29006" lon="-2.35703">
        <ele>36</ele>
        <time>2021-03-04T08:44:56.000Z</time>
      </trkpt>
      <trkpt lat="47.29012" lon="-2.35703">
        <ele>36.400001525879</ele>
        <time>2021-03-04T08:44:57.000Z</time>
      </trkpt>
      <trkpt lat="47.29032" lon="-2.35691">
        <ele>36.400001525879</ele>
        <time>2021-03-04T08:45:01.000Z</time>
      </trkpt>
      <trkpt lat="47.29056" lon="-2.35667">
        <ele>36.400001525879</ele>
        <time>2021-03-04T08:45:07.000Z</time>
      </trkpt>
      <trkpt lat="47.29075" lon="-2.35646">
        <ele>36.400001525879</ele>
        <time>2021-03-04T08:45:14.000Z</time>
      </trkpt>
      <trkpt lat="47.29081" lon="-2.3564">
        <ele>36.400001525879</ele>
        <time>2021-03-04T08:45:20.000Z</time>
      </trkpt>
      <trkpt lat="47.29083" lon="-2.35639">
        <ele>36.400001525879</ele>
        <time>2021-03-04T08:45:21.000Z</time>
      </trkpt>
      <trkpt lat="47.29086" lon="-2.35642">
        <ele>36.400001525879</ele>
        <time>2021-03-04T08:45:25.000Z</time>
      </trkpt>
      <trkpt lat="47.29087" lon="-2.35646">
        <ele>36.400001525879</ele>
        <time>2021-03-04T08:45:28.000Z</time>
      </trkpt>
      <trkpt lat="47.29089" lon="-2.35654">
        <ele>36.400001525879</ele>
        <time>2021-03-04T08:45:31.000Z</time>
      </trkpt>
      <trkpt lat="47.29093" lon="-2.35679">
        <ele>36.400001525879</ele>
        <time>2021-03-04T08:45:36.000Z</time>
      </trkpt>
      <trkpt lat="47.29093" lon="-2.35694">
        <ele>36.400001525879</ele>
        <time>2021-03-04T08:45:40.000Z</time>
      </trkpt>
      <trkpt lat="47.29102" lon="-2.35719">
        <ele>36.400001525879</ele>
        <time>2021-03-04T08:45:45.000Z</time>
      </trkpt>
      <trkpt lat="47.29123" lon="-2.35774">
        <ele>36.400001525879</ele>
        <time>2021-03-04T08:45:55.000Z</time>
      </trkpt>
      <trkpt lat="47.29135" lon="-2.35806">
        <ele>36.400001525879</ele>
        <time>2021-03-04T08:46:03.000Z</time>
      </trkpt>
      <trkpt lat="47.29144" lon="-2.35828">
        <ele>36.400001525879</ele>
        <time>2021-03-04T08:46:10.000Z</time>
      </trkpt>
      <trkpt lat="47.29146" lon="-2.3583">
        <ele>36.400001525879</ele>
        <time>2021-03-04T08:46:11.000Z</time>
      </trkpt>
      <trkpt lat="47.29153" lon="-2.35828">
        <ele>36.400001525879</ele>
        <time>2021-03-04T08:46:13.000Z</time>
      </trkpt>
      <trkpt lat="47.29177" lon="-2.3581">
        <ele>36.400001525879</ele>
        <time>2021-03-04T08:46:19.000Z</time>
      </trkpt>
      <trkpt lat="47.29215" lon="-2.35781">
        <ele>36.400001525879</ele>
        <time>2021-03-04T08:46:27.000Z</time>
      </trkpt>
      <trkpt lat="47.29241" lon="-2.35751">
        <ele>36.400001525879</ele>
        <time>2021-03-04T08:46:34.000Z</time>
      </trkpt>
      <trkpt lat="47.2925" lon="-2.35733">
        <ele>36.400001525879</ele>
        <time>2021-03-04T08:46:39.000Z</time>
      </trkpt>
      <trkpt lat="47.29259" lon="-2.35727">
        <ele>36.400001525879</ele>
        <time>2021-03-04T08:46:43.000Z</time>
      </trkpt>
      <trkpt lat="47.29278" lon="-2.35741">
        <ele>36.400001525879</ele>
        <time>2021-03-04T08:46:47.000Z</time>
      </trkpt>
      <trkpt lat="47.29315" lon="-2.35774">
        <ele>36.400001525879</ele>
        <time>2021-03-04T08:46:55.000Z</time>
      </trkpt>
      <trkpt lat="47.29355" lon="-2.35812">
        <ele>36.400001525879</ele>
        <time>2021-03-04T08:47:04.000Z</time>
      </trkpt>
      <trkpt lat="47.29384" lon="-2.35837">
        <ele>36.400001525879</ele>
        <time>2021-03-04T08:47:11.000Z</time>
      </trkpt>
      <trkpt lat="47.29409" lon="-2.35865">
        <ele>36.400001525879</ele>
        <time>2021-03-04T08:47:18.000Z</time>
      </trkpt>
      <trkpt lat="47.29429" lon="-2.35893">
        <ele>36.400001525879</ele>
        <time>2021-03-04T08:47:24.000Z</time>
      </trkpt>
      <trkpt lat="47.29442" lon="-2.35903">
        <ele>36</ele>
        <time>2021-03-04T08:47:28.000Z</time>
      </trkpt>
      <trkpt lat="47.29446" lon="-2.35903">
        <ele>35.599998474121</ele>
        <time>2021-03-04T08:47:29.000Z</time>
      </trkpt>
      <trkpt lat="47.29449" lon="-2.35903">
        <ele>34.799999237061</ele>
        <time>2021-03-04T08:47:30.000Z</time>
      </trkpt>
      <trkpt lat="47.29453" lon="-2.35902">
        <ele>34.400001525879</ele>
        <time>2021-03-04T08:47:31.000Z</time>
      </trkpt>
      <trkpt lat="47.29463" lon="-2.359">
        <ele>34.400001525879</ele>
        <time>2021-03-04T08:47:34.000Z</time>
      </trkpt>
      <trkpt lat="47.29489" lon="-2.35897">
        <ele>34.400001525879</ele>
        <time>2021-03-04T08:47:41.000Z</time>
      </trkpt>
      <trkpt lat="47.29493" lon="-2.35898">
        <ele>34.400001525879</ele>
        <time>2021-03-04T08:47:42.000Z</time>
      </trkpt>
      <trkpt lat="47.29503" lon="-2.35908">
        <ele>34.400001525879</ele>
        <time>2021-03-04T08:47:45.000Z</time>
      </trkpt>
      <trkpt lat="47.29505" lon="-2.3592">
        <ele>34.400001525879</ele>
        <time>2021-03-04T08:47:47.000Z</time>
      </trkpt>
      <trkpt lat="47.2951" lon="-2.35936">
        <ele>34.400001525879</ele>
        <time>2021-03-04T08:47:50.000Z</time>
      </trkpt>
      <trkpt lat="47.29512" lon="-2.35939">
        <ele>34.400001525879</ele>
        <time>2021-03-04T08:47:51.000Z</time>
      </trkpt>
      <trkpt lat="47.29519" lon="-2.35939">
        <ele>34.400001525879</ele>
        <time>2021-03-04T08:47:53.000Z</time>
      </trkpt>
      <trkpt lat="47.29527" lon="-2.35935">
        <ele>34.400001525879</ele>
        <time>2021-03-04T08:47:55.000Z</time>
      </trkpt>
      <trkpt lat="47.29536" lon="-2.35929">
        <ele>34.400001525879</ele>
        <time>2021-03-04T08:47:57.000Z</time>
      </trkpt>
      <trkpt lat="47.29581" lon="-2.35903">
        <ele>34.400001525879</ele>
        <time>2021-03-04T08:48:06.000Z</time>
      </trkpt>
      <trkpt lat="47.29596" lon="-2.35894">
        <ele>34.400001525879</ele>
        <time>2021-03-04T08:48:09.000Z</time>
      </trkpt>
      <trkpt lat="47.29612" lon="-2.35884">
        <ele>34.400001525879</ele>
        <time>2021-03-04T08:48:12.000Z</time>
      </trkpt>
      <trkpt lat="47.29645" lon="-2.35863">
        <ele>34.400001525879</ele>
        <time>2021-03-04T08:48:19.000Z</time>
      </trkpt>
      <trkpt lat="47.29648" lon="-2.35857">
        <ele>34.400001525879</ele>
        <time>2021-03-04T08:48:20.000Z</time>
      </trkpt>
      <trkpt lat="47.29655" lon="-2.3584">
        <ele>34.400001525879</ele>
        <time>2021-03-04T08:48:23.000Z</time>
      </trkpt>
      <trkpt lat="47.29658" lon="-2.35837">
        <ele>34.400001525879</ele>
        <time>2021-03-04T08:48:24.000Z</time>
      </trkpt>
      <trkpt lat="47.29673" lon="-2.35837">
        <ele>34.400001525879</ele>
        <time>2021-03-04T08:48:27.000Z</time>
      </trkpt>
      <trkpt lat="47.29678" lon="-2.35838">
        <ele>34.400001525879</ele>
        <time>2021-03-04T08:48:28.000Z</time>
      </trkpt>
      <trkpt lat="47.29696" lon="-2.35836">
        <ele>34.400001525879</ele>
        <time>2021-03-04T08:48:31.000Z</time>
      </trkpt>
      <trkpt lat="47.29707" lon="-2.35832">
        <ele>34.400001525879</ele>
        <time>2021-03-04T08:48:33.000Z</time>
      </trkpt>
      <trkpt lat="47.29737" lon="-2.35815">
        <ele>34.799999237061</ele>
        <time>2021-03-04T08:48:39.000Z</time>
      </trkpt>
      <trkpt lat="47.29742" lon="-2.35812">
        <ele>35.400001525879</ele>
        <time>2021-03-04T08:48:40.000Z</time>
      </trkpt>
      <trkpt lat="47.29747" lon="-2.3581">
        <ele>35.799999237061</ele>
        <time>2021-03-04T08:48:41.000Z</time>
      </trkpt>
      <trkpt lat="47.29752" lon="-2.35808">
        <ele>36.200000762939</ele>
        <time>2021-03-04T08:48:42.000Z</time>
      </trkpt>
      <trkpt lat="47.29756" lon="-2.35806">
        <ele>36.599998474121</ele>
        <time>2021-03-04T08:48:43.000Z</time>
      </trkpt>
      <trkpt lat="47.29774" lon="-2.35799">
        <ele>36.599998474121</ele>
        <time>2021-03-04T08:48:47.000Z</time>
      </trkpt>
      <trkpt lat="47.29778" lon="-2.35797">
        <ele>37</ele>
        <time>2021-03-04T08:48:48.000Z</time>
      </trkpt>
      <trkpt lat="47.29782" lon="-2.35796">
        <ele>37.400001525879</ele>
        <time>2021-03-04T08:48:49.000Z</time>
      </trkpt>
      <trkpt lat="47.29787" lon="-2.35794">
        <ele>37.799999237061</ele>
        <time>2021-03-04T08:48:50.000Z</time>
      </trkpt>
      <trkpt lat="47.29791" lon="-2.35793">
        <ele>38.200000762939</ele>
        <time>2021-03-04T08:48:51.000Z</time>
      </trkpt>
      <trkpt lat="47.29796" lon="-2.35791">
        <ele>38.599998474121</ele>
        <time>2021-03-04T08:48:52.000Z</time>
      </trkpt>
      <trkpt lat="47.29808" lon="-2.35788">
        <ele>38.599998474121</ele>
        <time>2021-03-04T08:48:55.000Z</time>
      </trkpt>
      <trkpt lat="47.29843" lon="-2.35774">
        <ele>38.599998474121</ele>
        <time>2021-03-04T08:49:02.000Z</time>
      </trkpt>
      <trkpt lat="47.29866" lon="-2.35767">
        <ele>38.200000762939</ele>
        <time>2021-03-04T08:49:06.000Z</time>
      </trkpt>
      <trkpt lat="47.29871" lon="-2.35765">
        <ele>37.799999237061</ele>
        <time>2021-03-04T08:49:07.000Z</time>
      </trkpt>
      <trkpt lat="47.29876" lon="-2.35762">
        <ele>37.400001525879</ele>
        <time>2021-03-04T08:49:08.000Z</time>
      </trkpt>
      <trkpt lat="47.29881" lon="-2.3576">
        <ele>36.599998474121</ele>
        <time>2021-03-04T08:49:09.000Z</time>
      </trkpt>
      <trkpt lat="47.29916" lon="-2.35739">
        <ele>36.599998474121</ele>
        <time>2021-03-04T08:49:16.000Z</time>
      </trkpt>
      <trkpt lat="47.29953" lon="-2.35709">
        <ele>36.599998474121</ele>
        <time>2021-03-04T08:49:24.000Z</time>
      </trkpt>
      <trkpt lat="47.29989" lon="-2.35687">
        <ele>36.599998474121</ele>
        <time>2021-03-04T08:49:31.000Z</time>
      </trkpt>
      <trkpt lat="47.30027" lon="-2.35663">
        <ele>36.599998474121</ele>
        <time>2021-03-04T08:49:38.000Z</time>
      </trkpt>
      <trkpt lat="47.30049" lon="-2.35649">
        <ele>37</ele>
        <time>2021-03-04T08:49:42.000Z</time>
      </trkpt>
      <trkpt lat="47.30054" lon="-2.35646">
        <ele>37.400001525879</ele>
        <time>2021-03-04T08:49:43.000Z</time>
      </trkpt>
      <trkpt lat="47.3006" lon="-2.35642">
        <ele>37.799999237061</ele>
        <time>2021-03-04T08:49:44.000Z</time>
      </trkpt>
      <trkpt lat="47.30065" lon="-2.35639">
        <ele>38.200000762939</ele>
        <time>2021-03-04T08:49:45.000Z</time>
      </trkpt>
      <trkpt lat="47.30071" lon="-2.35636">
        <ele>38.599998474121</ele>
        <time>2021-03-04T08:49:46.000Z</time>
      </trkpt>
      <trkpt lat="47.30109" lon="-2.35613">
        <ele>38.599998474121</ele>
        <time>2021-03-04T08:49:54.000Z</time>
      </trkpt>
      <trkpt lat="47.3012" lon="-2.35604">
        <ele>38.599998474121</ele>
        <time>2021-03-04T08:49:57.000Z</time>
      </trkpt>
      <trkpt lat="47.3013" lon="-2.35596">
        <ele>38.599998474121</ele>
        <time>2021-03-04T08:50:00.000Z</time>
      </trkpt>
      <trkpt lat="47.30138" lon="-2.35607">
        <ele>38.599998474121</ele>
        <time>2021-03-04T08:50:03.000Z</time>
      </trkpt>
      <trkpt lat="47.30134" lon="-2.35627">
        <ele>38.599998474121</ele>
        <time>2021-03-04T08:50:06.000Z</time>
      </trkpt>
      <trkpt lat="47.30133" lon="-2.35635">
        <ele>38.599998474121</ele>
        <time>2021-03-04T08:50:07.000Z</time>
      </trkpt>
      <trkpt lat="47.30134" lon="-2.35658">
        <ele>38.599998474121</ele>
        <time>2021-03-04T08:50:10.000Z</time>
      </trkpt>
      <trkpt lat="47.30138" lon="-2.35718">
        <ele>38.599998474121</ele>
        <time>2021-03-04T08:50:17.000Z</time>
      </trkpt>
      <trkpt lat="47.30143" lon="-2.35792">
        <ele>38.599998474121</ele>
        <time>2021-03-04T08:50:24.000Z</time>
      </trkpt>
      <trkpt lat="47.30137" lon="-2.3586">
        <ele>38.599998474121</ele>
        <time>2021-03-04T08:50:30.000Z</time>
      </trkpt>
      <trkpt lat="47.30133" lon="-2.35882">
        <ele>38.200000762939</ele>
        <time>2021-03-04T08:50:32.000Z</time>
      </trkpt>
      <trkpt lat="47.3013" lon="-2.35893">
        <ele>37.799999237061</ele>
        <time>2021-03-04T08:50:33.000Z</time>
      </trkpt>
      <trkpt lat="47.30127" lon="-2.35903">
        <ele>37.400001525879</ele>
        <time>2021-03-04T08:50:34.000Z</time>
      </trkpt>
      <trkpt lat="47.30125" lon="-2.35915">
        <ele>37</ele>
        <time>2021-03-04T08:50:35.000Z</time>
      </trkpt>
      <trkpt lat="47.30122" lon="-2.35926">
        <ele>36.599998474121</ele>
        <time>2021-03-04T08:50:36.000Z</time>
      </trkpt>
      <trkpt lat="47.30116" lon="-2.35959">
        <ele>36.599998474121</ele>
        <time>2021-03-04T08:50:39.000Z</time>
      </trkpt>
      <trkpt lat="47.30106" lon="-2.36017">
        <ele>36.200000762939</ele>
        <time>2021-03-04T08:50:44.000Z</time>
      </trkpt>
      <trkpt lat="47.30105" lon="-2.36028">
        <ele>35.799999237061</ele>
        <time>2021-03-04T08:50:45.000Z</time>
      </trkpt>
      <trkpt lat="47.30104" lon="-2.3604">
        <ele>35.400001525879</ele>
        <time>2021-03-04T08:50:46.000Z</time>
      </trkpt>
      <trkpt lat="47.30103" lon="-2.36052">
        <ele>35</ele>
        <time>2021-03-04T08:50:47.000Z</time>
      </trkpt>
      <trkpt lat="47.30101" lon="-2.36064">
        <ele>34.599998474121</ele>
        <time>2021-03-04T08:50:48.000Z</time>
      </trkpt>
      <trkpt lat="47.30094" lon="-2.3613">
        <ele>34.599998474121</ele>
        <time>2021-03-04T08:50:54.000Z</time>
      </trkpt>
      <trkpt lat="47.30087" lon="-2.3621">
        <ele>34.599998474121</ele>
        <time>2021-03-04T08:51:02.000Z</time>
      </trkpt>
      <trkpt lat="47.3009" lon="-2.36264">
        <ele>34.599998474121</ele>
        <time>2021-03-04T08:51:08.000Z</time>
      </trkpt>
      <trkpt lat="47.30095" lon="-2.3632">
        <ele>34.599998474121</ele>
        <time>2021-03-04T08:51:15.000Z</time>
      </trkpt>
      <trkpt lat="47.301" lon="-2.36367">
        <ele>34.599998474121</ele>
        <time>2021-03-04T08:51:22.000Z</time>
      </trkpt>
      <trkpt lat="47.30104" lon="-2.36416">
        <ele>34.599998474121</ele>
        <time>2021-03-04T08:51:29.000Z</time>
      </trkpt>
      <trkpt lat="47.30105" lon="-2.36424">
        <ele>35</ele>
        <time>2021-03-04T08:51:30.000Z</time>
      </trkpt>
      <trkpt lat="47.30106" lon="-2.36431">
        <ele>35.400001525879</ele>
        <time>2021-03-04T08:51:31.000Z</time>
      </trkpt>
      <trkpt lat="47.30107" lon="-2.36439">
        <ele>35.799999237061</ele>
        <time>2021-03-04T08:51:32.000Z</time>
      </trkpt>
      <trkpt lat="47.30108" lon="-2.36447">
        <ele>36.200000762939</ele>
        <time>2021-03-04T08:51:33.000Z</time>
      </trkpt>
      <trkpt lat="47.30109" lon="-2.36454">
        <ele>36.599998474121</ele>
        <time>2021-03-04T08:51:34.000Z</time>
      </trkpt>
      <trkpt lat="47.30111" lon="-2.3647">
        <ele>36.599998474121</ele>
        <time>2021-03-04T08:51:36.000Z</time>
      </trkpt>
      <trkpt lat="47.30121" lon="-2.36539">
        <ele>36.599998474121</ele>
        <time>2021-03-04T08:51:45.000Z</time>
      </trkpt>
      <trkpt lat="47.30126" lon="-2.36578">
        <ele>37</ele>
        <time>2021-03-04T08:51:51.000Z</time>
      </trkpt>
      <trkpt lat="47.30127" lon="-2.36584">
        <ele>37.400001525879</ele>
        <time>2021-03-04T08:51:52.000Z</time>
      </trkpt>
      <trkpt lat="47.30128" lon="-2.36591">
        <ele>37.799999237061</ele>
        <time>2021-03-04T08:51:53.000Z</time>
      </trkpt>
      <trkpt lat="47.3013" lon="-2.36598">
        <ele>38.200000762939</ele>
        <time>2021-03-04T08:51:54.000Z</time>
      </trkpt>
      <trkpt lat="47.30131" lon="-2.36604">
        <ele>38.599998474121</ele>
        <time>2021-03-04T08:51:55.000Z</time>
      </trkpt>
      <trkpt lat="47.3014" lon="-2.3663">
        <ele>38.599998474121</ele>
        <time>2021-03-04T08:51:59.000Z</time>
      </trkpt>
      <trkpt lat="47.30159" lon="-2.36671">
        <ele>38.599998474121</ele>
        <time>2021-03-04T08:52:07.000Z</time>
      </trkpt>
      <trkpt lat="47.30168" lon="-2.36682">
        <ele>39</ele>
        <time>2021-03-04T08:52:11.000Z</time>
      </trkpt>
      <trkpt lat="47.3017" lon="-2.36683">
        <ele>39.400001525879</ele>
        <time>2021-03-04T08:52:12.000Z</time>
      </trkpt>
      <trkpt lat="47.30171" lon="-2.36682">
        <ele>39.799999237061</ele>
        <time>2021-03-04T08:52:13.000Z</time>
      </trkpt>
      <trkpt lat="47.30172" lon="-2.36682">
        <ele>40.200000762939</ele>
        <time>2021-03-04T08:52:14.000Z</time>
      </trkpt>
      <trkpt lat="47.30173" lon="-2.36682">
        <ele>40.599998474121</ele>
        <time>2021-03-04T08:52:15.000Z</time>
      </trkpt>
      <trkpt lat="47.30183" lon="-2.36677">
        <ele>40.599998474121</ele>
        <time>2021-03-04T08:52:45.000Z</time>
      </trkpt>
      <trkpt lat="47.30195" lon="-2.36672">
        <ele>40.599998474121</ele>
        <time>2021-03-04T08:52:51.000Z</time>
      </trkpt>
      <trkpt lat="47.30213" lon="-2.3667">
        <ele>40.599998474121</ele>
        <time>2021-03-04T08:52:56.000Z</time>
      </trkpt>
      <trkpt lat="47.3024" lon="-2.36666">
        <ele>40.599998474121</ele>
        <time>2021-03-04T08:53:02.000Z</time>
      </trkpt>
      <trkpt lat="47.30269" lon="-2.36659">
        <ele>40.599998474121</ele>
        <time>2021-03-04T08:53:09.000Z</time>
      </trkpt>
      <trkpt lat="47.30289" lon="-2.3665">
        <ele>40.599998474121</ele>
        <time>2021-03-04T08:53:15.000Z</time>
      </trkpt>
      <trkpt lat="47.30305" lon="-2.36645">
        <ele>40.599998474121</ele>
        <time>2021-03-04T08:53:20.000Z</time>
      </trkpt>
      <trkpt lat="47.30327" lon="-2.36648">
        <ele>40.599998474121</ele>
        <time>2021-03-04T08:53:26.000Z</time>
      </trkpt>
      <trkpt lat="47.30345" lon="-2.36654">
        <ele>41</ele>
        <time>2021-03-04T08:53:31.000Z</time>
      </trkpt>
      <trkpt lat="47.30349" lon="-2.36654">
        <ele>41.400001525879</ele>
        <time>2021-03-04T08:53:32.000Z</time>
      </trkpt>
      <trkpt lat="47.30353" lon="-2.36654">
        <ele>41.799999237061</ele>
        <time>2021-03-04T08:53:33.000Z</time>
      </trkpt>
      <trkpt lat="47.30357" lon="-2.36654">
        <ele>42.400001525879</ele>
        <time>2021-03-04T08:53:34.000Z</time>
      </trkpt>
      <trkpt lat="47.30361" lon="-2.36654">
        <ele>42.799999237061</ele>
        <time>2021-03-04T08:53:35.000Z</time>
      </trkpt>
      <trkpt lat="47.3037" lon="-2.36655">
        <ele>42.799999237061</ele>
        <time>2021-03-04T08:53:38.000Z</time>
      </trkpt>
      <trkpt lat="47.30391" lon="-2.36656">
        <ele>42.799999237061</ele>
        <time>2021-03-04T08:53:44.000Z</time>
      </trkpt>
      <trkpt lat="47.30398" lon="-2.36656">
        <ele>43.200000762939</ele>
        <time>2021-03-04T08:53:46.000Z</time>
      </trkpt>
      <trkpt lat="47.30402" lon="-2.36655">
        <ele>43.599998474121</ele>
        <time>2021-03-04T08:53:47.000Z</time>
      </trkpt>
      <trkpt lat="47.30405" lon="-2.36654">
        <ele>44</ele>
        <time>2021-03-04T08:53:48.000Z</time>
      </trkpt>
      <trkpt lat="47.30409" lon="-2.36654">
        <ele>44.400001525879</ele>
        <time>2021-03-04T08:53:49.000Z</time>
      </trkpt>
      <trkpt lat="47.30413" lon="-2.36653">
        <ele>44.799999237061</ele>
        <time>2021-03-04T08:53:50.000Z</time>
      </trkpt>
      <trkpt lat="47.30435" lon="-2.36638">
        <ele>44.799999237061</ele>
        <time>2021-03-04T08:53:56.000Z</time>
      </trkpt>
      <trkpt lat="47.3045" lon="-2.36625">
        <ele>44.799999237061</ele>
        <time>2021-03-04T08:54:00.000Z</time>
      </trkpt>
      <trkpt lat="47.30457" lon="-2.3662">
        <ele>44.799999237061</ele>
        <time>2021-03-04T08:54:02.000Z</time>
      </trkpt>
      <trkpt lat="47.30474" lon="-2.3661">
        <ele>44.799999237061</ele>
        <time>2021-03-04T08:54:08.000Z</time>
      </trkpt>
      <trkpt lat="47.30479" lon="-2.36607">
        <ele>44.799999237061</ele>
        <time>2021-03-04T08:54:13.000Z</time>
      </trkpt>
      <trkpt lat="47.30486" lon="-2.36605">
        <ele>44.799999237061</ele>
        <time>2021-03-04T08:54:18.000Z</time>
      </trkpt>
      <trkpt lat="47.30487" lon="-2.36604">
        <ele>44.799999237061</ele>
        <time>2021-03-04T08:54:19.000Z</time>
      </trkpt>
      <trkpt lat="47.30497" lon="-2.36601">
        <ele>44.799999237061</ele>
        <time>2021-03-04T08:54:26.000Z</time>
      </trkpt>
      <trkpt lat="47.30514" lon="-2.36596">
        <ele>44.799999237061</ele>
        <time>2021-03-04T08:54:32.000Z</time>
      </trkpt>
      <trkpt lat="47.30535" lon="-2.36582">
        <ele>44.799999237061</ele>
        <time>2021-03-04T08:54:38.000Z</time>
      </trkpt>
      <trkpt lat="47.30547" lon="-2.36574">
        <ele>44.799999237061</ele>
        <time>2021-03-04T08:54:43.000Z</time>
      </trkpt>
      <trkpt lat="47.30557" lon="-2.36565">
        <ele>44.799999237061</ele>
        <time>2021-03-04T08:54:49.000Z</time>
      </trkpt>
      <trkpt lat="47.3057" lon="-2.36557">
        <ele>44.799999237061</ele>
        <time>2021-03-04T08:54:55.000Z</time>
      </trkpt>
      <trkpt lat="47.30589" lon="-2.36549">
        <ele>44.799999237061</ele>
        <time>2021-03-04T08:55:01.000Z</time>
      </trkpt>
      <trkpt lat="47.30612" lon="-2.36543">
        <ele>44.799999237061</ele>
        <time>2021-03-04T08:55:07.000Z</time>
      </trkpt>
      <trkpt lat="47.30643" lon="-2.36532">
        <ele>44.799999237061</ele>
        <time>2021-03-04T08:55:14.000Z</time>
      </trkpt>
      <trkpt lat="47.30677" lon="-2.36514">
        <ele>44.799999237061</ele>
        <time>2021-03-04T08:55:22.000Z</time>
      </trkpt>
      <trkpt lat="47.30694" lon="-2.36511">
        <ele>44.799999237061</ele>
        <time>2021-03-04T08:55:27.000Z</time>
      </trkpt>
      <trkpt lat="47.307" lon="-2.36519">
        <ele>44.799999237061</ele>
        <time>2021-03-04T08:55:32.000Z</time>
      </trkpt>
      <trkpt lat="47.30704" lon="-2.36521">
        <ele>44.799999237061</ele>
        <time>2021-03-04T08:55:34.000Z</time>
      </trkpt>
      <trkpt lat="47.30709" lon="-2.36517">
        <ele>44.799999237061</ele>
        <time>2021-03-04T08:55:36.000Z</time>
      </trkpt>
      <trkpt lat="47.30725" lon="-2.36499">
        <ele>44.799999237061</ele>
        <time>2021-03-04T08:55:41.000Z</time>
      </trkpt>
      <trkpt lat="47.3073" lon="-2.36496">
        <ele>44.799999237061</ele>
        <time>2021-03-04T08:55:42.000Z</time>
      </trkpt>
      <trkpt lat="47.30734" lon="-2.36494">
        <ele>44.400001525879</ele>
        <time>2021-03-04T08:55:43.000Z</time>
      </trkpt>
      <trkpt lat="47.30739" lon="-2.36492">
        <ele>43.599998474121</ele>
        <time>2021-03-04T08:55:44.000Z</time>
      </trkpt>
      <trkpt lat="47.30744" lon="-2.36491">
        <ele>43.200000762939</ele>
        <time>2021-03-04T08:55:45.000Z</time>
      </trkpt>
      <trkpt lat="47.30749" lon="-2.36488">
        <ele>42.799999237061</ele>
        <time>2021-03-04T08:55:46.000Z</time>
      </trkpt>
      <trkpt lat="47.30784" lon="-2.36478">
        <ele>42.799999237061</ele>
        <time>2021-03-04T08:55:53.000Z</time>
      </trkpt>
      <trkpt lat="47.30795" lon="-2.36476">
        <ele>42.799999237061</ele>
        <time>2021-03-04T08:55:55.000Z</time>
      </trkpt>
      <trkpt lat="47.30805" lon="-2.36472">
        <ele>42.400001525879</ele>
        <time>2021-03-04T08:55:57.000Z</time>
      </trkpt>
      <trkpt lat="47.3081" lon="-2.36472">
        <ele>42</ele>
        <time>2021-03-04T08:55:58.000Z</time>
      </trkpt>
      <trkpt lat="47.30815" lon="-2.36474">
        <ele>41.599998474121</ele>
        <time>2021-03-04T08:55:59.000Z</time>
      </trkpt>
      <trkpt lat="47.3082" lon="-2.36477">
        <ele>41.200000762939</ele>
        <time>2021-03-04T08:56:00.000Z</time>
      </trkpt>
      <trkpt lat="47.30824" lon="-2.36481">
        <ele>40.799999237061</ele>
        <time>2021-03-04T08:56:01.000Z</time>
      </trkpt>
      <trkpt lat="47.30844" lon="-2.36485">
        <ele>40.799999237061</ele>
        <time>2021-03-04T08:56:05.000Z</time>
      </trkpt>
      <trkpt lat="47.3085" lon="-2.36484">
        <ele>40.799999237061</ele>
        <time>2021-03-04T08:56:06.000Z</time>
      </trkpt>
      <trkpt lat="47.30874" lon="-2.36479">
        <ele>40.799999237061</ele>
        <time>2021-03-04T08:56:10.000Z</time>
      </trkpt>
      <trkpt lat="47.3088" lon="-2.36478">
        <ele>40.799999237061</ele>
        <time>2021-03-04T08:56:11.000Z</time>
      </trkpt>
      <trkpt lat="47.30909" lon="-2.36467">
        <ele>40.799999237061</ele>
        <time>2021-03-04T08:56:16.000Z</time>
      </trkpt>
      <trkpt lat="47.30951" lon="-2.36455">
        <ele>40.799999237061</ele>
        <time>2021-03-04T08:56:23.000Z</time>
      </trkpt>
      <trkpt lat="47.30979" lon="-2.36443">
        <ele>40.799999237061</ele>
        <time>2021-03-04T08:56:28.000Z</time>
      </trkpt>
      <trkpt lat="47.31006" lon="-2.36429">
        <ele>40.799999237061</ele>
        <time>2021-03-04T08:56:33.000Z</time>
      </trkpt>
      <trkpt lat="47.31041" lon="-2.36419">
        <ele>40.799999237061</ele>
        <time>2021-03-04T08:56:39.000Z</time>
      </trkpt>
      <trkpt lat="47.31077" lon="-2.36417">
        <ele>40.400001525879</ele>
        <time>2021-03-04T08:56:45.000Z</time>
      </trkpt>
      <trkpt lat="47.31081" lon="-2.36416">
        <ele>40</ele>
        <time>2021-03-04T08:56:46.000Z</time>
      </trkpt>
      <trkpt lat="47.31084" lon="-2.36416">
        <ele>39.599998474121</ele>
        <time>2021-03-04T08:56:47.000Z</time>
      </trkpt>
      <trkpt lat="47.31086" lon="-2.36416">
        <ele>39.200000762939</ele>
        <time>2021-03-04T08:56:48.000Z</time>
      </trkpt>
      <trkpt lat="47.31088" lon="-2.36417">
        <ele>38.599998474121</ele>
        <time>2021-03-04T08:56:49.000Z</time>
      </trkpt>
      <trkpt lat="47.31102" lon="-2.36413">
        <ele>38.599998474121</ele>
        <time>2021-03-04T08:56:54.000Z</time>
      </trkpt>
      <trkpt lat="47.31107" lon="-2.36411">
        <ele>38.599998474121</ele>
        <time>2021-03-04T08:56:55.000Z</time>
      </trkpt>
      <trkpt lat="47.3112" lon="-2.36401">
        <ele>38.599998474121</ele>
        <time>2021-03-04T08:56:58.000Z</time>
      </trkpt>
      <trkpt lat="47.31125" lon="-2.36398">
        <ele>38.599998474121</ele>
        <time>2021-03-04T08:56:59.000Z</time>
      </trkpt>
      <trkpt lat="47.31171" lon="-2.36365">
        <ele>38.599998474121</ele>
        <time>2021-03-04T08:57:08.000Z</time>
      </trkpt>
      <trkpt lat="47.31201" lon="-2.36347">
        <ele>38.599998474121</ele>
        <time>2021-03-04T08:57:14.000Z</time>
      </trkpt>
      <trkpt lat="47.31236" lon="-2.36328">
        <ele>38.599998474121</ele>
        <time>2021-03-04T08:57:21.000Z</time>
      </trkpt>
      <trkpt lat="47.31241" lon="-2.36324">
        <ele>38.599998474121</ele>
        <time>2021-03-04T08:57:22.000Z</time>
      </trkpt>
      <trkpt lat="47.31267" lon="-2.36308">
        <ele>38.599998474121</ele>
        <time>2021-03-04T08:57:28.000Z</time>
      </trkpt>
      <trkpt lat="47.31287" lon="-2.36302">
        <ele>38.599998474121</ele>
        <time>2021-03-04T08:57:32.000Z</time>
      </trkpt>
      <trkpt lat="47.31296" lon="-2.36298">
        <ele>38.599998474121</ele>
        <time>2021-03-04T08:57:34.000Z</time>
      </trkpt>
      <trkpt lat="47.313" lon="-2.36295">
        <ele>38.599998474121</ele>
        <time>2021-03-04T08:57:35.000Z</time>
      </trkpt>
      <trkpt lat="47.31317" lon="-2.36283">
        <ele>39</ele>
        <time>2021-03-04T08:57:39.000Z</time>
      </trkpt>
      <trkpt lat="47.31321" lon="-2.3628">
        <ele>39.599998474121</ele>
        <time>2021-03-04T08:57:40.000Z</time>
      </trkpt>
      <trkpt lat="47.31325" lon="-2.36276">
        <ele>40</ele>
        <time>2021-03-04T08:57:41.000Z</time>
      </trkpt>
      <trkpt lat="47.31329" lon="-2.36272">
        <ele>40.400001525879</ele>
        <time>2021-03-04T08:57:42.000Z</time>
      </trkpt>
      <trkpt lat="47.31333" lon="-2.36268">
        <ele>40.799999237061</ele>
        <time>2021-03-04T08:57:43.000Z</time>
      </trkpt>
      <trkpt lat="47.31349" lon="-2.36253">
        <ele>40.799999237061</ele>
        <time>2021-03-04T08:57:47.000Z</time>
      </trkpt>
      <trkpt lat="47.31357" lon="-2.36246">
        <ele>40.799999237061</ele>
        <time>2021-03-04T08:57:49.000Z</time>
      </trkpt>
      <trkpt lat="47.31378" lon="-2.36231">
        <ele>40.799999237061</ele>
        <time>2021-03-04T08:57:54.000Z</time>
      </trkpt>
      <trkpt lat="47.31413" lon="-2.36214">
        <ele>40.799999237061</ele>
        <time>2021-03-04T08:58:01.000Z</time>
      </trkpt>
      <trkpt lat="47.31445" lon="-2.36192">
        <ele>40.799999237061</ele>
        <time>2021-03-04T08:58:07.000Z</time>
      </trkpt>
      <trkpt lat="47.3146" lon="-2.3618">
        <ele>40.799999237061</ele>
        <time>2021-03-04T08:58:10.000Z</time>
      </trkpt>
      <trkpt lat="47.31468" lon="-2.3617">
        <ele>40.799999237061</ele>
        <time>2021-03-04T08:58:12.000Z</time>
      </trkpt>
      <trkpt lat="47.31498" lon="-2.36137">
        <ele>40.799999237061</ele>
        <time>2021-03-04T08:58:19.000Z</time>
      </trkpt>
      <trkpt lat="47.31526" lon="-2.36106">
        <ele>40.799999237061</ele>
        <time>2021-03-04T08:58:25.000Z</time>
      </trkpt>
      <trkpt lat="47.31553" lon="-2.36076">
        <ele>40.799999237061</ele>
        <time>2021-03-04T08:58:31.000Z</time>
      </trkpt>
      <trkpt lat="47.31574" lon="-2.36056">
        <ele>40.799999237061</ele>
        <time>2021-03-04T08:58:36.000Z</time>
      </trkpt>
      <trkpt lat="47.31578" lon="-2.36052">
        <ele>40</ele>
        <time>2021-03-04T08:58:37.000Z</time>
      </trkpt>
      <trkpt lat="47.31581" lon="-2.36048">
        <ele>39.400001525879</ele>
        <time>2021-03-04T08:58:38.000Z</time>
      </trkpt>
      <trkpt lat="47.31585" lon="-2.36044">
        <ele>39</ele>
        <time>2021-03-04T08:58:39.000Z</time>
      </trkpt>
      <trkpt lat="47.31589" lon="-2.3604">
        <ele>38.599998474121</ele>
        <time>2021-03-04T08:58:40.000Z</time>
      </trkpt>
      <trkpt lat="47.31596" lon="-2.36033">
        <ele>38.599998474121</ele>
        <time>2021-03-04T08:58:42.000Z</time>
      </trkpt>
      <trkpt lat="47.31615" lon="-2.36011">
        <ele>38.599998474121</ele>
        <time>2021-03-04T08:58:47.000Z</time>
      </trkpt>
      <trkpt lat="47.31619" lon="-2.36007">
        <ele>38.599998474121</ele>
        <time>2021-03-04T08:58:48.000Z</time>
      </trkpt>
      <trkpt lat="47.31646" lon="-2.3598">
        <ele>38.200000762939</ele>
        <time>2021-03-04T08:58:55.000Z</time>
      </trkpt>
      <trkpt lat="47.3165" lon="-2.35977">
        <ele>37.799999237061</ele>
        <time>2021-03-04T08:58:56.000Z</time>
      </trkpt>
      <trkpt lat="47.31654" lon="-2.35974">
        <ele>37.400001525879</ele>
        <time>2021-03-04T08:58:57.000Z</time>
      </trkpt>
      <trkpt lat="47.31659" lon="-2.3597">
        <ele>37</ele>
        <time>2021-03-04T08:58:58.000Z</time>
      </trkpt>
      <trkpt lat="47.31663" lon="-2.35968">
        <ele>36.599998474121</ele>
        <time>2021-03-04T08:58:59.000Z</time>
      </trkpt>
      <trkpt lat="47.31673" lon="-2.35962">
        <ele>36.599998474121</ele>
        <time>2021-03-04T08:59:01.000Z</time>
      </trkpt>
      <trkpt lat="47.31697" lon="-2.35946">
        <ele>36.599998474121</ele>
        <time>2021-03-04T08:59:06.000Z</time>
      </trkpt>
      <trkpt lat="47.31702" lon="-2.35944">
        <ele>36.599998474121</ele>
        <time>2021-03-04T08:59:07.000Z</time>
      </trkpt>
      <trkpt lat="47.31726" lon="-2.3593">
        <ele>36.200000762939</ele>
        <time>2021-03-04T08:59:12.000Z</time>
      </trkpt>
      <trkpt lat="47.31731" lon="-2.35927">
        <ele>35.799999237061</ele>
        <time>2021-03-04T08:59:13.000Z</time>
      </trkpt>
      <trkpt lat="47.31737" lon="-2.35923">
        <ele>35.400001525879</ele>
        <time>2021-03-04T08:59:14.000Z</time>
      </trkpt>
      <trkpt lat="47.31741" lon="-2.3592">
        <ele>35</ele>
        <time>2021-03-04T08:59:15.000Z</time>
      </trkpt>
      <trkpt lat="47.31746" lon="-2.35918">
        <ele>34.599998474121</ele>
        <time>2021-03-04T08:59:16.000Z</time>
      </trkpt>
      <trkpt lat="47.3175" lon="-2.35916">
        <ele>34.599998474121</ele>
        <time>2021-03-04T08:59:17.000Z</time>
      </trkpt>
      <trkpt lat="47.31757" lon="-2.35914">
        <ele>34.599998474121</ele>
        <time>2021-03-04T08:59:19.000Z</time>
      </trkpt>
      <trkpt lat="47.31765" lon="-2.3591">
        <ele>34.599998474121</ele>
        <time>2021-03-04T08:59:23.000Z</time>
      </trkpt>
      <trkpt lat="47.31767" lon="-2.3591">
        <ele>34.200000762939</ele>
        <time>2021-03-04T08:59:24.000Z</time>
      </trkpt>
      <trkpt lat="47.31769" lon="-2.35909">
        <ele>33.799999237061</ele>
        <time>2021-03-04T08:59:25.000Z</time>
      </trkpt>
      <trkpt lat="47.31771" lon="-2.35908">
        <ele>33.400001525879</ele>
        <time>2021-03-04T08:59:26.000Z</time>
      </trkpt>
      <trkpt lat="47.31772" lon="-2.35907">
        <ele>32.599998474121</ele>
        <time>2021-03-04T08:59:27.000Z</time>
      </trkpt>
      <trkpt lat="47.31776" lon="-2.35904">
        <ele>32.599998474121</ele>
        <time>2021-03-04T08:59:29.000Z</time>
      </trkpt>
      <trkpt lat="47.3179" lon="-2.35897">
        <ele>32.599998474121</ele>
        <time>2021-03-04T08:59:37.000Z</time>
      </trkpt>
      <trkpt lat="47.31791" lon="-2.35897">
        <ele>32.599998474121</ele>
        <time>2021-03-04T08:59:40.000Z</time>
      </trkpt>
      <trkpt lat="47.31794" lon="-2.35895">
        <ele>33.599998474121</ele>
        <time>2021-03-04T08:59:48.000Z</time>
      </trkpt>
      <trkpt lat="47.31797" lon="-2.35894">
        <ele>33.799999237061</ele>
        <time>2021-03-04T08:59:49.000Z</time>
      </trkpt>
      <trkpt lat="47.31814" lon="-2.35882">
        <ele>33.799999237061</ele>
        <time>2021-03-04T08:59:56.000Z</time>
      </trkpt>
      <trkpt lat="47.3182" lon="-2.35873">
        <ele>33.799999237061</ele>
        <time>2021-03-04T09:00:01.000Z</time>
      </trkpt>
      <trkpt lat="47.31819" lon="-2.35863">
        <ele>33.799999237061</ele>
        <time>2021-03-04T09:00:07.000Z</time>
      </trkpt>
      <trkpt lat="47.31819" lon="-2.35861">
        <ele>33.799999237061</ele>
        <time>2021-03-04T09:00:08.000Z</time>
      </trkpt>
      <trkpt lat="47.31819" lon="-2.35855">
        <ele>33.799999237061</ele>
        <time>2021-03-04T09:00:14.000Z</time>
      </trkpt>
      <trkpt lat="47.31818" lon="-2.35851">
        <ele>33.400001525879</ele>
        <time>2021-03-04T09:00:17.000Z</time>
      </trkpt>
      <trkpt lat="47.31817" lon="-2.35851">
        <ele>33</ele>
        <time>2021-03-04T09:00:18.000Z</time>
      </trkpt>
      <trkpt lat="47.31817" lon="-2.3585">
        <ele>32.599998474121</ele>
        <time>2021-03-04T09:00:19.000Z</time>
      </trkpt>
      <trkpt lat="47.31817" lon="-2.3585">
        <ele>32.200000762939</ele>
        <time>2021-03-04T09:00:20.000Z</time>
      </trkpt>
      <trkpt lat="47.31816" lon="-2.35848">
        <ele>31.799999237061</ele>
        <time>2021-03-04T09:00:21.000Z</time>
      </trkpt>
      <trkpt lat="47.31809" lon="-2.35836">
        <ele>31.799999237061</ele>
        <time>2021-03-04T09:00:26.000Z</time>
      </trkpt>
      <trkpt lat="47.31794" lon="-2.35818">
        <ele>31.799999237061</ele>
        <time>2021-03-04T09:00:33.000Z</time>
      </trkpt>
      <trkpt lat="47.31785" lon="-2.35797">
        <ele>31.799999237061</ele>
        <time>2021-03-04T09:00:39.000Z</time>
      </trkpt>
      <trkpt lat="47.31784" lon="-2.35766">
        <ele>31.799999237061</ele>
        <time>2021-03-04T09:00:45.000Z</time>
      </trkpt>
      <trkpt lat="47.31785" lon="-2.35726">
        <ele>31.799999237061</ele>
        <time>2021-03-04T09:00:51.000Z</time>
      </trkpt>
      <trkpt lat="47.31787" lon="-2.35693">
        <ele>31.799999237061</ele>
        <time>2021-03-04T09:00:56.000Z</time>
      </trkpt>
      <trkpt lat="47.31787" lon="-2.3568">
        <ele>31.39999961853</ele>
        <time>2021-03-04T09:00:58.000Z</time>
      </trkpt>
      <trkpt lat="47.31787" lon="-2.35675">
        <ele>31</ele>
        <time>2021-03-04T09:00:59.000Z</time>
      </trkpt>
      <trkpt lat="47.31787" lon="-2.3567">
        <ele>30.60000038147</ele>
        <time>2021-03-04T09:01:00.000Z</time>
      </trkpt>
      <trkpt lat="47.31788" lon="-2.35666">
        <ele>30.200000762939</ele>
        <time>2021-03-04T09:01:01.000Z</time>
      </trkpt>
      <trkpt lat="47.31788" lon="-2.35663">
        <ele>29.799999237061</ele>
        <time>2021-03-04T09:01:02.000Z</time>
      </trkpt>
      <trkpt lat="47.31787" lon="-2.35653">
        <ele>29.799999237061</ele>
        <time>2021-03-04T09:01:06.000Z</time>
      </trkpt>
      <trkpt lat="47.31788" lon="-2.35643">
        <ele>29.39999961853</ele>
        <time>2021-03-04T09:01:09.000Z</time>
      </trkpt>
      <trkpt lat="47.31788" lon="-2.3564">
        <ele>29</ele>
        <time>2021-03-04T09:01:10.000Z</time>
      </trkpt>
      <trkpt lat="47.31788" lon="-2.35637">
        <ele>28.60000038147</ele>
        <time>2021-03-04T09:01:11.000Z</time>
      </trkpt>
      <trkpt lat="47.31788" lon="-2.35634">
        <ele>28.200000762939</ele>
        <time>2021-03-04T09:01:12.000Z</time>
      </trkpt>
      <trkpt lat="47.31789" lon="-2.35631">
        <ele>27.799999237061</ele>
        <time>2021-03-04T09:01:13.000Z</time>
      </trkpt>
      <trkpt lat="47.31795" lon="-2.35615">
        <ele>27.799999237061</ele>
        <time>2021-03-04T09:01:18.000Z</time>
      </trkpt>
      <trkpt lat="47.31803" lon="-2.35597">
        <ele>27.799999237061</ele>
        <time>2021-03-04T09:01:23.000Z</time>
      </trkpt>
      <trkpt lat="47.31805" lon="-2.35594">
        <ele>27.799999237061</ele>
        <time>2021-03-04T09:01:24.000Z</time>
      </trkpt>
      <trkpt lat="47.31807" lon="-2.35588">
        <ele>27.799999237061</ele>
        <time>2021-03-04T09:01:26.000Z</time>
      </trkpt>
      <trkpt lat="47.31811" lon="-2.35584">
        <ele>27.799999237061</ele>
        <time>2021-03-04T09:01:28.000Z</time>
      </trkpt>
      <trkpt lat="47.31812" lon="-2.35582">
        <ele>27.799999237061</ele>
        <time>2021-03-04T09:01:29.000Z</time>
      </trkpt>
      <trkpt lat="47.31825" lon="-2.35568">
        <ele>27.799999237061</ele>
        <time>2021-03-04T09:01:35.000Z</time>
      </trkpt>
      <trkpt lat="47.3184" lon="-2.35555">
        <ele>27.799999237061</ele>
        <time>2021-03-04T09:01:42.000Z</time>
      </trkpt>
      <trkpt lat="47.31839" lon="-2.35549">
        <ele>27.799999237061</ele>
        <time>2021-03-04T09:01:46.000Z</time>
      </trkpt>
      <trkpt lat="47.31838" lon="-2.35547">
        <ele>27.799999237061</ele>
        <time>2021-03-04T09:01:47.000Z</time>
      </trkpt>
      <trkpt lat="47.31831" lon="-2.35531">
        <ele>27.799999237061</ele>
        <time>2021-03-04T09:01:54.000Z</time>
      </trkpt>
      <trkpt lat="47.3183" lon="-2.35524">
        <ele>27.799999237061</ele>
        <time>2021-03-04T09:01:57.000Z</time>
      </trkpt>
      <trkpt lat="47.31828" lon="-2.35519">
        <ele>27.799999237061</ele>
        <time>2021-03-04T09:02:00.000Z</time>
      </trkpt>
      <trkpt lat="47.31824" lon="-2.355">
        <ele>27.799999237061</ele>
        <time>2021-03-04T09:02:09.000Z</time>
      </trkpt>
      <trkpt lat="47.31821" lon="-2.35492">
        <ele>27.799999237061</ele>
        <time>2021-03-04T09:02:13.000Z</time>
      </trkpt>
      <trkpt lat="47.31819" lon="-2.35488">
        <ele>27.799999237061</ele>
        <time>2021-03-04T09:02:16.000Z</time>
      </trkpt>
      <trkpt lat="47.31817" lon="-2.35485">
        <ele>27.39999961853</ele>
        <time>2021-03-04T09:02:18.000Z</time>
      </trkpt>
      <trkpt lat="47.31816" lon="-2.35483">
        <ele>27</ele>
        <time>2021-03-04T09:02:19.000Z</time>
      </trkpt>
      <trkpt lat="47.31814" lon="-2.3548">
        <ele>26.60000038147</ele>
        <time>2021-03-04T09:02:20.000Z</time>
      </trkpt>
      <trkpt lat="47.31813" lon="-2.35479">
        <ele>25.799999237061</ele>
        <time>2021-03-04T09:02:21.000Z</time>
      </trkpt>
      <trkpt lat="47.31813" lon="-2.35479">
        <ele>25.799999237061</ele>
        <time>2021-03-04T09:02:22.000Z</time>
      </trkpt>
      <trkpt lat="47.31797" lon="-2.35443">
        <ele>25.799999237061</ele>
        <time>2021-03-04T09:03:44.000Z</time>
      </trkpt>
      <trkpt lat="47.31796" lon="-2.35441">
        <ele>26.200000762939</ele>
        <time>2021-03-04T09:03:45.000Z</time>
      </trkpt>
      <trkpt lat="47.31795" lon="-2.35439">
        <ele>26.60000038147</ele>
        <time>2021-03-04T09:03:46.000Z</time>
      </trkpt>
      <trkpt lat="47.31794" lon="-2.35437">
        <ele>27</ele>
        <time>2021-03-04T09:03:47.000Z</time>
      </trkpt>
      <trkpt lat="47.31793" lon="-2.35435">
        <ele>27.39999961853</ele>
        <time>2021-03-04T09:03:48.000Z</time>
      </trkpt>
      <trkpt lat="47.31792" lon="-2.35432">
        <ele>27.799999237061</ele>
        <time>2021-03-04T09:03:49.000Z</time>
      </trkpt>
      <trkpt lat="47.3178" lon="-2.35418">
        <ele>27.799999237061</ele>
        <time>2021-03-04T09:03:55.000Z</time>
      </trkpt>
      <trkpt lat="47.31769" lon="-2.354">
        <ele>27.799999237061</ele>
        <time>2021-03-04T09:04:00.000Z</time>
      </trkpt>
      <trkpt lat="47.31763" lon="-2.35391">
        <ele>28.200000762939</ele>
        <time>2021-03-04T09:04:03.000Z</time>
      </trkpt>
      <trkpt lat="47.31761" lon="-2.35389">
        <ele>28.60000038147</ele>
        <time>2021-03-04T09:04:04.000Z</time>
      </trkpt>
      <trkpt lat="47.3176" lon="-2.35386">
        <ele>29</ele>
        <time>2021-03-04T09:04:05.000Z</time>
      </trkpt>
      <trkpt lat="47.31758" lon="-2.35385">
        <ele>29.39999961853</ele>
        <time>2021-03-04T09:04:06.000Z</time>
      </trkpt>
      <trkpt lat="47.31757" lon="-2.35383">
        <ele>29.799999237061</ele>
        <time>2021-03-04T09:04:07.000Z</time>
      </trkpt>
      <trkpt lat="47.31753" lon="-2.35373">
        <ele>29.799999237061</ele>
        <time>2021-03-04T09:04:12.000Z</time>
      </trkpt>
      <trkpt lat="47.31756" lon="-2.35368">
        <ele>29.799999237061</ele>
        <time>2021-03-04T09:04:15.000Z</time>
      </trkpt>
      <trkpt lat="47.31762" lon="-2.35362">
        <ele>29.799999237061</ele>
        <time>2021-03-04T09:04:18.000Z</time>
      </trkpt>
      <trkpt lat="47.31776" lon="-2.35346">
        <ele>29.799999237061</ele>
        <time>2021-03-04T09:04:24.000Z</time>
      </trkpt>
      <trkpt lat="47.31788" lon="-2.35336">
        <ele>29.799999237061</ele>
        <time>2021-03-04T09:04:29.000Z</time>
      </trkpt>
      <trkpt lat="47.31791" lon="-2.35338">
        <ele>29.799999237061</ele>
        <time>2021-03-04T09:04:31.000Z</time>
      </trkpt>
      <trkpt lat="47.31795" lon="-2.35334">
        <ele>29.799999237061</ele>
        <time>2021-03-04T09:04:34.000Z</time>
      </trkpt>
      <trkpt lat="47.31816" lon="-2.35315">
        <ele>29.799999237061</ele>
        <time>2021-03-04T09:04:40.000Z</time>
      </trkpt>
      <trkpt lat="47.31826" lon="-2.35308">
        <ele>29.39999961853</ele>
        <time>2021-03-04T09:04:42.000Z</time>
      </trkpt>
      <trkpt lat="47.31831" lon="-2.35305">
        <ele>29</ele>
        <time>2021-03-04T09:04:43.000Z</time>
      </trkpt>
      <trkpt lat="47.31837" lon="-2.35302">
        <ele>28.60000038147</ele>
        <time>2021-03-04T09:04:44.000Z</time>
      </trkpt>
      <trkpt lat="47.31842" lon="-2.35298">
        <ele>28.200000762939</ele>
        <time>2021-03-04T09:04:45.000Z</time>
      </trkpt>
      <trkpt lat="47.31846" lon="-2.35294">
        <ele>27.799999237061</ele>
        <time>2021-03-04T09:04:46.000Z</time>
      </trkpt>
      <trkpt lat="47.31873" lon="-2.35275">
        <ele>27.799999237061</ele>
        <time>2021-03-04T09:04:52.000Z</time>
      </trkpt>
      <trkpt lat="47.31885" lon="-2.35266">
        <ele>27.39999961853</ele>
        <time>2021-03-04T09:04:55.000Z</time>
      </trkpt>
      <trkpt lat="47.3189" lon="-2.35261">
        <ele>27</ele>
        <time>2021-03-04T09:04:56.000Z</time>
      </trkpt>
      <trkpt lat="47.31894" lon="-2.35257">
        <ele>26.60000038147</ele>
        <time>2021-03-04T09:04:57.000Z</time>
      </trkpt>
      <trkpt lat="47.31899" lon="-2.35253">
        <ele>26.200000762939</ele>
        <time>2021-03-04T09:04:58.000Z</time>
      </trkpt>
      <trkpt lat="47.31903" lon="-2.3525">
        <ele>25.799999237061</ele>
        <time>2021-03-04T09:04:59.000Z</time>
      </trkpt>
      <trkpt lat="47.31919" lon="-2.35234">
        <ele>25.799999237061</ele>
        <time>2021-03-04T09:05:03.000Z</time>
      </trkpt>
      <trkpt lat="47.31923" lon="-2.35228">
        <ele>25.799999237061</ele>
        <time>2021-03-04T09:05:04.000Z</time>
      </trkpt>
      <trkpt lat="47.3194" lon="-2.35211">
        <ele>25.799999237061</ele>
        <time>2021-03-04T09:05:08.000Z</time>
      </trkpt>
      <trkpt lat="47.31968" lon="-2.35186">
        <ele>25.799999237061</ele>
        <time>2021-03-04T09:05:14.000Z</time>
      </trkpt>
      <trkpt lat="47.31972" lon="-2.35183">
        <ele>25.799999237061</ele>
        <time>2021-03-04T09:05:15.000Z</time>
      </trkpt>
      <trkpt lat="47.31987" lon="-2.35168">
        <ele>25.799999237061</ele>
        <time>2021-03-04T09:05:19.000Z</time>
      </trkpt>
      <trkpt lat="47.3201" lon="-2.35146">
        <ele>25.799999237061</ele>
        <time>2021-03-04T09:05:25.000Z</time>
      </trkpt>
      <trkpt lat="47.32027" lon="-2.35128">
        <ele>25.39999961853</ele>
        <time>2021-03-04T09:05:29.000Z</time>
      </trkpt>
      <trkpt lat="47.3203" lon="-2.35123">
        <ele>25</ele>
        <time>2021-03-04T09:05:30.000Z</time>
      </trkpt>
      <trkpt lat="47.32033" lon="-2.35117">
        <ele>24.60000038147</ele>
        <time>2021-03-04T09:05:31.000Z</time>
      </trkpt>
      <trkpt lat="47.32035" lon="-2.3511">
        <ele>24.200000762939</ele>
        <time>2021-03-04T09:05:32.000Z</time>
      </trkpt>
      <trkpt lat="47.32035" lon="-2.35102">
        <ele>23.799999237061</ele>
        <time>2021-03-04T09:05:33.000Z</time>
      </trkpt>
      <trkpt lat="47.32035" lon="-2.35096">
        <ele>23.799999237061</ele>
        <time>2021-03-04T09:05:34.000Z</time>
      </trkpt>
      <trkpt lat="47.32034" lon="-2.35084">
        <ele>23.799999237061</ele>
        <time>2021-03-04T09:05:36.000Z</time>
      </trkpt>
      <trkpt lat="47.32033" lon="-2.35065">
        <ele>23.799999237061</ele>
        <time>2021-03-04T09:05:40.000Z</time>
      </trkpt>
      <trkpt lat="47.32034" lon="-2.35063">
        <ele>23.799999237061</ele>
        <time>2021-03-04T09:05:41.000Z</time>
      </trkpt>
      <trkpt lat="47.32041" lon="-2.3506">
        <ele>23.799999237061</ele>
        <time>2021-03-04T09:05:44.000Z</time>
      </trkpt>
      <trkpt lat="47.32056" lon="-2.35061">
        <ele>23.799999237061</ele>
        <time>2021-03-04T09:05:49.000Z</time>
      </trkpt>
      <trkpt lat="47.32078" lon="-2.35061">
        <ele>23.799999237061</ele>
        <time>2021-03-04T09:05:55.000Z</time>
      </trkpt>
      <trkpt lat="47.32083" lon="-2.35061">
        <ele>23.799999237061</ele>
        <time>2021-03-04T09:05:56.000Z</time>
      </trkpt>
      <trkpt lat="47.32092" lon="-2.35061">
        <ele>23.799999237061</ele>
        <time>2021-03-04T09:05:58.000Z</time>
      </trkpt>
      <trkpt lat="47.32102" lon="-2.35061">
        <ele>23.799999237061</ele>
        <time>2021-03-04T09:06:00.000Z</time>
      </trkpt>
      <trkpt lat="47.32107" lon="-2.35061">
        <ele>23.799999237061</ele>
        <time>2021-03-04T09:06:01.000Z</time>
      </trkpt>
      <trkpt lat="47.32122" lon="-2.35061">
        <ele>23.799999237061</ele>
        <time>2021-03-04T09:06:04.000Z</time>
      </trkpt>
      <trkpt lat="47.32131" lon="-2.3506">
        <ele>23.799999237061</ele>
        <time>2021-03-04T09:06:06.000Z</time>
      </trkpt>
      <trkpt lat="47.32169" lon="-2.35056">
        <ele>23.799999237061</ele>
        <time>2021-03-04T09:06:14.000Z</time>
      </trkpt>
      <trkpt lat="47.32202" lon="-2.35052">
        <ele>23.799999237061</ele>
        <time>2021-03-04T09:06:21.000Z</time>
      </trkpt>
      <trkpt lat="47.32231" lon="-2.35048">
        <ele>23.799999237061</ele>
        <time>2021-03-04T09:06:27.000Z</time>
      </trkpt>
      <trkpt lat="47.32235" lon="-2.35048">
        <ele>24.200000762939</ele>
        <time>2021-03-04T09:06:28.000Z</time>
      </trkpt>
      <trkpt lat="47.3224" lon="-2.35047">
        <ele>24.60000038147</ele>
        <time>2021-03-04T09:06:29.000Z</time>
      </trkpt>
      <trkpt lat="47.32244" lon="-2.35047">
        <ele>25</ele>
        <time>2021-03-04T09:06:30.000Z</time>
      </trkpt>
      <trkpt lat="47.32248" lon="-2.35047">
        <ele>25.39999961853</ele>
        <time>2021-03-04T09:06:31.000Z</time>
      </trkpt>
      <trkpt lat="47.32252" lon="-2.35046">
        <ele>25.799999237061</ele>
        <time>2021-03-04T09:06:32.000Z</time>
      </trkpt>
      <trkpt lat="47.32264" lon="-2.35045">
        <ele>25.799999237061</ele>
        <time>2021-03-04T09:06:35.000Z</time>
      </trkpt>
      <trkpt lat="47.32289" lon="-2.35044">
        <ele>25.799999237061</ele>
        <time>2021-03-04T09:06:41.000Z</time>
      </trkpt>
      <trkpt lat="47.32304" lon="-2.35046">
        <ele>25.799999237061</ele>
        <time>2021-03-04T09:06:45.000Z</time>
      </trkpt>
      <trkpt lat="47.32326" lon="-2.35048">
        <ele>26.200000762939</ele>
        <time>2021-03-04T09:06:50.000Z</time>
      </trkpt>
      <trkpt lat="47.32331" lon="-2.3505">
        <ele>26.60000038147</ele>
        <time>2021-03-04T09:06:51.000Z</time>
      </trkpt>
      <trkpt lat="47.32336" lon="-2.3505">
        <ele>27.39999961853</ele>
        <time>2021-03-04T09:06:52.000Z</time>
      </trkpt>
      <trkpt lat="47.3234" lon="-2.3505">
        <ele>27.799999237061</ele>
        <time>2021-03-04T09:06:53.000Z</time>
      </trkpt>
      <trkpt lat="47.32349" lon="-2.35052">
        <ele>27.799999237061</ele>
        <time>2021-03-04T09:06:55.000Z</time>
      </trkpt>
      <trkpt lat="47.32372" lon="-2.3505">
        <ele>27.799999237061</ele>
        <time>2021-03-04T09:07:01.000Z</time>
      </trkpt>
      <trkpt lat="47.32398" lon="-2.35047">
        <ele>27.799999237061</ele>
        <time>2021-03-04T09:07:07.000Z</time>
      </trkpt>
      <trkpt lat="47.32425" lon="-2.35044">
        <ele>27.799999237061</ele>
        <time>2021-03-04T09:07:13.000Z</time>
      </trkpt>
      <trkpt lat="47.32443" lon="-2.35041">
        <ele>28.60000038147</ele>
        <time>2021-03-04T09:07:17.000Z</time>
      </trkpt>
      <trkpt lat="47.32447" lon="-2.3504">
        <ele>29</ele>
        <time>2021-03-04T09:07:18.000Z</time>
      </trkpt>
      <trkpt lat="47.32452" lon="-2.35039">
        <ele>29.39999961853</ele>
        <time>2021-03-04T09:07:19.000Z</time>
      </trkpt>
      <trkpt lat="47.32456" lon="-2.35038">
        <ele>29.799999237061</ele>
        <time>2021-03-04T09:07:20.000Z</time>
      </trkpt>
      <trkpt lat="47.32461" lon="-2.35036">
        <ele>29.799999237061</ele>
        <time>2021-03-04T09:07:21.000Z</time>
      </trkpt>
      <trkpt lat="47.32497" lon="-2.35024">
        <ele>29.799999237061</ele>
        <time>2021-03-04T09:07:29.000Z</time>
      </trkpt>
      <trkpt lat="47.32532" lon="-2.35014">
        <ele>29.799999237061</ele>
        <time>2021-03-04T09:07:36.000Z</time>
      </trkpt>
      <trkpt lat="47.32552" lon="-2.35008">
        <ele>29.799999237061</ele>
        <time>2021-03-04T09:07:40.000Z</time>
      </trkpt>
      <trkpt lat="47.32561" lon="-2.35004">
        <ele>29.799999237061</ele>
        <time>2021-03-04T09:07:42.000Z</time>
      </trkpt>
      <trkpt lat="47.32596" lon="-2.34989">
        <ele>29.799999237061</ele>
        <time>2021-03-04T09:07:49.000Z</time>
      </trkpt>
      <trkpt lat="47.32616" lon="-2.3498">
        <ele>29.39999961853</ele>
        <time>2021-03-04T09:07:53.000Z</time>
      </trkpt>
      <trkpt lat="47.3262" lon="-2.34977">
        <ele>29</ele>
        <time>2021-03-04T09:07:54.000Z</time>
      </trkpt>
      <trkpt lat="47.32625" lon="-2.34974">
        <ele>28.60000038147</ele>
        <time>2021-03-04T09:07:55.000Z</time>
      </trkpt>
      <trkpt lat="47.3263" lon="-2.34972">
        <ele>28.200000762939</ele>
        <time>2021-03-04T09:07:56.000Z</time>
      </trkpt>
      <trkpt lat="47.32634" lon="-2.3497">
        <ele>27.799999237061</ele>
        <time>2021-03-04T09:07:57.000Z</time>
      </trkpt>
      <trkpt lat="47.32647" lon="-2.34963">
        <ele>27.799999237061</ele>
        <time>2021-03-04T09:08:01.000Z</time>
      </trkpt>
      <trkpt lat="47.32662" lon="-2.34951">
        <ele>27.799999237061</ele>
        <time>2021-03-04T09:08:07.000Z</time>
      </trkpt>
      <trkpt lat="47.32673" lon="-2.34943">
        <ele>27.799999237061</ele>
        <time>2021-03-04T09:08:10.000Z</time>
      </trkpt>
      <trkpt lat="47.32682" lon="-2.34935">
        <ele>27.799999237061</ele>
        <time>2021-03-04T09:08:12.000Z</time>
      </trkpt>
      <trkpt lat="47.32709" lon="-2.34913">
        <ele>27.799999237061</ele>
        <time>2021-03-04T09:08:18.000Z</time>
      </trkpt>
      <trkpt lat="47.32734" lon="-2.34894">
        <ele>27.39999961853</ele>
        <time>2021-03-04T09:08:23.000Z</time>
      </trkpt>
      <trkpt lat="47.32739" lon="-2.3489">
        <ele>27</ele>
        <time>2021-03-04T09:08:24.000Z</time>
      </trkpt>
      <trkpt lat="47.32744" lon="-2.34887">
        <ele>26.60000038147</ele>
        <time>2021-03-04T09:08:25.000Z</time>
      </trkpt>
      <trkpt lat="47.32749" lon="-2.34883">
        <ele>26.200000762939</ele>
        <time>2021-03-04T09:08:26.000Z</time>
      </trkpt>
      <trkpt lat="47.32753" lon="-2.3488">
        <ele>25.60000038147</ele>
        <time>2021-03-04T09:08:27.000Z</time>
      </trkpt>
      <trkpt lat="47.32789" lon="-2.34854">
        <ele>25.60000038147</ele>
        <time>2021-03-04T09:08:34.000Z</time>
      </trkpt>
      <trkpt lat="47.32819" lon="-2.34831">
        <ele>25.60000038147</ele>
        <time>2021-03-04T09:08:40.000Z</time>
      </trkpt>
      <trkpt lat="47.32847" lon="-2.34813">
        <ele>25.60000038147</ele>
        <time>2021-03-04T09:08:45.000Z</time>
      </trkpt>
      <trkpt lat="47.32874" lon="-2.34794">
        <ele>25.200000762939</ele>
        <time>2021-03-04T09:08:50.000Z</time>
      </trkpt>
      <trkpt lat="47.3288" lon="-2.3479">
        <ele>24.799999237061</ele>
        <time>2021-03-04T09:08:51.000Z</time>
      </trkpt>
      <trkpt lat="47.32885" lon="-2.34786">
        <ele>24.39999961853</ele>
        <time>2021-03-04T09:08:52.000Z</time>
      </trkpt>
      <trkpt lat="47.32891" lon="-2.34782">
        <ele>24</ele>
        <time>2021-03-04T09:08:53.000Z</time>
      </trkpt>
      <trkpt lat="47.32896" lon="-2.34779">
        <ele>23.60000038147</ele>
        <time>2021-03-04T09:08:54.000Z</time>
      </trkpt>
      <trkpt lat="47.32922" lon="-2.34764">
        <ele>23.60000038147</ele>
        <time>2021-03-04T09:08:59.000Z</time>
      </trkpt>
      <trkpt lat="47.32961" lon="-2.3474">
        <ele>23.200000762939</ele>
        <time>2021-03-04T09:09:06.000Z</time>
      </trkpt>
      <trkpt lat="47.32966" lon="-2.34736">
        <ele>22.799999237061</ele>
        <time>2021-03-04T09:09:07.000Z</time>
      </trkpt>
      <trkpt lat="47.32972" lon="-2.34733">
        <ele>22.39999961853</ele>
        <time>2021-03-04T09:09:08.000Z</time>
      </trkpt>
      <trkpt lat="47.32979" lon="-2.34729">
        <ele>22</ele>
        <time>2021-03-04T09:09:09.000Z</time>
      </trkpt>
      <trkpt lat="47.32985" lon="-2.34725">
        <ele>21.60000038147</ele>
        <time>2021-03-04T09:09:10.000Z</time>
      </trkpt>
      <trkpt lat="47.32996" lon="-2.34716">
        <ele>21.60000038147</ele>
        <time>2021-03-04T09:09:12.000Z</time>
      </trkpt>
      <trkpt lat="47.33036" lon="-2.34678">
        <ele>21.60000038147</ele>
        <time>2021-03-04T09:09:19.000Z</time>
      </trkpt>
      <trkpt lat="47.33069" lon="-2.34646">
        <ele>21</ele>
        <time>2021-03-04T09:09:25.000Z</time>
      </trkpt>
      <trkpt lat="47.33075" lon="-2.3464">
        <ele>20.60000038147</ele>
        <time>2021-03-04T09:09:26.000Z</time>
      </trkpt>
      <trkpt lat="47.3308" lon="-2.34635">
        <ele>20.200000762939</ele>
        <time>2021-03-04T09:09:27.000Z</time>
      </trkpt>
      <trkpt lat="47.33085" lon="-2.34631">
        <ele>19.799999237061</ele>
        <time>2021-03-04T09:09:28.000Z</time>
      </trkpt>
      <trkpt lat="47.33091" lon="-2.34626">
        <ele>19.39999961853</ele>
        <time>2021-03-04T09:09:29.000Z</time>
      </trkpt>
      <trkpt lat="47.33106" lon="-2.3461">
        <ele>19.39999961853</ele>
        <time>2021-03-04T09:09:32.000Z</time>
      </trkpt>
      <trkpt lat="47.33153" lon="-2.34563">
        <ele>19.39999961853</ele>
        <time>2021-03-04T09:09:41.000Z</time>
      </trkpt>
      <trkpt lat="47.33183" lon="-2.34533">
        <ele>19.39999961853</ele>
        <time>2021-03-04T09:09:47.000Z</time>
      </trkpt>
      <trkpt lat="47.33222" lon="-2.34495">
        <ele>19.39999961853</ele>
        <time>2021-03-04T09:09:55.000Z</time>
      </trkpt>
      <trkpt lat="47.3325" lon="-2.34472">
        <ele>19.39999961853</ele>
        <time>2021-03-04T09:10:01.000Z</time>
      </trkpt>
      <trkpt lat="47.33256" lon="-2.34472">
        <ele>19.39999961853</ele>
        <time>2021-03-04T09:10:02.000Z</time>
      </trkpt>
      <trkpt lat="47.33274" lon="-2.34481">
        <ele>19.39999961853</ele>
        <time>2021-03-04T09:10:06.000Z</time>
      </trkpt>
      <trkpt lat="47.33279" lon="-2.34484">
        <ele>19.39999961853</ele>
        <time>2021-03-04T09:10:07.000Z</time>
      </trkpt>
      <trkpt lat="47.33283" lon="-2.34486">
        <ele>19.39999961853</ele>
        <time>2021-03-04T09:10:08.000Z</time>
      </trkpt>
      <trkpt lat="47.33301" lon="-2.34495">
        <ele>19.39999961853</ele>
        <time>2021-03-04T09:10:12.000Z</time>
      </trkpt>
      <trkpt lat="47.33305" lon="-2.34497">
        <ele>19.39999961853</ele>
        <time>2021-03-04T09:10:13.000Z</time>
      </trkpt>
      <trkpt lat="47.33325" lon="-2.34507">
        <ele>19.39999961853</ele>
        <time>2021-03-04T09:10:17.000Z</time>
      </trkpt>
      <trkpt lat="47.33338" lon="-2.3451">
        <ele>19.39999961853</ele>
        <time>2021-03-04T09:10:20.000Z</time>
      </trkpt>
      <trkpt lat="47.33347" lon="-2.34503">
        <ele>19.39999961853</ele>
        <time>2021-03-04T09:10:22.000Z</time>
      </trkpt>
      <trkpt lat="47.3335" lon="-2.34492">
        <ele>19.39999961853</ele>
        <time>2021-03-04T09:10:25.000Z</time>
      </trkpt>
      <trkpt lat="47.33355" lon="-2.34482">
        <ele>19.39999961853</ele>
        <time>2021-03-04T09:10:30.000Z</time>
      </trkpt>
      <trkpt lat="47.33364" lon="-2.34488">
        <ele>19.39999961853</ele>
        <time>2021-03-04T09:10:34.000Z</time>
      </trkpt>
      <trkpt lat="47.33367" lon="-2.34491">
        <ele>20.200000762939</ele>
        <time>2021-03-04T09:10:35.000Z</time>
      </trkpt>
      <trkpt lat="47.3337" lon="-2.34495">
        <ele>20.60000038147</ele>
        <time>2021-03-04T09:10:36.000Z</time>
      </trkpt>
      <trkpt lat="47.33372" lon="-2.34499">
        <ele>21</ele>
        <time>2021-03-04T09:10:37.000Z</time>
      </trkpt>
      <trkpt lat="47.33375" lon="-2.34504">
        <ele>21.39999961853</ele>
        <time>2021-03-04T09:10:38.000Z</time>
      </trkpt>
      <trkpt lat="47.33377" lon="-2.34508">
        <ele>21.39999961853</ele>
        <time>2021-03-04T09:10:39.000Z</time>
      </trkpt>
      <trkpt lat="47.33394" lon="-2.34541">
        <ele>21.39999961853</ele>
        <time>2021-03-04T09:10:46.000Z</time>
      </trkpt>
      <trkpt lat="47.33409" lon="-2.34574">
        <ele>21.39999961853</ele>
        <time>2021-03-04T09:10:52.000Z</time>
      </trkpt>
      <trkpt lat="47.33431" lon="-2.34609">
        <ele>21.39999961853</ele>
        <time>2021-03-04T09:10:59.000Z</time>
      </trkpt>
      <trkpt lat="47.33434" lon="-2.34615">
        <ele>22.200000762939</ele>
        <time>2021-03-04T09:11:00.000Z</time>
      </trkpt>
      <trkpt lat="47.33437" lon="-2.34621">
        <ele>22.60000038147</ele>
        <time>2021-03-04T09:11:01.000Z</time>
      </trkpt>
      <trkpt lat="47.3344" lon="-2.34627">
        <ele>23.200000762939</ele>
        <time>2021-03-04T09:11:02.000Z</time>
      </trkpt>
      <trkpt lat="47.33443" lon="-2.34632">
        <ele>23.60000038147</ele>
        <time>2021-03-04T09:11:03.000Z</time>
      </trkpt>
      <trkpt lat="47.3345" lon="-2.34643">
        <ele>23.60000038147</ele>
        <time>2021-03-04T09:11:05.000Z</time>
      </trkpt>
      <trkpt lat="47.33453" lon="-2.34648">
        <ele>23.60000038147</ele>
        <time>2021-03-04T09:11:06.000Z</time>
      </trkpt>
      <trkpt lat="47.33466" lon="-2.34667">
        <ele>23.60000038147</ele>
        <time>2021-03-04T09:11:10.000Z</time>
      </trkpt>
      <trkpt lat="47.33472" lon="-2.34675">
        <ele>24</ele>
        <time>2021-03-04T09:11:12.000Z</time>
      </trkpt>
      <trkpt lat="47.33475" lon="-2.34679">
        <ele>24.39999961853</ele>
        <time>2021-03-04T09:11:13.000Z</time>
      </trkpt>
      <trkpt lat="47.33478" lon="-2.34684">
        <ele>24.799999237061</ele>
        <time>2021-03-04T09:11:14.000Z</time>
      </trkpt>
      <trkpt lat="47.33481" lon="-2.34689">
        <ele>25.200000762939</ele>
        <time>2021-03-04T09:11:15.000Z</time>
      </trkpt>
      <trkpt lat="47.33485" lon="-2.34694">
        <ele>25.799999237061</ele>
        <time>2021-03-04T09:11:16.000Z</time>
      </trkpt>
      <trkpt lat="47.33508" lon="-2.34728">
        <ele>25.799999237061</ele>
        <time>2021-03-04T09:11:23.000Z</time>
      </trkpt>
      <trkpt lat="47.33512" lon="-2.34733">
        <ele>26.200000762939</ele>
        <time>2021-03-04T09:11:24.000Z</time>
      </trkpt>
      <trkpt lat="47.33515" lon="-2.34738">
        <ele>26.60000038147</ele>
        <time>2021-03-04T09:11:25.000Z</time>
      </trkpt>
      <trkpt lat="47.33518" lon="-2.34743">
        <ele>27</ele>
        <time>2021-03-04T09:11:26.000Z</time>
      </trkpt>
      <trkpt lat="47.33522" lon="-2.34748">
        <ele>27.39999961853</ele>
        <time>2021-03-04T09:11:27.000Z</time>
      </trkpt>
      <trkpt lat="47.33525" lon="-2.34753">
        <ele>27.799999237061</ele>
        <time>2021-03-04T09:11:28.000Z</time>
      </trkpt>
      <trkpt lat="47.33547" lon="-2.34782">
        <ele>27.799999237061</ele>
        <time>2021-03-04T09:11:34.000Z</time>
      </trkpt>
      <trkpt lat="47.33558" lon="-2.34799">
        <ele>27.799999237061</ele>
        <time>2021-03-04T09:11:37.000Z</time>
      </trkpt>
      <trkpt lat="47.3357" lon="-2.34817">
        <ele>27.799999237061</ele>
        <time>2021-03-04T09:11:40.000Z</time>
      </trkpt>
      <trkpt lat="47.33597" lon="-2.34854">
        <ele>27.799999237061</ele>
        <time>2021-03-04T09:11:46.000Z</time>
      </trkpt>
      <trkpt lat="47.33639" lon="-2.34911">
        <ele>27.799999237061</ele>
        <time>2021-03-04T09:11:55.000Z</time>
      </trkpt>
      <trkpt lat="47.33674" lon="-2.34956">
        <ele>27.39999961853</ele>
        <time>2021-03-04T09:12:02.000Z</time>
      </trkpt>
      <trkpt lat="47.33678" lon="-2.34962">
        <ele>27</ele>
        <time>2021-03-04T09:12:03.000Z</time>
      </trkpt>
      <trkpt lat="47.33683" lon="-2.34969">
        <ele>26.60000038147</ele>
        <time>2021-03-04T09:12:04.000Z</time>
      </trkpt>
      <trkpt lat="47.33687" lon="-2.34976">
        <ele>26.200000762939</ele>
        <time>2021-03-04T09:12:05.000Z</time>
      </trkpt>
      <trkpt lat="47.33692" lon="-2.34983">
        <ele>25.799999237061</ele>
        <time>2021-03-04T09:12:06.000Z</time>
      </trkpt>
      <trkpt lat="47.33704" lon="-2.35003">
        <ele>25.799999237061</ele>
        <time>2021-03-04T09:12:09.000Z</time>
      </trkpt>
      <trkpt lat="47.33742" lon="-2.35057">
        <ele>25.799999237061</ele>
        <time>2021-03-04T09:12:18.000Z</time>
      </trkpt>
      <trkpt lat="47.33768" lon="-2.35076">
        <ele>25.799999237061</ele>
        <time>2021-03-04T09:12:20.000Z</time>
      </trkpt>
      <trkpt lat="47.33778" lon="-2.35082">
        <ele>25.799999237061</ele>
        <time>2021-03-04T09:12:25.000Z</time>
      </trkpt>
      <trkpt lat="47.33809" lon="-2.35099">
        <ele>25.799999237061</ele>
        <time>2021-03-04T09:12:31.000Z</time>
      </trkpt>
      <trkpt lat="47.3385" lon="-2.35124">
        <ele>25.799999237061</ele>
        <time>2021-03-04T09:12:39.000Z</time>
      </trkpt>
      <trkpt lat="47.33883" lon="-2.35154">
        <ele>26.200000762939</ele>
        <time>2021-03-04T09:12:46.000Z</time>
      </trkpt>
      <trkpt lat="47.33888" lon="-2.35158">
        <ele>26.60000038147</ele>
        <time>2021-03-04T09:12:47.000Z</time>
      </trkpt>
      <trkpt lat="47.33893" lon="-2.35162">
        <ele>27</ele>
        <time>2021-03-04T09:12:48.000Z</time>
      </trkpt>
      <trkpt lat="47.33898" lon="-2.35166">
        <ele>27.39999961853</ele>
        <time>2021-03-04T09:12:49.000Z</time>
      </trkpt>
      <trkpt lat="47.33903" lon="-2.3517">
        <ele>27.799999237061</ele>
        <time>2021-03-04T09:12:50.000Z</time>
      </trkpt>
      <trkpt lat="47.33922" lon="-2.35188">
        <ele>27.799999237061</ele>
        <time>2021-03-04T09:12:54.000Z</time>
      </trkpt>
      <trkpt lat="47.33943" lon="-2.35223">
        <ele>27.799999237061</ele>
        <time>2021-03-04T09:13:00.000Z</time>
      </trkpt>
      <trkpt lat="47.33945" lon="-2.3523">
        <ele>27.799999237061</ele>
        <time>2021-03-04T09:13:01.000Z</time>
      </trkpt>
      <trkpt lat="47.33959" lon="-2.35264">
        <ele>27.799999237061</ele>
        <time>2021-03-04T09:13:06.000Z</time>
      </trkpt>
      <trkpt lat="47.33974" lon="-2.35282">
        <ele>27.799999237061</ele>
        <time>2021-03-04T09:13:09.000Z</time>
      </trkpt>
      <trkpt lat="47.3398" lon="-2.35287">
        <ele>27.39999961853</ele>
        <time>2021-03-04T09:13:10.000Z</time>
      </trkpt>
      <trkpt lat="47.33986" lon="-2.35294">
        <ele>27</ele>
        <time>2021-03-04T09:13:11.000Z</time>
      </trkpt>
      <trkpt lat="47.33992" lon="-2.35301">
        <ele>26.60000038147</ele>
        <time>2021-03-04T09:13:12.000Z</time>
      </trkpt>
      <trkpt lat="47.33999" lon="-2.35307">
        <ele>26.200000762939</ele>
        <time>2021-03-04T09:13:13.000Z</time>
      </trkpt>
      <trkpt lat="47.34005" lon="-2.35312">
        <ele>25.799999237061</ele>
        <time>2021-03-04T09:13:14.000Z</time>
      </trkpt>
      <trkpt lat="47.34015" lon="-2.3532">
        <ele>25.200000762939</ele>
        <time>2021-03-04T09:13:16.000Z</time>
      </trkpt>
      <trkpt lat="47.34019" lon="-2.35324">
        <ele>24.799999237061</ele>
        <time>2021-03-04T09:13:17.000Z</time>
      </trkpt>
      <trkpt lat="47.34023" lon="-2.35327">
        <ele>24.39999961853</ele>
        <time>2021-03-04T09:13:18.000Z</time>
      </trkpt>
      <trkpt lat="47.34027" lon="-2.35331">
        <ele>24</ele>
        <time>2021-03-04T09:13:19.000Z</time>
      </trkpt>
      <trkpt lat="47.3403" lon="-2.35335">
        <ele>23.60000038147</ele>
        <time>2021-03-04T09:13:20.000Z</time>
      </trkpt>
      <trkpt lat="47.34033" lon="-2.35338">
        <ele>23.60000038147</ele>
        <time>2021-03-04T09:13:21.000Z</time>
      </trkpt>
      <trkpt lat="47.34044" lon="-2.35348">
        <ele>23.60000038147</ele>
        <time>2021-03-04T09:13:26.000Z</time>
      </trkpt>
      <trkpt lat="47.34053" lon="-2.35363">
        <ele>23.60000038147</ele>
        <time>2021-03-04T09:13:32.000Z</time>
      </trkpt>
      <trkpt lat="47.3406" lon="-2.35376">
        <ele>23.200000762939</ele>
        <time>2021-03-04T09:13:36.000Z</time>
      </trkpt>
      <trkpt lat="47.34062" lon="-2.35381">
        <ele>22.799999237061</ele>
        <time>2021-03-04T09:13:37.000Z</time>
      </trkpt>
      <trkpt lat="47.34065" lon="-2.35386">
        <ele>22.39999961853</ele>
        <time>2021-03-04T09:13:38.000Z</time>
      </trkpt>
      <trkpt lat="47.34068" lon="-2.35392">
        <ele>22</ele>
        <time>2021-03-04T09:13:39.000Z</time>
      </trkpt>
      <trkpt lat="47.34071" lon="-2.35398">
        <ele>21.39999961853</ele>
        <time>2021-03-04T09:13:40.000Z</time>
      </trkpt>
      <trkpt lat="47.34076" lon="-2.35412">
        <ele>21.39999961853</ele>
        <time>2021-03-04T09:13:42.000Z</time>
      </trkpt>
      <trkpt lat="47.341" lon="-2.35472">
        <ele>21.39999961853</ele>
        <time>2021-03-04T09:13:51.000Z</time>
      </trkpt>
      <trkpt lat="47.34108" lon="-2.35494">
        <ele>21.39999961853</ele>
        <time>2021-03-04T09:13:56.000Z</time>
      </trkpt>
      <trkpt lat="47.34117" lon="-2.35519">
        <ele>21.39999961853</ele>
        <time>2021-03-04T09:14:01.000Z</time>
      </trkpt>
      <trkpt lat="47.34119" lon="-2.35525">
        <ele>21.39999961853</ele>
        <time>2021-03-04T09:14:02.000Z</time>
      </trkpt>
      <trkpt lat="47.34134" lon="-2.35573">
        <ele>21.39999961853</ele>
        <time>2021-03-04T09:14:10.000Z</time>
      </trkpt>
      <trkpt lat="47.34149" lon="-2.35609">
        <ele>21.39999961853</ele>
        <time>2021-03-04T09:14:17.000Z</time>
      </trkpt>
      <trkpt lat="47.34174" lon="-2.3565">
        <ele>21.39999961853</ele>
        <time>2021-03-04T09:14:26.000Z</time>
      </trkpt>
      <trkpt lat="47.34191" lon="-2.35677">
        <ele>21</ele>
        <time>2021-03-04T09:14:31.000Z</time>
      </trkpt>
      <trkpt lat="47.34193" lon="-2.35681">
        <ele>20.60000038147</ele>
        <time>2021-03-04T09:14:32.000Z</time>
      </trkpt>
      <trkpt lat="47.34195" lon="-2.35684">
        <ele>20.200000762939</ele>
        <time>2021-03-04T09:14:33.000Z</time>
      </trkpt>
      <trkpt lat="47.34197" lon="-2.35687">
        <ele>19.799999237061</ele>
        <time>2021-03-04T09:14:34.000Z</time>
      </trkpt>
      <trkpt lat="47.34198" lon="-2.3569">
        <ele>19.39999961853</ele>
        <time>2021-03-04T09:14:35.000Z</time>
      </trkpt>
      <trkpt lat="47.34201" lon="-2.35693">
        <ele>19</ele>
        <time>2021-03-04T09:14:37.000Z</time>
      </trkpt>
      <trkpt lat="47.34201" lon="-2.35694">
        <ele>18.60000038147</ele>
        <time>2021-03-04T09:14:38.000Z</time>
      </trkpt>
      <trkpt lat="47.34203" lon="-2.35696">
        <ele>18.200000762939</ele>
        <time>2021-03-04T09:14:39.000Z</time>
      </trkpt>
      <trkpt lat="47.34204" lon="-2.35698">
        <ele>17.799999237061</ele>
        <time>2021-03-04T09:14:40.000Z</time>
      </trkpt>
      <trkpt lat="47.34205" lon="-2.35699">
        <ele>17.39999961853</ele>
        <time>2021-03-04T09:14:41.000Z</time>
      </trkpt>
      <trkpt lat="47.34207" lon="-2.35704">
        <ele>17.39999961853</ele>
        <time>2021-03-04T09:14:44.000Z</time>
      </trkpt>
      <trkpt lat="47.34209" lon="-2.35713">
        <ele>17</ele>
        <time>2021-03-04T09:14:48.000Z</time>
      </trkpt>
      <trkpt lat="47.34209" lon="-2.35717">
        <ele>16.60000038147</ele>
        <time>2021-03-04T09:14:49.000Z</time>
      </trkpt>
      <trkpt lat="47.34211" lon="-2.35721">
        <ele>16.200000762939</ele>
        <time>2021-03-04T09:14:50.000Z</time>
      </trkpt>
      <trkpt lat="47.34212" lon="-2.35724">
        <ele>15.800000190735</ele>
        <time>2021-03-04T09:14:51.000Z</time>
      </trkpt>
      <trkpt lat="47.34214" lon="-2.35727">
        <ele>15.199999809265</ele>
        <time>2021-03-04T09:14:52.000Z</time>
      </trkpt>
      <trkpt lat="47.34218" lon="-2.3573">
        <ele>14.60000038147</ele>
        <time>2021-03-04T09:14:53.000Z</time>
      </trkpt>
      <trkpt lat="47.34221" lon="-2.35734">
        <ele>14</ele>
        <time>2021-03-04T09:14:54.000Z</time>
      </trkpt>
      <trkpt lat="47.34224" lon="-2.35738">
        <ele>13.39999961853</ele>
        <time>2021-03-04T09:14:55.000Z</time>
      </trkpt>
      <trkpt lat="47.34226" lon="-2.35744">
        <ele>13</ele>
        <time>2021-03-04T09:14:56.000Z</time>
      </trkpt>
      <trkpt lat="47.34227" lon="-2.35757">
        <ele>13</ele>
        <time>2021-03-04T09:14:58.000Z</time>
      </trkpt>
      <trkpt lat="47.3423" lon="-2.35779">
        <ele>13</ele>
        <time>2021-03-04T09:15:01.000Z</time>
      </trkpt>
      <trkpt lat="47.34233" lon="-2.35792">
        <ele>13</ele>
        <time>2021-03-04T09:15:03.000Z</time>
      </trkpt>
      <trkpt lat="47.34236" lon="-2.35798">
        <ele>13</ele>
        <time>2021-03-04T09:15:04.000Z</time>
      </trkpt>
      <trkpt lat="47.34243" lon="-2.35816">
        <ele>13</ele>
        <time>2021-03-04T09:15:07.000Z</time>
      </trkpt>
      <trkpt lat="47.3425" lon="-2.3584">
        <ele>13</ele>
        <time>2021-03-04T09:15:11.000Z</time>
      </trkpt>
      <trkpt lat="47.34251" lon="-2.35846">
        <ele>13</ele>
        <time>2021-03-04T09:15:12.000Z</time>
      </trkpt>
      <trkpt lat="47.34252" lon="-2.3586">
        <ele>13</ele>
        <time>2021-03-04T09:15:14.000Z</time>
      </trkpt>
      <trkpt lat="47.34252" lon="-2.35874">
        <ele>13</ele>
        <time>2021-03-04T09:15:16.000Z</time>
      </trkpt>
      <trkpt lat="47.34252" lon="-2.35881">
        <ele>13</ele>
        <time>2021-03-04T09:15:17.000Z</time>
      </trkpt>
      <trkpt lat="47.34247" lon="-2.35916">
        <ele>13</ele>
        <time>2021-03-04T09:15:22.000Z</time>
      </trkpt>
      <trkpt lat="47.34245" lon="-2.35946">
        <ele>13</ele>
        <time>2021-03-04T09:15:28.000Z</time>
      </trkpt>
      <trkpt lat="47.34256" lon="-2.35946">
        <ele>13</ele>
        <time>2021-03-04T09:15:31.000Z</time>
      </trkpt>
      <trkpt lat="47.34276" lon="-2.35946">
        <ele>13</ele>
        <time>2021-03-04T09:15:37.000Z</time>
      </trkpt>
      <trkpt lat="47.34279" lon="-2.35947">
        <ele>13.39999961853</ele>
        <time>2021-03-04T09:15:38.000Z</time>
      </trkpt>
      <trkpt lat="47.34282" lon="-2.35948">
        <ele>13.800000190735</ele>
        <time>2021-03-04T09:15:39.000Z</time>
      </trkpt>
      <trkpt lat="47.34286" lon="-2.35948">
        <ele>14.199999809265</ele>
        <time>2021-03-04T09:15:40.000Z</time>
      </trkpt>
      <trkpt lat="47.34289" lon="-2.35948">
        <ele>14.60000038147</ele>
        <time>2021-03-04T09:15:41.000Z</time>
      </trkpt>
      <trkpt lat="47.34293" lon="-2.35948">
        <ele>15.199999809265</ele>
        <time>2021-03-04T09:15:42.000Z</time>
      </trkpt>
      <trkpt lat="47.34297" lon="-2.35949">
        <ele>15.199999809265</ele>
        <time>2021-03-04T09:15:43.000Z</time>
      </trkpt>
      <trkpt lat="47.34308" lon="-2.35952">
        <ele>15.60000038147</ele>
        <time>2021-03-04T09:15:46.000Z</time>
      </trkpt>
      <trkpt lat="47.34311" lon="-2.35954">
        <ele>16</ele>
        <time>2021-03-04T09:15:47.000Z</time>
      </trkpt>
      <trkpt lat="47.34316" lon="-2.35954">
        <ele>16.39999961853</ele>
        <time>2021-03-04T09:15:48.000Z</time>
      </trkpt>
      <trkpt lat="47.3432" lon="-2.35955">
        <ele>16.799999237061</ele>
        <time>2021-03-04T09:15:49.000Z</time>
      </trkpt>
      <trkpt lat="47.34323" lon="-2.35957">
        <ele>17.200000762939</ele>
        <time>2021-03-04T09:15:50.000Z</time>
      </trkpt>
      <trkpt lat="47.34345" lon="-2.35969">
        <ele>17.200000762939</ele>
        <time>2021-03-04T09:15:56.000Z</time>
      </trkpt>
      <trkpt lat="47.34365" lon="-2.35978">
        <ele>17.200000762939</ele>
        <time>2021-03-04T09:16:02.000Z</time>
      </trkpt>
      <trkpt lat="47.34392" lon="-2.35991">
        <ele>17.200000762939</ele>
        <time>2021-03-04T09:16:09.000Z</time>
      </trkpt>
      <trkpt lat="47.34401" lon="-2.35996">
        <ele>17.200000762939</ele>
        <time>2021-03-04T09:16:11.000Z</time>
      </trkpt>
      <trkpt lat="47.34412" lon="-2.36012">
        <ele>17.200000762939</ele>
        <time>2021-03-04T09:16:14.000Z</time>
      </trkpt>
      <trkpt lat="47.3442" lon="-2.36031">
        <ele>17.200000762939</ele>
        <time>2021-03-04T09:16:17.000Z</time>
      </trkpt>
      <trkpt lat="47.34422" lon="-2.36038">
        <ele>17.200000762939</ele>
        <time>2021-03-04T09:16:18.000Z</time>
      </trkpt>
      <trkpt lat="47.34424" lon="-2.36045">
        <ele>17.200000762939</ele>
        <time>2021-03-04T09:16:19.000Z</time>
      </trkpt>
      <trkpt lat="47.34429" lon="-2.36069">
        <ele>17.200000762939</ele>
        <time>2021-03-04T09:16:22.000Z</time>
      </trkpt>
      <trkpt lat="47.34433" lon="-2.36083">
        <ele>17.200000762939</ele>
        <time>2021-03-04T09:16:24.000Z</time>
      </trkpt>
      <trkpt lat="47.34446" lon="-2.36116">
        <ele>17.200000762939</ele>
        <time>2021-03-04T09:16:29.000Z</time>
      </trkpt>
      <trkpt lat="47.34471" lon="-2.36174">
        <ele>17.200000762939</ele>
        <time>2021-03-04T09:16:37.000Z</time>
      </trkpt>
      <trkpt lat="47.345" lon="-2.36222">
        <ele>17.200000762939</ele>
        <time>2021-03-04T09:16:44.000Z</time>
      </trkpt>
      <trkpt lat="47.34504" lon="-2.36229">
        <ele>16.39999961853</ele>
        <time>2021-03-04T09:16:45.000Z</time>
      </trkpt>
      <trkpt lat="47.34506" lon="-2.36237">
        <ele>15.800000190735</ele>
        <time>2021-03-04T09:16:46.000Z</time>
      </trkpt>
      <trkpt lat="47.34509" lon="-2.36244">
        <ele>15.39999961853</ele>
        <time>2021-03-04T09:16:47.000Z</time>
      </trkpt>
      <trkpt lat="47.34511" lon="-2.36251">
        <ele>15</ele>
        <time>2021-03-04T09:16:48.000Z</time>
      </trkpt>
      <trkpt lat="47.34523" lon="-2.36292">
        <ele>15</ele>
        <time>2021-03-04T09:16:54.000Z</time>
      </trkpt>
      <trkpt lat="47.3454" lon="-2.36341">
        <ele>15</ele>
        <time>2021-03-04T09:17:01.000Z</time>
      </trkpt>
      <trkpt lat="47.34557" lon="-2.36381">
        <ele>15</ele>
        <time>2021-03-04T09:17:07.000Z</time>
      </trkpt>
      <trkpt lat="47.34561" lon="-2.36386">
        <ele>15</ele>
        <time>2021-03-04T09:17:08.000Z</time>
      </trkpt>
      <trkpt lat="47.34578" lon="-2.36412">
        <ele>15.39999961853</ele>
        <time>2021-03-04T09:17:13.000Z</time>
      </trkpt>
      <trkpt lat="47.34581" lon="-2.36417">
        <ele>15.800000190735</ele>
        <time>2021-03-04T09:17:14.000Z</time>
      </trkpt>
      <trkpt lat="47.34584" lon="-2.36421">
        <ele>16.39999961853</ele>
        <time>2021-03-04T09:17:15.000Z</time>
      </trkpt>
      <trkpt lat="47.34586" lon="-2.36425">
        <ele>16.799999237061</ele>
        <time>2021-03-04T09:17:16.000Z</time>
      </trkpt>
      <trkpt lat="47.34588" lon="-2.36428">
        <ele>17.200000762939</ele>
        <time>2021-03-04T09:17:17.000Z</time>
      </trkpt>
      <trkpt lat="47.34594" lon="-2.36436">
        <ele>17.200000762939</ele>
        <time>2021-03-04T09:17:20.000Z</time>
      </trkpt>
      <trkpt lat="47.34608" lon="-2.36436">
        <ele>17.200000762939</ele>
        <time>2021-03-04T09:17:24.000Z</time>
      </trkpt>
      <trkpt lat="47.34631" lon="-2.36422">
        <ele>17.60000038147</ele>
        <time>2021-03-04T09:17:29.000Z</time>
      </trkpt>
      <trkpt lat="47.34635" lon="-2.3642">
        <ele>18</ele>
        <time>2021-03-04T09:17:30.000Z</time>
      </trkpt>
      <trkpt lat="47.3464" lon="-2.36418">
        <ele>18.39999961853</ele>
        <time>2021-03-04T09:17:31.000Z</time>
      </trkpt>
      <trkpt lat="47.34645" lon="-2.36416">
        <ele>18.799999237061</ele>
        <time>2021-03-04T09:17:32.000Z</time>
      </trkpt>
      <trkpt lat="47.34649" lon="-2.36413">
        <ele>19.200000762939</ele>
        <time>2021-03-04T09:17:33.000Z</time>
      </trkpt>
      <trkpt lat="47.34661" lon="-2.36407">
        <ele>19.200000762939</ele>
        <time>2021-03-04T09:17:36.000Z</time>
      </trkpt>
      <trkpt lat="47.34679" lon="-2.36401">
        <ele>19.60000038147</ele>
        <time>2021-03-04T09:17:41.000Z</time>
      </trkpt>
      <trkpt lat="47.34682" lon="-2.36399">
        <ele>20</ele>
        <time>2021-03-04T09:17:42.000Z</time>
      </trkpt>
      <trkpt lat="47.34685" lon="-2.36397">
        <ele>20.39999961853</ele>
        <time>2021-03-04T09:17:43.000Z</time>
      </trkpt>
      <trkpt lat="47.34689" lon="-2.36396">
        <ele>20.799999237061</ele>
        <time>2021-03-04T09:17:44.000Z</time>
      </trkpt>
      <trkpt lat="47.34693" lon="-2.36394">
        <ele>21.200000762939</ele>
        <time>2021-03-04T09:17:45.000Z</time>
      </trkpt>
      <trkpt lat="47.34716" lon="-2.36386">
        <ele>21.200000762939</ele>
        <time>2021-03-04T09:17:51.000Z</time>
      </trkpt>
      <trkpt lat="47.34745" lon="-2.3637">
        <ele>21.200000762939</ele>
        <time>2021-03-04T09:17:58.000Z</time>
      </trkpt>
      <trkpt lat="47.34758" lon="-2.36361">
        <ele>21.60000038147</ele>
        <time>2021-03-04T09:18:01.000Z</time>
      </trkpt>
      <trkpt lat="47.34762" lon="-2.36358">
        <ele>22</ele>
        <time>2021-03-04T09:18:02.000Z</time>
      </trkpt>
      <trkpt lat="47.34767" lon="-2.36354">
        <ele>22.39999961853</ele>
        <time>2021-03-04T09:18:03.000Z</time>
      </trkpt>
      <trkpt lat="47.34771" lon="-2.36351">
        <ele>22.799999237061</ele>
        <time>2021-03-04T09:18:04.000Z</time>
      </trkpt>
      <trkpt lat="47.34776" lon="-2.36349">
        <ele>23.200000762939</ele>
        <time>2021-03-04T09:18:05.000Z</time>
      </trkpt>
      <trkpt lat="47.34781" lon="-2.36346">
        <ele>23.200000762939</ele>
        <time>2021-03-04T09:18:06.000Z</time>
      </trkpt>
      <trkpt lat="47.3482" lon="-2.36319">
        <ele>23.200000762939</ele>
        <time>2021-03-04T09:18:14.000Z</time>
      </trkpt>
      <trkpt lat="47.34831" lon="-2.36315">
        <ele>23.200000762939</ele>
        <time>2021-03-04T09:18:16.000Z</time>
      </trkpt>
      <trkpt lat="47.34841" lon="-2.3632">
        <ele>23.200000762939</ele>
        <time>2021-03-04T09:18:18.000Z</time>
      </trkpt>
      <trkpt lat="47.3485" lon="-2.36326">
        <ele>23.200000762939</ele>
        <time>2021-03-04T09:18:20.000Z</time>
      </trkpt>
      <trkpt lat="47.3487" lon="-2.3634">
        <ele>23.200000762939</ele>
        <time>2021-03-04T09:18:24.000Z</time>
      </trkpt>
      <trkpt lat="47.34925" lon="-2.36374">
        <ele>23.200000762939</ele>
        <time>2021-03-04T09:18:34.000Z</time>
      </trkpt>
      <trkpt lat="47.34951" lon="-2.3639">
        <ele>22.799999237061</ele>
        <time>2021-03-04T09:18:38.000Z</time>
      </trkpt>
      <trkpt lat="47.34958" lon="-2.36395">
        <ele>22.39999961853</ele>
        <time>2021-03-04T09:18:39.000Z</time>
      </trkpt>
      <trkpt lat="47.34965" lon="-2.364">
        <ele>22</ele>
        <time>2021-03-04T09:18:40.000Z</time>
      </trkpt>
      <trkpt lat="47.34972" lon="-2.36405">
        <ele>21.39999961853</ele>
        <time>2021-03-04T09:18:41.000Z</time>
      </trkpt>
      <trkpt lat="47.3498" lon="-2.36409">
        <ele>21</ele>
        <time>2021-03-04T09:18:42.000Z</time>
      </trkpt>
      <trkpt lat="47.34994" lon="-2.36419">
        <ele>20.60000038147</ele>
        <time>2021-03-04T09:18:44.000Z</time>
      </trkpt>
      <trkpt lat="47.35" lon="-2.36425">
        <ele>20.200000762939</ele>
        <time>2021-03-04T09:18:45.000Z</time>
      </trkpt>
      <trkpt lat="47.35005" lon="-2.36433">
        <ele>19.799999237061</ele>
        <time>2021-03-04T09:18:46.000Z</time>
      </trkpt>
      <trkpt lat="47.35009" lon="-2.36442">
        <ele>19</ele>
        <time>2021-03-04T09:18:47.000Z</time>
      </trkpt>
      <trkpt lat="47.35013" lon="-2.36451">
        <ele>19</ele>
        <time>2021-03-04T09:18:48.000Z</time>
      </trkpt>
      <trkpt lat="47.35016" lon="-2.36461">
        <ele>19</ele>
        <time>2021-03-04T09:18:49.000Z</time>
      </trkpt>
      <trkpt lat="47.35025" lon="-2.3649">
        <ele>18.60000038147</ele>
        <time>2021-03-04T09:18:52.000Z</time>
      </trkpt>
      <trkpt lat="47.3503" lon="-2.36498">
        <ele>18.200000762939</ele>
        <time>2021-03-04T09:18:53.000Z</time>
      </trkpt>
      <trkpt lat="47.35034" lon="-2.36506">
        <ele>17.60000038147</ele>
        <time>2021-03-04T09:18:54.000Z</time>
      </trkpt>
      <trkpt lat="47.35038" lon="-2.36513">
        <ele>17.200000762939</ele>
        <time>2021-03-04T09:18:55.000Z</time>
      </trkpt>
      <trkpt lat="47.35043" lon="-2.36519">
        <ele>16.799999237061</ele>
        <time>2021-03-04T09:18:56.000Z</time>
      </trkpt>
      <trkpt lat="47.35054" lon="-2.3654">
        <ele>16.799999237061</ele>
        <time>2021-03-04T09:18:59.000Z</time>
      </trkpt>
      <trkpt lat="47.35072" lon="-2.36581">
        <ele>16.799999237061</ele>
        <time>2021-03-04T09:19:05.000Z</time>
      </trkpt>
      <trkpt lat="47.35075" lon="-2.36589">
        <ele>17.200000762939</ele>
        <time>2021-03-04T09:19:06.000Z</time>
      </trkpt>
      <trkpt lat="47.35077" lon="-2.36597">
        <ele>17.799999237061</ele>
        <time>2021-03-04T09:19:07.000Z</time>
      </trkpt>
      <trkpt lat="47.3508" lon="-2.36604">
        <ele>18.200000762939</ele>
        <time>2021-03-04T09:19:08.000Z</time>
      </trkpt>
      <trkpt lat="47.35083" lon="-2.36613">
        <ele>18.60000038147</ele>
        <time>2021-03-04T09:19:09.000Z</time>
      </trkpt>
      <trkpt lat="47.35085" lon="-2.36621">
        <ele>19</ele>
        <time>2021-03-04T09:19:10.000Z</time>
      </trkpt>
      <trkpt lat="47.35092" lon="-2.36642">
        <ele>19</ele>
        <time>2021-03-04T09:19:13.000Z</time>
      </trkpt>
      <trkpt lat="47.35103" lon="-2.36675">
        <ele>19.39999961853</ele>
        <time>2021-03-04T09:19:18.000Z</time>
      </trkpt>
      <trkpt lat="47.35105" lon="-2.36681">
        <ele>19.799999237061</ele>
        <time>2021-03-04T09:19:19.000Z</time>
      </trkpt>
      <trkpt lat="47.35107" lon="-2.36688">
        <ele>20.200000762939</ele>
        <time>2021-03-04T09:19:20.000Z</time>
      </trkpt>
      <trkpt lat="47.35109" lon="-2.36695">
        <ele>20.60000038147</ele>
        <time>2021-03-04T09:19:21.000Z</time>
      </trkpt>
      <trkpt lat="47.35111" lon="-2.36701">
        <ele>21</ele>
        <time>2021-03-04T09:19:22.000Z</time>
      </trkpt>
      <trkpt lat="47.3512" lon="-2.36735">
        <ele>21</ele>
        <time>2021-03-04T09:19:27.000Z</time>
      </trkpt>
      <trkpt lat="47.35133" lon="-2.36791">
        <ele>21</ele>
        <time>2021-03-04T09:19:35.000Z</time>
      </trkpt>
      <trkpt lat="47.35148" lon="-2.36857">
        <ele>21</ele>
        <time>2021-03-04T09:19:43.000Z</time>
      </trkpt>
      <trkpt lat="47.35162" lon="-2.36908">
        <ele>21</ele>
        <time>2021-03-04T09:19:49.000Z</time>
      </trkpt>
      <trkpt lat="47.3518" lon="-2.36949">
        <ele>21</ele>
        <time>2021-03-04T09:19:55.000Z</time>
      </trkpt>
      <trkpt lat="47.35202" lon="-2.36996">
        <ele>21</ele>
        <time>2021-03-04T09:20:02.000Z</time>
      </trkpt>
      <trkpt lat="47.35205" lon="-2.37003">
        <ele>21.60000038147</ele>
        <time>2021-03-04T09:20:03.000Z</time>
      </trkpt>
      <trkpt lat="47.35208" lon="-2.3701">
        <ele>22</ele>
        <time>2021-03-04T09:20:04.000Z</time>
      </trkpt>
      <trkpt lat="47.35211" lon="-2.37018">
        <ele>22.39999961853</ele>
        <time>2021-03-04T09:20:05.000Z</time>
      </trkpt>
      <trkpt lat="47.35213" lon="-2.37026">
        <ele>22.799999237061</ele>
        <time>2021-03-04T09:20:06.000Z</time>
      </trkpt>
      <trkpt lat="47.35216" lon="-2.37033">
        <ele>23.200000762939</ele>
        <time>2021-03-04T09:20:07.000Z</time>
      </trkpt>
      <trkpt lat="47.35218" lon="-2.37041">
        <ele>23.200000762939</ele>
        <time>2021-03-04T09:20:08.000Z</time>
      </trkpt>
      <trkpt lat="47.35229" lon="-2.37091">
        <ele>23.200000762939</ele>
        <time>2021-03-04T09:20:14.000Z</time>
      </trkpt>
      <trkpt lat="47.35244" lon="-2.37158">
        <ele>23.200000762939</ele>
        <time>2021-03-04T09:20:22.000Z</time>
      </trkpt>
      <trkpt lat="47.35264" lon="-2.37195">
        <ele>23.200000762939</ele>
        <time>2021-03-04T09:20:28.000Z</time>
      </trkpt>
      <trkpt lat="47.35271" lon="-2.37207">
        <ele>22.799999237061</ele>
        <time>2021-03-04T09:20:30.000Z</time>
      </trkpt>
      <trkpt lat="47.35274" lon="-2.37211">
        <ele>22.39999961853</ele>
        <time>2021-03-04T09:20:31.000Z</time>
      </trkpt>
      <trkpt lat="47.35278" lon="-2.37216">
        <ele>22</ele>
        <time>2021-03-04T09:20:32.000Z</time>
      </trkpt>
      <trkpt lat="47.35282" lon="-2.37222">
        <ele>21.60000038147</ele>
        <time>2021-03-04T09:20:33.000Z</time>
      </trkpt>
      <trkpt lat="47.35284" lon="-2.37228">
        <ele>21</ele>
        <time>2021-03-04T09:20:34.000Z</time>
      </trkpt>
      <trkpt lat="47.35286" lon="-2.37242">
        <ele>21</ele>
        <time>2021-03-04T09:20:36.000Z</time>
      </trkpt>
      <trkpt lat="47.35287" lon="-2.37257">
        <ele>21</ele>
        <time>2021-03-04T09:20:38.000Z</time>
      </trkpt>
      <trkpt lat="47.35286" lon="-2.37265">
        <ele>21</ele>
        <time>2021-03-04T09:20:39.000Z</time>
      </trkpt>
      <trkpt lat="47.35287" lon="-2.37321">
        <ele>21</ele>
        <time>2021-03-04T09:20:46.000Z</time>
      </trkpt>
      <trkpt lat="47.35288" lon="-2.37388">
        <ele>21</ele>
        <time>2021-03-04T09:20:54.000Z</time>
      </trkpt>
      <trkpt lat="47.35291" lon="-2.37456">
        <ele>21</ele>
        <time>2021-03-04T09:21:01.000Z</time>
      </trkpt>
      <trkpt lat="47.35302" lon="-2.37523">
        <ele>21</ele>
        <time>2021-03-04T09:21:07.000Z</time>
      </trkpt>
      <trkpt lat="47.35322" lon="-2.37608">
        <ele>21</ele>
        <time>2021-03-04T09:21:15.000Z</time>
      </trkpt>
      <trkpt lat="47.35342" lon="-2.37688">
        <ele>20.60000038147</ele>
        <time>2021-03-04T09:21:23.000Z</time>
      </trkpt>
      <trkpt lat="47.35344" lon="-2.37698">
        <ele>20.200000762939</ele>
        <time>2021-03-04T09:21:24.000Z</time>
      </trkpt>
      <trkpt lat="47.35347" lon="-2.37708">
        <ele>19.799999237061</ele>
        <time>2021-03-04T09:21:25.000Z</time>
      </trkpt>
      <trkpt lat="47.3535" lon="-2.37719">
        <ele>19.39999961853</ele>
        <time>2021-03-04T09:21:26.000Z</time>
      </trkpt>
      <trkpt lat="47.35352" lon="-2.37729">
        <ele>19</ele>
        <time>2021-03-04T09:21:27.000Z</time>
      </trkpt>
      <trkpt lat="47.35363" lon="-2.37771">
        <ele>19</ele>
        <time>2021-03-04T09:21:31.000Z</time>
      </trkpt>
      <trkpt lat="47.35381" lon="-2.3784">
        <ele>19</ele>
        <time>2021-03-04T09:21:38.000Z</time>
      </trkpt>
      <trkpt lat="47.35399" lon="-2.3791">
        <ele>19</ele>
        <time>2021-03-04T09:21:45.000Z</time>
      </trkpt>
      <trkpt lat="47.35414" lon="-2.37957">
        <ele>19</ele>
        <time>2021-03-04T09:21:50.000Z</time>
      </trkpt>
      <trkpt lat="47.35438" lon="-2.38032">
        <ele>19</ele>
        <time>2021-03-04T09:21:58.000Z</time>
      </trkpt>
      <trkpt lat="47.35444" lon="-2.38051">
        <ele>19</ele>
        <time>2021-03-04T09:22:00.000Z</time>
      </trkpt>
      <trkpt lat="47.35457" lon="-2.38077">
        <ele>19</ele>
        <time>2021-03-04T09:22:03.000Z</time>
      </trkpt>
      <trkpt lat="47.35491" lon="-2.3812">
        <ele>19</ele>
        <time>2021-03-04T09:22:09.000Z</time>
      </trkpt>
      <trkpt lat="47.3553" lon="-2.38168">
        <ele>19</ele>
        <time>2021-03-04T09:22:16.000Z</time>
      </trkpt>
      <trkpt lat="47.35571" lon="-2.3822">
        <ele>19</ele>
        <time>2021-03-04T09:22:24.000Z</time>
      </trkpt>
      <trkpt lat="47.35574" lon="-2.38225">
        <ele>19</ele>
        <time>2021-03-04T09:22:25.000Z</time>
      </trkpt>
      <trkpt lat="47.35581" lon="-2.3824">
        <ele>19</ele>
        <time>2021-03-04T09:22:28.000Z</time>
      </trkpt>
      <trkpt lat="47.35581" lon="-2.38245">
        <ele>19</ele>
        <time>2021-03-04T09:22:29.000Z</time>
      </trkpt>
      <trkpt lat="47.35576" lon="-2.38255">
        <ele>19</ele>
        <time>2021-03-04T09:22:31.000Z</time>
      </trkpt>
      <trkpt lat="47.35574" lon="-2.38261">
        <ele>19</ele>
        <time>2021-03-04T09:22:32.000Z</time>
      </trkpt>
      <trkpt lat="47.35565" lon="-2.38288">
        <ele>19</ele>
        <time>2021-03-04T09:22:36.000Z</time>
      </trkpt>
      <trkpt lat="47.35561" lon="-2.3832">
        <ele>19</ele>
        <time>2021-03-04T09:22:40.000Z</time>
      </trkpt>
      <trkpt lat="47.3556" lon="-2.38335">
        <ele>19</ele>
        <time>2021-03-04T09:22:42.000Z</time>
      </trkpt>
      <trkpt lat="47.35559" lon="-2.38351">
        <ele>18.60000038147</ele>
        <time>2021-03-04T09:22:44.000Z</time>
      </trkpt>
      <trkpt lat="47.35559" lon="-2.38359">
        <ele>18.200000762939</ele>
        <time>2021-03-04T09:22:45.000Z</time>
      </trkpt>
      <trkpt lat="47.35559" lon="-2.38368">
        <ele>17.799999237061</ele>
        <time>2021-03-04T09:22:46.000Z</time>
      </trkpt>
      <trkpt lat="47.35559" lon="-2.38377">
        <ele>17.39999961853</ele>
        <time>2021-03-04T09:22:47.000Z</time>
      </trkpt>
      <trkpt lat="47.35559" lon="-2.38385">
        <ele>17</ele>
        <time>2021-03-04T09:22:48.000Z</time>
      </trkpt>
      <trkpt lat="47.35558" lon="-2.38394">
        <ele>17</ele>
        <time>2021-03-04T09:22:49.000Z</time>
      </trkpt>
      <trkpt lat="47.35557" lon="-2.38428">
        <ele>16.39999961853</ele>
        <time>2021-03-04T09:22:53.000Z</time>
      </trkpt>
      <trkpt lat="47.35557" lon="-2.38437">
        <ele>16</ele>
        <time>2021-03-04T09:22:54.000Z</time>
      </trkpt>
      <trkpt lat="47.35557" lon="-2.38446">
        <ele>15.199999809265</ele>
        <time>2021-03-04T09:22:55.000Z</time>
      </trkpt>
      <trkpt lat="47.35557" lon="-2.38454">
        <ele>14.800000190735</ele>
        <time>2021-03-04T09:22:56.000Z</time>
      </trkpt>
      <trkpt lat="47.35557" lon="-2.38463">
        <ele>14.800000190735</ele>
        <time>2021-03-04T09:22:57.000Z</time>
      </trkpt>
      <trkpt lat="47.35555" lon="-2.38497">
        <ele>14.39999961853</ele>
        <time>2021-03-04T09:23:01.000Z</time>
      </trkpt>
      <trkpt lat="47.35555" lon="-2.38506">
        <ele>13.800000190735</ele>
        <time>2021-03-04T09:23:02.000Z</time>
      </trkpt>
      <trkpt lat="47.35554" lon="-2.38515">
        <ele>13.39999961853</ele>
        <time>2021-03-04T09:23:03.000Z</time>
      </trkpt>
      <trkpt lat="47.35554" lon="-2.38523">
        <ele>13</ele>
        <time>2021-03-04T09:23:04.000Z</time>
      </trkpt>
      <trkpt lat="47.35554" lon="-2.38529">
        <ele>12.60000038147</ele>
        <time>2021-03-04T09:23:05.000Z</time>
      </trkpt>
      <trkpt lat="47.35549" lon="-2.38569">
        <ele>12.60000038147</ele>
        <time>2021-03-04T09:23:11.000Z</time>
      </trkpt>
      <trkpt lat="47.3554" lon="-2.3861">
        <ele>12.60000038147</ele>
        <time>2021-03-04T09:23:16.000Z</time>
      </trkpt>
      <trkpt lat="47.35537" lon="-2.38618">
        <ele>12.60000038147</ele>
        <time>2021-03-04T09:23:17.000Z</time>
      </trkpt>
      <trkpt lat="47.35524" lon="-2.3864">
        <ele>12.60000038147</ele>
        <time>2021-03-04T09:23:20.000Z</time>
      </trkpt>
      <trkpt lat="47.35519" lon="-2.38647">
        <ele>12.60000038147</ele>
        <time>2021-03-04T09:23:21.000Z</time>
      </trkpt>
      <trkpt lat="47.3549" lon="-2.38687">
        <ele>12.60000038147</ele>
        <time>2021-03-04T09:23:27.000Z</time>
      </trkpt>
      <trkpt lat="47.35453" lon="-2.38738">
        <ele>12.60000038147</ele>
        <time>2021-03-04T09:23:35.000Z</time>
      </trkpt>
      <trkpt lat="47.3544" lon="-2.38773">
        <ele>12.60000038147</ele>
        <time>2021-03-04T09:23:40.000Z</time>
      </trkpt>
      <trkpt lat="47.35437" lon="-2.38794">
        <ele>12.60000038147</ele>
        <time>2021-03-04T09:23:43.000Z</time>
      </trkpt>
      <trkpt lat="47.35436" lon="-2.38809">
        <ele>12.60000038147</ele>
        <time>2021-03-04T09:23:45.000Z</time>
      </trkpt>
      <trkpt lat="47.35439" lon="-2.3886">
        <ele>12.60000038147</ele>
        <time>2021-03-04T09:23:52.000Z</time>
      </trkpt>
      <trkpt lat="47.35441" lon="-2.38894">
        <ele>12.60000038147</ele>
        <time>2021-03-04T09:23:58.000Z</time>
      </trkpt>
      <trkpt lat="47.35441" lon="-2.38898">
        <ele>13</ele>
        <time>2021-03-04T09:23:59.000Z</time>
      </trkpt>
      <trkpt lat="47.35441" lon="-2.38902">
        <ele>13.39999961853</ele>
        <time>2021-03-04T09:24:00.000Z</time>
      </trkpt>
      <trkpt lat="47.35441" lon="-2.38906">
        <ele>13.800000190735</ele>
        <time>2021-03-04T09:24:01.000Z</time>
      </trkpt>
      <trkpt lat="47.35442" lon="-2.38909">
        <ele>14.199999809265</ele>
        <time>2021-03-04T09:24:02.000Z</time>
      </trkpt>
      <trkpt lat="47.35442" lon="-2.38911">
        <ele>14.800000190735</ele>
        <time>2021-03-04T09:24:03.000Z</time>
      </trkpt>
      <trkpt lat="47.35442" lon="-2.3892">
        <ele>14.800000190735</ele>
        <time>2021-03-04T09:24:08.000Z</time>
      </trkpt>
      <trkpt lat="47.35442" lon="-2.38921">
        <ele>14.800000190735</ele>
        <time>2021-03-04T09:24:09.000Z</time>
      </trkpt>
      <trkpt lat="47.35443" lon="-2.38921">
        <ele>14.800000190735</ele>
        <time>2021-03-04T09:24:19.000Z</time>
      </trkpt>
      <trkpt lat="47.35444" lon="-2.38923">
        <ele>14.800000190735</ele>
        <time>2021-03-04T09:24:20.000Z</time>
      </trkpt>
      <trkpt lat="47.35446" lon="-2.38939">
        <ele>14.800000190735</ele>
        <time>2021-03-04T09:24:24.000Z</time>
      </trkpt>
      <trkpt lat="47.35445" lon="-2.38954">
        <ele>14.800000190735</ele>
        <time>2021-03-04T09:24:27.000Z</time>
      </trkpt>
      <trkpt lat="47.35445" lon="-2.38963">
        <ele>14.800000190735</ele>
        <time>2021-03-04T09:24:29.000Z</time>
      </trkpt>
      <trkpt lat="47.35446" lon="-2.38997">
        <ele>14.800000190735</ele>
        <time>2021-03-04T09:24:36.000Z</time>
      </trkpt>
      <trkpt lat="47.35446" lon="-2.39007">
        <ele>15.199999809265</ele>
        <time>2021-03-04T09:24:38.000Z</time>
      </trkpt>
      <trkpt lat="47.35445" lon="-2.39012">
        <ele>15.60000038147</ele>
        <time>2021-03-04T09:24:39.000Z</time>
      </trkpt>
      <trkpt lat="47.35445" lon="-2.39017">
        <ele>16</ele>
        <time>2021-03-04T09:24:40.000Z</time>
      </trkpt>
      <trkpt lat="47.35445" lon="-2.39021">
        <ele>16.39999961853</ele>
        <time>2021-03-04T09:24:41.000Z</time>
      </trkpt>
      <trkpt lat="47.35445" lon="-2.39025">
        <ele>16.799999237061</ele>
        <time>2021-03-04T09:24:42.000Z</time>
      </trkpt>
      <trkpt lat="47.35445" lon="-2.39028">
        <ele>16.799999237061</ele>
        <time>2021-03-04T09:24:43.000Z</time>
      </trkpt>
      <trkpt lat="47.35447" lon="-2.39056">
        <ele>16.799999237061</ele>
        <time>2021-03-04T09:24:50.000Z</time>
      </trkpt>
      <trkpt lat="47.35454" lon="-2.39086">
        <ele>16.799999237061</ele>
        <time>2021-03-04T09:24:55.000Z</time>
      </trkpt>
      <trkpt lat="47.3547" lon="-2.39143">
        <ele>16.799999237061</ele>
        <time>2021-03-04T09:25:03.000Z</time>
      </trkpt>
      <trkpt lat="47.35485" lon="-2.39191">
        <ele>16.799999237061</ele>
        <time>2021-03-04T09:25:09.000Z</time>
      </trkpt>
      <trkpt lat="47.355" lon="-2.39258">
        <ele>16.799999237061</ele>
        <time>2021-03-04T09:25:17.000Z</time>
      </trkpt>
      <trkpt lat="47.35503" lon="-2.39277">
        <ele>16.39999961853</ele>
        <time>2021-03-04T09:25:19.000Z</time>
      </trkpt>
      <trkpt lat="47.35504" lon="-2.39286">
        <ele>15.800000190735</ele>
        <time>2021-03-04T09:25:20.000Z</time>
      </trkpt>
      <trkpt lat="47.35505" lon="-2.39296">
        <ele>15.39999961853</ele>
        <time>2021-03-04T09:25:21.000Z</time>
      </trkpt>
      <trkpt lat="47.35506" lon="-2.39305">
        <ele>15</ele>
        <time>2021-03-04T09:25:22.000Z</time>
      </trkpt>
      <trkpt lat="47.35508" lon="-2.39315">
        <ele>14.60000038147</ele>
        <time>2021-03-04T09:25:23.000Z</time>
      </trkpt>
      <trkpt lat="47.35511" lon="-2.39333">
        <ele>14.60000038147</ele>
        <time>2021-03-04T09:25:25.000Z</time>
      </trkpt>
      <trkpt lat="47.35522" lon="-2.39407">
        <ele>14.60000038147</ele>
        <time>2021-03-04T09:25:33.000Z</time>
      </trkpt>
      <trkpt lat="47.35536" lon="-2.39469">
        <ele>14.60000038147</ele>
        <time>2021-03-04T09:25:40.000Z</time>
      </trkpt>
      <trkpt lat="47.35548" lon="-2.39522">
        <ele>14.60000038147</ele>
        <time>2021-03-04T09:25:47.000Z</time>
      </trkpt>
      <trkpt lat="47.35551" lon="-2.39535">
        <ele>14.60000038147</ele>
        <time>2021-03-04T09:25:51.000Z</time>
      </trkpt>
      <trkpt lat="47.3555" lon="-2.39539">
        <ele>14.60000038147</ele>
        <time>2021-03-04T09:25:52.000Z</time>
      </trkpt>
      <trkpt lat="47.35546" lon="-2.39545">
        <ele>14.60000038147</ele>
        <time>2021-03-04T09:25:54.000Z</time>
      </trkpt>
      <trkpt lat="47.35539" lon="-2.39549">
        <ele>14.60000038147</ele>
        <time>2021-03-04T09:25:56.000Z</time>
      </trkpt>
      <trkpt lat="47.35534" lon="-2.39551">
        <ele>14.60000038147</ele>
        <time>2021-03-04T09:25:57.000Z</time>
      </trkpt>
      <trkpt lat="47.35529" lon="-2.39553">
        <ele>14.60000038147</ele>
        <time>2021-03-04T09:25:58.000Z</time>
      </trkpt>
      <trkpt lat="47.35495" lon="-2.3956">
        <ele>14.60000038147</ele>
        <time>2021-03-04T09:26:04.000Z</time>
      </trkpt>
      <trkpt lat="47.35447" lon="-2.39571">
        <ele>14.60000038147</ele>
        <time>2021-03-04T09:26:12.000Z</time>
      </trkpt>
      <trkpt lat="47.35409" lon="-2.39579">
        <ele>14.60000038147</ele>
        <time>2021-03-04T09:26:18.000Z</time>
      </trkpt>
      <trkpt lat="47.35357" lon="-2.3959">
        <ele>14.60000038147</ele>
        <time>2021-03-04T09:26:26.000Z</time>
      </trkpt>
      <trkpt lat="47.35314" lon="-2.39606">
        <ele>14.60000038147</ele>
        <time>2021-03-04T09:26:33.000Z</time>
      </trkpt>
      <trkpt lat="47.35263" lon="-2.39627">
        <ele>14.60000038147</ele>
        <time>2021-03-04T09:26:41.000Z</time>
      </trkpt>
      <trkpt lat="47.35238" lon="-2.39642">
        <ele>14.60000038147</ele>
        <time>2021-03-04T09:26:45.000Z</time>
      </trkpt>
      <trkpt lat="47.35232" lon="-2.39647">
        <ele>14.60000038147</ele>
        <time>2021-03-04T09:26:46.000Z</time>
      </trkpt>
      <trkpt lat="47.35227" lon="-2.39654">
        <ele>14.60000038147</ele>
        <time>2021-03-04T09:26:47.000Z</time>
      </trkpt>
      <trkpt lat="47.35209" lon="-2.3968">
        <ele>14.60000038147</ele>
        <time>2021-03-04T09:26:51.000Z</time>
      </trkpt>
      <trkpt lat="47.35187" lon="-2.39713">
        <ele>14.60000038147</ele>
        <time>2021-03-04T09:26:56.000Z</time>
      </trkpt>
      <trkpt lat="47.35182" lon="-2.39719">
        <ele>14.60000038147</ele>
        <time>2021-03-04T09:26:57.000Z</time>
      </trkpt>
      <trkpt lat="47.35156" lon="-2.39757">
        <ele>14.60000038147</ele>
        <time>2021-03-04T09:27:03.000Z</time>
      </trkpt>
      <trkpt lat="47.35147" lon="-2.39768">
        <ele>14.60000038147</ele>
        <time>2021-03-04T09:27:05.000Z</time>
      </trkpt>
      <trkpt lat="47.35129" lon="-2.39791">
        <ele>14.60000038147</ele>
        <time>2021-03-04T09:27:09.000Z</time>
      </trkpt>
      <trkpt lat="47.35099" lon="-2.39822">
        <ele>14.60000038147</ele>
        <time>2021-03-04T09:27:15.000Z</time>
      </trkpt>
      <trkpt lat="47.35074" lon="-2.39846">
        <ele>15</ele>
        <time>2021-03-04T09:27:20.000Z</time>
      </trkpt>
      <trkpt lat="47.35069" lon="-2.39851">
        <ele>15.39999961853</ele>
        <time>2021-03-04T09:27:21.000Z</time>
      </trkpt>
      <trkpt lat="47.35064" lon="-2.39856">
        <ele>15.800000190735</ele>
        <time>2021-03-04T09:27:22.000Z</time>
      </trkpt>
      <trkpt lat="47.35058" lon="-2.39861">
        <ele>16.200000762939</ele>
        <time>2021-03-04T09:27:23.000Z</time>
      </trkpt>
      <trkpt lat="47.35053" lon="-2.39865">
        <ele>16.60000038147</ele>
        <time>2021-03-04T09:27:24.000Z</time>
      </trkpt>
      <trkpt lat="47.35037" lon="-2.3988">
        <ele>16.60000038147</ele>
        <time>2021-03-04T09:27:27.000Z</time>
      </trkpt>
      <trkpt lat="47.35026" lon="-2.3989">
        <ele>16.60000038147</ele>
        <time>2021-03-04T09:27:29.000Z</time>
      </trkpt>
      <trkpt lat="47.35013" lon="-2.3991">
        <ele>16.60000038147</ele>
        <time>2021-03-04T09:27:32.000Z</time>
      </trkpt>
      <trkpt lat="47.34993" lon="-2.39954">
        <ele>16.60000038147</ele>
        <time>2021-03-04T09:27:38.000Z</time>
      </trkpt>
      <trkpt lat="47.34978" lon="-2.39983">
        <ele>16.60000038147</ele>
        <time>2021-03-04T09:27:42.000Z</time>
      </trkpt>
      <trkpt lat="47.34964" lon="-2.4">
        <ele>16.60000038147</ele>
        <time>2021-03-04T09:27:45.000Z</time>
      </trkpt>
      <trkpt lat="47.34959" lon="-2.40006">
        <ele>16.60000038147</ele>
        <time>2021-03-04T09:27:46.000Z</time>
      </trkpt>
      <trkpt lat="47.34931" lon="-2.40027">
        <ele>16.60000038147</ele>
        <time>2021-03-04T09:27:51.000Z</time>
      </trkpt>
      <trkpt lat="47.34902" lon="-2.40053">
        <ele>16.60000038147</ele>
        <time>2021-03-04T09:27:56.000Z</time>
      </trkpt>
      <trkpt lat="47.34873" lon="-2.40085">
        <ele>16.60000038147</ele>
        <time>2021-03-04T09:28:02.000Z</time>
      </trkpt>
      <trkpt lat="47.34865" lon="-2.40099">
        <ele>17.200000762939</ele>
        <time>2021-03-04T09:28:04.000Z</time>
      </trkpt>
      <trkpt lat="47.34862" lon="-2.40107">
        <ele>17.60000038147</ele>
        <time>2021-03-04T09:28:05.000Z</time>
      </trkpt>
      <trkpt lat="47.3486" lon="-2.40116">
        <ele>18</ele>
        <time>2021-03-04T09:28:06.000Z</time>
      </trkpt>
      <trkpt lat="47.34858" lon="-2.40124">
        <ele>18.39999961853</ele>
        <time>2021-03-04T09:28:07.000Z</time>
      </trkpt>
      <trkpt lat="47.34857" lon="-2.40133">
        <ele>18.799999237061</ele>
        <time>2021-03-04T09:28:08.000Z</time>
      </trkpt>
      <trkpt lat="47.34854" lon="-2.40155">
        <ele>18.799999237061</ele>
        <time>2021-03-04T09:28:11.000Z</time>
      </trkpt>
      <trkpt lat="47.34853" lon="-2.40177">
        <ele>18.799999237061</ele>
        <time>2021-03-04T09:28:14.000Z</time>
      </trkpt>
      <trkpt lat="47.34856" lon="-2.4019">
        <ele>18.799999237061</ele>
        <time>2021-03-04T09:28:16.000Z</time>
      </trkpt>
      <trkpt lat="47.34868" lon="-2.40206">
        <ele>18.799999237061</ele>
        <time>2021-03-04T09:28:19.000Z</time>
      </trkpt>
      <trkpt lat="47.34873" lon="-2.40211">
        <ele>18.799999237061</ele>
        <time>2021-03-04T09:28:20.000Z</time>
      </trkpt>
      <trkpt lat="47.34897" lon="-2.40249">
        <ele>18.799999237061</ele>
        <time>2021-03-04T09:28:26.000Z</time>
      </trkpt>
      <trkpt lat="47.34894" lon="-2.4027">
        <ele>18.799999237061</ele>
        <time>2021-03-04T09:28:29.000Z</time>
      </trkpt>
      <trkpt lat="47.34886" lon="-2.40281">
        <ele>18.799999237061</ele>
        <time>2021-03-04T09:28:31.000Z</time>
      </trkpt>
      <trkpt lat="47.34873" lon="-2.40295">
        <ele>18.799999237061</ele>
        <time>2021-03-04T09:28:34.000Z</time>
      </trkpt>
      <trkpt lat="47.34855" lon="-2.40316">
        <ele>18.799999237061</ele>
        <time>2021-03-04T09:28:38.000Z</time>
      </trkpt>
      <trkpt lat="47.34853" lon="-2.40323">
        <ele>18.799999237061</ele>
        <time>2021-03-04T09:28:39.000Z</time>
      </trkpt>
      <trkpt lat="47.34855" lon="-2.40348">
        <ele>18.799999237061</ele>
        <time>2021-03-04T09:28:42.000Z</time>
      </trkpt>
      <trkpt lat="47.34857" lon="-2.40356">
        <ele>18.799999237061</ele>
        <time>2021-03-04T09:28:43.000Z</time>
      </trkpt>
      <trkpt lat="47.34869" lon="-2.40412">
        <ele>18.799999237061</ele>
        <time>2021-03-04T09:28:49.000Z</time>
      </trkpt>
      <trkpt lat="47.3488" lon="-2.40485">
        <ele>18.39999961853</ele>
        <time>2021-03-04T09:28:56.000Z</time>
      </trkpt>
      <trkpt lat="47.34882" lon="-2.40496">
        <ele>17.799999237061</ele>
        <time>2021-03-04T09:28:57.000Z</time>
      </trkpt>
      <trkpt lat="47.34884" lon="-2.40508">
        <ele>17.39999961853</ele>
        <time>2021-03-04T09:28:58.000Z</time>
      </trkpt>
      <trkpt lat="47.34885" lon="-2.4052">
        <ele>17</ele>
        <time>2021-03-04T09:28:59.000Z</time>
      </trkpt>
      <trkpt lat="47.34887" lon="-2.40531">
        <ele>16.60000038147</ele>
        <time>2021-03-04T09:29:00.000Z</time>
      </trkpt>
      <trkpt lat="47.34887" lon="-2.40555">
        <ele>16.60000038147</ele>
        <time>2021-03-04T09:29:02.000Z</time>
      </trkpt>
      <trkpt lat="47.34876" lon="-2.40578">
        <ele>16.60000038147</ele>
        <time>2021-03-04T09:29:05.000Z</time>
      </trkpt>
      <trkpt lat="47.3487" lon="-2.40584">
        <ele>16.60000038147</ele>
        <time>2021-03-04T09:29:06.000Z</time>
      </trkpt>
      <trkpt lat="47.3484" lon="-2.40623">
        <ele>16.60000038147</ele>
        <time>2021-03-04T09:29:12.000Z</time>
      </trkpt>
      <trkpt lat="47.34829" lon="-2.40659">
        <ele>16.60000038147</ele>
        <time>2021-03-04T09:29:16.000Z</time>
      </trkpt>
      <trkpt lat="47.34821" lon="-2.40711">
        <ele>16.60000038147</ele>
        <time>2021-03-04T09:29:22.000Z</time>
      </trkpt>
      <trkpt lat="47.34821" lon="-2.4072">
        <ele>16.60000038147</ele>
        <time>2021-03-04T09:29:23.000Z</time>
      </trkpt>
      <trkpt lat="47.34824" lon="-2.40747">
        <ele>16.60000038147</ele>
        <time>2021-03-04T09:29:26.000Z</time>
      </trkpt>
      <trkpt lat="47.34837" lon="-2.40775">
        <ele>16.60000038147</ele>
        <time>2021-03-04T09:29:30.000Z</time>
      </trkpt>
      <trkpt lat="47.34857" lon="-2.40777">
        <ele>16.60000038147</ele>
        <time>2021-03-04T09:29:33.000Z</time>
      </trkpt>
      <trkpt lat="47.34863" lon="-2.40777">
        <ele>16.60000038147</ele>
        <time>2021-03-04T09:29:34.000Z</time>
      </trkpt>
      <trkpt lat="47.34886" lon="-2.4078">
        <ele>16.60000038147</ele>
        <time>2021-03-04T09:29:38.000Z</time>
      </trkpt>
      <trkpt lat="47.34891" lon="-2.40782">
        <ele>16.60000038147</ele>
        <time>2021-03-04T09:29:39.000Z</time>
      </trkpt>
      <trkpt lat="47.34909" lon="-2.40801">
        <ele>16.60000038147</ele>
        <time>2021-03-04T09:29:43.000Z</time>
      </trkpt>
      <trkpt lat="47.34913" lon="-2.40808">
        <ele>16.60000038147</ele>
        <time>2021-03-04T09:29:44.000Z</time>
      </trkpt>
      <trkpt lat="47.34916" lon="-2.40814">
        <ele>16.60000038147</ele>
        <time>2021-03-04T09:29:45.000Z</time>
      </trkpt>
      <trkpt lat="47.34926" lon="-2.40835">
        <ele>16.60000038147</ele>
        <time>2021-03-04T09:29:48.000Z</time>
      </trkpt>
      <trkpt lat="47.3494" lon="-2.40873">
        <ele>16.60000038147</ele>
        <time>2021-03-04T09:29:53.000Z</time>
      </trkpt>
      <trkpt lat="47.34944" lon="-2.40918">
        <ele>16.60000038147</ele>
        <time>2021-03-04T09:29:58.000Z</time>
      </trkpt>
      <trkpt lat="47.34944" lon="-2.40927">
        <ele>16.60000038147</ele>
        <time>2021-03-04T09:29:59.000Z</time>
      </trkpt>
      <trkpt lat="47.34943" lon="-2.40937">
        <ele>16.60000038147</ele>
        <time>2021-03-04T09:30:00.000Z</time>
      </trkpt>
      <trkpt lat="47.34941" lon="-2.40973">
        <ele>16.60000038147</ele>
        <time>2021-03-04T09:30:04.000Z</time>
      </trkpt>
      <trkpt lat="47.34936" lon="-2.41001">
        <ele>16.60000038147</ele>
        <time>2021-03-04T09:30:07.000Z</time>
      </trkpt>
      <trkpt lat="47.34934" lon="-2.4102">
        <ele>16.60000038147</ele>
        <time>2021-03-04T09:30:09.000Z</time>
      </trkpt>
      <trkpt lat="47.34934" lon="-2.4106">
        <ele>16.60000038147</ele>
        <time>2021-03-04T09:30:13.000Z</time>
      </trkpt>
      <trkpt lat="47.34937" lon="-2.41069">
        <ele>16.60000038147</ele>
        <time>2021-03-04T09:30:14.000Z</time>
      </trkpt>
      <trkpt lat="47.34955" lon="-2.41114">
        <ele>16.60000038147</ele>
        <time>2021-03-04T09:30:19.000Z</time>
      </trkpt>
      <trkpt lat="47.34976" lon="-2.41161">
        <ele>16.60000038147</ele>
        <time>2021-03-04T09:30:24.000Z</time>
      </trkpt>
      <trkpt lat="47.35002" lon="-2.41224">
        <ele>16.60000038147</ele>
        <time>2021-03-04T09:30:31.000Z</time>
      </trkpt>
      <trkpt lat="47.35031" lon="-2.41294">
        <ele>16.60000038147</ele>
        <time>2021-03-04T09:30:39.000Z</time>
      </trkpt>
      <trkpt lat="47.35034" lon="-2.41303">
        <ele>16.60000038147</ele>
        <time>2021-03-04T09:30:40.000Z</time>
      </trkpt>
      <trkpt lat="47.35044" lon="-2.41328">
        <ele>16.60000038147</ele>
        <time>2021-03-04T09:30:43.000Z</time>
      </trkpt>
      <trkpt lat="47.35047" lon="-2.41336">
        <ele>16.60000038147</ele>
        <time>2021-03-04T09:30:44.000Z</time>
      </trkpt>
      <trkpt lat="47.3505" lon="-2.41344">
        <ele>16.60000038147</ele>
        <time>2021-03-04T09:30:45.000Z</time>
      </trkpt>
      <trkpt lat="47.35059" lon="-2.4137">
        <ele>16.60000038147</ele>
        <time>2021-03-04T09:30:48.000Z</time>
      </trkpt>
      <trkpt lat="47.3507" lon="-2.41394">
        <ele>16.60000038147</ele>
        <time>2021-03-04T09:30:51.000Z</time>
      </trkpt>
      <trkpt lat="47.35078" lon="-2.41406">
        <ele>16.60000038147</ele>
        <time>2021-03-04T09:30:53.000Z</time>
      </trkpt>
      <trkpt lat="47.35093" lon="-2.41406">
        <ele>16.60000038147</ele>
        <time>2021-03-04T09:30:56.000Z</time>
      </trkpt>
      <trkpt lat="47.35103" lon="-2.41401">
        <ele>16.60000038147</ele>
        <time>2021-03-04T09:30:58.000Z</time>
      </trkpt>
      <trkpt lat="47.35127" lon="-2.41384">
        <ele>16.60000038147</ele>
        <time>2021-03-04T09:31:03.000Z</time>
      </trkpt>
      <trkpt lat="47.35146" lon="-2.41368">
        <ele>16.200000762939</ele>
        <time>2021-03-04T09:31:07.000Z</time>
      </trkpt>
      <trkpt lat="47.35151" lon="-2.41365">
        <ele>15.800000190735</ele>
        <time>2021-03-04T09:31:08.000Z</time>
      </trkpt>
      <trkpt lat="47.35156" lon="-2.41363">
        <ele>15.39999961853</ele>
        <time>2021-03-04T09:31:09.000Z</time>
      </trkpt>
      <trkpt lat="47.35161" lon="-2.4136">
        <ele>15</ele>
        <time>2021-03-04T09:31:10.000Z</time>
      </trkpt>
      <trkpt lat="47.35166" lon="-2.41358">
        <ele>14.60000038147</ele>
        <time>2021-03-04T09:31:11.000Z</time>
      </trkpt>
      <trkpt lat="47.35171" lon="-2.41358">
        <ele>14.60000038147</ele>
        <time>2021-03-04T09:31:12.000Z</time>
      </trkpt>
      <trkpt lat="47.35181" lon="-2.41358">
        <ele>14.60000038147</ele>
        <time>2021-03-04T09:31:14.000Z</time>
      </trkpt>
      <trkpt lat="47.35196" lon="-2.4137">
        <ele>14.60000038147</ele>
        <time>2021-03-04T09:31:17.000Z</time>
      </trkpt>
      <trkpt lat="47.352" lon="-2.41374">
        <ele>14.60000038147</ele>
        <time>2021-03-04T09:31:18.000Z</time>
      </trkpt>
      <trkpt lat="47.35226" lon="-2.41413">
        <ele>14.60000038147</ele>
        <time>2021-03-04T09:31:25.000Z</time>
      </trkpt>
      <trkpt lat="47.35238" lon="-2.41434">
        <ele>14.60000038147</ele>
        <time>2021-03-04T09:31:29.000Z</time>
      </trkpt>
      <trkpt lat="47.35244" lon="-2.4144">
        <ele>14.60000038147</ele>
        <time>2021-03-04T09:31:31.000Z</time>
      </trkpt>
      <trkpt lat="47.35249" lon="-2.41445">
        <ele>14.60000038147</ele>
        <time>2021-03-04T09:31:33.000Z</time>
      </trkpt>
      <trkpt lat="47.35259" lon="-2.41447">
        <ele>14.60000038147</ele>
        <time>2021-03-04T09:31:37.000Z</time>
      </trkpt>
      <trkpt lat="47.3527" lon="-2.41444">
        <ele>14.60000038147</ele>
        <time>2021-03-04T09:31:43.000Z</time>
      </trkpt>
      <trkpt lat="47.35286" lon="-2.4143">
        <ele>14.60000038147</ele>
        <time>2021-03-04T09:31:51.000Z</time>
      </trkpt>
      <trkpt lat="47.35297" lon="-2.41412">
        <ele>14.60000038147</ele>
        <time>2021-03-04T09:31:57.000Z</time>
      </trkpt>
      <trkpt lat="47.35311" lon="-2.41387">
        <ele>14.60000038147</ele>
        <time>2021-03-04T09:32:03.000Z</time>
      </trkpt>
      <trkpt lat="47.35324" lon="-2.41366">
        <ele>14.60000038147</ele>
        <time>2021-03-04T09:32:08.000Z</time>
      </trkpt>
      <trkpt lat="47.35338" lon="-2.41349">
        <ele>14.60000038147</ele>
        <time>2021-03-04T09:32:14.000Z</time>
      </trkpt>
      <trkpt lat="47.35341" lon="-2.41345">
        <ele>14.60000038147</ele>
        <time>2021-03-04T09:32:16.000Z</time>
      </trkpt>
      <trkpt lat="47.35343" lon="-2.41343">
        <ele>14.60000038147</ele>
        <time>2021-03-04T09:32:19.000Z</time>
      </trkpt>
      <trkpt lat="47.35345" lon="-2.41341">
        <ele>14.60000038147</ele>
        <time>2021-03-04T09:37:13.000Z</time>
      </trkpt>
      <trkpt lat="47.3535" lon="-2.41333">
        <ele>14.60000038147</ele>
        <time>2021-03-04T09:37:16.000Z</time>
      </trkpt>
      <trkpt lat="47.35364" lon="-2.41313">
        <ele>14.60000038147</ele>
        <time>2021-03-04T09:37:21.000Z</time>
      </trkpt>
      <trkpt lat="47.35378" lon="-2.41293">
        <ele>14.60000038147</ele>
        <time>2021-03-04T09:37:26.000Z</time>
      </trkpt>
      <trkpt lat="47.35382" lon="-2.41289">
        <ele>14.60000038147</ele>
        <time>2021-03-04T09:37:27.000Z</time>
      </trkpt>
      <trkpt lat="47.35395" lon="-2.41279">
        <ele>14.60000038147</ele>
        <time>2021-03-04T09:37:30.000Z</time>
      </trkpt>
      <trkpt lat="47.35409" lon="-2.41268">
        <ele>14.60000038147</ele>
        <time>2021-03-04T09:37:33.000Z</time>
      </trkpt>
      <trkpt lat="47.35424" lon="-2.41253">
        <ele>14.60000038147</ele>
        <time>2021-03-04T09:37:36.000Z</time>
      </trkpt>
      <trkpt lat="47.35432" lon="-2.4124">
        <ele>14.60000038147</ele>
        <time>2021-03-04T09:37:38.000Z</time>
      </trkpt>
      <trkpt lat="47.35449" lon="-2.41215">
        <ele>14.60000038147</ele>
        <time>2021-03-04T09:37:42.000Z</time>
      </trkpt>
      <trkpt lat="47.35458" lon="-2.41204">
        <ele>14.60000038147</ele>
        <time>2021-03-04T09:37:44.000Z</time>
      </trkpt>
      <trkpt lat="47.35463" lon="-2.41199">
        <ele>14.60000038147</ele>
        <time>2021-03-04T09:37:45.000Z</time>
      </trkpt>
      <trkpt lat="47.3549" lon="-2.41179">
        <ele>14.60000038147</ele>
        <time>2021-03-04T09:37:50.000Z</time>
      </trkpt>
      <trkpt lat="47.35527" lon="-2.41149">
        <ele>14.60000038147</ele>
        <time>2021-03-04T09:37:57.000Z</time>
      </trkpt>
      <trkpt lat="47.35572" lon="-2.41116">
        <ele>14.60000038147</ele>
        <time>2021-03-04T09:38:05.000Z</time>
      </trkpt>
      <trkpt lat="47.35602" lon="-2.41083">
        <ele>14.60000038147</ele>
        <time>2021-03-04T09:38:11.000Z</time>
      </trkpt>
      <trkpt lat="47.35632" lon="-2.41051">
        <ele>14.60000038147</ele>
        <time>2021-03-04T09:38:17.000Z</time>
      </trkpt>
      <trkpt lat="47.35637" lon="-2.41045">
        <ele>14.60000038147</ele>
        <time>2021-03-04T09:38:18.000Z</time>
      </trkpt>
      <trkpt lat="47.35664" lon="-2.41008">
        <ele>14.60000038147</ele>
        <time>2021-03-04T09:38:24.000Z</time>
      </trkpt>
      <trkpt lat="47.35684" lon="-2.40976">
        <ele>14.60000038147</ele>
        <time>2021-03-04T09:38:30.000Z</time>
      </trkpt>
      <trkpt lat="47.35689" lon="-2.40973">
        <ele>14.60000038147</ele>
        <time>2021-03-04T09:38:32.000Z</time>
      </trkpt>
      <trkpt lat="47.35692" lon="-2.40975">
        <ele>14.60000038147</ele>
        <time>2021-03-04T09:38:33.000Z</time>
      </trkpt>
      <trkpt lat="47.35697" lon="-2.40994">
        <ele>14.60000038147</ele>
        <time>2021-03-04T09:38:37.000Z</time>
      </trkpt>
      <trkpt lat="47.35697" lon="-2.41008">
        <ele>14.60000038147</ele>
        <time>2021-03-04T09:38:39.000Z</time>
      </trkpt>
      <trkpt lat="47.35697" lon="-2.41025">
        <ele>14.60000038147</ele>
        <time>2021-03-04T09:38:41.000Z</time>
      </trkpt>
      <trkpt lat="47.35702" lon="-2.41086">
        <ele>14.60000038147</ele>
        <time>2021-03-04T09:38:48.000Z</time>
      </trkpt>
      <trkpt lat="47.3572" lon="-2.41166">
        <ele>14.60000038147</ele>
        <time>2021-03-04T09:38:57.000Z</time>
      </trkpt>
      <trkpt lat="47.35727" lon="-2.4122">
        <ele>14.60000038147</ele>
        <time>2021-03-04T09:39:03.000Z</time>
      </trkpt>
      <trkpt lat="47.3572" lon="-2.41276">
        <ele>14.60000038147</ele>
        <time>2021-03-04T09:39:09.000Z</time>
      </trkpt>
      <trkpt lat="47.35714" lon="-2.41345">
        <ele>14.60000038147</ele>
        <time>2021-03-04T09:39:16.000Z</time>
      </trkpt>
      <trkpt lat="47.35717" lon="-2.41404">
        <ele>14.60000038147</ele>
        <time>2021-03-04T09:39:22.000Z</time>
      </trkpt>
      <trkpt lat="47.35725" lon="-2.41474">
        <ele>14.60000038147</ele>
        <time>2021-03-04T09:39:29.000Z</time>
      </trkpt>
      <trkpt lat="47.35722" lon="-2.41503">
        <ele>14.60000038147</ele>
        <time>2021-03-04T09:39:32.000Z</time>
      </trkpt>
      <trkpt lat="47.35718" lon="-2.41521">
        <ele>14.60000038147</ele>
        <time>2021-03-04T09:39:34.000Z</time>
      </trkpt>
      <trkpt lat="47.35702" lon="-2.41558">
        <ele>14.60000038147</ele>
        <time>2021-03-04T09:39:39.000Z</time>
      </trkpt>
      <trkpt lat="47.357" lon="-2.41566">
        <ele>14.60000038147</ele>
        <time>2021-03-04T09:39:40.000Z</time>
      </trkpt>
      <trkpt lat="47.35701" lon="-2.41579">
        <ele>14.60000038147</ele>
        <time>2021-03-04T09:39:42.000Z</time>
      </trkpt>
      <trkpt lat="47.35709" lon="-2.41596">
        <ele>14.60000038147</ele>
        <time>2021-03-04T09:39:46.000Z</time>
      </trkpt>
      <trkpt lat="47.35714" lon="-2.4161">
        <ele>14.60000038147</ele>
        <time>2021-03-04T09:39:51.000Z</time>
      </trkpt>
      <trkpt lat="47.35719" lon="-2.41625">
        <ele>14.60000038147</ele>
        <time>2021-03-04T09:39:56.000Z</time>
      </trkpt>
      <trkpt lat="47.35719" lon="-2.41635">
        <ele>14.60000038147</ele>
        <time>2021-03-04T09:40:00.000Z</time>
      </trkpt>
      <trkpt lat="47.35719" lon="-2.41635">
        <ele>14.60000038147</ele>
        <time>2021-03-04T09:40:03.000Z</time>
      </trkpt>
      <trkpt lat="47.35723" lon="-2.4165">
        <ele>14.60000038147</ele>
        <time>2021-03-04T09:40:07.000Z</time>
      </trkpt>
      <trkpt lat="47.35724" lon="-2.41681">
        <ele>14.60000038147</ele>
        <time>2021-03-04T09:40:12.000Z</time>
      </trkpt>
      <trkpt lat="47.35725" lon="-2.41688">
        <ele>14.60000038147</ele>
        <time>2021-03-04T09:40:13.000Z</time>
      </trkpt>
      <trkpt lat="47.35726" lon="-2.4172">
        <ele>14.60000038147</ele>
        <time>2021-03-04T09:40:17.000Z</time>
      </trkpt>
      <trkpt lat="47.3573" lon="-2.41779">
        <ele>14.60000038147</ele>
        <time>2021-03-04T09:40:24.000Z</time>
      </trkpt>
      <trkpt lat="47.35734" lon="-2.41816">
        <ele>14.60000038147</ele>
        <time>2021-03-04T09:40:29.000Z</time>
      </trkpt>
      <trkpt lat="47.35734" lon="-2.41832">
        <ele>14.60000038147</ele>
        <time>2021-03-04T09:40:31.000Z</time>
      </trkpt>
      <trkpt lat="47.35735" lon="-2.41839">
        <ele>14.60000038147</ele>
        <time>2021-03-04T09:40:32.000Z</time>
      </trkpt>
      <trkpt lat="47.35739" lon="-2.41877">
        <ele>14.60000038147</ele>
        <time>2021-03-04T09:40:37.000Z</time>
      </trkpt>
      <trkpt lat="47.3574" lon="-2.41893">
        <ele>15</ele>
        <time>2021-03-04T09:40:39.000Z</time>
      </trkpt>
      <trkpt lat="47.35741" lon="-2.41901">
        <ele>15.800000190735</ele>
        <time>2021-03-04T09:40:40.000Z</time>
      </trkpt>
      <trkpt lat="47.35741" lon="-2.4191">
        <ele>16.200000762939</ele>
        <time>2021-03-04T09:40:41.000Z</time>
      </trkpt>
      <trkpt lat="47.35741" lon="-2.41917">
        <ele>16.60000038147</ele>
        <time>2021-03-04T09:40:42.000Z</time>
      </trkpt>
      <trkpt lat="47.3574" lon="-2.41933">
        <ele>16.60000038147</ele>
        <time>2021-03-04T09:40:44.000Z</time>
      </trkpt>
      <trkpt lat="47.35737" lon="-2.41986">
        <ele>16.60000038147</ele>
        <time>2021-03-04T09:40:51.000Z</time>
      </trkpt>
      <trkpt lat="47.35732" lon="-2.42062">
        <ele>16.60000038147</ele>
        <time>2021-03-04T09:41:00.000Z</time>
      </trkpt>
      <trkpt lat="47.35733" lon="-2.42099">
        <ele>16.60000038147</ele>
        <time>2021-03-04T09:41:04.000Z</time>
      </trkpt>
      <trkpt lat="47.35735" lon="-2.4211">
        <ele>16.60000038147</ele>
        <time>2021-03-04T09:41:05.000Z</time>
      </trkpt>
      <trkpt lat="47.35749" lon="-2.42133">
        <ele>16.60000038147</ele>
        <time>2021-03-04T09:41:08.000Z</time>
      </trkpt>
      <trkpt lat="47.35774" lon="-2.4215">
        <ele>16.60000038147</ele>
        <time>2021-03-04T09:41:12.000Z</time>
      </trkpt>
      <trkpt lat="47.35816" lon="-2.42173">
        <ele>16.60000038147</ele>
        <time>2021-03-04T09:41:19.000Z</time>
      </trkpt>
      <trkpt lat="47.35828" lon="-2.42178">
        <ele>16.60000038147</ele>
        <time>2021-03-04T09:41:21.000Z</time>
      </trkpt>
      <trkpt lat="47.35843" lon="-2.42187">
        <ele>16.60000038147</ele>
        <time>2021-03-04T09:41:24.000Z</time>
      </trkpt>
      <trkpt lat="47.35857" lon="-2.42199">
        <ele>16.60000038147</ele>
        <time>2021-03-04T09:41:27.000Z</time>
      </trkpt>
      <trkpt lat="47.35869" lon="-2.42216">
        <ele>16.60000038147</ele>
        <time>2021-03-04T09:41:30.000Z</time>
      </trkpt>
      <trkpt lat="47.35902" lon="-2.42261">
        <ele>16.60000038147</ele>
        <time>2021-03-04T09:41:38.000Z</time>
      </trkpt>
      <trkpt lat="47.3593" lon="-2.42298">
        <ele>17</ele>
        <time>2021-03-04T09:41:44.000Z</time>
      </trkpt>
      <trkpt lat="47.35936" lon="-2.42303">
        <ele>17.39999961853</ele>
        <time>2021-03-04T09:41:45.000Z</time>
      </trkpt>
      <trkpt lat="47.35941" lon="-2.42308">
        <ele>17.799999237061</ele>
        <time>2021-03-04T09:41:46.000Z</time>
      </trkpt>
      <trkpt lat="47.35947" lon="-2.42313">
        <ele>18.39999961853</ele>
        <time>2021-03-04T09:41:47.000Z</time>
      </trkpt>
      <trkpt lat="47.35952" lon="-2.42319">
        <ele>18.799999237061</ele>
        <time>2021-03-04T09:41:48.000Z</time>
      </trkpt>
      <trkpt lat="47.35962" lon="-2.4233">
        <ele>18.799999237061</ele>
        <time>2021-03-04T09:41:50.000Z</time>
      </trkpt>
      <trkpt lat="47.3599" lon="-2.4237">
        <ele>18.799999237061</ele>
        <time>2021-03-04T09:41:56.000Z</time>
      </trkpt>
      <trkpt lat="47.36015" lon="-2.42414">
        <ele>18.799999237061</ele>
        <time>2021-03-04T09:42:02.000Z</time>
      </trkpt>
      <trkpt lat="47.36037" lon="-2.42461">
        <ele>18.799999237061</ele>
        <time>2021-03-04T09:42:08.000Z</time>
      </trkpt>
      <trkpt lat="47.36058" lon="-2.4251">
        <ele>18.799999237061</ele>
        <time>2021-03-04T09:42:14.000Z</time>
      </trkpt>
      <trkpt lat="47.36088" lon="-2.42578">
        <ele>18.799999237061</ele>
        <time>2021-03-04T09:42:22.000Z</time>
      </trkpt>
      <trkpt lat="47.3611" lon="-2.42639">
        <ele>18.799999237061</ele>
        <time>2021-03-04T09:42:29.000Z</time>
      </trkpt>
      <trkpt lat="47.36122" lon="-2.42697">
        <ele>18.799999237061</ele>
        <time>2021-03-04T09:42:35.000Z</time>
      </trkpt>
      <trkpt lat="47.36134" lon="-2.42768">
        <ele>18.799999237061</ele>
        <time>2021-03-04T09:42:43.000Z</time>
      </trkpt>
      <trkpt lat="47.36142" lon="-2.42825">
        <ele>18.799999237061</ele>
        <time>2021-03-04T09:42:50.000Z</time>
      </trkpt>
      <trkpt lat="47.36144" lon="-2.4283">
        <ele>18.799999237061</ele>
        <time>2021-03-04T09:42:51.000Z</time>
      </trkpt>
      <trkpt lat="47.36153" lon="-2.42838">
        <ele>18.799999237061</ele>
        <time>2021-03-04T09:42:53.000Z</time>
      </trkpt>
      <trkpt lat="47.36175" lon="-2.4284">
        <ele>18.799999237061</ele>
        <time>2021-03-04T09:42:57.000Z</time>
      </trkpt>
      <trkpt lat="47.36186" lon="-2.42842">
        <ele>18.799999237061</ele>
        <time>2021-03-04T09:42:59.000Z</time>
      </trkpt>
      <trkpt lat="47.36208" lon="-2.42845">
        <ele>18.799999237061</ele>
        <time>2021-03-04T09:43:03.000Z</time>
      </trkpt>
      <trkpt lat="47.3624" lon="-2.4285">
        <ele>19.200000762939</ele>
        <time>2021-03-04T09:43:09.000Z</time>
      </trkpt>
      <trkpt lat="47.36245" lon="-2.42851">
        <ele>19.60000038147</ele>
        <time>2021-03-04T09:43:10.000Z</time>
      </trkpt>
      <trkpt lat="47.3625" lon="-2.42852">
        <ele>20</ele>
        <time>2021-03-04T09:43:11.000Z</time>
      </trkpt>
      <trkpt lat="47.36255" lon="-2.42852">
        <ele>20.39999961853</ele>
        <time>2021-03-04T09:43:12.000Z</time>
      </trkpt>
      <trkpt lat="47.3626" lon="-2.42853">
        <ele>20.799999237061</ele>
        <time>2021-03-04T09:43:13.000Z</time>
      </trkpt>
      <trkpt lat="47.36292" lon="-2.42858">
        <ele>20.799999237061</ele>
        <time>2021-03-04T09:43:19.000Z</time>
      </trkpt>
      <trkpt lat="47.36334" lon="-2.42864">
        <ele>20.799999237061</ele>
        <time>2021-03-04T09:43:26.000Z</time>
      </trkpt>
      <trkpt lat="47.36369" lon="-2.4287">
        <ele>21.200000762939</ele>
        <time>2021-03-04T09:43:31.000Z</time>
      </trkpt>
      <trkpt lat="47.36376" lon="-2.42871">
        <ele>21.60000038147</ele>
        <time>2021-03-04T09:43:32.000Z</time>
      </trkpt>
      <trkpt lat="47.36384" lon="-2.42872">
        <ele>22.39999961853</ele>
        <time>2021-03-04T09:43:33.000Z</time>
      </trkpt>
      <trkpt lat="47.36391" lon="-2.42872">
        <ele>22.799999237061</ele>
        <time>2021-03-04T09:43:34.000Z</time>
      </trkpt>
      <trkpt lat="47.36439" lon="-2.42879">
        <ele>22.799999237061</ele>
        <time>2021-03-04T09:43:40.000Z</time>
      </trkpt>
      <trkpt lat="47.36477" lon="-2.42885">
        <ele>22.799999237061</ele>
        <time>2021-03-04T09:43:45.000Z</time>
      </trkpt>
      <trkpt lat="47.36502" lon="-2.42889">
        <ele>22.799999237061</ele>
        <time>2021-03-04T09:43:49.000Z</time>
      </trkpt>
      <trkpt lat="47.36525" lon="-2.4289">
        <ele>22.799999237061</ele>
        <time>2021-03-04T09:43:53.000Z</time>
      </trkpt>
      <trkpt lat="47.36536" lon="-2.42885">
        <ele>22.799999237061</ele>
        <time>2021-03-04T09:43:55.000Z</time>
      </trkpt>
      <trkpt lat="47.36554" lon="-2.4287">
        <ele>22.799999237061</ele>
        <time>2021-03-04T09:43:58.000Z</time>
      </trkpt>
      <trkpt lat="47.3656" lon="-2.42864">
        <ele>22.799999237061</ele>
        <time>2021-03-04T09:43:59.000Z</time>
      </trkpt>
      <trkpt lat="47.36601" lon="-2.42825">
        <ele>22.799999237061</ele>
        <time>2021-03-04T09:44:05.000Z</time>
      </trkpt>
      <trkpt lat="47.36608" lon="-2.42819">
        <ele>22.39999961853</ele>
        <time>2021-03-04T09:44:06.000Z</time>
      </trkpt>
      <trkpt lat="47.36616" lon="-2.42812">
        <ele>22</ele>
        <time>2021-03-04T09:44:07.000Z</time>
      </trkpt>
      <trkpt lat="47.36623" lon="-2.42806">
        <ele>21.39999961853</ele>
        <time>2021-03-04T09:44:08.000Z</time>
      </trkpt>
      <trkpt lat="47.3663" lon="-2.428">
        <ele>21</ele>
        <time>2021-03-04T09:44:09.000Z</time>
      </trkpt>
      <trkpt lat="47.36637" lon="-2.42793">
        <ele>20.60000038147</ele>
        <time>2021-03-04T09:44:10.000Z</time>
      </trkpt>
      <trkpt lat="47.36659" lon="-2.42774">
        <ele>20.60000038147</ele>
        <time>2021-03-04T09:44:13.000Z</time>
      </trkpt>
      <trkpt lat="47.36667" lon="-2.42768">
        <ele>20.200000762939</ele>
        <time>2021-03-04T09:44:14.000Z</time>
      </trkpt>
      <trkpt lat="47.36675" lon="-2.42763">
        <ele>19.799999237061</ele>
        <time>2021-03-04T09:44:15.000Z</time>
      </trkpt>
      <trkpt lat="47.36683" lon="-2.42758">
        <ele>19.39999961853</ele>
        <time>2021-03-04T09:44:16.000Z</time>
      </trkpt>
      <trkpt lat="47.36691" lon="-2.42755">
        <ele>19</ele>
        <time>2021-03-04T09:44:17.000Z</time>
      </trkpt>
      <trkpt lat="47.367" lon="-2.42752">
        <ele>18.39999961853</ele>
        <time>2021-03-04T09:44:18.000Z</time>
      </trkpt>
      <trkpt lat="47.36727" lon="-2.42747">
        <ele>18</ele>
        <time>2021-03-04T09:44:21.000Z</time>
      </trkpt>
      <trkpt lat="47.36736" lon="-2.42745">
        <ele>17.60000038147</ele>
        <time>2021-03-04T09:44:22.000Z</time>
      </trkpt>
      <trkpt lat="47.36745" lon="-2.42744">
        <ele>16.60000038147</ele>
        <time>2021-03-04T09:44:23.000Z</time>
      </trkpt>
      <trkpt lat="47.36753" lon="-2.42743">
        <ele>16.200000762939</ele>
        <time>2021-03-04T09:44:24.000Z</time>
      </trkpt>
      <trkpt lat="47.3681" lon="-2.42732">
        <ele>16.200000762939</ele>
        <time>2021-03-04T09:44:31.000Z</time>
      </trkpt>
      <trkpt lat="47.36836" lon="-2.42728">
        <ele>15.800000190735</ele>
        <time>2021-03-04T09:44:34.000Z</time>
      </trkpt>
      <trkpt lat="47.36844" lon="-2.42727">
        <ele>15.39999961853</ele>
        <time>2021-03-04T09:44:35.000Z</time>
      </trkpt>
      <trkpt lat="47.36853" lon="-2.42725">
        <ele>15</ele>
        <time>2021-03-04T09:44:36.000Z</time>
      </trkpt>
      <trkpt lat="47.36861" lon="-2.42724">
        <ele>14.60000038147</ele>
        <time>2021-03-04T09:44:37.000Z</time>
      </trkpt>
      <trkpt lat="47.36869" lon="-2.42723">
        <ele>14.199999809265</ele>
        <time>2021-03-04T09:44:38.000Z</time>
      </trkpt>
      <trkpt lat="47.36915" lon="-2.42724">
        <ele>14.199999809265</ele>
        <time>2021-03-04T09:44:44.000Z</time>
      </trkpt>
      <trkpt lat="47.36961" lon="-2.42728">
        <ele>14.199999809265</ele>
        <time>2021-03-04T09:44:51.000Z</time>
      </trkpt>
      <trkpt lat="47.36995" lon="-2.42725">
        <ele>14.199999809265</ele>
        <time>2021-03-04T09:44:56.000Z</time>
      </trkpt>
      <trkpt lat="47.37024" lon="-2.42727">
        <ele>13.60000038147</ele>
        <time>2021-03-04T09:45:00.000Z</time>
      </trkpt>
      <trkpt lat="47.37031" lon="-2.42727">
        <ele>13.199999809265</ele>
        <time>2021-03-04T09:45:01.000Z</time>
      </trkpt>
      <trkpt lat="47.37038" lon="-2.42727">
        <ele>12.800000190735</ele>
        <time>2021-03-04T09:45:02.000Z</time>
      </trkpt>
      <trkpt lat="47.37045" lon="-2.42728">
        <ele>12.199999809265</ele>
        <time>2021-03-04T09:45:03.000Z</time>
      </trkpt>
      <trkpt lat="47.37051" lon="-2.4273">
        <ele>11.800000190735</ele>
        <time>2021-03-04T09:45:04.000Z</time>
      </trkpt>
      <trkpt lat="47.37058" lon="-2.42733">
        <ele>11.800000190735</ele>
        <time>2021-03-04T09:45:05.000Z</time>
      </trkpt>
      <trkpt lat="47.37065" lon="-2.42737">
        <ele>11.39999961853</ele>
        <time>2021-03-04T09:45:06.000Z</time>
      </trkpt>
      <trkpt lat="47.3707" lon="-2.42744">
        <ele>10.800000190735</ele>
        <time>2021-03-04T09:45:07.000Z</time>
      </trkpt>
      <trkpt lat="47.37076" lon="-2.42751">
        <ele>10.39999961853</ele>
        <time>2021-03-04T09:45:08.000Z</time>
      </trkpt>
      <trkpt lat="47.3708" lon="-2.42757">
        <ele>10</ele>
        <time>2021-03-04T09:45:09.000Z</time>
      </trkpt>
      <trkpt lat="47.37083" lon="-2.42764">
        <ele>9.6000003814697</ele>
        <time>2021-03-04T09:45:10.000Z</time>
      </trkpt>
      <trkpt lat="47.37088" lon="-2.42776">
        <ele>9.6000003814697</ele>
        <time>2021-03-04T09:45:12.000Z</time>
      </trkpt>
      <trkpt lat="47.37085" lon="-2.428">
        <ele>9.6000003814697</ele>
        <time>2021-03-04T09:45:15.000Z</time>
      </trkpt>
      <trkpt lat="47.37084" lon="-2.42809">
        <ele>9.6000003814697</ele>
        <time>2021-03-04T09:45:16.000Z</time>
      </trkpt>
      <trkpt lat="47.37082" lon="-2.42828">
        <ele>9.6000003814697</ele>
        <time>2021-03-04T09:45:18.000Z</time>
      </trkpt>
      <trkpt lat="47.37081" lon="-2.42845">
        <ele>9.6000003814697</ele>
        <time>2021-03-04T09:45:20.000Z</time>
      </trkpt>
      <trkpt lat="47.37082" lon="-2.42854">
        <ele>9.6000003814697</ele>
        <time>2021-03-04T09:45:21.000Z</time>
      </trkpt>
      <trkpt lat="47.37084" lon="-2.4287">
        <ele>10</ele>
        <time>2021-03-04T09:45:23.000Z</time>
      </trkpt>
      <trkpt lat="47.37086" lon="-2.42877">
        <ele>10.39999961853</ele>
        <time>2021-03-04T09:45:24.000Z</time>
      </trkpt>
      <trkpt lat="47.37087" lon="-2.42885">
        <ele>10.800000190735</ele>
        <time>2021-03-04T09:45:25.000Z</time>
      </trkpt>
      <trkpt lat="47.37089" lon="-2.42892">
        <ele>11.199999809265</ele>
        <time>2021-03-04T09:45:26.000Z</time>
      </trkpt>
      <trkpt lat="47.3709" lon="-2.429">
        <ele>11.60000038147</ele>
        <time>2021-03-04T09:45:27.000Z</time>
      </trkpt>
      <trkpt lat="47.37098" lon="-2.42951">
        <ele>12</ele>
        <time>2021-03-04T09:45:34.000Z</time>
      </trkpt>
      <trkpt lat="47.37099" lon="-2.42958">
        <ele>12.39999961853</ele>
        <time>2021-03-04T09:45:35.000Z</time>
      </trkpt>
      <trkpt lat="47.37101" lon="-2.42965">
        <ele>12.800000190735</ele>
        <time>2021-03-04T09:45:36.000Z</time>
      </trkpt>
      <trkpt lat="47.37103" lon="-2.42972">
        <ele>13.60000038147</ele>
        <time>2021-03-04T09:45:37.000Z</time>
      </trkpt>
      <trkpt lat="47.37109" lon="-2.42994">
        <ele>13.60000038147</ele>
        <time>2021-03-04T09:45:40.000Z</time>
      </trkpt>
      <trkpt lat="47.37121" lon="-2.43018">
        <ele>13.60000038147</ele>
        <time>2021-03-04T09:45:44.000Z</time>
      </trkpt>
      <trkpt lat="47.37128" lon="-2.43028">
        <ele>14.199999809265</ele>
        <time>2021-03-04T09:45:46.000Z</time>
      </trkpt>
      <trkpt lat="47.37132" lon="-2.43032">
        <ele>14.60000038147</ele>
        <time>2021-03-04T09:45:47.000Z</time>
      </trkpt>
      <trkpt lat="47.37136" lon="-2.43037">
        <ele>15</ele>
        <time>2021-03-04T09:45:48.000Z</time>
      </trkpt>
      <trkpt lat="47.37141" lon="-2.43043">
        <ele>15.39999961853</ele>
        <time>2021-03-04T09:45:49.000Z</time>
      </trkpt>
      <trkpt lat="47.37144" lon="-2.43047">
        <ele>15.800000190735</ele>
        <time>2021-03-04T09:45:50.000Z</time>
      </trkpt>
      <trkpt lat="47.37152" lon="-2.43057">
        <ele>15.800000190735</ele>
        <time>2021-03-04T09:45:52.000Z</time>
      </trkpt>
      <trkpt lat="47.37169" lon="-2.43076">
        <ele>16.200000762939</ele>
        <time>2021-03-04T09:45:56.000Z</time>
      </trkpt>
      <trkpt lat="47.37173" lon="-2.43081">
        <ele>16.60000038147</ele>
        <time>2021-03-04T09:45:57.000Z</time>
      </trkpt>
      <trkpt lat="47.37178" lon="-2.43085">
        <ele>17</ele>
        <time>2021-03-04T09:45:58.000Z</time>
      </trkpt>
      <trkpt lat="47.37182" lon="-2.4309">
        <ele>17.39999961853</ele>
        <time>2021-03-04T09:45:59.000Z</time>
      </trkpt>
      <trkpt lat="47.37186" lon="-2.43096">
        <ele>18</ele>
        <time>2021-03-04T09:46:00.000Z</time>
      </trkpt>
      <trkpt lat="47.37204" lon="-2.4312">
        <ele>18</ele>
        <time>2021-03-04T09:46:05.000Z</time>
      </trkpt>
      <trkpt lat="47.37216" lon="-2.43135">
        <ele>18.39999961853</ele>
        <time>2021-03-04T09:46:08.000Z</time>
      </trkpt>
      <trkpt lat="47.37221" lon="-2.4314">
        <ele>18.799999237061</ele>
        <time>2021-03-04T09:46:09.000Z</time>
      </trkpt>
      <trkpt lat="47.37225" lon="-2.43145">
        <ele>19.200000762939</ele>
        <time>2021-03-04T09:46:10.000Z</time>
      </trkpt>
      <trkpt lat="47.37229" lon="-2.4315">
        <ele>19.60000038147</ele>
        <time>2021-03-04T09:46:11.000Z</time>
      </trkpt>
      <trkpt lat="47.37233" lon="-2.43155">
        <ele>20</ele>
        <time>2021-03-04T09:46:12.000Z</time>
      </trkpt>
      <trkpt lat="47.37251" lon="-2.43181">
        <ele>20</ele>
        <time>2021-03-04T09:46:17.000Z</time>
      </trkpt>
      <trkpt lat="47.37273" lon="-2.43211">
        <ele>20</ele>
        <time>2021-03-04T09:46:24.000Z</time>
      </trkpt>
      <trkpt lat="47.37293" lon="-2.4324">
        <ele>20</ele>
        <time>2021-03-04T09:46:31.000Z</time>
      </trkpt>
      <trkpt lat="47.37307" lon="-2.4326">
        <ele>20</ele>
        <time>2021-03-04T09:46:37.000Z</time>
      </trkpt>
      <trkpt lat="47.37317" lon="-2.43277">
        <ele>20</ele>
        <time>2021-03-04T09:46:43.000Z</time>
      </trkpt>
      <trkpt lat="47.37322" lon="-2.43283">
        <ele>20</ele>
        <time>2021-03-04T09:46:49.000Z</time>
      </trkpt>
      <trkpt lat="47.37323" lon="-2.43284">
        <ele>20</ele>
        <time>2021-03-04T09:46:51.000Z</time>
      </trkpt>
      <trkpt lat="47.37324" lon="-2.43285">
        <ele>20</ele>
        <time>2021-03-04T09:47:09.000Z</time>
      </trkpt>
      <trkpt lat="47.37328" lon="-2.43287">
        <ele>20</ele>
        <time>2021-03-04T09:47:11.000Z</time>
      </trkpt>
      <trkpt lat="47.37343" lon="-2.43288">
        <ele>20</ele>
        <time>2021-03-04T09:47:17.000Z</time>
      </trkpt>
      <trkpt lat="47.37362" lon="-2.433">
        <ele>20</ele>
        <time>2021-03-04T09:47:22.000Z</time>
      </trkpt>
      <trkpt lat="47.37365" lon="-2.43323">
        <ele>20</ele>
        <time>2021-03-04T09:47:26.000Z</time>
      </trkpt>
      <trkpt lat="47.37369" lon="-2.43355">
        <ele>20</ele>
        <time>2021-03-04T09:47:32.000Z</time>
      </trkpt>
      <trkpt lat="47.37371" lon="-2.43393">
        <ele>20</ele>
        <time>2021-03-04T09:47:39.000Z</time>
      </trkpt>
      <trkpt lat="47.37377" lon="-2.43443">
        <ele>20</ele>
        <time>2021-03-04T09:47:47.000Z</time>
      </trkpt>
      <trkpt lat="47.37377" lon="-2.43449">
        <ele>20</ele>
        <time>2021-03-04T09:47:48.000Z</time>
      </trkpt>
      <trkpt lat="47.37376" lon="-2.43462">
        <ele>20</ele>
        <time>2021-03-04T09:47:50.000Z</time>
      </trkpt>
      <trkpt lat="47.37373" lon="-2.43467">
        <ele>20</ele>
        <time>2021-03-04T09:47:51.000Z</time>
      </trkpt>
      <trkpt lat="47.3736" lon="-2.43474">
        <ele>20</ele>
        <time>2021-03-04T09:47:54.000Z</time>
      </trkpt>
      <trkpt lat="47.37356" lon="-2.43476">
        <ele>20</ele>
        <time>2021-03-04T09:47:55.000Z</time>
      </trkpt>
      <trkpt lat="47.37326" lon="-2.43491">
        <ele>20</ele>
        <time>2021-03-04T09:48:02.000Z</time>
      </trkpt>
      <trkpt lat="47.37308" lon="-2.43502">
        <ele>20.39999961853</ele>
        <time>2021-03-04T09:48:06.000Z</time>
      </trkpt>
      <trkpt lat="47.37303" lon="-2.43505">
        <ele>20.799999237061</ele>
        <time>2021-03-04T09:48:07.000Z</time>
      </trkpt>
      <trkpt lat="47.37299" lon="-2.43507">
        <ele>21.200000762939</ele>
        <time>2021-03-04T09:48:08.000Z</time>
      </trkpt>
      <trkpt lat="47.37294" lon="-2.4351">
        <ele>21.60000038147</ele>
        <time>2021-03-04T09:48:09.000Z</time>
      </trkpt>
      <trkpt lat="47.37289" lon="-2.43512">
        <ele>22</ele>
        <time>2021-03-04T09:48:10.000Z</time>
      </trkpt>
      <trkpt lat="47.37255" lon="-2.43534">
        <ele>22</ele>
        <time>2021-03-04T09:48:18.000Z</time>
      </trkpt>
      <trkpt lat="47.37244" lon="-2.43542">
        <ele>22</ele>
        <time>2021-03-04T09:48:21.000Z</time>
      </trkpt>
      <trkpt lat="47.37238" lon="-2.43553">
        <ele>22</ele>
        <time>2021-03-04T09:48:23.000Z</time>
      </trkpt>
      <trkpt lat="47.37237" lon="-2.43578">
        <ele>22</ele>
        <time>2021-03-04T09:48:27.000Z</time>
      </trkpt>
      <trkpt lat="47.37243" lon="-2.43598">
        <ele>22</ele>
        <time>2021-03-04T09:48:30.000Z</time>
      </trkpt>
      <trkpt lat="47.37247" lon="-2.43612">
        <ele>22</ele>
        <time>2021-03-04T09:48:32.000Z</time>
      </trkpt>
      <trkpt lat="47.37261" lon="-2.43661">
        <ele>22</ele>
        <time>2021-03-04T09:48:39.000Z</time>
      </trkpt>
      <trkpt lat="47.37272" lon="-2.43698">
        <ele>22</ele>
        <time>2021-03-04T09:48:45.000Z</time>
      </trkpt>
      <trkpt lat="47.37283" lon="-2.4374">
        <ele>22</ele>
        <time>2021-03-04T09:48:51.000Z</time>
      </trkpt>
      <trkpt lat="47.373" lon="-2.43802">
        <ele>21.60000038147</ele>
        <time>2021-03-04T09:49:00.000Z</time>
      </trkpt>
      <trkpt lat="47.37302" lon="-2.43809">
        <ele>21.200000762939</ele>
        <time>2021-03-04T09:49:01.000Z</time>
      </trkpt>
      <trkpt lat="47.37303" lon="-2.43816">
        <ele>20.799999237061</ele>
        <time>2021-03-04T09:49:02.000Z</time>
      </trkpt>
      <trkpt lat="47.37306" lon="-2.43824">
        <ele>20.39999961853</ele>
        <time>2021-03-04T09:49:03.000Z</time>
      </trkpt>
      <trkpt lat="47.37308" lon="-2.43831">
        <ele>20</ele>
        <time>2021-03-04T09:49:04.000Z</time>
      </trkpt>
      <trkpt lat="47.37318" lon="-2.43865">
        <ele>20</ele>
        <time>2021-03-04T09:49:08.000Z</time>
      </trkpt>
      <trkpt lat="47.37327" lon="-2.43894">
        <ele>19.60000038147</ele>
        <time>2021-03-04T09:49:11.000Z</time>
      </trkpt>
      <trkpt lat="47.3733" lon="-2.43905">
        <ele>19</ele>
        <time>2021-03-04T09:49:12.000Z</time>
      </trkpt>
      <trkpt lat="47.37333" lon="-2.43917">
        <ele>18.60000038147</ele>
        <time>2021-03-04T09:49:13.000Z</time>
      </trkpt>
      <trkpt lat="47.37336" lon="-2.43929">
        <ele>18.200000762939</ele>
        <time>2021-03-04T09:49:14.000Z</time>
      </trkpt>
      <trkpt lat="47.37339" lon="-2.43941">
        <ele>17.799999237061</ele>
        <time>2021-03-04T09:49:15.000Z</time>
      </trkpt>
      <trkpt lat="47.37343" lon="-2.43954">
        <ele>17.200000762939</ele>
        <time>2021-03-04T09:49:16.000Z</time>
      </trkpt>
      <trkpt lat="47.37346" lon="-2.43967">
        <ele>16.799999237061</ele>
        <time>2021-03-04T09:49:17.000Z</time>
      </trkpt>
      <trkpt lat="47.37349" lon="-2.4398">
        <ele>16.200000762939</ele>
        <time>2021-03-04T09:49:18.000Z</time>
      </trkpt>
      <trkpt lat="47.37352" lon="-2.43992">
        <ele>15.199999809265</ele>
        <time>2021-03-04T09:49:19.000Z</time>
      </trkpt>
      <trkpt lat="47.37356" lon="-2.44005">
        <ele>14.60000038147</ele>
        <time>2021-03-04T09:49:20.000Z</time>
      </trkpt>
      <trkpt lat="47.3736" lon="-2.44017">
        <ele>13.800000190735</ele>
        <time>2021-03-04T09:49:21.000Z</time>
      </trkpt>
      <trkpt lat="47.37365" lon="-2.44027">
        <ele>13.199999809265</ele>
        <time>2021-03-04T09:49:22.000Z</time>
      </trkpt>
      <trkpt lat="47.37369" lon="-2.44036">
        <ele>12.60000038147</ele>
        <time>2021-03-04T09:49:23.000Z</time>
      </trkpt>
      <trkpt lat="47.37374" lon="-2.44043">
        <ele>12.60000038147</ele>
        <time>2021-03-04T09:49:24.000Z</time>
      </trkpt>
      <trkpt lat="47.37391" lon="-2.44065">
        <ele>12.60000038147</ele>
        <time>2021-03-04T09:49:28.000Z</time>
      </trkpt>
      <trkpt lat="47.37408" lon="-2.44088">
        <ele>13</ele>
        <time>2021-03-04T09:49:33.000Z</time>
      </trkpt>
      <trkpt lat="47.3741" lon="-2.44093">
        <ele>13.39999961853</ele>
        <time>2021-03-04T09:49:34.000Z</time>
      </trkpt>
      <trkpt lat="47.37412" lon="-2.44098">
        <ele>13.800000190735</ele>
        <time>2021-03-04T09:49:35.000Z</time>
      </trkpt>
      <trkpt lat="47.37414" lon="-2.44104">
        <ele>14.199999809265</ele>
        <time>2021-03-04T09:49:36.000Z</time>
      </trkpt>
      <trkpt lat="47.37416" lon="-2.44109">
        <ele>14.800000190735</ele>
        <time>2021-03-04T09:49:37.000Z</time>
      </trkpt>
      <trkpt lat="47.3742" lon="-2.44121">
        <ele>14.800000190735</ele>
        <time>2021-03-04T09:49:39.000Z</time>
      </trkpt>
      <trkpt lat="47.37424" lon="-2.44133">
        <ele>15.199999809265</ele>
        <time>2021-03-04T09:49:41.000Z</time>
      </trkpt>
      <trkpt lat="47.37426" lon="-2.44139">
        <ele>15.60000038147</ele>
        <time>2021-03-04T09:49:42.000Z</time>
      </trkpt>
      <trkpt lat="47.37428" lon="-2.44145">
        <ele>16</ele>
        <time>2021-03-04T09:49:43.000Z</time>
      </trkpt>
      <trkpt lat="47.3743" lon="-2.44151">
        <ele>16.799999237061</ele>
        <time>2021-03-04T09:49:44.000Z</time>
      </trkpt>
      <trkpt lat="47.37434" lon="-2.44163">
        <ele>16.799999237061</ele>
        <time>2021-03-04T09:49:46.000Z</time>
      </trkpt>
      <trkpt lat="47.37445" lon="-2.44192">
        <ele>17.200000762939</ele>
        <time>2021-03-04T09:49:51.000Z</time>
      </trkpt>
      <trkpt lat="47.37447" lon="-2.44198">
        <ele>17.60000038147</ele>
        <time>2021-03-04T09:49:52.000Z</time>
      </trkpt>
      <trkpt lat="47.37448" lon="-2.44204">
        <ele>18</ele>
        <time>2021-03-04T09:49:53.000Z</time>
      </trkpt>
      <trkpt lat="47.3745" lon="-2.4421">
        <ele>18.60000038147</ele>
        <time>2021-03-04T09:49:54.000Z</time>
      </trkpt>
      <trkpt lat="47.37452" lon="-2.44216">
        <ele>19</ele>
        <time>2021-03-04T09:49:55.000Z</time>
      </trkpt>
      <trkpt lat="47.37463" lon="-2.44251">
        <ele>19</ele>
        <time>2021-03-04T09:50:01.000Z</time>
      </trkpt>
      <trkpt lat="47.37474" lon="-2.44286">
        <ele>19</ele>
        <time>2021-03-04T09:50:07.000Z</time>
      </trkpt>
      <trkpt lat="47.37481" lon="-2.44309">
        <ele>19.39999961853</ele>
        <time>2021-03-04T09:50:11.000Z</time>
      </trkpt>
      <trkpt lat="47.37483" lon="-2.44315">
        <ele>19.799999237061</ele>
        <time>2021-03-04T09:50:12.000Z</time>
      </trkpt>
      <trkpt lat="47.37485" lon="-2.4432">
        <ele>20.200000762939</ele>
        <time>2021-03-04T09:50:13.000Z</time>
      </trkpt>
      <trkpt lat="47.37486" lon="-2.44325">
        <ele>20.60000038147</ele>
        <time>2021-03-04T09:50:14.000Z</time>
      </trkpt>
      <trkpt lat="47.37489" lon="-2.4433">
        <ele>21</ele>
        <time>2021-03-04T09:50:15.000Z</time>
      </trkpt>
      <trkpt lat="47.37501" lon="-2.44352">
        <ele>21</ele>
        <time>2021-03-04T09:50:20.000Z</time>
      </trkpt>
      <trkpt lat="47.37518" lon="-2.44358">
        <ele>21</ele>
        <time>2021-03-04T09:50:24.000Z</time>
      </trkpt>
      <trkpt lat="47.37527" lon="-2.44356">
        <ele>21</ele>
        <time>2021-03-04T09:50:26.000Z</time>
      </trkpt>
      <trkpt lat="47.37542" lon="-2.44351">
        <ele>21</ele>
        <time>2021-03-04T09:50:29.000Z</time>
      </trkpt>
      <trkpt lat="47.37547" lon="-2.44349">
        <ele>21</ele>
        <time>2021-03-04T09:50:30.000Z</time>
      </trkpt>
      <trkpt lat="47.37587" lon="-2.44337">
        <ele>21</ele>
        <time>2021-03-04T09:50:38.000Z</time>
      </trkpt>
      <trkpt lat="47.37597" lon="-2.44335">
        <ele>21</ele>
        <time>2021-03-04T09:50:40.000Z</time>
      </trkpt>
      <trkpt lat="47.37604" lon="-2.44346">
        <ele>21</ele>
        <time>2021-03-04T09:50:42.000Z</time>
      </trkpt>
      <trkpt lat="47.37605" lon="-2.44369">
        <ele>21</ele>
        <time>2021-03-04T09:50:45.000Z</time>
      </trkpt>
      <trkpt lat="47.37603" lon="-2.44385">
        <ele>21</ele>
        <time>2021-03-04T09:50:47.000Z</time>
      </trkpt>
      <trkpt lat="47.37604" lon="-2.44408">
        <ele>21</ele>
        <time>2021-03-04T09:50:50.000Z</time>
      </trkpt>
      <trkpt lat="47.37614" lon="-2.44454">
        <ele>21</ele>
        <time>2021-03-04T09:50:56.000Z</time>
      </trkpt>
      <trkpt lat="47.37626" lon="-2.44507">
        <ele>21</ele>
        <time>2021-03-04T09:51:03.000Z</time>
      </trkpt>
      <trkpt lat="47.37633" lon="-2.44575">
        <ele>21</ele>
        <time>2021-03-04T09:51:12.000Z</time>
      </trkpt>
      <trkpt lat="47.37634" lon="-2.4459">
        <ele>21.39999961853</ele>
        <time>2021-03-04T09:51:14.000Z</time>
      </trkpt>
      <trkpt lat="47.37635" lon="-2.44597">
        <ele>21.799999237061</ele>
        <time>2021-03-04T09:51:15.000Z</time>
      </trkpt>
      <trkpt lat="47.37636" lon="-2.44605">
        <ele>22.200000762939</ele>
        <time>2021-03-04T09:51:16.000Z</time>
      </trkpt>
      <trkpt lat="47.37636" lon="-2.44612">
        <ele>22.60000038147</ele>
        <time>2021-03-04T09:51:17.000Z</time>
      </trkpt>
      <trkpt lat="47.37637" lon="-2.44619">
        <ele>23</ele>
        <time>2021-03-04T09:51:18.000Z</time>
      </trkpt>
      <trkpt lat="47.37638" lon="-2.44634">
        <ele>23</ele>
        <time>2021-03-04T09:51:20.000Z</time>
      </trkpt>
      <trkpt lat="47.37638" lon="-2.44685">
        <ele>23</ele>
        <time>2021-03-04T09:51:27.000Z</time>
      </trkpt>
      <trkpt lat="47.37633" lon="-2.4473">
        <ele>23</ele>
        <time>2021-03-04T09:51:33.000Z</time>
      </trkpt>
      <trkpt lat="47.37632" lon="-2.44737">
        <ele>23.39999961853</ele>
        <time>2021-03-04T09:51:34.000Z</time>
      </trkpt>
      <trkpt lat="47.37632" lon="-2.44744">
        <ele>23.799999237061</ele>
        <time>2021-03-04T09:51:35.000Z</time>
      </trkpt>
      <trkpt lat="47.37631" lon="-2.44751">
        <ele>24.200000762939</ele>
        <time>2021-03-04T09:51:36.000Z</time>
      </trkpt>
      <trkpt lat="47.3763" lon="-2.44758">
        <ele>24.60000038147</ele>
        <time>2021-03-04T09:51:37.000Z</time>
      </trkpt>
      <trkpt lat="47.37629" lon="-2.44765">
        <ele>25</ele>
        <time>2021-03-04T09:51:38.000Z</time>
      </trkpt>
      <trkpt lat="47.37626" lon="-2.44785">
        <ele>25</ele>
        <time>2021-03-04T09:51:41.000Z</time>
      </trkpt>
      <trkpt lat="47.37615" lon="-2.44827">
        <ele>25</ele>
        <time>2021-03-04T09:51:48.000Z</time>
      </trkpt>
      <trkpt lat="47.37617" lon="-2.44847">
        <ele>25</ele>
        <time>2021-03-04T09:51:51.000Z</time>
      </trkpt>
      <trkpt lat="47.37629" lon="-2.4487">
        <ele>25</ele>
        <time>2021-03-04T09:51:55.000Z</time>
      </trkpt>
      <trkpt lat="47.37648" lon="-2.44903">
        <ele>25</ele>
        <time>2021-03-04T09:52:01.000Z</time>
      </trkpt>
      <trkpt lat="47.37668" lon="-2.44935">
        <ele>25</ele>
        <time>2021-03-04T09:52:07.000Z</time>
      </trkpt>
      <trkpt lat="47.37671" lon="-2.44941">
        <ele>25</ele>
        <time>2021-03-04T09:52:08.000Z</time>
      </trkpt>
      <trkpt lat="47.37696" lon="-2.44984">
        <ele>25</ele>
        <time>2021-03-04T09:52:16.000Z</time>
      </trkpt>
      <trkpt lat="47.37717" lon="-2.45023">
        <ele>25</ele>
        <time>2021-03-04T09:52:23.000Z</time>
      </trkpt>
      <trkpt lat="47.37743" lon="-2.45069">
        <ele>25</ele>
        <time>2021-03-04T09:52:31.000Z</time>
      </trkpt>
      <trkpt lat="47.37749" lon="-2.4508">
        <ele>25.39999961853</ele>
        <time>2021-03-04T09:52:33.000Z</time>
      </trkpt>
      <trkpt lat="47.37752" lon="-2.45086">
        <ele>25.799999237061</ele>
        <time>2021-03-04T09:52:34.000Z</time>
      </trkpt>
      <trkpt lat="47.37755" lon="-2.45092">
        <ele>26.200000762939</ele>
        <time>2021-03-04T09:52:35.000Z</time>
      </trkpt>
      <trkpt lat="47.37758" lon="-2.45097">
        <ele>27</ele>
        <time>2021-03-04T09:52:36.000Z</time>
      </trkpt>
      <trkpt lat="47.37764" lon="-2.45109">
        <ele>27</ele>
        <time>2021-03-04T09:52:38.000Z</time>
      </trkpt>
      <trkpt lat="47.3779" lon="-2.45154">
        <ele>27</ele>
        <time>2021-03-04T09:52:46.000Z</time>
      </trkpt>
      <trkpt lat="47.37818" lon="-2.45206">
        <ele>27</ele>
        <time>2021-03-04T09:52:55.000Z</time>
      </trkpt>
      <trkpt lat="47.37832" lon="-2.4523">
        <ele>27</ele>
        <time>2021-03-04T09:52:59.000Z</time>
      </trkpt>
      <trkpt lat="47.37839" lon="-2.45243">
        <ele>27</ele>
        <time>2021-03-04T09:53:01.000Z</time>
      </trkpt>
      <trkpt lat="47.37862" lon="-2.45283">
        <ele>27</ele>
        <time>2021-03-04T09:53:08.000Z</time>
      </trkpt>
      <trkpt lat="47.37893" lon="-2.45338">
        <ele>27</ele>
        <time>2021-03-04T09:53:18.000Z</time>
      </trkpt>
      <trkpt lat="47.37911" lon="-2.45373">
        <ele>27</ele>
        <time>2021-03-04T09:53:24.000Z</time>
      </trkpt>
      <trkpt lat="47.37921" lon="-2.454">
        <ele>27</ele>
        <time>2021-03-04T09:53:29.000Z</time>
      </trkpt>
      <trkpt lat="47.3792" lon="-2.45406">
        <ele>27</ele>
        <time>2021-03-04T09:53:30.000Z</time>
      </trkpt>
      <trkpt lat="47.37919" lon="-2.45417">
        <ele>27</ele>
        <time>2021-03-04T09:53:32.000Z</time>
      </trkpt>
      <trkpt lat="47.37911" lon="-2.45437">
        <ele>27</ele>
        <time>2021-03-04T09:53:35.000Z</time>
      </trkpt>
      <trkpt lat="47.37908" lon="-2.45443">
        <ele>27</ele>
        <time>2021-03-04T09:53:36.000Z</time>
      </trkpt>
      <trkpt lat="47.3789" lon="-2.45483">
        <ele>27</ele>
        <time>2021-03-04T09:53:42.000Z</time>
      </trkpt>
      <trkpt lat="47.37864" lon="-2.45538">
        <ele>27</ele>
        <time>2021-03-04T09:53:50.000Z</time>
      </trkpt>
      <trkpt lat="47.3784" lon="-2.45592">
        <ele>27</ele>
        <time>2021-03-04T09:53:58.000Z</time>
      </trkpt>
      <trkpt lat="47.37814" lon="-2.45652">
        <ele>27</ele>
        <time>2021-03-04T09:54:07.000Z</time>
      </trkpt>
      <trkpt lat="47.37792" lon="-2.45706">
        <ele>27</ele>
        <time>2021-03-04T09:54:15.000Z</time>
      </trkpt>
      <trkpt lat="47.37762" lon="-2.45772">
        <ele>27</ele>
        <time>2021-03-04T09:54:24.000Z</time>
      </trkpt>
      <trkpt lat="47.37744" lon="-2.45808">
        <ele>27.39999961853</ele>
        <time>2021-03-04T09:54:29.000Z</time>
      </trkpt>
      <trkpt lat="47.37739" lon="-2.45817">
        <ele>27.799999237061</ele>
        <time>2021-03-04T09:54:30.000Z</time>
      </trkpt>
      <trkpt lat="47.37736" lon="-2.45824">
        <ele>28.200000762939</ele>
        <time>2021-03-04T09:54:31.000Z</time>
      </trkpt>
      <trkpt lat="47.37732" lon="-2.45832">
        <ele>28.60000038147</ele>
        <time>2021-03-04T09:54:32.000Z</time>
      </trkpt>
      <trkpt lat="47.37729" lon="-2.4584">
        <ele>29</ele>
        <time>2021-03-04T09:54:33.000Z</time>
      </trkpt>
      <trkpt lat="47.37709" lon="-2.45882">
        <ele>29</ele>
        <time>2021-03-04T09:54:39.000Z</time>
      </trkpt>
      <trkpt lat="47.37684" lon="-2.45933">
        <ele>29</ele>
        <time>2021-03-04T09:54:47.000Z</time>
      </trkpt>
      <trkpt lat="47.3768" lon="-2.4594">
        <ele>29</ele>
        <time>2021-03-04T09:54:48.000Z</time>
      </trkpt>
      <trkpt lat="47.37666" lon="-2.45965">
        <ele>29</ele>
        <time>2021-03-04T09:54:52.000Z</time>
      </trkpt>
      <trkpt lat="47.37662" lon="-2.4597">
        <ele>29</ele>
        <time>2021-03-04T09:54:53.000Z</time>
      </trkpt>
      <trkpt lat="47.37652" lon="-2.45977">
        <ele>29</ele>
        <time>2021-03-04T09:54:55.000Z</time>
      </trkpt>
      <trkpt lat="47.37635" lon="-2.45976">
        <ele>29</ele>
        <time>2021-03-04T09:54:58.000Z</time>
      </trkpt>
      <trkpt lat="47.37629" lon="-2.45973">
        <ele>29.39999961853</ele>
        <time>2021-03-04T09:54:59.000Z</time>
      </trkpt>
      <trkpt lat="47.37624" lon="-2.4597">
        <ele>29.799999237061</ele>
        <time>2021-03-04T09:55:00.000Z</time>
      </trkpt>
      <trkpt lat="47.37619" lon="-2.45967">
        <ele>30.200000762939</ele>
        <time>2021-03-04T09:55:01.000Z</time>
      </trkpt>
      <trkpt lat="47.37614" lon="-2.45965">
        <ele>30.60000038147</ele>
        <time>2021-03-04T09:55:02.000Z</time>
      </trkpt>
      <trkpt lat="47.37609" lon="-2.45962">
        <ele>31</ele>
        <time>2021-03-04T09:55:03.000Z</time>
      </trkpt>
      <trkpt lat="47.37598" lon="-2.45956">
        <ele>31</ele>
        <time>2021-03-04T09:55:05.000Z</time>
      </trkpt>
      <trkpt lat="47.37557" lon="-2.45933">
        <ele>31</ele>
        <time>2021-03-04T09:55:13.000Z</time>
      </trkpt>
      <trkpt lat="47.37519" lon="-2.45912">
        <ele>31</ele>
        <time>2021-03-04T09:55:20.000Z</time>
      </trkpt>
      <trkpt lat="47.37471" lon="-2.45884">
        <ele>31</ele>
        <time>2021-03-04T09:55:29.000Z</time>
      </trkpt>
      <trkpt lat="47.37419" lon="-2.45854">
        <ele>31</ele>
        <time>2021-03-04T09:55:38.000Z</time>
      </trkpt>
      <trkpt lat="47.37362" lon="-2.45823">
        <ele>31</ele>
        <time>2021-03-04T09:55:47.000Z</time>
      </trkpt>
      <trkpt lat="47.37312" lon="-2.45794">
        <ele>31</ele>
        <time>2021-03-04T09:55:54.000Z</time>
      </trkpt>
      <trkpt lat="47.3729" lon="-2.45777">
        <ele>30.60000038147</ele>
        <time>2021-03-04T09:55:57.000Z</time>
      </trkpt>
      <trkpt lat="47.37282" lon="-2.45771">
        <ele>30.200000762939</ele>
        <time>2021-03-04T09:55:58.000Z</time>
      </trkpt>
      <trkpt lat="47.37274" lon="-2.45764">
        <ele>29.799999237061</ele>
        <time>2021-03-04T09:55:59.000Z</time>
      </trkpt>
      <trkpt lat="47.37265" lon="-2.45757">
        <ele>29.39999961853</ele>
        <time>2021-03-04T09:56:00.000Z</time>
      </trkpt>
      <trkpt lat="47.37258" lon="-2.4575">
        <ele>29</ele>
        <time>2021-03-04T09:56:01.000Z</time>
      </trkpt>
      <trkpt lat="47.37241" lon="-2.45735">
        <ele>28.60000038147</ele>
        <time>2021-03-04T09:56:03.000Z</time>
      </trkpt>
      <trkpt lat="47.37233" lon="-2.45727">
        <ele>28.200000762939</ele>
        <time>2021-03-04T09:56:04.000Z</time>
      </trkpt>
      <trkpt lat="47.37225" lon="-2.45719">
        <ele>27.60000038147</ele>
        <time>2021-03-04T09:56:05.000Z</time>
      </trkpt>
      <trkpt lat="47.37216" lon="-2.45711">
        <ele>27.200000762939</ele>
        <time>2021-03-04T09:56:06.000Z</time>
      </trkpt>
      <trkpt lat="47.37208" lon="-2.45703">
        <ele>26.799999237061</ele>
        <time>2021-03-04T09:56:07.000Z</time>
      </trkpt>
      <trkpt lat="47.37183" lon="-2.4568">
        <ele>26.39999961853</ele>
        <time>2021-03-04T09:56:10.000Z</time>
      </trkpt>
      <trkpt lat="47.37174" lon="-2.45673">
        <ele>26</ele>
        <time>2021-03-04T09:56:11.000Z</time>
      </trkpt>
      <trkpt lat="47.37165" lon="-2.45666">
        <ele>25.60000038147</ele>
        <time>2021-03-04T09:56:12.000Z</time>
      </trkpt>
      <trkpt lat="47.37157" lon="-2.45659">
        <ele>25.200000762939</ele>
        <time>2021-03-04T09:56:13.000Z</time>
      </trkpt>
      <trkpt lat="47.37148" lon="-2.45653">
        <ele>24.799999237061</ele>
        <time>2021-03-04T09:56:14.000Z</time>
      </trkpt>
      <trkpt lat="47.37139" lon="-2.45647">
        <ele>24.799999237061</ele>
        <time>2021-03-04T09:56:15.000Z</time>
      </trkpt>
      <trkpt lat="47.37129" lon="-2.45641">
        <ele>24.200000762939</ele>
        <time>2021-03-04T09:56:16.000Z</time>
      </trkpt>
      <trkpt lat="47.3712" lon="-2.45635">
        <ele>23.799999237061</ele>
        <time>2021-03-04T09:56:17.000Z</time>
      </trkpt>
      <trkpt lat="47.37111" lon="-2.4563">
        <ele>22.799999237061</ele>
        <time>2021-03-04T09:56:18.000Z</time>
      </trkpt>
      <trkpt lat="47.37102" lon="-2.45626">
        <ele>22.39999961853</ele>
        <time>2021-03-04T09:56:19.000Z</time>
      </trkpt>
      <trkpt lat="47.37085" lon="-2.45617">
        <ele>22</ele>
        <time>2021-03-04T09:56:21.000Z</time>
      </trkpt>
      <trkpt lat="47.37077" lon="-2.45613">
        <ele>21.60000038147</ele>
        <time>2021-03-04T09:56:22.000Z</time>
      </trkpt>
      <trkpt lat="47.37069" lon="-2.45609">
        <ele>21.200000762939</ele>
        <time>2021-03-04T09:56:23.000Z</time>
      </trkpt>
      <trkpt lat="47.37062" lon="-2.45606">
        <ele>20.60000038147</ele>
        <time>2021-03-04T09:56:24.000Z</time>
      </trkpt>
      <trkpt lat="47.37055" lon="-2.45602">
        <ele>20.200000762939</ele>
        <time>2021-03-04T09:56:25.000Z</time>
      </trkpt>
      <trkpt lat="47.37049" lon="-2.45599">
        <ele>20.200000762939</ele>
        <time>2021-03-04T09:56:26.000Z</time>
      </trkpt>
      <trkpt lat="47.37006" lon="-2.45581">
        <ele>20.200000762939</ele>
        <time>2021-03-04T09:56:33.000Z</time>
      </trkpt>
      <trkpt lat="47.36978" lon="-2.45575">
        <ele>20.200000762939</ele>
        <time>2021-03-04T09:56:38.000Z</time>
      </trkpt>
      <trkpt lat="47.36972" lon="-2.45574">
        <ele>20.799999237061</ele>
        <time>2021-03-04T09:56:39.000Z</time>
      </trkpt>
      <trkpt lat="47.36967" lon="-2.45573">
        <ele>21.200000762939</ele>
        <time>2021-03-04T09:56:40.000Z</time>
      </trkpt>
      <trkpt lat="47.36962" lon="-2.45573">
        <ele>21.60000038147</ele>
        <time>2021-03-04T09:56:41.000Z</time>
      </trkpt>
      <trkpt lat="47.36957" lon="-2.45573">
        <ele>22</ele>
        <time>2021-03-04T09:56:42.000Z</time>
      </trkpt>
      <trkpt lat="47.36952" lon="-2.45573">
        <ele>22.39999961853</ele>
        <time>2021-03-04T09:56:43.000Z</time>
      </trkpt>
      <trkpt lat="47.36947" lon="-2.45573">
        <ele>22.39999961853</ele>
        <time>2021-03-04T09:56:44.000Z</time>
      </trkpt>
      <trkpt lat="47.36933" lon="-2.45574">
        <ele>22.799999237061</ele>
        <time>2021-03-04T09:56:47.000Z</time>
      </trkpt>
      <trkpt lat="47.36928" lon="-2.45575">
        <ele>23.200000762939</ele>
        <time>2021-03-04T09:56:48.000Z</time>
      </trkpt>
      <trkpt lat="47.36924" lon="-2.45574">
        <ele>23.799999237061</ele>
        <time>2021-03-04T09:56:49.000Z</time>
      </trkpt>
      <trkpt lat="47.36919" lon="-2.45574">
        <ele>24.200000762939</ele>
        <time>2021-03-04T09:56:50.000Z</time>
      </trkpt>
      <trkpt lat="47.36915" lon="-2.45574">
        <ele>24.60000038147</ele>
        <time>2021-03-04T09:56:51.000Z</time>
      </trkpt>
      <trkpt lat="47.36902" lon="-2.45573">
        <ele>25</ele>
        <time>2021-03-04T09:56:54.000Z</time>
      </trkpt>
      <trkpt lat="47.36898" lon="-2.45573">
        <ele>25.39999961853</ele>
        <time>2021-03-04T09:56:55.000Z</time>
      </trkpt>
      <trkpt lat="47.36894" lon="-2.45572">
        <ele>25.799999237061</ele>
        <time>2021-03-04T09:56:56.000Z</time>
      </trkpt>
      <trkpt lat="47.3689" lon="-2.45572">
        <ele>26.200000762939</ele>
        <time>2021-03-04T09:56:57.000Z</time>
      </trkpt>
      <trkpt lat="47.36886" lon="-2.45571">
        <ele>26.60000038147</ele>
        <time>2021-03-04T09:56:58.000Z</time>
      </trkpt>
      <trkpt lat="47.36866" lon="-2.4557">
        <ele>26.60000038147</ele>
        <time>2021-03-04T09:57:03.000Z</time>
      </trkpt>
      <trkpt lat="47.36862" lon="-2.45571">
        <ele>26.60000038147</ele>
        <time>2021-03-04T09:57:04.000Z</time>
      </trkpt>
      <trkpt lat="47.36847" lon="-2.45583">
        <ele>26.60000038147</ele>
        <time>2021-03-04T09:57:08.000Z</time>
      </trkpt>
      <trkpt lat="47.36844" lon="-2.45587">
        <ele>26.60000038147</ele>
        <time>2021-03-04T09:57:09.000Z</time>
      </trkpt>
      <trkpt lat="47.36817" lon="-2.45613">
        <ele>26.60000038147</ele>
        <time>2021-03-04T09:57:16.000Z</time>
      </trkpt>
      <trkpt lat="47.36789" lon="-2.45634">
        <ele>27</ele>
        <time>2021-03-04T09:57:23.000Z</time>
      </trkpt>
      <trkpt lat="47.36784" lon="-2.45636">
        <ele>27.39999961853</ele>
        <time>2021-03-04T09:57:24.000Z</time>
      </trkpt>
      <trkpt lat="47.3678" lon="-2.45638">
        <ele>27.799999237061</ele>
        <time>2021-03-04T09:57:25.000Z</time>
      </trkpt>
      <trkpt lat="47.36776" lon="-2.4564">
        <ele>28.200000762939</ele>
        <time>2021-03-04T09:57:26.000Z</time>
      </trkpt>
      <trkpt lat="47.36771" lon="-2.45643">
        <ele>28.60000038147</ele>
        <time>2021-03-04T09:57:27.000Z</time>
      </trkpt>
      <trkpt lat="47.36748" lon="-2.45649">
        <ele>28.60000038147</ele>
        <time>2021-03-04T09:57:32.000Z</time>
      </trkpt>
      <trkpt lat="47.36704" lon="-2.45656">
        <ele>28.60000038147</ele>
        <time>2021-03-04T09:57:41.000Z</time>
      </trkpt>
      <trkpt lat="47.36656" lon="-2.45663">
        <ele>28.60000038147</ele>
        <time>2021-03-04T09:57:50.000Z</time>
      </trkpt>
      <trkpt lat="47.36607" lon="-2.45671">
        <ele>28.60000038147</ele>
        <time>2021-03-04T09:57:59.000Z</time>
      </trkpt>
      <trkpt lat="47.36564" lon="-2.4568">
        <ele>28.60000038147</ele>
        <time>2021-03-04T09:58:07.000Z</time>
      </trkpt>
      <trkpt lat="47.36549" lon="-2.45684">
        <ele>28.60000038147</ele>
        <time>2021-03-04T09:58:10.000Z</time>
      </trkpt>
      <trkpt lat="47.36527" lon="-2.45682">
        <ele>28.60000038147</ele>
        <time>2021-03-04T09:58:14.000Z</time>
      </trkpt>
      <trkpt lat="47.3649" lon="-2.45677">
        <ele>28.60000038147</ele>
        <time>2021-03-04T09:58:21.000Z</time>
      </trkpt>
      <trkpt lat="47.36443" lon="-2.45671">
        <ele>28.60000038147</ele>
        <time>2021-03-04T09:58:29.000Z</time>
      </trkpt>
      <trkpt lat="47.36411" lon="-2.4567">
        <ele>28.60000038147</ele>
        <time>2021-03-04T09:58:34.000Z</time>
      </trkpt>
      <trkpt lat="47.36405" lon="-2.45671">
        <ele>28.60000038147</ele>
        <time>2021-03-04T09:58:35.000Z</time>
      </trkpt>
      <trkpt lat="47.36369" lon="-2.45683">
        <ele>28.60000038147</ele>
        <time>2021-03-04T09:58:41.000Z</time>
      </trkpt>
      <trkpt lat="47.36338" lon="-2.45697">
        <ele>27.799999237061</ele>
        <time>2021-03-04T09:58:46.000Z</time>
      </trkpt>
      <trkpt lat="47.36331" lon="-2.457">
        <ele>27.39999961853</ele>
        <time>2021-03-04T09:58:47.000Z</time>
      </trkpt>
      <trkpt lat="47.36324" lon="-2.45704">
        <ele>27</ele>
        <time>2021-03-04T09:58:48.000Z</time>
      </trkpt>
      <trkpt lat="47.36318" lon="-2.45707">
        <ele>26.60000038147</ele>
        <time>2021-03-04T09:58:49.000Z</time>
      </trkpt>
      <trkpt lat="47.363" lon="-2.45718">
        <ele>26.60000038147</ele>
        <time>2021-03-04T09:58:52.000Z</time>
      </trkpt>
      <trkpt lat="47.36296" lon="-2.45723">
        <ele>26.60000038147</ele>
        <time>2021-03-04T09:58:53.000Z</time>
      </trkpt>
      <trkpt lat="47.36286" lon="-2.45739">
        <ele>26.60000038147</ele>
        <time>2021-03-04T09:58:57.000Z</time>
      </trkpt>
      <trkpt lat="47.36278" lon="-2.45753">
        <ele>26.60000038147</ele>
        <time>2021-03-04T09:59:01.000Z</time>
      </trkpt>
      <trkpt lat="47.36263" lon="-2.45769">
        <ele>26.200000762939</ele>
        <time>2021-03-04T09:59:07.000Z</time>
      </trkpt>
      <trkpt lat="47.3626" lon="-2.45768">
        <ele>25.799999237061</ele>
        <time>2021-03-04T09:59:08.000Z</time>
      </trkpt>
      <trkpt lat="47.36258" lon="-2.45765">
        <ele>25.39999961853</ele>
        <time>2021-03-04T09:59:09.000Z</time>
      </trkpt>
      <trkpt lat="47.36256" lon="-2.45761">
        <ele>25</ele>
        <time>2021-03-04T09:59:10.000Z</time>
      </trkpt>
      <trkpt lat="47.36254" lon="-2.45756">
        <ele>24.60000038147</ele>
        <time>2021-03-04T09:59:11.000Z</time>
      </trkpt>
      <trkpt lat="47.36252" lon="-2.45749">
        <ele>24.60000038147</ele>
        <time>2021-03-04T09:59:12.000Z</time>
      </trkpt>
      <trkpt lat="47.3625" lon="-2.45743">
        <ele>24.60000038147</ele>
        <time>2021-03-04T09:59:13.000Z</time>
      </trkpt>
      <trkpt lat="47.36248" lon="-2.45737">
        <ele>24.60000038147</ele>
        <time>2021-03-04T09:59:14.000Z</time>
      </trkpt>
      <trkpt lat="47.36238" lon="-2.45721">
        <ele>24.60000038147</ele>
        <time>2021-03-04T09:59:17.000Z</time>
      </trkpt>
      <trkpt lat="47.36231" lon="-2.45712">
        <ele>24.60000038147</ele>
        <time>2021-03-04T09:59:19.000Z</time>
      </trkpt>
      <trkpt lat="47.36215" lon="-2.45709">
        <ele>24.60000038147</ele>
        <time>2021-03-04T09:59:23.000Z</time>
      </trkpt>
      <trkpt lat="47.36207" lon="-2.45712">
        <ele>24.60000038147</ele>
        <time>2021-03-04T09:59:25.000Z</time>
      </trkpt>
      <trkpt lat="47.36192" lon="-2.45717">
        <ele>24.60000038147</ele>
        <time>2021-03-04T09:59:29.000Z</time>
      </trkpt>
      <trkpt lat="47.36181" lon="-2.4572">
        <ele>25</ele>
        <time>2021-03-04T09:59:32.000Z</time>
      </trkpt>
      <trkpt lat="47.36178" lon="-2.45721">
        <ele>25.39999961853</ele>
        <time>2021-03-04T09:59:33.000Z</time>
      </trkpt>
      <trkpt lat="47.36174" lon="-2.45723">
        <ele>25.799999237061</ele>
        <time>2021-03-04T09:59:34.000Z</time>
      </trkpt>
      <trkpt lat="47.3617" lon="-2.45724">
        <ele>26.200000762939</ele>
        <time>2021-03-04T09:59:35.000Z</time>
      </trkpt>
      <trkpt lat="47.36166" lon="-2.45725">
        <ele>26.60000038147</ele>
        <time>2021-03-04T09:59:36.000Z</time>
      </trkpt>
      <trkpt lat="47.36163" lon="-2.45726">
        <ele>26.60000038147</ele>
        <time>2021-03-04T09:59:37.000Z</time>
      </trkpt>
      <trkpt lat="47.36135" lon="-2.45734">
        <ele>26.60000038147</ele>
        <time>2021-03-04T09:59:44.000Z</time>
      </trkpt>
      <trkpt lat="47.36118" lon="-2.45741">
        <ele>26.60000038147</ele>
        <time>2021-03-04T09:59:50.000Z</time>
      </trkpt>
      <trkpt lat="47.36103" lon="-2.45753">
        <ele>26.60000038147</ele>
        <time>2021-03-04T09:59:56.000Z</time>
      </trkpt>
      <trkpt lat="47.361" lon="-2.45754">
        <ele>26.60000038147</ele>
        <time>2021-03-04T09:59:57.000Z</time>
      </trkpt>
      <trkpt lat="47.36089" lon="-2.45754">
        <ele>26.60000038147</ele>
        <time>2021-03-04T10:00:00.000Z</time>
      </trkpt>
      <trkpt lat="47.36082" lon="-2.45754">
        <ele>27</ele>
        <time>2021-03-04T10:00:02.000Z</time>
      </trkpt>
      <trkpt lat="47.36079" lon="-2.45754">
        <ele>27.39999961853</ele>
        <time>2021-03-04T10:00:03.000Z</time>
      </trkpt>
      <trkpt lat="47.36075" lon="-2.45755">
        <ele>27.799999237061</ele>
        <time>2021-03-04T10:00:04.000Z</time>
      </trkpt>
      <trkpt lat="47.36072" lon="-2.45756">
        <ele>28.200000762939</ele>
        <time>2021-03-04T10:00:05.000Z</time>
      </trkpt>
      <trkpt lat="47.36068" lon="-2.45758">
        <ele>28.799999237061</ele>
        <time>2021-03-04T10:00:06.000Z</time>
      </trkpt>
      <trkpt lat="47.36048" lon="-2.45769">
        <ele>28.799999237061</ele>
        <time>2021-03-04T10:00:11.000Z</time>
      </trkpt>
      <trkpt lat="47.36012" lon="-2.45791">
        <ele>28.799999237061</ele>
        <time>2021-03-04T10:00:19.000Z</time>
      </trkpt>
      <trkpt lat="47.35978" lon="-2.45807">
        <ele>28.799999237061</ele>
        <time>2021-03-04T10:00:27.000Z</time>
      </trkpt>
      <trkpt lat="47.35947" lon="-2.45815">
        <ele>28.799999237061</ele>
        <time>2021-03-04T10:00:34.000Z</time>
      </trkpt>
      <trkpt lat="47.35907" lon="-2.45823">
        <ele>28.799999237061</ele>
        <time>2021-03-04T10:00:42.000Z</time>
      </trkpt>
      <trkpt lat="47.35882" lon="-2.45828">
        <ele>28.799999237061</ele>
        <time>2021-03-04T10:00:48.000Z</time>
      </trkpt>
      <trkpt lat="47.35861" lon="-2.45833">
        <ele>29.200000762939</ele>
        <time>2021-03-04T10:00:53.000Z</time>
      </trkpt>
      <trkpt lat="47.35856" lon="-2.45834">
        <ele>29.60000038147</ele>
        <time>2021-03-04T10:00:54.000Z</time>
      </trkpt>
      <trkpt lat="47.35852" lon="-2.45835">
        <ele>30</ele>
        <time>2021-03-04T10:00:55.000Z</time>
      </trkpt>
      <trkpt lat="47.35848" lon="-2.45836">
        <ele>30.39999961853</ele>
        <time>2021-03-04T10:00:56.000Z</time>
      </trkpt>
      <trkpt lat="47.35844" lon="-2.45837">
        <ele>30.799999237061</ele>
        <time>2021-03-04T10:00:57.000Z</time>
      </trkpt>
      <trkpt lat="47.35811" lon="-2.45843">
        <ele>31.200000762939</ele>
        <time>2021-03-04T10:01:05.000Z</time>
      </trkpt>
      <trkpt lat="47.35807" lon="-2.45844">
        <ele>31.60000038147</ele>
        <time>2021-03-04T10:01:06.000Z</time>
      </trkpt>
      <trkpt lat="47.35803" lon="-2.45845">
        <ele>32</ele>
        <time>2021-03-04T10:01:07.000Z</time>
      </trkpt>
      <trkpt lat="47.35799" lon="-2.45846">
        <ele>32.400001525879</ele>
        <time>2021-03-04T10:01:08.000Z</time>
      </trkpt>
      <trkpt lat="47.35795" lon="-2.45847">
        <ele>32.799999237061</ele>
        <time>2021-03-04T10:01:09.000Z</time>
      </trkpt>
      <trkpt lat="47.35779" lon="-2.4585">
        <ele>32.799999237061</ele>
        <time>2021-03-04T10:01:13.000Z</time>
      </trkpt>
      <trkpt lat="47.35758" lon="-2.45855">
        <ele>33.200000762939</ele>
        <time>2021-03-04T10:01:18.000Z</time>
      </trkpt>
      <trkpt lat="47.35754" lon="-2.45856">
        <ele>33.599998474121</ele>
        <time>2021-03-04T10:01:19.000Z</time>
      </trkpt>
      <trkpt lat="47.3575" lon="-2.45856">
        <ele>34</ele>
        <time>2021-03-04T10:01:20.000Z</time>
      </trkpt>
      <trkpt lat="47.35746" lon="-2.45856">
        <ele>34.400001525879</ele>
        <time>2021-03-04T10:01:21.000Z</time>
      </trkpt>
      <trkpt lat="47.35741" lon="-2.45856">
        <ele>34.799999237061</ele>
        <time>2021-03-04T10:01:22.000Z</time>
      </trkpt>
      <trkpt lat="47.35714" lon="-2.45855">
        <ele>34.799999237061</ele>
        <time>2021-03-04T10:01:28.000Z</time>
      </trkpt>
      <trkpt lat="47.35672" lon="-2.45855">
        <ele>34.799999237061</ele>
        <time>2021-03-04T10:01:37.000Z</time>
      </trkpt>
      <trkpt lat="47.35634" lon="-2.45856">
        <ele>34.799999237061</ele>
        <time>2021-03-04T10:01:46.000Z</time>
      </trkpt>
      <trkpt lat="47.35629" lon="-2.45856">
        <ele>35.200000762939</ele>
        <time>2021-03-04T10:01:47.000Z</time>
      </trkpt>
      <trkpt lat="47.35624" lon="-2.45856">
        <ele>35.599998474121</ele>
        <time>2021-03-04T10:01:48.000Z</time>
      </trkpt>
      <trkpt lat="47.3562" lon="-2.45857">
        <ele>36</ele>
        <time>2021-03-04T10:01:49.000Z</time>
      </trkpt>
      <trkpt lat="47.35615" lon="-2.45858">
        <ele>36.400001525879</ele>
        <time>2021-03-04T10:01:50.000Z</time>
      </trkpt>
      <trkpt lat="47.3561" lon="-2.45861">
        <ele>36.799999237061</ele>
        <time>2021-03-04T10:01:51.000Z</time>
      </trkpt>
      <trkpt lat="47.35583" lon="-2.45881">
        <ele>36.799999237061</ele>
        <time>2021-03-04T10:01:57.000Z</time>
      </trkpt>
      <trkpt lat="47.35556" lon="-2.45903">
        <ele>36.799999237061</ele>
        <time>2021-03-04T10:02:04.000Z</time>
      </trkpt>
      <trkpt lat="47.35549" lon="-2.45909">
        <ele>37.200000762939</ele>
        <time>2021-03-04T10:02:06.000Z</time>
      </trkpt>
      <trkpt lat="47.35545" lon="-2.45912">
        <ele>37.799999237061</ele>
        <time>2021-03-04T10:02:07.000Z</time>
      </trkpt>
      <trkpt lat="47.35541" lon="-2.45915">
        <ele>38.200000762939</ele>
        <time>2021-03-04T10:02:08.000Z</time>
      </trkpt>
      <trkpt lat="47.35538" lon="-2.45918">
        <ele>38.599998474121</ele>
        <time>2021-03-04T10:02:09.000Z</time>
      </trkpt>
      <trkpt lat="47.35535" lon="-2.45921">
        <ele>39</ele>
        <time>2021-03-04T10:02:10.000Z</time>
      </trkpt>
      <trkpt lat="47.35532" lon="-2.45925">
        <ele>39</ele>
        <time>2021-03-04T10:02:11.000Z</time>
      </trkpt>
      <trkpt lat="47.3553" lon="-2.45931">
        <ele>39</ele>
        <time>2021-03-04T10:02:12.000Z</time>
      </trkpt>
      <trkpt lat="47.35525" lon="-2.45952">
        <ele>39</ele>
        <time>2021-03-04T10:02:15.000Z</time>
      </trkpt>
      <trkpt lat="47.35516" lon="-2.45987">
        <ele>39</ele>
        <time>2021-03-04T10:02:20.000Z</time>
      </trkpt>
      <trkpt lat="47.3551" lon="-2.45999">
        <ele>39</ele>
        <time>2021-03-04T10:02:22.000Z</time>
      </trkpt>
      <trkpt lat="47.35492" lon="-2.46017">
        <ele>39</ele>
        <time>2021-03-04T10:02:26.000Z</time>
      </trkpt>
      <trkpt lat="47.35487" lon="-2.46021">
        <ele>39.400001525879</ele>
        <time>2021-03-04T10:02:27.000Z</time>
      </trkpt>
      <trkpt lat="47.35481" lon="-2.46025">
        <ele>39.799999237061</ele>
        <time>2021-03-04T10:02:28.000Z</time>
      </trkpt>
      <trkpt lat="47.35476" lon="-2.46029">
        <ele>40.599998474121</ele>
        <time>2021-03-04T10:02:29.000Z</time>
      </trkpt>
      <trkpt lat="47.35471" lon="-2.46033">
        <ele>41</ele>
        <time>2021-03-04T10:02:30.000Z</time>
      </trkpt>
      <trkpt lat="47.3546" lon="-2.46041">
        <ele>41</ele>
        <time>2021-03-04T10:02:32.000Z</time>
      </trkpt>
      <trkpt lat="47.3542" lon="-2.46074">
        <ele>41</ele>
        <time>2021-03-04T10:02:39.000Z</time>
      </trkpt>
      <trkpt lat="47.3539" lon="-2.46105">
        <ele>41</ele>
        <time>2021-03-04T10:02:45.000Z</time>
      </trkpt>
      <trkpt lat="47.35379" lon="-2.46115">
        <ele>41</ele>
        <time>2021-03-04T10:02:47.000Z</time>
      </trkpt>
      <trkpt lat="47.35355" lon="-2.46131">
        <ele>41</ele>
        <time>2021-03-04T10:02:51.000Z</time>
      </trkpt>
      <trkpt lat="47.35306" lon="-2.46162">
        <ele>41</ele>
        <time>2021-03-04T10:02:59.000Z</time>
      </trkpt>
      <trkpt lat="47.35272" lon="-2.46194">
        <ele>41</ele>
        <time>2021-03-04T10:03:05.000Z</time>
      </trkpt>
      <trkpt lat="47.35234" lon="-2.46228">
        <ele>41</ele>
        <time>2021-03-04T10:03:12.000Z</time>
      </trkpt>
      <trkpt lat="47.3521" lon="-2.46256">
        <ele>40.599998474121</ele>
        <time>2021-03-04T10:03:17.000Z</time>
      </trkpt>
      <trkpt lat="47.35205" lon="-2.46261">
        <ele>40</ele>
        <time>2021-03-04T10:03:18.000Z</time>
      </trkpt>
      <trkpt lat="47.352" lon="-2.46266">
        <ele>39.200000762939</ele>
        <time>2021-03-04T10:03:19.000Z</time>
      </trkpt>
      <trkpt lat="47.35195" lon="-2.46272">
        <ele>38.799999237061</ele>
        <time>2021-03-04T10:03:20.000Z</time>
      </trkpt>
      <trkpt lat="47.35179" lon="-2.46287">
        <ele>38.799999237061</ele>
        <time>2021-03-04T10:03:23.000Z</time>
      </trkpt>
      <trkpt lat="47.35168" lon="-2.46296">
        <ele>38.799999237061</ele>
        <time>2021-03-04T10:03:25.000Z</time>
      </trkpt>
      <trkpt lat="47.35129" lon="-2.46337">
        <ele>38.799999237061</ele>
        <time>2021-03-04T10:03:33.000Z</time>
      </trkpt>
      <trkpt lat="47.35125" lon="-2.46344">
        <ele>38.799999237061</ele>
        <time>2021-03-04T10:03:34.000Z</time>
      </trkpt>
      <trkpt lat="47.35117" lon="-2.46359">
        <ele>38.799999237061</ele>
        <time>2021-03-04T10:03:36.000Z</time>
      </trkpt>
      <trkpt lat="47.35111" lon="-2.46365">
        <ele>38.799999237061</ele>
        <time>2021-03-04T10:03:37.000Z</time>
      </trkpt>
      <trkpt lat="47.3508" lon="-2.46386">
        <ele>38.799999237061</ele>
        <time>2021-03-04T10:03:42.000Z</time>
      </trkpt>
      <trkpt lat="47.35037" lon="-2.46412">
        <ele>38.799999237061</ele>
        <time>2021-03-04T10:03:49.000Z</time>
      </trkpt>
      <trkpt lat="47.34995" lon="-2.46431">
        <ele>38.799999237061</ele>
        <time>2021-03-04T10:03:56.000Z</time>
      </trkpt>
      <trkpt lat="47.3494" lon="-2.46454">
        <ele>38.799999237061</ele>
        <time>2021-03-04T10:04:05.000Z</time>
      </trkpt>
      <trkpt lat="47.34933" lon="-2.46456">
        <ele>38.799999237061</ele>
        <time>2021-03-04T10:04:06.000Z</time>
      </trkpt>
      <trkpt lat="47.34893" lon="-2.46469">
        <ele>38.799999237061</ele>
        <time>2021-03-04T10:04:13.000Z</time>
      </trkpt>
      <trkpt lat="47.34873" lon="-2.4648">
        <ele>38.799999237061</ele>
        <time>2021-03-04T10:04:17.000Z</time>
      </trkpt>
      <trkpt lat="47.34865" lon="-2.46486">
        <ele>38.799999237061</ele>
        <time>2021-03-04T10:04:19.000Z</time>
      </trkpt>
      <trkpt lat="47.34855" lon="-2.46497">
        <ele>38.799999237061</ele>
        <time>2021-03-04T10:04:24.000Z</time>
      </trkpt>
      <trkpt lat="47.34853" lon="-2.46499">
        <ele>38.799999237061</ele>
        <time>2021-03-04T10:04:27.000Z</time>
      </trkpt>
      <trkpt lat="47.34857" lon="-2.46493">
        <ele>38.799999237061</ele>
        <time>2021-03-04T10:16:29.000Z</time>
      </trkpt>
      <trkpt lat="47.34854" lon="-2.46478">
        <ele>38.799999237061</ele>
        <time>2021-03-04T10:16:34.000Z</time>
      </trkpt>
      <trkpt lat="47.34848" lon="-2.46456">
        <ele>38.799999237061</ele>
        <time>2021-03-04T10:16:41.000Z</time>
      </trkpt>
      <trkpt lat="47.34845" lon="-2.46433">
        <ele>38.799999237061</ele>
        <time>2021-03-04T10:16:49.000Z</time>
      </trkpt>
      <trkpt lat="47.34845" lon="-2.46432">
        <ele>38.799999237061</ele>
        <time>2021-03-04T10:16:51.000Z</time>
      </trkpt>
      <trkpt lat="47.34845" lon="-2.46423">
        <ele>38.799999237061</ele>
        <time>2021-03-04T10:17:01.000Z</time>
      </trkpt>
      <trkpt lat="47.34844" lon="-2.46421">
        <ele>38.799999237061</ele>
        <time>2021-03-04T10:17:02.000Z</time>
      </trkpt>
      <trkpt lat="47.34841" lon="-2.46404">
        <ele>38.799999237061</ele>
        <time>2021-03-04T10:17:06.000Z</time>
      </trkpt>
      <trkpt lat="47.34835" lon="-2.46361">
        <ele>38.799999237061</ele>
        <time>2021-03-04T10:17:12.000Z</time>
      </trkpt>
      <trkpt lat="47.34828" lon="-2.463">
        <ele>38.799999237061</ele>
        <time>2021-03-04T10:17:20.000Z</time>
      </trkpt>
      <trkpt lat="47.34823" lon="-2.46252">
        <ele>38.799999237061</ele>
        <time>2021-03-04T10:17:27.000Z</time>
      </trkpt>
      <trkpt lat="47.3482" lon="-2.46251">
        <ele>38.799999237061</ele>
        <time>2021-03-04T10:17:28.000Z</time>
      </trkpt>
      <trkpt lat="47.34814" lon="-2.46254">
        <ele>38.799999237061</ele>
        <time>2021-03-04T10:17:30.000Z</time>
      </trkpt>
      <trkpt lat="47.34793" lon="-2.46262">
        <ele>38.799999237061</ele>
        <time>2021-03-04T10:17:35.000Z</time>
      </trkpt>
      <trkpt lat="47.34776" lon="-2.46266">
        <ele>38.799999237061</ele>
        <time>2021-03-04T10:17:39.000Z</time>
      </trkpt>
      <trkpt lat="47.34768" lon="-2.46268">
        <ele>38.799999237061</ele>
        <time>2021-03-04T10:17:41.000Z</time>
      </trkpt>
      <trkpt lat="47.34752" lon="-2.4627">
        <ele>38.799999237061</ele>
        <time>2021-03-04T10:17:45.000Z</time>
      </trkpt>
      <trkpt lat="47.34735" lon="-2.46275">
        <ele>38.799999237061</ele>
        <time>2021-03-04T10:17:51.000Z</time>
      </trkpt>
      <trkpt lat="47.34727" lon="-2.46278">
        <ele>38.799999237061</ele>
        <time>2021-03-04T10:17:57.000Z</time>
      </trkpt>
      <trkpt lat="47.34711" lon="-2.46285">
        <ele>38.799999237061</ele>
        <time>2021-03-04T10:18:05.000Z</time>
      </trkpt>
      <trkpt lat="47.3469" lon="-2.46293">
        <ele>38.799999237061</ele>
        <time>2021-03-04T10:18:13.000Z</time>
      </trkpt>
      <trkpt lat="47.3466" lon="-2.46305">
        <ele>38.799999237061</ele>
        <time>2021-03-04T10:18:22.000Z</time>
      </trkpt>
      <trkpt lat="47.3463" lon="-2.46317">
        <ele>38.799999237061</ele>
        <time>2021-03-04T10:18:30.000Z</time>
      </trkpt>
      <trkpt lat="47.34596" lon="-2.46331">
        <ele>39.200000762939</ele>
        <time>2021-03-04T10:18:38.000Z</time>
      </trkpt>
      <trkpt lat="47.34592" lon="-2.46333">
        <ele>39.599998474121</ele>
        <time>2021-03-04T10:18:39.000Z</time>
      </trkpt>
      <trkpt lat="47.34588" lon="-2.46335">
        <ele>40</ele>
        <time>2021-03-04T10:18:40.000Z</time>
      </trkpt>
      <trkpt lat="47.34584" lon="-2.46337">
        <ele>40.400001525879</ele>
        <time>2021-03-04T10:18:41.000Z</time>
      </trkpt>
      <trkpt lat="47.3458" lon="-2.4634">
        <ele>40.799999237061</ele>
        <time>2021-03-04T10:18:42.000Z</time>
      </trkpt>
      <trkpt lat="47.34568" lon="-2.4635">
        <ele>40.799999237061</ele>
        <time>2021-03-04T10:18:45.000Z</time>
      </trkpt>
      <trkpt lat="47.34564" lon="-2.46353">
        <ele>40.799999237061</ele>
        <time>2021-03-04T10:18:46.000Z</time>
      </trkpt>
      <trkpt lat="47.34554" lon="-2.46367">
        <ele>40.799999237061</ele>
        <time>2021-03-04T10:18:49.000Z</time>
      </trkpt>
      <trkpt lat="47.34546" lon="-2.46375">
        <ele>40.799999237061</ele>
        <time>2021-03-04T10:18:51.000Z</time>
      </trkpt>
      <trkpt lat="47.34517" lon="-2.46398">
        <ele>40.799999237061</ele>
        <time>2021-03-04T10:18:58.000Z</time>
      </trkpt>
      <trkpt lat="47.34484" lon="-2.4641">
        <ele>40.799999237061</ele>
        <time>2021-03-04T10:19:05.000Z</time>
      </trkpt>
      <trkpt lat="47.3446" lon="-2.46422">
        <ele>40.799999237061</ele>
        <time>2021-03-04T10:19:10.000Z</time>
      </trkpt>
      <trkpt lat="47.34455" lon="-2.46424">
        <ele>40.799999237061</ele>
        <time>2021-03-04T10:19:11.000Z</time>
      </trkpt>
      <trkpt lat="47.34419" lon="-2.4644">
        <ele>40.799999237061</ele>
        <time>2021-03-04T10:19:18.000Z</time>
      </trkpt>
      <trkpt lat="47.34393" lon="-2.46452">
        <ele>40.799999237061</ele>
        <time>2021-03-04T10:19:23.000Z</time>
      </trkpt>
      <trkpt lat="47.34388" lon="-2.46455">
        <ele>40.799999237061</ele>
        <time>2021-03-04T10:19:24.000Z</time>
      </trkpt>
      <trkpt lat="47.34352" lon="-2.4647">
        <ele>40.799999237061</ele>
        <time>2021-03-04T10:19:31.000Z</time>
      </trkpt>
      <trkpt lat="47.34317" lon="-2.46479">
        <ele>40.799999237061</ele>
        <time>2021-03-04T10:19:38.000Z</time>
      </trkpt>
      <trkpt lat="47.34286" lon="-2.4648">
        <ele>40.799999237061</ele>
        <time>2021-03-04T10:19:44.000Z</time>
      </trkpt>
      <trkpt lat="47.34265" lon="-2.46482">
        <ele>40.799999237061</ele>
        <time>2021-03-04T10:19:48.000Z</time>
      </trkpt>
      <trkpt lat="47.3426" lon="-2.46483">
        <ele>41.200000762939</ele>
        <time>2021-03-04T10:19:49.000Z</time>
      </trkpt>
      <trkpt lat="47.34254" lon="-2.46483">
        <ele>41.599998474121</ele>
        <time>2021-03-04T10:19:50.000Z</time>
      </trkpt>
      <trkpt lat="47.34249" lon="-2.46483">
        <ele>42</ele>
        <time>2021-03-04T10:19:51.000Z</time>
      </trkpt>
      <trkpt lat="47.34244" lon="-2.46483">
        <ele>42.400001525879</ele>
        <time>2021-03-04T10:19:52.000Z</time>
      </trkpt>
      <trkpt lat="47.34239" lon="-2.46483">
        <ele>42.799999237061</ele>
        <time>2021-03-04T10:19:53.000Z</time>
      </trkpt>
      <trkpt lat="47.34233" lon="-2.46483">
        <ele>42.799999237061</ele>
        <time>2021-03-04T10:19:54.000Z</time>
      </trkpt>
      <trkpt lat="47.34197" lon="-2.46486">
        <ele>42.799999237061</ele>
        <time>2021-03-04T10:20:01.000Z</time>
      </trkpt>
      <trkpt lat="47.34161" lon="-2.46488">
        <ele>42.799999237061</ele>
        <time>2021-03-04T10:20:08.000Z</time>
      </trkpt>
      <trkpt lat="47.34156" lon="-2.4649">
        <ele>42.799999237061</ele>
        <time>2021-03-04T10:20:09.000Z</time>
      </trkpt>
      <trkpt lat="47.34135" lon="-2.46491">
        <ele>42.799999237061</ele>
        <time>2021-03-04T10:20:13.000Z</time>
      </trkpt>
      <trkpt lat="47.34129" lon="-2.46491">
        <ele>42.799999237061</ele>
        <time>2021-03-04T10:20:14.000Z</time>
      </trkpt>
      <trkpt lat="47.34085" lon="-2.46489">
        <ele>42.799999237061</ele>
        <time>2021-03-04T10:20:22.000Z</time>
      </trkpt>
      <trkpt lat="47.34053" lon="-2.46502">
        <ele>42.799999237061</ele>
        <time>2021-03-04T10:20:28.000Z</time>
      </trkpt>
      <trkpt lat="47.34049" lon="-2.46506">
        <ele>42.799999237061</ele>
        <time>2021-03-04T10:20:29.000Z</time>
      </trkpt>
      <trkpt lat="47.34034" lon="-2.46517">
        <ele>42.799999237061</ele>
        <time>2021-03-04T10:20:32.000Z</time>
      </trkpt>
      <trkpt lat="47.34024" lon="-2.46524">
        <ele>42.799999237061</ele>
        <time>2021-03-04T10:20:34.000Z</time>
      </trkpt>
      <trkpt lat="47.34005" lon="-2.46539">
        <ele>42.799999237061</ele>
        <time>2021-03-04T10:20:38.000Z</time>
      </trkpt>
      <trkpt lat="47.33991" lon="-2.4655">
        <ele>42.799999237061</ele>
        <time>2021-03-04T10:20:41.000Z</time>
      </trkpt>
      <trkpt lat="47.33986" lon="-2.46553">
        <ele>43.400001525879</ele>
        <time>2021-03-04T10:20:42.000Z</time>
      </trkpt>
      <trkpt lat="47.33981" lon="-2.46557">
        <ele>43.799999237061</ele>
        <time>2021-03-04T10:20:43.000Z</time>
      </trkpt>
      <trkpt lat="47.33977" lon="-2.4656">
        <ele>44.200000762939</ele>
        <time>2021-03-04T10:20:44.000Z</time>
      </trkpt>
      <trkpt lat="47.33972" lon="-2.46564">
        <ele>44.599998474121</ele>
        <time>2021-03-04T10:20:45.000Z</time>
      </trkpt>
      <trkpt lat="47.33967" lon="-2.46568">
        <ele>45</ele>
        <time>2021-03-04T10:20:46.000Z</time>
      </trkpt>
      <trkpt lat="47.33943" lon="-2.46587">
        <ele>45</ele>
        <time>2021-03-04T10:20:51.000Z</time>
      </trkpt>
      <trkpt lat="47.33901" lon="-2.46628">
        <ele>45</ele>
        <time>2021-03-04T10:21:00.000Z</time>
      </trkpt>
      <trkpt lat="47.33866" lon="-2.46662">
        <ele>45</ele>
        <time>2021-03-04T10:21:07.000Z</time>
      </trkpt>
      <trkpt lat="47.33823" lon="-2.46689">
        <ele>45</ele>
        <time>2021-03-04T10:21:14.000Z</time>
      </trkpt>
      <trkpt lat="47.33798" lon="-2.46702">
        <ele>45</ele>
        <time>2021-03-04T10:21:18.000Z</time>
      </trkpt>
      <trkpt lat="47.33785" lon="-2.46704">
        <ele>45</ele>
        <time>2021-03-04T10:21:20.000Z</time>
      </trkpt>
      <trkpt lat="47.33759" lon="-2.46698">
        <ele>45</ele>
        <time>2021-03-04T10:21:24.000Z</time>
      </trkpt>
      <trkpt lat="47.33753" lon="-2.46695">
        <ele>45</ele>
        <time>2021-03-04T10:21:25.000Z</time>
      </trkpt>
      <trkpt lat="47.33738" lon="-2.46692">
        <ele>45</ele>
        <time>2021-03-04T10:21:28.000Z</time>
      </trkpt>
      <trkpt lat="47.33734" lon="-2.46692">
        <ele>45</ele>
        <time>2021-03-04T10:21:29.000Z</time>
      </trkpt>
      <trkpt lat="47.33722" lon="-2.46697">
        <ele>45</ele>
        <time>2021-03-04T10:21:33.000Z</time>
      </trkpt>
      <trkpt lat="47.33707" lon="-2.46703">
        <ele>45</ele>
        <time>2021-03-04T10:21:38.000Z</time>
      </trkpt>
      <trkpt lat="47.33703" lon="-2.46705">
        <ele>45</ele>
        <time>2021-03-04T10:21:39.000Z</time>
      </trkpt>
      <trkpt lat="47.3367" lon="-2.46719">
        <ele>45</ele>
        <time>2021-03-04T10:21:47.000Z</time>
      </trkpt>
      <trkpt lat="47.33666" lon="-2.46722">
        <ele>45</ele>
        <time>2021-03-04T10:21:48.000Z</time>
      </trkpt>
      <trkpt lat="47.3365" lon="-2.46734">
        <ele>44.200000762939</ele>
        <time>2021-03-04T10:21:51.000Z</time>
      </trkpt>
      <trkpt lat="47.33644" lon="-2.46738">
        <ele>43.799999237061</ele>
        <time>2021-03-04T10:21:52.000Z</time>
      </trkpt>
      <trkpt lat="47.33639" lon="-2.46742">
        <ele>43.400001525879</ele>
        <time>2021-03-04T10:21:53.000Z</time>
      </trkpt>
      <trkpt lat="47.33634" lon="-2.46745">
        <ele>43</ele>
        <time>2021-03-04T10:21:54.000Z</time>
      </trkpt>
      <trkpt lat="47.33629" lon="-2.46747">
        <ele>42.599998474121</ele>
        <time>2021-03-04T10:21:55.000Z</time>
      </trkpt>
      <trkpt lat="47.33624" lon="-2.46745">
        <ele>42</ele>
        <time>2021-03-04T10:21:56.000Z</time>
      </trkpt>
      <trkpt lat="47.3362" lon="-2.4674">
        <ele>41.599998474121</ele>
        <time>2021-03-04T10:21:57.000Z</time>
      </trkpt>
      <trkpt lat="47.33617" lon="-2.46734">
        <ele>41.200000762939</ele>
        <time>2021-03-04T10:21:58.000Z</time>
      </trkpt>
      <trkpt lat="47.33614" lon="-2.46727">
        <ele>40.599998474121</ele>
        <time>2021-03-04T10:21:59.000Z</time>
      </trkpt>
      <trkpt lat="47.33607" lon="-2.46705">
        <ele>40.599998474121</ele>
        <time>2021-03-04T10:22:02.000Z</time>
      </trkpt>
      <trkpt lat="47.33602" lon="-2.4669">
        <ele>40.599998474121</ele>
        <time>2021-03-04T10:22:04.000Z</time>
      </trkpt>
      <trkpt lat="47.3358" lon="-2.46627">
        <ele>40.599998474121</ele>
        <time>2021-03-04T10:22:13.000Z</time>
      </trkpt>
      <trkpt lat="47.33575" lon="-2.46615">
        <ele>40.599998474121</ele>
        <time>2021-03-04T10:22:15.000Z</time>
      </trkpt>
      <trkpt lat="47.33571" lon="-2.46603">
        <ele>40.599998474121</ele>
        <time>2021-03-04T10:22:17.000Z</time>
      </trkpt>
      <trkpt lat="47.33566" lon="-2.46593">
        <ele>40.599998474121</ele>
        <time>2021-03-04T10:22:19.000Z</time>
      </trkpt>
      <trkpt lat="47.33558" lon="-2.46585">
        <ele>40.599998474121</ele>
        <time>2021-03-04T10:22:21.000Z</time>
      </trkpt>
      <trkpt lat="47.33555" lon="-2.4658">
        <ele>40.599998474121</ele>
        <time>2021-03-04T10:22:22.000Z</time>
      </trkpt>
      <trkpt lat="47.33553" lon="-2.46574">
        <ele>40.599998474121</ele>
        <time>2021-03-04T10:22:23.000Z</time>
      </trkpt>
      <trkpt lat="47.33548" lon="-2.46555">
        <ele>40.599998474121</ele>
        <time>2021-03-04T10:22:26.000Z</time>
      </trkpt>
      <trkpt lat="47.33546" lon="-2.46542">
        <ele>40.599998474121</ele>
        <time>2021-03-04T10:22:28.000Z</time>
      </trkpt>
      <trkpt lat="47.33539" lon="-2.46502">
        <ele>40.599998474121</ele>
        <time>2021-03-04T10:22:34.000Z</time>
      </trkpt>
      <trkpt lat="47.33537" lon="-2.46492">
        <ele>40.599998474121</ele>
        <time>2021-03-04T10:22:37.000Z</time>
      </trkpt>
      <trkpt lat="47.33536" lon="-2.4649">
        <ele>40.599998474121</ele>
        <time>2021-03-04T10:22:38.000Z</time>
      </trkpt>
      <trkpt lat="47.33529" lon="-2.4649">
        <ele>41</ele>
        <time>2021-03-04T10:22:40.000Z</time>
      </trkpt>
      <trkpt lat="47.33525" lon="-2.46489">
        <ele>41.400001525879</ele>
        <time>2021-03-04T10:22:41.000Z</time>
      </trkpt>
      <trkpt lat="47.3352" lon="-2.4649">
        <ele>41.799999237061</ele>
        <time>2021-03-04T10:22:42.000Z</time>
      </trkpt>
      <trkpt lat="47.33515" lon="-2.46493">
        <ele>42.200000762939</ele>
        <time>2021-03-04T10:22:43.000Z</time>
      </trkpt>
      <trkpt lat="47.33511" lon="-2.46498">
        <ele>42.599998474121</ele>
        <time>2021-03-04T10:22:44.000Z</time>
      </trkpt>
      <trkpt lat="47.33502" lon="-2.46511">
        <ele>42.599998474121</ele>
        <time>2021-03-04T10:22:46.000Z</time>
      </trkpt>
      <trkpt lat="47.33492" lon="-2.46524">
        <ele>42.200000762939</ele>
        <time>2021-03-04T10:22:48.000Z</time>
      </trkpt>
      <trkpt lat="47.33487" lon="-2.4653">
        <ele>41.799999237061</ele>
        <time>2021-03-04T10:22:49.000Z</time>
      </trkpt>
      <trkpt lat="47.33482" lon="-2.46537">
        <ele>41.400001525879</ele>
        <time>2021-03-04T10:22:50.000Z</time>
      </trkpt>
      <trkpt lat="47.33477" lon="-2.46543">
        <ele>41</ele>
        <time>2021-03-04T10:22:51.000Z</time>
      </trkpt>
      <trkpt lat="47.33472" lon="-2.46549">
        <ele>40.599998474121</ele>
        <time>2021-03-04T10:22:52.000Z</time>
      </trkpt>
      <trkpt lat="47.33463" lon="-2.46561">
        <ele>40.200000762939</ele>
        <time>2021-03-04T10:22:54.000Z</time>
      </trkpt>
      <trkpt lat="47.33458" lon="-2.46567">
        <ele>39.799999237061</ele>
        <time>2021-03-04T10:22:55.000Z</time>
      </trkpt>
      <trkpt lat="47.33453" lon="-2.46571">
        <ele>39.400001525879</ele>
        <time>2021-03-04T10:22:56.000Z</time>
      </trkpt>
      <trkpt lat="47.33449" lon="-2.46576">
        <ele>39</ele>
        <time>2021-03-04T10:22:57.000Z</time>
      </trkpt>
      <trkpt lat="47.33445" lon="-2.4658">
        <ele>38.599998474121</ele>
        <time>2021-03-04T10:22:58.000Z</time>
      </trkpt>
      <trkpt lat="47.3344" lon="-2.46583">
        <ele>38.200000762939</ele>
        <time>2021-03-04T10:22:59.000Z</time>
      </trkpt>
      <trkpt lat="47.33435" lon="-2.46586">
        <ele>37.799999237061</ele>
        <time>2021-03-04T10:23:00.000Z</time>
      </trkpt>
      <trkpt lat="47.33431" lon="-2.46588">
        <ele>37.200000762939</ele>
        <time>2021-03-04T10:23:01.000Z</time>
      </trkpt>
      <trkpt lat="47.33428" lon="-2.46591">
        <ele>36.799999237061</ele>
        <time>2021-03-04T10:23:02.000Z</time>
      </trkpt>
      <trkpt lat="47.33424" lon="-2.46593">
        <ele>36.200000762939</ele>
        <time>2021-03-04T10:23:03.000Z</time>
      </trkpt>
      <trkpt lat="47.33421" lon="-2.46595">
        <ele>35.200000762939</ele>
        <time>2021-03-04T10:23:04.000Z</time>
      </trkpt>
      <trkpt lat="47.33418" lon="-2.46598">
        <ele>34.599998474121</ele>
        <time>2021-03-04T10:23:05.000Z</time>
      </trkpt>
      <trkpt lat="47.33414" lon="-2.46601">
        <ele>34</ele>
        <time>2021-03-04T10:23:06.000Z</time>
      </trkpt>
      <trkpt lat="47.33407" lon="-2.46608">
        <ele>33.599998474121</ele>
        <time>2021-03-04T10:23:08.000Z</time>
      </trkpt>
      <trkpt lat="47.33403" lon="-2.46612">
        <ele>33.200000762939</ele>
        <time>2021-03-04T10:23:09.000Z</time>
      </trkpt>
      <trkpt lat="47.33399" lon="-2.46615">
        <ele>32.799999237061</ele>
        <time>2021-03-04T10:23:10.000Z</time>
      </trkpt>
      <trkpt lat="47.33396" lon="-2.46619">
        <ele>32.400001525879</ele>
        <time>2021-03-04T10:23:11.000Z</time>
      </trkpt>
      <trkpt lat="47.33392" lon="-2.46622">
        <ele>32</ele>
        <time>2021-03-04T10:23:12.000Z</time>
      </trkpt>
      <trkpt lat="47.33388" lon="-2.46626">
        <ele>31.60000038147</ele>
        <time>2021-03-04T10:23:15.000Z</time>
      </trkpt>
      <trkpt lat="47.33388" lon="-2.46626">
        <ele>31.200000762939</ele>
        <time>2021-03-04T10:23:16.000Z</time>
      </trkpt>
      <trkpt lat="47.33387" lon="-2.46627">
        <ele>30</ele>
        <time>2021-03-04T10:23:40.000Z</time>
      </trkpt>
      <trkpt lat="47.33384" lon="-2.46631">
        <ele>30</ele>
        <time>2021-03-04T10:23:43.000Z</time>
      </trkpt>
      <trkpt lat="47.33373" lon="-2.46641">
        <ele>30</ele>
        <time>2021-03-04T10:23:48.000Z</time>
      </trkpt>
      <trkpt lat="47.33365" lon="-2.46644">
        <ele>30</ele>
        <time>2021-03-04T10:23:52.000Z</time>
      </trkpt>
      <trkpt lat="47.33355" lon="-2.4665">
        <ele>30</ele>
        <time>2021-03-04T10:23:57.000Z</time>
      </trkpt>
      <trkpt lat="47.33346" lon="-2.46653">
        <ele>30</ele>
        <time>2021-03-04T10:24:02.000Z</time>
      </trkpt>
      <trkpt lat="47.33343" lon="-2.46654">
        <ele>29.60000038147</ele>
        <time>2021-03-04T10:24:03.000Z</time>
      </trkpt>
      <trkpt lat="47.33341" lon="-2.46655">
        <ele>29.200000762939</ele>
        <time>2021-03-04T10:24:04.000Z</time>
      </trkpt>
      <trkpt lat="47.33339" lon="-2.46656">
        <ele>28.799999237061</ele>
        <time>2021-03-04T10:24:05.000Z</time>
      </trkpt>
      <trkpt lat="47.33337" lon="-2.46656">
        <ele>28.39999961853</ele>
        <time>2021-03-04T10:24:06.000Z</time>
      </trkpt>
      <trkpt lat="47.33335" lon="-2.46658">
        <ele>28</ele>
        <time>2021-03-04T10:24:07.000Z</time>
      </trkpt>
      <trkpt lat="47.33332" lon="-2.4666">
        <ele>28</ele>
        <time>2021-03-04T10:24:08.000Z</time>
      </trkpt>
      <trkpt lat="47.33327" lon="-2.46652">
        <ele>28</ele>
        <time>2021-03-04T10:24:11.000Z</time>
      </trkpt>
      <trkpt lat="47.33319" lon="-2.46644">
        <ele>28</ele>
        <time>2021-03-04T10:24:13.000Z</time>
      </trkpt>
      <trkpt lat="47.33321" lon="-2.46638">
        <ele>28</ele>
        <time>2021-03-04T10:24:14.000Z</time>
      </trkpt>
      <trkpt lat="47.33312" lon="-2.46617">
        <ele>28</ele>
        <time>2021-03-04T10:24:18.000Z</time>
      </trkpt>
      <trkpt lat="47.33296" lon="-2.46591">
        <ele>28</ele>
        <time>2021-03-04T10:24:23.000Z</time>
      </trkpt>
      <trkpt lat="47.33294" lon="-2.46583">
        <ele>28</ele>
        <time>2021-03-04T10:24:24.000Z</time>
      </trkpt>
      <trkpt lat="47.3329" lon="-2.46553">
        <ele>28</ele>
        <time>2021-03-04T10:24:28.000Z</time>
      </trkpt>
      <trkpt lat="47.33289" lon="-2.46538">
        <ele>28</ele>
        <time>2021-03-04T10:24:30.000Z</time>
      </trkpt>
      <trkpt lat="47.33287" lon="-2.46517">
        <ele>28.39999961853</ele>
        <time>2021-03-04T10:24:33.000Z</time>
      </trkpt>
      <trkpt lat="47.33287" lon="-2.4651">
        <ele>28.799999237061</ele>
        <time>2021-03-04T10:24:34.000Z</time>
      </trkpt>
      <trkpt lat="47.33286" lon="-2.46504">
        <ele>29.200000762939</ele>
        <time>2021-03-04T10:24:35.000Z</time>
      </trkpt>
      <trkpt lat="47.33284" lon="-2.46498">
        <ele>29.60000038147</ele>
        <time>2021-03-04T10:24:36.000Z</time>
      </trkpt>
      <trkpt lat="47.33283" lon="-2.46491">
        <ele>30</ele>
        <time>2021-03-04T10:24:37.000Z</time>
      </trkpt>
      <trkpt lat="47.33283" lon="-2.46486">
        <ele>30</ele>
        <time>2021-03-04T10:24:38.000Z</time>
      </trkpt>
      <trkpt lat="47.3328" lon="-2.46463">
        <ele>30.39999961853</ele>
        <time>2021-03-04T10:24:42.000Z</time>
      </trkpt>
      <trkpt lat="47.33279" lon="-2.46457">
        <ele>31.200000762939</ele>
        <time>2021-03-04T10:24:43.000Z</time>
      </trkpt>
      <trkpt lat="47.33278" lon="-2.46451">
        <ele>31.60000038147</ele>
        <time>2021-03-04T10:24:44.000Z</time>
      </trkpt>
      <trkpt lat="47.33276" lon="-2.46446">
        <ele>32</ele>
        <time>2021-03-04T10:24:45.000Z</time>
      </trkpt>
      <trkpt lat="47.33271" lon="-2.46433">
        <ele>32</ele>
        <time>2021-03-04T10:24:48.000Z</time>
      </trkpt>
      <trkpt lat="47.33267" lon="-2.46431">
        <ele>32</ele>
        <time>2021-03-04T10:24:49.000Z</time>
      </trkpt>
      <trkpt lat="47.3326" lon="-2.46428">
        <ele>32</ele>
        <time>2021-03-04T10:24:51.000Z</time>
      </trkpt>
      <trkpt lat="47.33244" lon="-2.46434">
        <ele>32</ele>
        <time>2021-03-04T10:24:55.000Z</time>
      </trkpt>
      <trkpt lat="47.3323" lon="-2.46455">
        <ele>32</ele>
        <time>2021-03-04T10:24:59.000Z</time>
      </trkpt>
      <trkpt lat="47.33228" lon="-2.46459">
        <ele>32</ele>
        <time>2021-03-04T10:25:00.000Z</time>
      </trkpt>
      <trkpt lat="47.33224" lon="-2.46466">
        <ele>31.60000038147</ele>
        <time>2021-03-04T10:25:02.000Z</time>
      </trkpt>
      <trkpt lat="47.33223" lon="-2.46468">
        <ele>31</ele>
        <time>2021-03-04T10:25:03.000Z</time>
      </trkpt>
      <trkpt lat="47.33222" lon="-2.46469">
        <ele>30.60000038147</ele>
        <time>2021-03-04T10:25:04.000Z</time>
      </trkpt>
      <trkpt lat="47.33221" lon="-2.4647">
        <ele>30.200000762939</ele>
        <time>2021-03-04T10:25:05.000Z</time>
      </trkpt>
      <trkpt lat="47.3322" lon="-2.46471">
        <ele>29.60000038147</ele>
        <time>2021-03-04T10:25:06.000Z</time>
      </trkpt>
      <trkpt lat="47.33215" lon="-2.46472">
        <ele>29.60000038147</ele>
        <time>2021-03-04T10:25:09.000Z</time>
      </trkpt>
      <trkpt lat="47.3321" lon="-2.46473">
        <ele>29.200000762939</ele>
        <time>2021-03-04T10:25:13.000Z</time>
      </trkpt>
      <trkpt lat="47.33209" lon="-2.46474">
        <ele>28.799999237061</ele>
        <time>2021-03-04T10:25:14.000Z</time>
      </trkpt>
      <trkpt lat="47.33207" lon="-2.46474">
        <ele>28.39999961853</ele>
        <time>2021-03-04T10:25:15.000Z</time>
      </trkpt>
      <trkpt lat="47.33206" lon="-2.46474">
        <ele>28</ele>
        <time>2021-03-04T10:25:16.000Z</time>
      </trkpt>
      <trkpt lat="47.33204" lon="-2.46473">
        <ele>27.60000038147</ele>
        <time>2021-03-04T10:25:17.000Z</time>
      </trkpt>
      <trkpt lat="47.33195" lon="-2.46475">
        <ele>27.60000038147</ele>
        <time>2021-03-04T10:25:22.000Z</time>
      </trkpt>
      <trkpt lat="47.33192" lon="-2.46476">
        <ele>27.200000762939</ele>
        <time>2021-03-04T10:25:24.000Z</time>
      </trkpt>
      <trkpt lat="47.33189" lon="-2.46478">
        <ele>26.799999237061</ele>
        <time>2021-03-04T10:25:25.000Z</time>
      </trkpt>
      <trkpt lat="47.33187" lon="-2.46479">
        <ele>26.39999961853</ele>
        <time>2021-03-04T10:25:26.000Z</time>
      </trkpt>
      <trkpt lat="47.33185" lon="-2.4648">
        <ele>26</ele>
        <time>2021-03-04T10:25:27.000Z</time>
      </trkpt>
      <trkpt lat="47.33183" lon="-2.4648">
        <ele>25.39999961853</ele>
        <time>2021-03-04T10:25:28.000Z</time>
      </trkpt>
      <trkpt lat="47.33182" lon="-2.46481">
        <ele>25.39999961853</ele>
        <time>2021-03-04T10:25:29.000Z</time>
      </trkpt>
      <trkpt lat="47.33173" lon="-2.46486">
        <ele>25</ele>
        <time>2021-03-04T10:25:34.000Z</time>
      </trkpt>
      <trkpt lat="47.33171" lon="-2.46487">
        <ele>24.60000038147</ele>
        <time>2021-03-04T10:25:35.000Z</time>
      </trkpt>
      <trkpt lat="47.33169" lon="-2.46488">
        <ele>24.200000762939</ele>
        <time>2021-03-04T10:25:36.000Z</time>
      </trkpt>
      <trkpt lat="47.33167" lon="-2.4649">
        <ele>23.799999237061</ele>
        <time>2021-03-04T10:25:37.000Z</time>
      </trkpt>
      <trkpt lat="47.33164" lon="-2.46491">
        <ele>23.39999961853</ele>
        <time>2021-03-04T10:25:38.000Z</time>
      </trkpt>
      <trkpt lat="47.33155" lon="-2.46495">
        <ele>23.39999961853</ele>
        <time>2021-03-04T10:25:41.000Z</time>
      </trkpt>
      <trkpt lat="47.33138" lon="-2.46497">
        <ele>23.39999961853</ele>
        <time>2021-03-04T10:25:47.000Z</time>
      </trkpt>
      <trkpt lat="47.33125" lon="-2.465">
        <ele>23</ele>
        <time>2021-03-04T10:25:50.000Z</time>
      </trkpt>
      <trkpt lat="47.3312" lon="-2.46502">
        <ele>22.60000038147</ele>
        <time>2021-03-04T10:25:51.000Z</time>
      </trkpt>
      <trkpt lat="47.33116" lon="-2.46503">
        <ele>22.200000762939</ele>
        <time>2021-03-04T10:25:52.000Z</time>
      </trkpt>
      <trkpt lat="47.33112" lon="-2.46505">
        <ele>21.799999237061</ele>
        <time>2021-03-04T10:25:53.000Z</time>
      </trkpt>
      <trkpt lat="47.33107" lon="-2.46508">
        <ele>21.39999961853</ele>
        <time>2021-03-04T10:25:54.000Z</time>
      </trkpt>
      <trkpt lat="47.33091" lon="-2.46519">
        <ele>21.39999961853</ele>
        <time>2021-03-04T10:25:57.000Z</time>
      </trkpt>
      <trkpt lat="47.33084" lon="-2.46523">
        <ele>20.799999237061</ele>
        <time>2021-03-04T10:25:58.000Z</time>
      </trkpt>
      <trkpt lat="47.33077" lon="-2.46527">
        <ele>20.39999961853</ele>
        <time>2021-03-04T10:25:59.000Z</time>
      </trkpt>
      <trkpt lat="47.33069" lon="-2.46531">
        <ele>19.799999237061</ele>
        <time>2021-03-04T10:26:00.000Z</time>
      </trkpt>
      <trkpt lat="47.33061" lon="-2.46534">
        <ele>19.39999961853</ele>
        <time>2021-03-04T10:26:01.000Z</time>
      </trkpt>
      <trkpt lat="47.33053" lon="-2.46537">
        <ele>19</ele>
        <time>2021-03-04T10:26:02.000Z</time>
      </trkpt>
      <trkpt lat="47.33044" lon="-2.46539">
        <ele>18.60000038147</ele>
        <time>2021-03-04T10:26:03.000Z</time>
      </trkpt>
      <trkpt lat="47.33036" lon="-2.46541">
        <ele>18</ele>
        <time>2021-03-04T10:26:04.000Z</time>
      </trkpt>
      <trkpt lat="47.33028" lon="-2.46541">
        <ele>17.60000038147</ele>
        <time>2021-03-04T10:26:05.000Z</time>
      </trkpt>
      <trkpt lat="47.33019" lon="-2.46541">
        <ele>17.200000762939</ele>
        <time>2021-03-04T10:26:06.000Z</time>
      </trkpt>
      <trkpt lat="47.33011" lon="-2.46545">
        <ele>16.799999237061</ele>
        <time>2021-03-04T10:26:07.000Z</time>
      </trkpt>
      <trkpt lat="47.32995" lon="-2.46554">
        <ele>16.799999237061</ele>
        <time>2021-03-04T10:26:09.000Z</time>
      </trkpt>
      <trkpt lat="47.32988" lon="-2.46558">
        <ele>16.39999961853</ele>
        <time>2021-03-04T10:26:10.000Z</time>
      </trkpt>
      <trkpt lat="47.32981" lon="-2.46561">
        <ele>16</ele>
        <time>2021-03-04T10:26:11.000Z</time>
      </trkpt>
      <trkpt lat="47.32975" lon="-2.46564">
        <ele>15.39999961853</ele>
        <time>2021-03-04T10:26:12.000Z</time>
      </trkpt>
      <trkpt lat="47.32969" lon="-2.46566">
        <ele>14.60000038147</ele>
        <time>2021-03-04T10:26:13.000Z</time>
      </trkpt>
      <trkpt lat="47.32964" lon="-2.46567">
        <ele>13.800000190735</ele>
        <time>2021-03-04T10:26:14.000Z</time>
      </trkpt>
      <trkpt lat="47.32961" lon="-2.46566">
        <ele>13</ele>
        <time>2021-03-04T10:26:15.000Z</time>
      </trkpt>
      <trkpt lat="47.32958" lon="-2.46562">
        <ele>12.199999809265</ele>
        <time>2021-03-04T10:26:16.000Z</time>
      </trkpt>
      <trkpt lat="47.32956" lon="-2.46557">
        <ele>11.199999809265</ele>
        <time>2021-03-04T10:26:17.000Z</time>
      </trkpt>
      <trkpt lat="47.32955" lon="-2.4655">
        <ele>10.39999961853</ele>
        <time>2021-03-04T10:26:18.000Z</time>
      </trkpt>
      <trkpt lat="47.32956" lon="-2.46543">
        <ele>9.3999996185303</ele>
        <time>2021-03-04T10:26:19.000Z</time>
      </trkpt>
      <trkpt lat="47.32957" lon="-2.46513">
        <ele>9.3999996185303</ele>
        <time>2021-03-04T10:26:23.000Z</time>
      </trkpt>
      <trkpt lat="47.32958" lon="-2.46506">
        <ele>9.3999996185303</ele>
        <time>2021-03-04T10:26:24.000Z</time>
      </trkpt>
      <trkpt lat="47.32959" lon="-2.46464">
        <ele>9.3999996185303</ele>
        <time>2021-03-04T10:26:30.000Z</time>
      </trkpt>
      <trkpt lat="47.32959" lon="-2.46457">
        <ele>9.3999996185303</ele>
        <time>2021-03-04T10:26:31.000Z</time>
      </trkpt>
      <trkpt lat="47.3296" lon="-2.46439">
        <ele>9.8000001907349</ele>
        <time>2021-03-04T10:26:34.000Z</time>
      </trkpt>
      <trkpt lat="47.32961" lon="-2.46433">
        <ele>10.39999961853</ele>
        <time>2021-03-04T10:26:35.000Z</time>
      </trkpt>
      <trkpt lat="47.32962" lon="-2.46421">
        <ele>11.199999809265</ele>
        <time>2021-03-04T10:26:36.000Z</time>
      </trkpt>
      <trkpt lat="47.32962" lon="-2.46415">
        <ele>11.60000038147</ele>
        <time>2021-03-04T10:26:38.000Z</time>
      </trkpt>
      <trkpt lat="47.32961" lon="-2.46409">
        <ele>12</ele>
        <time>2021-03-04T10:26:39.000Z</time>
      </trkpt>
      <trkpt lat="47.32961" lon="-2.46403">
        <ele>12.39999961853</ele>
        <time>2021-03-04T10:26:40.000Z</time>
      </trkpt>
      <trkpt lat="47.32961" lon="-2.46397">
        <ele>12.800000190735</ele>
        <time>2021-03-04T10:26:41.000Z</time>
      </trkpt>
      <trkpt lat="47.32961" lon="-2.46391">
        <ele>13.199999809265</ele>
        <time>2021-03-04T10:26:42.000Z</time>
      </trkpt>
      <trkpt lat="47.32961" lon="-2.46385">
        <ele>13.60000038147</ele>
        <time>2021-03-04T10:26:43.000Z</time>
      </trkpt>
      <trkpt lat="47.32962" lon="-2.46379">
        <ele>14</ele>
        <time>2021-03-04T10:26:44.000Z</time>
      </trkpt>
      <trkpt lat="47.32961" lon="-2.46373">
        <ele>14.39999961853</ele>
        <time>2021-03-04T10:26:45.000Z</time>
      </trkpt>
      <trkpt lat="47.32961" lon="-2.46368">
        <ele>14.800000190735</ele>
        <time>2021-03-04T10:26:46.000Z</time>
      </trkpt>
      <trkpt lat="47.3296" lon="-2.46362">
        <ele>15.800000190735</ele>
        <time>2021-03-04T10:26:47.000Z</time>
      </trkpt>
      <trkpt lat="47.32957" lon="-2.46351">
        <ele>16.200000762939</ele>
        <time>2021-03-04T10:26:49.000Z</time>
      </trkpt>
      <trkpt lat="47.32955" lon="-2.46346">
        <ele>16.60000038147</ele>
        <time>2021-03-04T10:26:50.000Z</time>
      </trkpt>
      <trkpt lat="47.32954" lon="-2.4634">
        <ele>17</ele>
        <time>2021-03-04T10:26:51.000Z</time>
      </trkpt>
      <trkpt lat="47.32953" lon="-2.46334">
        <ele>17.39999961853</ele>
        <time>2021-03-04T10:26:52.000Z</time>
      </trkpt>
      <trkpt lat="47.32951" lon="-2.46329">
        <ele>17.799999237061</ele>
        <time>2021-03-04T10:26:53.000Z</time>
      </trkpt>
      <trkpt lat="47.32948" lon="-2.46319">
        <ele>18.200000762939</ele>
        <time>2021-03-04T10:26:55.000Z</time>
      </trkpt>
      <trkpt lat="47.32946" lon="-2.46314">
        <ele>18.799999237061</ele>
        <time>2021-03-04T10:26:56.000Z</time>
      </trkpt>
      <trkpt lat="47.32945" lon="-2.46308">
        <ele>19.200000762939</ele>
        <time>2021-03-04T10:26:57.000Z</time>
      </trkpt>
      <trkpt lat="47.32943" lon="-2.46304">
        <ele>19.60000038147</ele>
        <time>2021-03-04T10:26:58.000Z</time>
      </trkpt>
      <trkpt lat="47.32942" lon="-2.46298">
        <ele>20</ele>
        <time>2021-03-04T10:26:59.000Z</time>
      </trkpt>
      <trkpt lat="47.32936" lon="-2.46276">
        <ele>20.39999961853</ele>
        <time>2021-03-04T10:27:03.000Z</time>
      </trkpt>
      <trkpt lat="47.32935" lon="-2.4627">
        <ele>20.799999237061</ele>
        <time>2021-03-04T10:27:04.000Z</time>
      </trkpt>
      <trkpt lat="47.32933" lon="-2.46264">
        <ele>21.200000762939</ele>
        <time>2021-03-04T10:27:05.000Z</time>
      </trkpt>
      <trkpt lat="47.32931" lon="-2.46258">
        <ele>21.60000038147</ele>
        <time>2021-03-04T10:27:06.000Z</time>
      </trkpt>
      <trkpt lat="47.3293" lon="-2.46252">
        <ele>22</ele>
        <time>2021-03-04T10:27:07.000Z</time>
      </trkpt>
      <trkpt lat="47.32921" lon="-2.46224">
        <ele>22</ele>
        <time>2021-03-04T10:27:12.000Z</time>
      </trkpt>
      <trkpt lat="47.32907" lon="-2.46173">
        <ele>22</ele>
        <time>2021-03-04T10:27:21.000Z</time>
      </trkpt>
      <trkpt lat="47.32896" lon="-2.46151">
        <ele>22</ele>
        <time>2021-03-04T10:27:26.000Z</time>
      </trkpt>
      <trkpt lat="47.32892" lon="-2.46151">
        <ele>22</ele>
        <time>2021-03-04T10:27:27.000Z</time>
      </trkpt>
      <trkpt lat="47.32884" lon="-2.46156">
        <ele>22</ele>
        <time>2021-03-04T10:27:29.000Z</time>
      </trkpt>
      <trkpt lat="47.32858" lon="-2.46173">
        <ele>22</ele>
        <time>2021-03-04T10:27:34.000Z</time>
      </trkpt>
      <trkpt lat="47.32834" lon="-2.46188">
        <ele>21.60000038147</ele>
        <time>2021-03-04T10:27:38.000Z</time>
      </trkpt>
      <trkpt lat="47.32828" lon="-2.46192">
        <ele>21.200000762939</ele>
        <time>2021-03-04T10:27:39.000Z</time>
      </trkpt>
      <trkpt lat="47.32821" lon="-2.46193">
        <ele>20.799999237061</ele>
        <time>2021-03-04T10:27:40.000Z</time>
      </trkpt>
      <trkpt lat="47.32815" lon="-2.46194">
        <ele>20.200000762939</ele>
        <time>2021-03-04T10:27:41.000Z</time>
      </trkpt>
      <trkpt lat="47.32808" lon="-2.46193">
        <ele>19.799999237061</ele>
        <time>2021-03-04T10:27:42.000Z</time>
      </trkpt>
      <trkpt lat="47.32801" lon="-2.46189">
        <ele>19.39999961853</ele>
        <time>2021-03-04T10:27:43.000Z</time>
      </trkpt>
      <trkpt lat="47.32794" lon="-2.46186">
        <ele>19</ele>
        <time>2021-03-04T10:27:44.000Z</time>
      </trkpt>
      <trkpt lat="47.32788" lon="-2.46182">
        <ele>18.60000038147</ele>
        <time>2021-03-04T10:27:45.000Z</time>
      </trkpt>
      <trkpt lat="47.32783" lon="-2.46177">
        <ele>18.200000762939</ele>
        <time>2021-03-04T10:27:46.000Z</time>
      </trkpt>
      <trkpt lat="47.32778" lon="-2.46172">
        <ele>17.799999237061</ele>
        <time>2021-03-04T10:27:47.000Z</time>
      </trkpt>
      <trkpt lat="47.32774" lon="-2.46167">
        <ele>17.799999237061</ele>
        <time>2021-03-04T10:27:48.000Z</time>
      </trkpt>
      <trkpt lat="47.32771" lon="-2.46163">
        <ele>17.200000762939</ele>
        <time>2021-03-04T10:27:49.000Z</time>
      </trkpt>
      <trkpt lat="47.32768" lon="-2.46158">
        <ele>16.799999237061</ele>
        <time>2021-03-04T10:27:50.000Z</time>
      </trkpt>
      <trkpt lat="47.32765" lon="-2.46154">
        <ele>16.39999961853</ele>
        <time>2021-03-04T10:27:51.000Z</time>
      </trkpt>
      <trkpt lat="47.32763" lon="-2.46149">
        <ele>16</ele>
        <time>2021-03-04T10:27:52.000Z</time>
      </trkpt>
      <trkpt lat="47.32763" lon="-2.46143">
        <ele>15.60000038147</ele>
        <time>2021-03-04T10:27:53.000Z</time>
      </trkpt>
      <trkpt lat="47.32763" lon="-2.46137">
        <ele>15.60000038147</ele>
        <time>2021-03-04T10:27:56.000Z</time>
      </trkpt>
      <trkpt lat="47.32764" lon="-2.46137">
        <ele>15.60000038147</ele>
        <time>2021-03-04T10:27:58.000Z</time>
      </trkpt>
      <trkpt lat="47.32763" lon="-2.46131">
        <ele>14.199999809265</ele>
        <time>2021-03-04T10:28:04.000Z</time>
      </trkpt>
      <trkpt lat="47.32763" lon="-2.46128">
        <ele>13.800000190735</ele>
        <time>2021-03-04T10:28:05.000Z</time>
      </trkpt>
      <trkpt lat="47.32763" lon="-2.46126">
        <ele>13.39999961853</ele>
        <time>2021-03-04T10:28:06.000Z</time>
      </trkpt>
      <trkpt lat="47.32756" lon="-2.46111">
        <ele>13.39999961853</ele>
        <time>2021-03-04T10:28:11.000Z</time>
      </trkpt>
      <trkpt lat="47.32743" lon="-2.46088">
        <ele>13.39999961853</ele>
        <time>2021-03-04T10:28:18.000Z</time>
      </trkpt>
      <trkpt lat="47.32742" lon="-2.46087">
        <ele>13</ele>
        <time>2021-03-04T10:28:19.000Z</time>
      </trkpt>
      <trkpt lat="47.3274" lon="-2.46085">
        <ele>12.60000038147</ele>
        <time>2021-03-04T10:28:20.000Z</time>
      </trkpt>
      <trkpt lat="47.32739" lon="-2.46084">
        <ele>12.199999809265</ele>
        <time>2021-03-04T10:28:21.000Z</time>
      </trkpt>
      <trkpt lat="47.32738" lon="-2.46082">
        <ele>11.800000190735</ele>
        <time>2021-03-04T10:28:22.000Z</time>
      </trkpt>
      <trkpt lat="47.32737" lon="-2.46079">
        <ele>11.39999961853</ele>
        <time>2021-03-04T10:28:23.000Z</time>
      </trkpt>
      <trkpt lat="47.32728" lon="-2.46068">
        <ele>11.39999961853</ele>
        <time>2021-03-04T10:28:29.000Z</time>
      </trkpt>
      <trkpt lat="47.32717" lon="-2.46055">
        <ele>11.39999961853</ele>
        <time>2021-03-04T10:28:34.000Z</time>
      </trkpt>
      <trkpt lat="47.32704" lon="-2.46038">
        <ele>11</ele>
        <time>2021-03-04T10:28:41.000Z</time>
      </trkpt>
      <trkpt lat="47.32702" lon="-2.46036">
        <ele>10.60000038147</ele>
        <time>2021-03-04T10:28:42.000Z</time>
      </trkpt>
      <trkpt lat="47.327" lon="-2.46034">
        <ele>10</ele>
        <time>2021-03-04T10:28:43.000Z</time>
      </trkpt>
      <trkpt lat="47.32699" lon="-2.46032">
        <ele>9.6000003814697</ele>
        <time>2021-03-04T10:28:44.000Z</time>
      </trkpt>
      <trkpt lat="47.32697" lon="-2.4603">
        <ele>9.1999998092651</ele>
        <time>2021-03-04T10:28:45.000Z</time>
      </trkpt>
      <trkpt lat="47.32692" lon="-2.46022">
        <ele>9.1999998092651</ele>
        <time>2021-03-04T10:28:48.000Z</time>
      </trkpt>
      <trkpt lat="47.32687" lon="-2.46013">
        <ele>9.1999998092651</ele>
        <time>2021-03-04T10:28:52.000Z</time>
      </trkpt>
      <trkpt lat="47.32682" lon="-2.46006">
        <ele>9.1999998092651</ele>
        <time>2021-03-04T10:28:56.000Z</time>
      </trkpt>
      <trkpt lat="47.32679" lon="-2.46003">
        <ele>9.1999998092651</ele>
        <time>2021-03-04T10:28:59.000Z</time>
      </trkpt>
      <trkpt lat="47.32672" lon="-2.45995">
        <ele>9.1999998092651</ele>
        <time>2021-03-04T10:29:06.000Z</time>
      </trkpt>
      <trkpt lat="47.32659" lon="-2.4598">
        <ele>9.1999998092651</ele>
        <time>2021-03-04T10:29:44.000Z</time>
      </trkpt>
      <trkpt lat="47.32653" lon="-2.45974">
        <ele>9.1999998092651</ele>
        <time>2021-03-04T10:29:50.000Z</time>
      </trkpt>
      <trkpt lat="47.32647" lon="-2.45969">
        <ele>9.1999998092651</ele>
        <time>2021-03-04T10:29:56.000Z</time>
      </trkpt>
      <trkpt lat="47.32646" lon="-2.45969">
        <ele>9.1999998092651</ele>
        <time>2021-03-04T10:29:57.000Z</time>
      </trkpt>
      <trkpt lat="47.32643" lon="-2.45967">
        <ele>9.1999998092651</ele>
        <time>2021-03-04T10:30:06.000Z</time>
      </trkpt>
      <trkpt lat="47.32639" lon="-2.45963">
        <ele>9.1999998092651</ele>
        <time>2021-03-04T10:30:08.000Z</time>
      </trkpt>
      <trkpt lat="47.32627" lon="-2.45945">
        <ele>9.1999998092651</ele>
        <time>2021-03-04T10:30:13.000Z</time>
      </trkpt>
      <trkpt lat="47.32607" lon="-2.45913">
        <ele>9.1999998092651</ele>
        <time>2021-03-04T10:30:20.000Z</time>
      </trkpt>
      <trkpt lat="47.32584" lon="-2.45883">
        <ele>9.1999998092651</ele>
        <time>2021-03-04T10:30:27.000Z</time>
      </trkpt>
      <trkpt lat="47.32563" lon="-2.45848">
        <ele>9.1999998092651</ele>
        <time>2021-03-04T10:30:34.000Z</time>
      </trkpt>
      <trkpt lat="47.32551" lon="-2.45829">
        <ele>9.1999998092651</ele>
        <time>2021-03-04T10:30:38.000Z</time>
      </trkpt>
      <trkpt lat="47.32539" lon="-2.45813">
        <ele>9.1999998092651</ele>
        <time>2021-03-04T10:30:42.000Z</time>
      </trkpt>
      <trkpt lat="47.32532" lon="-2.45803">
        <ele>9.1999998092651</ele>
        <time>2021-03-04T10:30:44.000Z</time>
      </trkpt>
      <trkpt lat="47.3252" lon="-2.45781">
        <ele>9.1999998092651</ele>
        <time>2021-03-04T10:30:48.000Z</time>
      </trkpt>
      <trkpt lat="47.32499" lon="-2.45742">
        <ele>9.1999998092651</ele>
        <time>2021-03-04T10:30:54.000Z</time>
      </trkpt>
      <trkpt lat="47.32469" lon="-2.45689">
        <ele>9.1999998092651</ele>
        <time>2021-03-04T10:31:02.000Z</time>
      </trkpt>
      <trkpt lat="47.32448" lon="-2.45659">
        <ele>9.1999998092651</ele>
        <time>2021-03-04T10:31:08.000Z</time>
      </trkpt>
      <trkpt lat="47.32432" lon="-2.45639">
        <ele>9.1999998092651</ele>
        <time>2021-03-04T10:31:14.000Z</time>
      </trkpt>
      <trkpt lat="47.32422" lon="-2.45617">
        <ele>9.1999998092651</ele>
        <time>2021-03-04T10:31:19.000Z</time>
      </trkpt>
      <trkpt lat="47.32413" lon="-2.45596">
        <ele>9.1999998092651</ele>
        <time>2021-03-04T10:31:25.000Z</time>
      </trkpt>
      <trkpt lat="47.32405" lon="-2.4558">
        <ele>9.1999998092651</ele>
        <time>2021-03-04T10:31:30.000Z</time>
      </trkpt>
      <trkpt lat="47.32389" lon="-2.45549">
        <ele>9.1999998092651</ele>
        <time>2021-03-04T10:31:37.000Z</time>
      </trkpt>
      <trkpt lat="47.32386" lon="-2.45544">
        <ele>9.1999998092651</ele>
        <time>2021-03-04T10:31:38.000Z</time>
      </trkpt>
      <trkpt lat="47.32375" lon="-2.45519">
        <ele>9.1999998092651</ele>
        <time>2021-03-04T10:31:42.000Z</time>
      </trkpt>
      <trkpt lat="47.32371" lon="-2.45513">
        <ele>9.1999998092651</ele>
        <time>2021-03-04T10:31:43.000Z</time>
      </trkpt>
      <trkpt lat="47.3235" lon="-2.45483">
        <ele>9.1999998092651</ele>
        <time>2021-03-04T10:31:48.000Z</time>
      </trkpt>
      <trkpt lat="47.32344" lon="-2.4547">
        <ele>9.1999998092651</ele>
        <time>2021-03-04T10:31:50.000Z</time>
      </trkpt>
      <trkpt lat="47.32336" lon="-2.45457">
        <ele>9.1999998092651</ele>
        <time>2021-03-04T10:31:52.000Z</time>
      </trkpt>
      <trkpt lat="47.32332" lon="-2.45451">
        <ele>9.1999998092651</ele>
        <time>2021-03-04T10:31:53.000Z</time>
      </trkpt>
      <trkpt lat="47.32329" lon="-2.45445">
        <ele>9.1999998092651</ele>
        <time>2021-03-04T10:31:54.000Z</time>
      </trkpt>
      <trkpt lat="47.32321" lon="-2.45434">
        <ele>9.1999998092651</ele>
        <time>2021-03-04T10:31:56.000Z</time>
      </trkpt>
      <trkpt lat="47.32319" lon="-2.45431">
        <ele>8.8000001907349</ele>
        <time>2021-03-04T10:31:57.000Z</time>
      </trkpt>
      <trkpt lat="47.32317" lon="-2.4543">
        <ele>8.3999996185303</ele>
        <time>2021-03-04T10:31:58.000Z</time>
      </trkpt>
      <trkpt lat="47.32317" lon="-2.45427">
        <ele>8</ele>
        <time>2021-03-04T10:31:59.000Z</time>
      </trkpt>
      <trkpt lat="47.32315" lon="-2.45424">
        <ele>7.5999999046326</ele>
        <time>2021-03-04T10:32:00.000Z</time>
      </trkpt>
      <trkpt lat="47.32314" lon="-2.45422">
        <ele>7.1999998092651</ele>
        <time>2021-03-04T10:32:01.000Z</time>
      </trkpt>
      <trkpt lat="47.32315" lon="-2.45406">
        <ele>7.1999998092651</ele>
        <time>2021-03-04T10:32:05.000Z</time>
      </trkpt>
      <trkpt lat="47.32319" lon="-2.45387">
        <ele>7.1999998092651</ele>
        <time>2021-03-04T10:32:09.000Z</time>
      </trkpt>
      <trkpt lat="47.32317" lon="-2.45363">
        <ele>7.5999999046326</ele>
        <time>2021-03-04T10:32:14.000Z</time>
      </trkpt>
      <trkpt lat="47.32317" lon="-2.45359">
        <ele>8</ele>
        <time>2021-03-04T10:32:15.000Z</time>
      </trkpt>
      <trkpt lat="47.32316" lon="-2.45354">
        <ele>8.3999996185303</ele>
        <time>2021-03-04T10:32:16.000Z</time>
      </trkpt>
      <trkpt lat="47.32316" lon="-2.4535">
        <ele>8.8000001907349</ele>
        <time>2021-03-04T10:32:17.000Z</time>
      </trkpt>
      <trkpt lat="47.32316" lon="-2.45345">
        <ele>9.1999998092651</ele>
        <time>2021-03-04T10:32:18.000Z</time>
      </trkpt>
      <trkpt lat="47.32315" lon="-2.45334">
        <ele>9.1999998092651</ele>
        <time>2021-03-04T10:32:20.000Z</time>
      </trkpt>
      <trkpt lat="47.32315" lon="-2.4533">
        <ele>9.6000003814697</ele>
        <time>2021-03-04T10:32:21.000Z</time>
      </trkpt>
      <trkpt lat="47.32315" lon="-2.45326">
        <ele>10</ele>
        <time>2021-03-04T10:32:22.000Z</time>
      </trkpt>
      <trkpt lat="47.32315" lon="-2.45321">
        <ele>10.60000038147</ele>
        <time>2021-03-04T10:32:23.000Z</time>
      </trkpt>
      <trkpt lat="47.32316" lon="-2.45316">
        <ele>11</ele>
        <time>2021-03-04T10:32:24.000Z</time>
      </trkpt>
      <trkpt lat="47.32315" lon="-2.45311">
        <ele>11.39999961853</ele>
        <time>2021-03-04T10:32:25.000Z</time>
      </trkpt>
      <trkpt lat="47.32314" lon="-2.45305">
        <ele>11.39999961853</ele>
        <time>2021-03-04T10:32:26.000Z</time>
      </trkpt>
      <trkpt lat="47.32304" lon="-2.45269">
        <ele>11.39999961853</ele>
        <time>2021-03-04T10:32:32.000Z</time>
      </trkpt>
      <trkpt lat="47.32288" lon="-2.45222">
        <ele>11.39999961853</ele>
        <time>2021-03-04T10:32:38.000Z</time>
      </trkpt>
      <trkpt lat="47.32285" lon="-2.45215">
        <ele>11</ele>
        <time>2021-03-04T10:32:39.000Z</time>
      </trkpt>
      <trkpt lat="47.32281" lon="-2.45207">
        <ele>10.60000038147</ele>
        <time>2021-03-04T10:32:40.000Z</time>
      </trkpt>
      <trkpt lat="47.32278" lon="-2.452">
        <ele>10.199999809265</ele>
        <time>2021-03-04T10:32:41.000Z</time>
      </trkpt>
      <trkpt lat="47.32274" lon="-2.45193">
        <ele>9.8000001907349</ele>
        <time>2021-03-04T10:32:42.000Z</time>
      </trkpt>
      <trkpt lat="47.32271" lon="-2.45186">
        <ele>9.3999996185303</ele>
        <time>2021-03-04T10:32:43.000Z</time>
      </trkpt>
      <trkpt lat="47.32269" lon="-2.4518">
        <ele>9.3999996185303</ele>
        <time>2021-03-04T10:32:44.000Z</time>
      </trkpt>
      <trkpt lat="47.32267" lon="-2.45173">
        <ele>9.3999996185303</ele>
        <time>2021-03-04T10:32:45.000Z</time>
      </trkpt>
      <trkpt lat="47.32262" lon="-2.45146">
        <ele>9.3999996185303</ele>
        <time>2021-03-04T10:32:49.000Z</time>
      </trkpt>
      <trkpt lat="47.32261" lon="-2.45138">
        <ele>9.8000001907349</ele>
        <time>2021-03-04T10:32:50.000Z</time>
      </trkpt>
      <trkpt lat="47.32259" lon="-2.45132">
        <ele>10.199999809265</ele>
        <time>2021-03-04T10:32:51.000Z</time>
      </trkpt>
      <trkpt lat="47.32257" lon="-2.45126">
        <ele>10.60000038147</ele>
        <time>2021-03-04T10:32:52.000Z</time>
      </trkpt>
      <trkpt lat="47.32254" lon="-2.4512">
        <ele>11</ele>
        <time>2021-03-04T10:32:53.000Z</time>
      </trkpt>
      <trkpt lat="47.32252" lon="-2.45114">
        <ele>11.39999961853</ele>
        <time>2021-03-04T10:32:54.000Z</time>
      </trkpt>
      <trkpt lat="47.32245" lon="-2.45095">
        <ele>11.39999961853</ele>
        <time>2021-03-04T10:32:57.000Z</time>
      </trkpt>
      <trkpt lat="47.32237" lon="-2.45077">
        <ele>11.800000190735</ele>
        <time>2021-03-04T10:33:00.000Z</time>
      </trkpt>
      <trkpt lat="47.32234" lon="-2.45071">
        <ele>12.39999961853</ele>
        <time>2021-03-04T10:33:01.000Z</time>
      </trkpt>
      <trkpt lat="47.32232" lon="-2.45065">
        <ele>12.800000190735</ele>
        <time>2021-03-04T10:33:02.000Z</time>
      </trkpt>
      <trkpt lat="47.32229" lon="-2.45059">
        <ele>13.60000038147</ele>
        <time>2021-03-04T10:33:03.000Z</time>
      </trkpt>
      <trkpt lat="47.32216" lon="-2.45032">
        <ele>13.60000038147</ele>
        <time>2021-03-04T10:33:07.000Z</time>
      </trkpt>
      <trkpt lat="47.32213" lon="-2.45026">
        <ele>13.60000038147</ele>
        <time>2021-03-04T10:33:08.000Z</time>
      </trkpt>
      <trkpt lat="47.32203" lon="-2.45009">
        <ele>13.60000038147</ele>
        <time>2021-03-04T10:33:11.000Z</time>
      </trkpt>
      <trkpt lat="47.322" lon="-2.45002">
        <ele>13.60000038147</ele>
        <time>2021-03-04T10:33:12.000Z</time>
      </trkpt>
      <trkpt lat="47.32184" lon="-2.44976">
        <ele>13.60000038147</ele>
        <time>2021-03-04T10:33:16.000Z</time>
      </trkpt>
      <trkpt lat="47.32178" lon="-2.44971">
        <ele>13.60000038147</ele>
        <time>2021-03-04T10:33:17.000Z</time>
      </trkpt>
      <trkpt lat="47.32142" lon="-2.44941">
        <ele>13.60000038147</ele>
        <time>2021-03-04T10:33:23.000Z</time>
      </trkpt>
      <trkpt lat="47.32132" lon="-2.44927">
        <ele>13.60000038147</ele>
        <time>2021-03-04T10:33:25.000Z</time>
      </trkpt>
      <trkpt lat="47.32127" lon="-2.4492">
        <ele>13.199999809265</ele>
        <time>2021-03-04T10:33:26.000Z</time>
      </trkpt>
      <trkpt lat="47.32123" lon="-2.44911">
        <ele>12.199999809265</ele>
        <time>2021-03-04T10:33:27.000Z</time>
      </trkpt>
      <trkpt lat="47.32118" lon="-2.44901">
        <ele>11.800000190735</ele>
        <time>2021-03-04T10:33:28.000Z</time>
      </trkpt>
      <trkpt lat="47.32115" lon="-2.44892">
        <ele>11.39999961853</ele>
        <time>2021-03-04T10:33:29.000Z</time>
      </trkpt>
      <trkpt lat="47.32101" lon="-2.44858">
        <ele>11.39999961853</ele>
        <time>2021-03-04T10:33:33.000Z</time>
      </trkpt>
      <trkpt lat="47.32079" lon="-2.44806">
        <ele>11.39999961853</ele>
        <time>2021-03-04T10:33:39.000Z</time>
      </trkpt>
      <trkpt lat="47.32067" lon="-2.4478">
        <ele>11.39999961853</ele>
        <time>2021-03-04T10:33:42.000Z</time>
      </trkpt>
      <trkpt lat="47.32058" lon="-2.44764">
        <ele>11.39999961853</ele>
        <time>2021-03-04T10:33:44.000Z</time>
      </trkpt>
      <trkpt lat="47.32039" lon="-2.44733">
        <ele>11</ele>
        <time>2021-03-04T10:33:48.000Z</time>
      </trkpt>
      <trkpt lat="47.32034" lon="-2.44726">
        <ele>10.60000038147</ele>
        <time>2021-03-04T10:33:49.000Z</time>
      </trkpt>
      <trkpt lat="47.32028" lon="-2.44718">
        <ele>10.199999809265</ele>
        <time>2021-03-04T10:33:50.000Z</time>
      </trkpt>
      <trkpt lat="47.32023" lon="-2.44709">
        <ele>9.8000001907349</ele>
        <time>2021-03-04T10:33:51.000Z</time>
      </trkpt>
      <trkpt lat="47.32018" lon="-2.44702">
        <ele>9.3999996185303</ele>
        <time>2021-03-04T10:33:52.000Z</time>
      </trkpt>
      <trkpt lat="47.32002" lon="-2.44679">
        <ele>9.3999996185303</ele>
        <time>2021-03-04T10:33:55.000Z</time>
      </trkpt>
      <trkpt lat="47.3199" lon="-2.44665">
        <ele>9.3999996185303</ele>
        <time>2021-03-04T10:33:57.000Z</time>
      </trkpt>
      <trkpt lat="47.31978" lon="-2.44651">
        <ele>9.3999996185303</ele>
        <time>2021-03-04T10:33:59.000Z</time>
      </trkpt>
      <trkpt lat="47.31934" lon="-2.446">
        <ele>9.3999996185303</ele>
        <time>2021-03-04T10:34:07.000Z</time>
      </trkpt>
      <trkpt lat="47.3192" lon="-2.44583">
        <ele>9</ele>
        <time>2021-03-04T10:34:10.000Z</time>
      </trkpt>
      <trkpt lat="47.31916" lon="-2.44577">
        <ele>8.6000003814697</ele>
        <time>2021-03-04T10:34:11.000Z</time>
      </trkpt>
      <trkpt lat="47.31911" lon="-2.44571">
        <ele>8.1999998092651</ele>
        <time>2021-03-04T10:34:12.000Z</time>
      </trkpt>
      <trkpt lat="47.31907" lon="-2.44568">
        <ele>7.8000001907349</ele>
        <time>2021-03-04T10:34:13.000Z</time>
      </trkpt>
      <trkpt lat="47.31902" lon="-2.44568">
        <ele>7.4000000953674</ele>
        <time>2021-03-04T10:34:14.000Z</time>
      </trkpt>
      <trkpt lat="47.31894" lon="-2.44574">
        <ele>7.4000000953674</ele>
        <time>2021-03-04T10:34:16.000Z</time>
      </trkpt>
      <trkpt lat="47.31886" lon="-2.44594">
        <ele>7.4000000953674</ele>
        <time>2021-03-04T10:34:19.000Z</time>
      </trkpt>
      <trkpt lat="47.31869" lon="-2.44638">
        <ele>7.4000000953674</ele>
        <time>2021-03-04T10:34:25.000Z</time>
      </trkpt>
      <trkpt lat="47.31842" lon="-2.44695">
        <ele>7.4000000953674</ele>
        <time>2021-03-04T10:34:33.000Z</time>
      </trkpt>
      <trkpt lat="47.31814" lon="-2.44726">
        <ele>7.4000000953674</ele>
        <time>2021-03-04T10:34:39.000Z</time>
      </trkpt>
      <trkpt lat="47.31803" lon="-2.44732">
        <ele>6.4000000953674</ele>
        <time>2021-03-04T10:34:41.000Z</time>
      </trkpt>
      <trkpt lat="47.31797" lon="-2.44735">
        <ele>6</ele>
        <time>2021-03-04T10:34:42.000Z</time>
      </trkpt>
      <trkpt lat="47.31791" lon="-2.44737">
        <ele>5.5999999046326</ele>
        <time>2021-03-04T10:34:43.000Z</time>
      </trkpt>
      <trkpt lat="47.31785" lon="-2.44741">
        <ele>5.1999998092651</ele>
        <time>2021-03-04T10:34:44.000Z</time>
      </trkpt>
      <trkpt lat="47.31779" lon="-2.44744">
        <ele>5.1999998092651</ele>
        <time>2021-03-04T10:34:45.000Z</time>
      </trkpt>
      <trkpt lat="47.31768" lon="-2.44752">
        <ele>5.1999998092651</ele>
        <time>2021-03-04T10:34:47.000Z</time>
      </trkpt>
      <trkpt lat="47.31753" lon="-2.44766">
        <ele>5.1999998092651</ele>
        <time>2021-03-04T10:34:50.000Z</time>
      </trkpt>
      <trkpt lat="47.3174" lon="-2.44782">
        <ele>5.1999998092651</ele>
        <time>2021-03-04T10:34:53.000Z</time>
      </trkpt>
      <trkpt lat="47.31732" lon="-2.44785">
        <ele>5.1999998092651</ele>
        <time>2021-03-04T10:34:55.000Z</time>
      </trkpt>
      <trkpt lat="47.3173" lon="-2.44784">
        <ele>5.1999998092651</ele>
        <time>2021-03-04T10:34:58.000Z</time>
      </trkpt>
      <trkpt lat="47.31726" lon="-2.44783">
        <ele>4.8000001907349</ele>
        <time>2021-03-04T10:35:05.000Z</time>
      </trkpt>
      <trkpt lat="47.31723" lon="-2.4478">
        <ele>4</ele>
        <time>2021-03-04T10:35:06.000Z</time>
      </trkpt>
      <trkpt lat="47.3172" lon="-2.44775">
        <ele>3.5999999046326</ele>
        <time>2021-03-04T10:35:07.000Z</time>
      </trkpt>
      <trkpt lat="47.31718" lon="-2.44769">
        <ele>3.2000000476837</ele>
        <time>2021-03-04T10:35:08.000Z</time>
      </trkpt>
      <trkpt lat="47.31709" lon="-2.44748">
        <ele>3.2000000476837</ele>
        <time>2021-03-04T10:35:11.000Z</time>
      </trkpt>
      <trkpt lat="47.31688" lon="-2.447">
        <ele>3.2000000476837</ele>
        <time>2021-03-04T10:35:17.000Z</time>
      </trkpt>
      <trkpt lat="47.31659" lon="-2.44633">
        <ele>3.2000000476837</ele>
        <time>2021-03-04T10:35:25.000Z</time>
      </trkpt>
      <trkpt lat="47.31631" lon="-2.44576">
        <ele>3.2000000476837</ele>
        <time>2021-03-04T10:35:32.000Z</time>
      </trkpt>
      <trkpt lat="47.316" lon="-2.44523">
        <ele>3.2000000476837</ele>
        <time>2021-03-04T10:35:39.000Z</time>
      </trkpt>
      <trkpt lat="47.31592" lon="-2.44505">
        <ele>3.2000000476837</ele>
        <time>2021-03-04T10:35:41.000Z</time>
      </trkpt>
      <trkpt lat="47.31584" lon="-2.44477">
        <ele>3.2000000476837</ele>
        <time>2021-03-04T10:35:44.000Z</time>
      </trkpt>
      <trkpt lat="47.31582" lon="-2.44466">
        <ele>3.2000000476837</ele>
        <time>2021-03-04T10:35:45.000Z</time>
      </trkpt>
      <trkpt lat="47.31577" lon="-2.44435">
        <ele>3.2000000476837</ele>
        <time>2021-03-04T10:35:48.000Z</time>
      </trkpt>
      <trkpt lat="47.31566" lon="-2.44355">
        <ele>3.2000000476837</ele>
        <time>2021-03-04T10:35:56.000Z</time>
      </trkpt>
      <trkpt lat="47.31564" lon="-2.44345">
        <ele>3.2000000476837</ele>
        <time>2021-03-04T10:35:57.000Z</time>
      </trkpt>
      <trkpt lat="47.31553" lon="-2.44274">
        <ele>3.2000000476837</ele>
        <time>2021-03-04T10:36:04.000Z</time>
      </trkpt>
      <trkpt lat="47.3154" lon="-2.44201">
        <ele>3.2000000476837</ele>
        <time>2021-03-04T10:36:12.000Z</time>
      </trkpt>
      <trkpt lat="47.31534" lon="-2.44185">
        <ele>3.2000000476837</ele>
        <time>2021-03-04T10:36:14.000Z</time>
      </trkpt>
      <trkpt lat="47.31523" lon="-2.44161">
        <ele>3.2000000476837</ele>
        <time>2021-03-04T10:36:17.000Z</time>
      </trkpt>
      <trkpt lat="47.31504" lon="-2.44132">
        <ele>3.2000000476837</ele>
        <time>2021-03-04T10:36:21.000Z</time>
      </trkpt>
      <trkpt lat="47.31499" lon="-2.44125">
        <ele>3.2000000476837</ele>
        <time>2021-03-04T10:36:22.000Z</time>
      </trkpt>
      <trkpt lat="47.31461" lon="-2.44077">
        <ele>3.2000000476837</ele>
        <time>2021-03-04T10:36:29.000Z</time>
      </trkpt>
      <trkpt lat="47.31416" lon="-2.44019">
        <ele>3.2000000476837</ele>
        <time>2021-03-04T10:36:37.000Z</time>
      </trkpt>
      <trkpt lat="47.31411" lon="-2.44012">
        <ele>3.2000000476837</ele>
        <time>2021-03-04T10:36:38.000Z</time>
      </trkpt>
      <trkpt lat="47.31371" lon="-2.43959">
        <ele>3.2000000476837</ele>
        <time>2021-03-04T10:36:45.000Z</time>
      </trkpt>
      <trkpt lat="47.31362" lon="-2.43941">
        <ele>3.2000000476837</ele>
        <time>2021-03-04T10:36:47.000Z</time>
      </trkpt>
      <trkpt lat="47.31355" lon="-2.43921">
        <ele>3.2000000476837</ele>
        <time>2021-03-04T10:36:49.000Z</time>
      </trkpt>
      <trkpt lat="47.31327" lon="-2.4385">
        <ele>3.2000000476837</ele>
        <time>2021-03-04T10:36:56.000Z</time>
      </trkpt>
      <trkpt lat="47.31318" lon="-2.43832">
        <ele>3.2000000476837</ele>
        <time>2021-03-04T10:36:58.000Z</time>
      </trkpt>
      <trkpt lat="47.313" lon="-2.43809">
        <ele>3.2000000476837</ele>
        <time>2021-03-04T10:37:01.000Z</time>
      </trkpt>
      <trkpt lat="47.31289" lon="-2.43791">
        <ele>3.2000000476837</ele>
        <time>2021-03-04T10:37:03.000Z</time>
      </trkpt>
      <trkpt lat="47.31282" lon="-2.43771">
        <ele>3.2000000476837</ele>
        <time>2021-03-04T10:37:05.000Z</time>
      </trkpt>
      <trkpt lat="47.31255" lon="-2.43703">
        <ele>3.2000000476837</ele>
        <time>2021-03-04T10:37:12.000Z</time>
      </trkpt>
      <trkpt lat="47.31239" lon="-2.43639">
        <ele>3.2000000476837</ele>
        <time>2021-03-04T10:37:18.000Z</time>
      </trkpt>
      <trkpt lat="47.31228" lon="-2.43562">
        <ele>3.2000000476837</ele>
        <time>2021-03-04T10:37:25.000Z</time>
      </trkpt>
      <trkpt lat="47.31217" lon="-2.43489">
        <ele>3.2000000476837</ele>
        <time>2021-03-04T10:37:32.000Z</time>
      </trkpt>
      <trkpt lat="47.31204" lon="-2.43405">
        <ele>3.2000000476837</ele>
        <time>2021-03-04T10:37:40.000Z</time>
      </trkpt>
      <trkpt lat="47.3119" lon="-2.43327">
        <ele>3.2000000476837</ele>
        <time>2021-03-04T10:37:48.000Z</time>
      </trkpt>
      <trkpt lat="47.31167" lon="-2.43276">
        <ele>3.2000000476837</ele>
        <time>2021-03-04T10:37:54.000Z</time>
      </trkpt>
      <trkpt lat="47.31145" lon="-2.43245">
        <ele>3.2000000476837</ele>
        <time>2021-03-04T10:37:59.000Z</time>
      </trkpt>
      <trkpt lat="47.31119" lon="-2.43202">
        <ele>3.2000000476837</ele>
        <time>2021-03-04T10:38:05.000Z</time>
      </trkpt>
      <trkpt lat="47.31105" lon="-2.43179">
        <ele>3.2000000476837</ele>
        <time>2021-03-04T10:38:08.000Z</time>
      </trkpt>
      <trkpt lat="47.31093" lon="-2.43152">
        <ele>3.2000000476837</ele>
        <time>2021-03-04T10:38:11.000Z</time>
      </trkpt>
      <trkpt lat="47.31074" lon="-2.43089">
        <ele>3.2000000476837</ele>
        <time>2021-03-04T10:38:18.000Z</time>
      </trkpt>
      <trkpt lat="47.3106" lon="-2.43036">
        <ele>3.2000000476837</ele>
        <time>2021-03-04T10:38:25.000Z</time>
      </trkpt>
      <trkpt lat="47.31047" lon="-2.42997">
        <ele>3.2000000476837</ele>
        <time>2021-03-04T10:38:32.000Z</time>
      </trkpt>
      <trkpt lat="47.31041" lon="-2.42981">
        <ele>3.2000000476837</ele>
        <time>2021-03-04T10:38:37.000Z</time>
      </trkpt>
      <trkpt lat="47.31041" lon="-2.4298">
        <ele>3.2000000476837</ele>
        <time>2021-03-04T10:38:39.000Z</time>
      </trkpt>
      <trkpt lat="47.31041" lon="-2.42978">
        <ele>3.2000000476837</ele>
        <time>2021-03-04T10:39:09.000Z</time>
      </trkpt>
      <trkpt lat="47.31042" lon="-2.42966">
        <ele>3.2000000476837</ele>
        <time>2021-03-04T10:39:14.000Z</time>
      </trkpt>
      <trkpt lat="47.31049" lon="-2.42959">
        <ele>3.2000000476837</ele>
        <time>2021-03-04T10:39:17.000Z</time>
      </trkpt>
      <trkpt lat="47.31052" lon="-2.42957">
        <ele>3.2000000476837</ele>
        <time>2021-03-04T10:39:18.000Z</time>
      </trkpt>
      <trkpt lat="47.31063" lon="-2.42956">
        <ele>3.2000000476837</ele>
        <time>2021-03-04T10:39:21.000Z</time>
      </trkpt>
      <trkpt lat="47.31074" lon="-2.42954">
        <ele>3.2000000476837</ele>
        <time>2021-03-04T10:39:24.000Z</time>
      </trkpt>
      <trkpt lat="47.31095" lon="-2.4295">
        <ele>3.2000000476837</ele>
        <time>2021-03-04T10:39:29.000Z</time>
      </trkpt>
      <trkpt lat="47.31099" lon="-2.42949">
        <ele>3.5999999046326</ele>
        <time>2021-03-04T10:39:30.000Z</time>
      </trkpt>
      <trkpt lat="47.31104" lon="-2.42949">
        <ele>4</ele>
        <time>2021-03-04T10:39:31.000Z</time>
      </trkpt>
      <trkpt lat="47.31109" lon="-2.42948">
        <ele>4.4000000953674</ele>
        <time>2021-03-04T10:39:32.000Z</time>
      </trkpt>
      <trkpt lat="47.31114" lon="-2.42947">
        <ele>5</ele>
        <time>2021-03-04T10:39:33.000Z</time>
      </trkpt>
      <trkpt lat="47.3112" lon="-2.42947">
        <ele>5.4000000953674</ele>
        <time>2021-03-04T10:39:34.000Z</time>
      </trkpt>
      <trkpt lat="47.31135" lon="-2.42944">
        <ele>5.4000000953674</ele>
        <time>2021-03-04T10:39:37.000Z</time>
      </trkpt>
      <trkpt lat="47.31192" lon="-2.42935">
        <ele>5.4000000953674</ele>
        <time>2021-03-04T10:39:48.000Z</time>
      </trkpt>
      <trkpt lat="47.31245" lon="-2.42926">
        <ele>5.4000000953674</ele>
        <time>2021-03-04T10:39:58.000Z</time>
      </trkpt>
      <trkpt lat="47.31291" lon="-2.42915">
        <ele>5.4000000953674</ele>
        <time>2021-03-04T10:40:07.000Z</time>
      </trkpt>
      <trkpt lat="47.31334" lon="-2.42904">
        <ele>5.8000001907349</ele>
        <time>2021-03-04T10:40:16.000Z</time>
      </trkpt>
      <trkpt lat="47.31338" lon="-2.42903">
        <ele>6.1999998092651</ele>
        <time>2021-03-04T10:40:17.000Z</time>
      </trkpt>
      <trkpt lat="47.31342" lon="-2.42902">
        <ele>6.5999999046326</ele>
        <time>2021-03-04T10:40:18.000Z</time>
      </trkpt>
      <trkpt lat="47.31347" lon="-2.429">
        <ele>7</ele>
        <time>2021-03-04T10:40:19.000Z</time>
      </trkpt>
      <trkpt lat="47.31351" lon="-2.42899">
        <ele>7.4000000953674</ele>
        <time>2021-03-04T10:40:20.000Z</time>
      </trkpt>
      <trkpt lat="47.31365" lon="-2.42896">
        <ele>7.4000000953674</ele>
        <time>2021-03-04T10:40:23.000Z</time>
      </trkpt>
      <trkpt lat="47.31403" lon="-2.42884">
        <ele>7.4000000953674</ele>
        <time>2021-03-04T10:40:31.000Z</time>
      </trkpt>
      <trkpt lat="47.31431" lon="-2.42872">
        <ele>7.4000000953674</ele>
        <time>2021-03-04T10:40:38.000Z</time>
      </trkpt>
      <trkpt lat="47.31444" lon="-2.42867">
        <ele>7.8000001907349</ele>
        <time>2021-03-04T10:40:41.000Z</time>
      </trkpt>
      <trkpt lat="47.31449" lon="-2.42865">
        <ele>8.1999998092651</ele>
        <time>2021-03-04T10:40:42.000Z</time>
      </trkpt>
      <trkpt lat="47.31452" lon="-2.42863">
        <ele>8.6000003814697</ele>
        <time>2021-03-04T10:40:43.000Z</time>
      </trkpt>
      <trkpt lat="47.31456" lon="-2.4286">
        <ele>9</ele>
        <time>2021-03-04T10:40:44.000Z</time>
      </trkpt>
      <trkpt lat="47.31459" lon="-2.42857">
        <ele>9.3999996185303</ele>
        <time>2021-03-04T10:40:45.000Z</time>
      </trkpt>
      <trkpt lat="47.31464" lon="-2.4285">
        <ele>9.3999996185303</ele>
        <time>2021-03-04T10:40:47.000Z</time>
      </trkpt>
      <trkpt lat="47.31465" lon="-2.4284">
        <ele>9.3999996185303</ele>
        <time>2021-03-04T10:40:49.000Z</time>
      </trkpt>
      <trkpt lat="47.31464" lon="-2.42827">
        <ele>9.3999996185303</ele>
        <time>2021-03-04T10:40:51.000Z</time>
      </trkpt>
      <trkpt lat="47.31462" lon="-2.42808">
        <ele>9.3999996185303</ele>
        <time>2021-03-04T10:40:54.000Z</time>
      </trkpt>
      <trkpt lat="47.31461" lon="-2.42801">
        <ele>9.3999996185303</ele>
        <time>2021-03-04T10:40:55.000Z</time>
      </trkpt>
      <trkpt lat="47.31454" lon="-2.42768">
        <ele>9.3999996185303</ele>
        <time>2021-03-04T10:40:59.000Z</time>
      </trkpt>
      <trkpt lat="47.31437" lon="-2.42727">
        <ele>9.3999996185303</ele>
        <time>2021-03-04T10:41:04.000Z</time>
      </trkpt>
      <trkpt lat="47.31402" lon="-2.42666">
        <ele>9.3999996185303</ele>
        <time>2021-03-04T10:41:12.000Z</time>
      </trkpt>
      <trkpt lat="47.31397" lon="-2.42658">
        <ele>9.3999996185303</ele>
        <time>2021-03-04T10:41:13.000Z</time>
      </trkpt>
      <trkpt lat="47.31369" lon="-2.4261">
        <ele>9.3999996185303</ele>
        <time>2021-03-04T10:41:19.000Z</time>
      </trkpt>
      <trkpt lat="47.31366" lon="-2.42601">
        <ele>9.3999996185303</ele>
        <time>2021-03-04T10:41:20.000Z</time>
      </trkpt>
      <trkpt lat="47.31356" lon="-2.4256">
        <ele>9.3999996185303</ele>
        <time>2021-03-04T10:41:25.000Z</time>
      </trkpt>
      <trkpt lat="47.31352" lon="-2.42542">
        <ele>9.3999996185303</ele>
        <time>2021-03-04T10:41:29.000Z</time>
      </trkpt>
      <trkpt lat="47.31342" lon="-2.42543">
        <ele>9.3999996185303</ele>
        <time>2021-03-04T10:41:33.000Z</time>
      </trkpt>
      <trkpt lat="47.31334" lon="-2.42553">
        <ele>9.3999996185303</ele>
        <time>2021-03-04T10:41:38.000Z</time>
      </trkpt>
      <trkpt lat="47.31332" lon="-2.42554">
        <ele>9.3999996185303</ele>
        <time>2021-03-04T10:41:39.000Z</time>
      </trkpt>
      <trkpt lat="47.31324" lon="-2.42562">
        <ele>9.3999996185303</ele>
        <time>2021-03-04T10:41:42.000Z</time>
      </trkpt>
      <trkpt lat="47.31303" lon="-2.42586">
        <ele>9.3999996185303</ele>
        <time>2021-03-04T10:41:48.000Z</time>
      </trkpt>
      <trkpt lat="47.31296" lon="-2.42594">
        <ele>9</ele>
        <time>2021-03-04T10:41:50.000Z</time>
      </trkpt>
      <trkpt lat="47.31294" lon="-2.42597">
        <ele>8.6000003814697</ele>
        <time>2021-03-04T10:41:51.000Z</time>
      </trkpt>
      <trkpt lat="47.31293" lon="-2.42599">
        <ele>8</ele>
        <time>2021-03-04T10:41:52.000Z</time>
      </trkpt>
      <trkpt lat="47.31292" lon="-2.42601">
        <ele>7.5999999046326</ele>
        <time>2021-03-04T10:41:53.000Z</time>
      </trkpt>
      <trkpt lat="47.31291" lon="-2.42602">
        <ele>7.1999998092651</ele>
        <time>2021-03-04T10:41:54.000Z</time>
      </trkpt>
      <trkpt lat="47.3129" lon="-2.426">
        <ele>7.1999998092651</ele>
        <time>2021-03-04T10:41:56.000Z</time>
      </trkpt>
      <trkpt lat="47.31293" lon="-2.42597">
        <ele>7.1999998092651</ele>
        <time>2021-03-04T10:42:00.000Z</time>
      </trkpt>
      <trkpt lat="47.31295" lon="-2.42594">
        <ele>7.1999998092651</ele>
        <time>2021-03-04T10:42:02.000Z</time>
      </trkpt>
      <trkpt lat="47.31307" lon="-2.42579">
        <ele>7.1999998092651</ele>
        <time>2021-03-04T10:42:07.000Z</time>
      </trkpt>
      <trkpt lat="47.31324" lon="-2.42561">
        <ele>7.1999998092651</ele>
        <time>2021-03-04T10:42:13.000Z</time>
      </trkpt>
      <trkpt lat="47.31345" lon="-2.4254">
        <ele>7.1999998092651</ele>
        <time>2021-03-04T10:42:21.000Z</time>
      </trkpt>
      <trkpt lat="47.31351" lon="-2.42536">
        <ele>7.1999998092651</ele>
        <time>2021-03-04T10:42:26.000Z</time>
      </trkpt>
      <trkpt lat="47.31353" lon="-2.42534">
        <ele>7.1999998092651</ele>
        <time>2021-03-04T10:42:34.000Z</time>
      </trkpt>
      <trkpt lat="47.31356" lon="-2.4253">
        <ele>7.1999998092651</ele>
        <time>2021-03-04T10:42:36.000Z</time>
      </trkpt>
      <trkpt lat="47.31353" lon="-2.4251">
        <ele>7.1999998092651</ele>
        <time>2021-03-04T10:42:40.000Z</time>
      </trkpt>
      <trkpt lat="47.31342" lon="-2.42466">
        <ele>7.1999998092651</ele>
        <time>2021-03-04T10:42:47.000Z</time>
      </trkpt>
      <trkpt lat="47.3134" lon="-2.4246">
        <ele>7.1999998092651</ele>
        <time>2021-03-04T10:42:48.000Z</time>
      </trkpt>
      <trkpt lat="47.3133" lon="-2.42441">
        <ele>7.1999998092651</ele>
        <time>2021-03-04T10:42:51.000Z</time>
      </trkpt>
      <trkpt lat="47.31322" lon="-2.42428">
        <ele>7.1999998092651</ele>
        <time>2021-03-04T10:42:53.000Z</time>
      </trkpt>
      <trkpt lat="47.31295" lon="-2.4238">
        <ele>7.1999998092651</ele>
        <time>2021-03-04T10:43:00.000Z</time>
      </trkpt>
      <trkpt lat="47.31275" lon="-2.42348">
        <ele>7.1999998092651</ele>
        <time>2021-03-04T10:43:05.000Z</time>
      </trkpt>
      <trkpt lat="47.3127" lon="-2.42343">
        <ele>7.1999998092651</ele>
        <time>2021-03-04T10:43:06.000Z</time>
      </trkpt>
      <trkpt lat="47.31232" lon="-2.42302">
        <ele>7.1999998092651</ele>
        <time>2021-03-04T10:43:13.000Z</time>
      </trkpt>
      <trkpt lat="47.31209" lon="-2.42263">
        <ele>7.1999998092651</ele>
        <time>2021-03-04T10:43:18.000Z</time>
      </trkpt>
      <trkpt lat="47.31183" lon="-2.42207">
        <ele>7.1999998092651</ele>
        <time>2021-03-04T10:43:25.000Z</time>
      </trkpt>
      <trkpt lat="47.31157" lon="-2.42152">
        <ele>7.1999998092651</ele>
        <time>2021-03-04T10:43:32.000Z</time>
      </trkpt>
      <trkpt lat="47.31127" lon="-2.42087">
        <ele>7.1999998092651</ele>
        <time>2021-03-04T10:43:40.000Z</time>
      </trkpt>
      <trkpt lat="47.31101" lon="-2.42022">
        <ele>7.1999998092651</ele>
        <time>2021-03-04T10:43:48.000Z</time>
      </trkpt>
      <trkpt lat="47.31084" lon="-2.41966">
        <ele>7.1999998092651</ele>
        <time>2021-03-04T10:43:55.000Z</time>
      </trkpt>
      <trkpt lat="47.31079" lon="-2.41954">
        <ele>7.1999998092651</ele>
        <time>2021-03-04T10:43:57.000Z</time>
      </trkpt>
      <trkpt lat="47.31075" lon="-2.41951">
        <ele>7.1999998092651</ele>
        <time>2021-03-04T10:43:58.000Z</time>
      </trkpt>
      <trkpt lat="47.31061" lon="-2.41959">
        <ele>7.1999998092651</ele>
        <time>2021-03-04T10:44:01.000Z</time>
      </trkpt>
      <trkpt lat="47.31057" lon="-2.41965">
        <ele>7.1999998092651</ele>
        <time>2021-03-04T10:44:02.000Z</time>
      </trkpt>
      <trkpt lat="47.31025" lon="-2.42001">
        <ele>7.1999998092651</ele>
        <time>2021-03-04T10:44:08.000Z</time>
      </trkpt>
      <trkpt lat="47.30985" lon="-2.42048">
        <ele>7.1999998092651</ele>
        <time>2021-03-04T10:44:15.000Z</time>
      </trkpt>
      <trkpt lat="47.30966" lon="-2.42068">
        <ele>7.1999998092651</ele>
        <time>2021-03-04T10:44:18.000Z</time>
      </trkpt>
      <trkpt lat="47.30952" lon="-2.4208">
        <ele>7.1999998092651</ele>
        <time>2021-03-04T10:44:20.000Z</time>
      </trkpt>
      <trkpt lat="47.30906" lon="-2.42126">
        <ele>6.8000001907349</ele>
        <time>2021-03-04T10:44:27.000Z</time>
      </trkpt>
      <trkpt lat="47.309" lon="-2.42133">
        <ele>6.4000000953674</ele>
        <time>2021-03-04T10:44:28.000Z</time>
      </trkpt>
      <trkpt lat="47.30894" lon="-2.42141">
        <ele>6</ele>
        <time>2021-03-04T10:44:29.000Z</time>
      </trkpt>
      <trkpt lat="47.30889" lon="-2.42149">
        <ele>5.5999999046326</ele>
        <time>2021-03-04T10:44:30.000Z</time>
      </trkpt>
      <trkpt lat="47.30884" lon="-2.42156">
        <ele>5.1999998092651</ele>
        <time>2021-03-04T10:44:31.000Z</time>
      </trkpt>
      <trkpt lat="47.30879" lon="-2.42164">
        <ele>5.1999998092651</ele>
        <time>2021-03-04T10:44:32.000Z</time>
      </trkpt>
      <trkpt lat="47.30858" lon="-2.42203">
        <ele>5.1999998092651</ele>
        <time>2021-03-04T10:44:37.000Z</time>
      </trkpt>
      <trkpt lat="47.30854" lon="-2.42208">
        <ele>4.8000001907349</ele>
        <time>2021-03-04T10:44:38.000Z</time>
      </trkpt>
      <trkpt lat="47.30848" lon="-2.42209">
        <ele>4.1999998092651</ele>
        <time>2021-03-04T10:44:39.000Z</time>
      </trkpt>
      <trkpt lat="47.30842" lon="-2.42209">
        <ele>3.7999999523163</ele>
        <time>2021-03-04T10:44:40.000Z</time>
      </trkpt>
      <trkpt lat="47.30835" lon="-2.42208">
        <ele>3.2000000476837</ele>
        <time>2021-03-04T10:44:41.000Z</time>
      </trkpt>
      <trkpt lat="47.30827" lon="-2.42206">
        <ele>2.7999999523163</ele>
        <time>2021-03-04T10:44:42.000Z</time>
      </trkpt>
      <trkpt lat="47.3082" lon="-2.42203">
        <ele>2.7999999523163</ele>
        <time>2021-03-04T10:44:43.000Z</time>
      </trkpt>
      <trkpt lat="47.30814" lon="-2.42198">
        <ele>2.7999999523163</ele>
        <time>2021-03-04T10:44:44.000Z</time>
      </trkpt>
      <trkpt lat="47.30798" lon="-2.42176">
        <ele>2.7999999523163</ele>
        <time>2021-03-04T10:44:47.000Z</time>
      </trkpt>
      <trkpt lat="47.30765" lon="-2.42113">
        <ele>2.7999999523163</ele>
        <time>2021-03-04T10:44:54.000Z</time>
      </trkpt>
      <trkpt lat="47.30743" lon="-2.4207">
        <ele>2.7999999523163</ele>
        <time>2021-03-04T10:44:59.000Z</time>
      </trkpt>
      <trkpt lat="47.30737" lon="-2.42063">
        <ele>2.7999999523163</ele>
        <time>2021-03-04T10:45:00.000Z</time>
      </trkpt>
      <trkpt lat="47.30732" lon="-2.42056">
        <ele>2.7999999523163</ele>
        <time>2021-03-04T10:45:01.000Z</time>
      </trkpt>
      <trkpt lat="47.30713" lon="-2.42041">
        <ele>2.7999999523163</ele>
        <time>2021-03-04T10:45:04.000Z</time>
      </trkpt>
      <trkpt lat="47.30701" lon="-2.42031">
        <ele>2.7999999523163</ele>
        <time>2021-03-04T10:45:06.000Z</time>
      </trkpt>
      <trkpt lat="47.30685" lon="-2.42011">
        <ele>2.7999999523163</ele>
        <time>2021-03-04T10:45:09.000Z</time>
      </trkpt>
      <trkpt lat="47.30655" lon="-2.4197">
        <ele>2.7999999523163</ele>
        <time>2021-03-04T10:45:15.000Z</time>
      </trkpt>
      <trkpt lat="47.30643" lon="-2.41935">
        <ele>2.7999999523163</ele>
        <time>2021-03-04T10:45:19.000Z</time>
      </trkpt>
      <trkpt lat="47.3064" lon="-2.41924">
        <ele>2.7999999523163</ele>
        <time>2021-03-04T10:45:20.000Z</time>
      </trkpt>
      <trkpt lat="47.30622" lon="-2.4187">
        <ele>2.7999999523163</ele>
        <time>2021-03-04T10:45:26.000Z</time>
      </trkpt>
      <trkpt lat="47.30595" lon="-2.41811">
        <ele>2.7999999523163</ele>
        <time>2021-03-04T10:45:33.000Z</time>
      </trkpt>
      <trkpt lat="47.30592" lon="-2.41802">
        <ele>2.7999999523163</ele>
        <time>2021-03-04T10:45:34.000Z</time>
      </trkpt>
      <trkpt lat="47.30578" lon="-2.41764">
        <ele>2.7999999523163</ele>
        <time>2021-03-04T10:45:38.000Z</time>
      </trkpt>
      <trkpt lat="47.30566" lon="-2.41737">
        <ele>2.7999999523163</ele>
        <time>2021-03-04T10:45:41.000Z</time>
      </trkpt>
      <trkpt lat="47.30556" lon="-2.4172">
        <ele>2.7999999523163</ele>
        <time>2021-03-04T10:45:43.000Z</time>
      </trkpt>
      <trkpt lat="47.3052" lon="-2.41669">
        <ele>2.7999999523163</ele>
        <time>2021-03-04T10:45:50.000Z</time>
      </trkpt>
      <trkpt lat="47.30512" lon="-2.41651">
        <ele>2.7999999523163</ele>
        <time>2021-03-04T10:45:52.000Z</time>
      </trkpt>
      <trkpt lat="47.30507" lon="-2.41631">
        <ele>2.7999999523163</ele>
        <time>2021-03-04T10:45:54.000Z</time>
      </trkpt>
      <trkpt lat="47.30504" lon="-2.41609">
        <ele>2.7999999523163</ele>
        <time>2021-03-04T10:45:56.000Z</time>
      </trkpt>
      <trkpt lat="47.30501" lon="-2.41576">
        <ele>2.7999999523163</ele>
        <time>2021-03-04T10:45:59.000Z</time>
      </trkpt>
      <trkpt lat="47.305" lon="-2.41566">
        <ele>2.7999999523163</ele>
        <time>2021-03-04T10:46:00.000Z</time>
      </trkpt>
      <trkpt lat="47.30493" lon="-2.41548">
        <ele>2.7999999523163</ele>
        <time>2021-03-04T10:46:02.000Z</time>
      </trkpt>
      <trkpt lat="47.30486" lon="-2.41532">
        <ele>2.7999999523163</ele>
        <time>2021-03-04T10:46:04.000Z</time>
      </trkpt>
      <trkpt lat="47.30484" lon="-2.41513">
        <ele>2.7999999523163</ele>
        <time>2021-03-04T10:46:06.000Z</time>
      </trkpt>
      <trkpt lat="47.30493" lon="-2.41478">
        <ele>2.7999999523163</ele>
        <time>2021-03-04T10:46:10.000Z</time>
      </trkpt>
      <trkpt lat="47.30503" lon="-2.41451">
        <ele>2.7999999523163</ele>
        <time>2021-03-04T10:46:13.000Z</time>
      </trkpt>
      <trkpt lat="47.30503" lon="-2.41441">
        <ele>2.7999999523163</ele>
        <time>2021-03-04T10:46:14.000Z</time>
      </trkpt>
      <trkpt lat="47.30495" lon="-2.41401">
        <ele>2.7999999523163</ele>
        <time>2021-03-04T10:46:18.000Z</time>
      </trkpt>
      <trkpt lat="47.30483" lon="-2.41341">
        <ele>2.7999999523163</ele>
        <time>2021-03-04T10:46:24.000Z</time>
      </trkpt>
      <trkpt lat="47.30467" lon="-2.4128">
        <ele>2.7999999523163</ele>
        <time>2021-03-04T10:46:30.000Z</time>
      </trkpt>
      <trkpt lat="47.30455" lon="-2.41209">
        <ele>2.7999999523163</ele>
        <time>2021-03-04T10:46:37.000Z</time>
      </trkpt>
      <trkpt lat="47.3045" lon="-2.41179">
        <ele>2.7999999523163</ele>
        <time>2021-03-04T10:46:40.000Z</time>
      </trkpt>
      <trkpt lat="47.30447" lon="-2.4117">
        <ele>2.7999999523163</ele>
        <time>2021-03-04T10:46:41.000Z</time>
      </trkpt>
      <trkpt lat="47.30428" lon="-2.41155">
        <ele>2.7999999523163</ele>
        <time>2021-03-04T10:46:44.000Z</time>
      </trkpt>
      <trkpt lat="47.30406" lon="-2.41153">
        <ele>2.7999999523163</ele>
        <time>2021-03-04T10:46:47.000Z</time>
      </trkpt>
      <trkpt lat="47.30398" lon="-2.41154">
        <ele>2.7999999523163</ele>
        <time>2021-03-04T10:46:48.000Z</time>
      </trkpt>
      <trkpt lat="47.30362" lon="-2.4115">
        <ele>2.7999999523163</ele>
        <time>2021-03-04T10:46:53.000Z</time>
      </trkpt>
      <trkpt lat="47.30318" lon="-2.41133">
        <ele>2.7999999523163</ele>
        <time>2021-03-04T10:47:00.000Z</time>
      </trkpt>
      <trkpt lat="47.303" lon="-2.41126">
        <ele>2.7999999523163</ele>
        <time>2021-03-04T10:47:03.000Z</time>
      </trkpt>
      <trkpt lat="47.3029" lon="-2.41116">
        <ele>2.7999999523163</ele>
        <time>2021-03-04T10:47:05.000Z</time>
      </trkpt>
      <trkpt lat="47.30276" lon="-2.41087">
        <ele>2.7999999523163</ele>
        <time>2021-03-04T10:47:09.000Z</time>
      </trkpt>
      <trkpt lat="47.30273" lon="-2.41069">
        <ele>2.7999999523163</ele>
        <time>2021-03-04T10:47:11.000Z</time>
      </trkpt>
      <trkpt lat="47.3027" lon="-2.41042">
        <ele>2.7999999523163</ele>
        <time>2021-03-04T10:47:14.000Z</time>
      </trkpt>
      <trkpt lat="47.30269" lon="-2.41033">
        <ele>2.7999999523163</ele>
        <time>2021-03-04T10:47:15.000Z</time>
      </trkpt>
      <trkpt lat="47.30264" lon="-2.41018">
        <ele>3.2000000476837</ele>
        <time>2021-03-04T10:47:17.000Z</time>
      </trkpt>
      <trkpt lat="47.3026" lon="-2.41012">
        <ele>3.5999999046326</ele>
        <time>2021-03-04T10:47:18.000Z</time>
      </trkpt>
      <trkpt lat="47.30256" lon="-2.41005">
        <ele>4</ele>
        <time>2021-03-04T10:47:19.000Z</time>
      </trkpt>
      <trkpt lat="47.30252" lon="-2.41">
        <ele>4.4000000953674</ele>
        <time>2021-03-04T10:47:20.000Z</time>
      </trkpt>
      <trkpt lat="47.30247" lon="-2.40995">
        <ele>4.8000001907349</ele>
        <time>2021-03-04T10:47:21.000Z</time>
      </trkpt>
      <trkpt lat="47.30243" lon="-2.4099">
        <ele>4.8000001907349</ele>
        <time>2021-03-04T10:47:22.000Z</time>
      </trkpt>
      <trkpt lat="47.30231" lon="-2.40976">
        <ele>4.8000001907349</ele>
        <time>2021-03-04T10:47:25.000Z</time>
      </trkpt>
      <trkpt lat="47.30225" lon="-2.40967">
        <ele>4.8000001907349</ele>
        <time>2021-03-04T10:47:27.000Z</time>
      </trkpt>
      <trkpt lat="47.30223" lon="-2.40962">
        <ele>4.8000001907349</ele>
        <time>2021-03-04T10:47:28.000Z</time>
      </trkpt>
      <trkpt lat="47.30222" lon="-2.40951">
        <ele>4.8000001907349</ele>
        <time>2021-03-04T10:47:30.000Z</time>
      </trkpt>
      <trkpt lat="47.30219" lon="-2.40936">
        <ele>4.8000001907349</ele>
        <time>2021-03-04T10:47:34.000Z</time>
      </trkpt>
      <trkpt lat="47.30207" lon="-2.4093">
        <ele>4.8000001907349</ele>
        <time>2021-03-04T10:47:38.000Z</time>
      </trkpt>
      <trkpt lat="47.30193" lon="-2.40925">
        <ele>4.8000001907349</ele>
        <time>2021-03-04T10:47:41.000Z</time>
      </trkpt>
      <trkpt lat="47.30182" lon="-2.40921">
        <ele>4.8000001907349</ele>
        <time>2021-03-04T10:47:43.000Z</time>
      </trkpt>
      <trkpt lat="47.30141" lon="-2.40899">
        <ele>4.8000001907349</ele>
        <time>2021-03-04T10:47:51.000Z</time>
      </trkpt>
      <trkpt lat="47.30101" lon="-2.40868">
        <ele>4.8000001907349</ele>
        <time>2021-03-04T10:47:59.000Z</time>
      </trkpt>
      <trkpt lat="47.30059" lon="-2.4083">
        <ele>4.8000001907349</ele>
        <time>2021-03-04T10:48:08.000Z</time>
      </trkpt>
      <trkpt lat="47.30028" lon="-2.40802">
        <ele>5.1999998092651</ele>
        <time>2021-03-04T10:48:15.000Z</time>
      </trkpt>
      <trkpt lat="47.30023" lon="-2.40798">
        <ele>5.5999999046326</ele>
        <time>2021-03-04T10:48:16.000Z</time>
      </trkpt>
      <trkpt lat="47.30019" lon="-2.40793">
        <ele>6</ele>
        <time>2021-03-04T10:48:17.000Z</time>
      </trkpt>
      <trkpt lat="47.30014" lon="-2.40789">
        <ele>6.4000000953674</ele>
        <time>2021-03-04T10:48:18.000Z</time>
      </trkpt>
      <trkpt lat="47.3001" lon="-2.40785">
        <ele>7</ele>
        <time>2021-03-04T10:48:19.000Z</time>
      </trkpt>
      <trkpt lat="47.29983" lon="-2.40761">
        <ele>7</ele>
        <time>2021-03-04T10:48:25.000Z</time>
      </trkpt>
      <trkpt lat="47.29943" lon="-2.40725">
        <ele>7</ele>
        <time>2021-03-04T10:48:34.000Z</time>
      </trkpt>
      <trkpt lat="47.29904" lon="-2.4069">
        <ele>7</ele>
        <time>2021-03-04T10:48:43.000Z</time>
      </trkpt>
      <trkpt lat="47.29865" lon="-2.40655">
        <ele>7</ele>
        <time>2021-03-04T10:48:52.000Z</time>
      </trkpt>
      <trkpt lat="47.2984" lon="-2.40632">
        <ele>7</ele>
        <time>2021-03-04T10:48:57.000Z</time>
      </trkpt>
      <trkpt lat="47.29835" lon="-2.40629">
        <ele>7</ele>
        <time>2021-03-04T10:48:58.000Z</time>
      </trkpt>
      <trkpt lat="47.29813" lon="-2.40616">
        <ele>7</ele>
        <time>2021-03-04T10:49:02.000Z</time>
      </trkpt>
      <trkpt lat="47.29809" lon="-2.4061">
        <ele>7</ele>
        <time>2021-03-04T10:49:03.000Z</time>
      </trkpt>
      <trkpt lat="47.29804" lon="-2.40606">
        <ele>7</ele>
        <time>2021-03-04T10:49:04.000Z</time>
      </trkpt>
      <trkpt lat="47.29795" lon="-2.40598">
        <ele>7</ele>
        <time>2021-03-04T10:49:06.000Z</time>
      </trkpt>
      <trkpt lat="47.29792" lon="-2.40586">
        <ele>7</ele>
        <time>2021-03-04T10:49:08.000Z</time>
      </trkpt>
      <trkpt lat="47.29799" lon="-2.40566">
        <ele>7</ele>
        <time>2021-03-04T10:49:11.000Z</time>
      </trkpt>
      <trkpt lat="47.29799" lon="-2.40543">
        <ele>7</ele>
        <time>2021-03-04T10:49:14.000Z</time>
      </trkpt>
      <trkpt lat="47.29795" lon="-2.40527">
        <ele>7</ele>
        <time>2021-03-04T10:49:16.000Z</time>
      </trkpt>
      <trkpt lat="47.29788" lon="-2.40495">
        <ele>7</ele>
        <time>2021-03-04T10:49:20.000Z</time>
      </trkpt>
      <trkpt lat="47.29779" lon="-2.40438">
        <ele>7.4000000953674</ele>
        <time>2021-03-04T10:49:27.000Z</time>
      </trkpt>
      <trkpt lat="47.29779" lon="-2.40429">
        <ele>8.1999998092651</ele>
        <time>2021-03-04T10:49:28.000Z</time>
      </trkpt>
      <trkpt lat="47.29779" lon="-2.40421">
        <ele>8.6000003814697</ele>
        <time>2021-03-04T10:49:29.000Z</time>
      </trkpt>
      <trkpt lat="47.2978" lon="-2.40413">
        <ele>9</ele>
        <time>2021-03-04T10:49:30.000Z</time>
      </trkpt>
      <trkpt lat="47.2978" lon="-2.40397">
        <ele>9</ele>
        <time>2021-03-04T10:49:32.000Z</time>
      </trkpt>
      <trkpt lat="47.2978" lon="-2.40374">
        <ele>9.3999996185303</ele>
        <time>2021-03-04T10:49:35.000Z</time>
      </trkpt>
      <trkpt lat="47.2978" lon="-2.40366">
        <ele>9.8000001907349</ele>
        <time>2021-03-04T10:49:36.000Z</time>
      </trkpt>
      <trkpt lat="47.29779" lon="-2.40359">
        <ele>10.199999809265</ele>
        <time>2021-03-04T10:49:37.000Z</time>
      </trkpt>
      <trkpt lat="47.29777" lon="-2.40353">
        <ele>10.800000190735</ele>
        <time>2021-03-04T10:49:38.000Z</time>
      </trkpt>
      <trkpt lat="47.29773" lon="-2.4035">
        <ele>11.199999809265</ele>
        <time>2021-03-04T10:49:39.000Z</time>
      </trkpt>
      <trkpt lat="47.29768" lon="-2.4035">
        <ele>11.199999809265</ele>
        <time>2021-03-04T10:49:40.000Z</time>
      </trkpt>
      <trkpt lat="47.2976" lon="-2.40354">
        <ele>11.199999809265</ele>
        <time>2021-03-04T10:49:42.000Z</time>
      </trkpt>
      <trkpt lat="47.29755" lon="-2.40358">
        <ele>11.60000038147</ele>
        <time>2021-03-04T10:49:43.000Z</time>
      </trkpt>
      <trkpt lat="47.29751" lon="-2.40361">
        <ele>12</ele>
        <time>2021-03-04T10:49:44.000Z</time>
      </trkpt>
      <trkpt lat="47.29746" lon="-2.40364">
        <ele>12.39999961853</ele>
        <time>2021-03-04T10:49:45.000Z</time>
      </trkpt>
      <trkpt lat="47.29741" lon="-2.40367">
        <ele>12.800000190735</ele>
        <time>2021-03-04T10:49:46.000Z</time>
      </trkpt>
      <trkpt lat="47.29737" lon="-2.4037">
        <ele>13.39999961853</ele>
        <time>2021-03-04T10:49:47.000Z</time>
      </trkpt>
      <trkpt lat="47.29723" lon="-2.4038">
        <ele>13.39999961853</ele>
        <time>2021-03-04T10:49:50.000Z</time>
      </trkpt>
      <trkpt lat="47.29714" lon="-2.40385">
        <ele>13.39999961853</ele>
        <time>2021-03-04T10:49:52.000Z</time>
      </trkpt>
      <trkpt lat="47.29703" lon="-2.40385">
        <ele>13.39999961853</ele>
        <time>2021-03-04T10:49:54.000Z</time>
      </trkpt>
      <trkpt lat="47.29683" lon="-2.40369">
        <ele>13.39999961853</ele>
        <time>2021-03-04T10:49:58.000Z</time>
      </trkpt>
      <trkpt lat="47.29677" lon="-2.40343">
        <ele>13.39999961853</ele>
        <time>2021-03-04T10:50:01.000Z</time>
      </trkpt>
      <trkpt lat="47.29678" lon="-2.40327">
        <ele>13.39999961853</ele>
        <time>2021-03-04T10:50:03.000Z</time>
      </trkpt>
      <trkpt lat="47.29678" lon="-2.40311">
        <ele>13.39999961853</ele>
        <time>2021-03-04T10:50:05.000Z</time>
      </trkpt>
      <trkpt lat="47.29675" lon="-2.40271">
        <ele>13.39999961853</ele>
        <time>2021-03-04T10:50:10.000Z</time>
      </trkpt>
      <trkpt lat="47.29671" lon="-2.40209">
        <ele>13.39999961853</ele>
        <time>2021-03-04T10:50:16.000Z</time>
      </trkpt>
      <trkpt lat="47.29666" lon="-2.40156">
        <ele>13</ele>
        <time>2021-03-04T10:50:21.000Z</time>
      </trkpt>
      <trkpt lat="47.29666" lon="-2.40148">
        <ele>12.60000038147</ele>
        <time>2021-03-04T10:50:22.000Z</time>
      </trkpt>
      <trkpt lat="47.29664" lon="-2.40142">
        <ele>12</ele>
        <time>2021-03-04T10:50:23.000Z</time>
      </trkpt>
      <trkpt lat="47.29662" lon="-2.40136">
        <ele>11.60000038147</ele>
        <time>2021-03-04T10:50:24.000Z</time>
      </trkpt>
      <trkpt lat="47.29659" lon="-2.4013">
        <ele>11.199999809265</ele>
        <time>2021-03-04T10:50:25.000Z</time>
      </trkpt>
      <trkpt lat="47.29653" lon="-2.40114">
        <ele>10.800000190735</ele>
        <time>2021-03-04T10:50:28.000Z</time>
      </trkpt>
      <trkpt lat="47.29652" lon="-2.40108">
        <ele>10.39999961853</ele>
        <time>2021-03-04T10:50:29.000Z</time>
      </trkpt>
      <trkpt lat="47.2965" lon="-2.40102">
        <ele>9.8000001907349</ele>
        <time>2021-03-04T10:50:30.000Z</time>
      </trkpt>
      <trkpt lat="47.29649" lon="-2.40096">
        <ele>9.3999996185303</ele>
        <time>2021-03-04T10:50:31.000Z</time>
      </trkpt>
      <trkpt lat="47.29648" lon="-2.4009">
        <ele>8.8000001907349</ele>
        <time>2021-03-04T10:50:32.000Z</time>
      </trkpt>
      <trkpt lat="47.29645" lon="-2.40077">
        <ele>8.8000001907349</ele>
        <time>2021-03-04T10:50:35.000Z</time>
      </trkpt>
      <trkpt lat="47.29643" lon="-2.40067">
        <ele>8.3999996185303</ele>
        <time>2021-03-04T10:50:39.000Z</time>
      </trkpt>
      <trkpt lat="47.29642" lon="-2.40066">
        <ele>8</ele>
        <time>2021-03-04T10:50:40.000Z</time>
      </trkpt>
      <trkpt lat="47.29641" lon="-2.40067">
        <ele>7.5999999046326</ele>
        <time>2021-03-04T10:50:41.000Z</time>
      </trkpt>
      <trkpt lat="47.2964" lon="-2.40067">
        <ele>6.8000001907349</ele>
        <time>2021-03-04T10:50:42.000Z</time>
      </trkpt>
      <trkpt lat="47.29639" lon="-2.40067">
        <ele>6.8000001907349</ele>
        <time>2021-03-04T10:50:43.000Z</time>
      </trkpt>
      <trkpt lat="47.29638" lon="-2.40066">
        <ele>6.8000001907349</ele>
        <time>2021-03-04T10:50:44.000Z</time>
      </trkpt>
      <trkpt lat="47.29635" lon="-2.40063">
        <ele>6.8000001907349</ele>
        <time>2021-03-04T10:50:46.000Z</time>
      </trkpt>
      <trkpt lat="47.29627" lon="-2.40044">
        <ele>6.8000001907349</ele>
        <time>2021-03-04T10:50:50.000Z</time>
      </trkpt>
      <trkpt lat="47.2962" lon="-2.40025">
        <ele>6.8000001907349</ele>
        <time>2021-03-04T10:50:53.000Z</time>
      </trkpt>
      <trkpt lat="47.29621" lon="-2.40017">
        <ele>6.8000001907349</ele>
        <time>2021-03-04T10:50:54.000Z</time>
      </trkpt>
      <trkpt lat="47.2963" lon="-2.40001">
        <ele>6.8000001907349</ele>
        <time>2021-03-04T10:50:57.000Z</time>
      </trkpt>
      <trkpt lat="47.29638" lon="-2.39995">
        <ele>6.8000001907349</ele>
        <time>2021-03-04T10:50:59.000Z</time>
      </trkpt>
      <trkpt lat="47.2965" lon="-2.39983">
        <ele>6.8000001907349</ele>
        <time>2021-03-04T10:51:03.000Z</time>
      </trkpt>
      <trkpt lat="47.29646" lon="-2.39969">
        <ele>6.8000001907349</ele>
        <time>2021-03-04T10:51:07.000Z</time>
      </trkpt>
      <trkpt lat="47.29637" lon="-2.39948">
        <ele>6.8000001907349</ele>
        <time>2021-03-04T10:51:12.000Z</time>
      </trkpt>
      <trkpt lat="47.29626" lon="-2.39926">
        <ele>6.4000000953674</ele>
        <time>2021-03-04T10:51:17.000Z</time>
      </trkpt>
      <trkpt lat="47.29624" lon="-2.39922">
        <ele>6</ele>
        <time>2021-03-04T10:51:18.000Z</time>
      </trkpt>
      <trkpt lat="47.29621" lon="-2.39918">
        <ele>5.5999999046326</ele>
        <time>2021-03-04T10:51:19.000Z</time>
      </trkpt>
      <trkpt lat="47.29619" lon="-2.39913">
        <ele>5.1999998092651</ele>
        <time>2021-03-04T10:51:20.000Z</time>
      </trkpt>
      <trkpt lat="47.29616" lon="-2.39908">
        <ele>4.8000001907349</ele>
        <time>2021-03-04T10:51:21.000Z</time>
      </trkpt>
      <trkpt lat="47.29611" lon="-2.39898">
        <ele>4.8000001907349</ele>
        <time>2021-03-04T10:51:23.000Z</time>
      </trkpt>
      <trkpt lat="47.29607" lon="-2.39886">
        <ele>4.8000001907349</ele>
        <time>2021-03-04T10:51:25.000Z</time>
      </trkpt>
      <trkpt lat="47.29608" lon="-2.39873">
        <ele>4.8000001907349</ele>
        <time>2021-03-04T10:51:27.000Z</time>
      </trkpt>
      <trkpt lat="47.29615" lon="-2.39849">
        <ele>4.8000001907349</ele>
        <time>2021-03-04T10:51:31.000Z</time>
      </trkpt>
      <trkpt lat="47.29609" lon="-2.39831">
        <ele>4.8000001907349</ele>
        <time>2021-03-04T10:51:34.000Z</time>
      </trkpt>
      <trkpt lat="47.29605" lon="-2.39819">
        <ele>4.8000001907349</ele>
        <time>2021-03-04T10:51:36.000Z</time>
      </trkpt>
      <trkpt lat="47.29605" lon="-2.39806">
        <ele>4.8000001907349</ele>
        <time>2021-03-04T10:51:38.000Z</time>
      </trkpt>
      <trkpt lat="47.29611" lon="-2.39791">
        <ele>4.8000001907349</ele>
        <time>2021-03-04T10:51:41.000Z</time>
      </trkpt>
      <trkpt lat="47.29614" lon="-2.39785">
        <ele>4.8000001907349</ele>
        <time>2021-03-04T10:51:42.000Z</time>
      </trkpt>
      <trkpt lat="47.29615" lon="-2.39766">
        <ele>4.8000001907349</ele>
        <time>2021-03-04T10:51:45.000Z</time>
      </trkpt>
      <trkpt lat="47.29608" lon="-2.3974">
        <ele>4.8000001907349</ele>
        <time>2021-03-04T10:51:49.000Z</time>
      </trkpt>
      <trkpt lat="47.29605" lon="-2.39735">
        <ele>4.8000001907349</ele>
        <time>2021-03-04T10:51:50.000Z</time>
      </trkpt>
      <trkpt lat="47.29597" lon="-2.39716">
        <ele>4.4000000953674</ele>
        <time>2021-03-04T10:51:54.000Z</time>
      </trkpt>
      <trkpt lat="47.29596" lon="-2.39711">
        <ele>3.7999999523163</ele>
        <time>2021-03-04T10:51:55.000Z</time>
      </trkpt>
      <trkpt lat="47.29597" lon="-2.39706">
        <ele>3</ele>
        <time>2021-03-04T10:51:56.000Z</time>
      </trkpt>
      <trkpt lat="47.29598" lon="-2.39701">
        <ele>2.5999999046326</ele>
        <time>2021-03-04T10:51:57.000Z</time>
      </trkpt>
      <trkpt lat="47.29613" lon="-2.39675">
        <ele>2.5999999046326</ele>
        <time>2021-03-04T10:52:02.000Z</time>
      </trkpt>
      <trkpt lat="47.29622" lon="-2.39658">
        <ele>2.5999999046326</ele>
        <time>2021-03-04T10:52:05.000Z</time>
      </trkpt>
      <trkpt lat="47.29627" lon="-2.39637">
        <ele>2.5999999046326</ele>
        <time>2021-03-04T10:52:08.000Z</time>
      </trkpt>
      <trkpt lat="47.29628" lon="-2.39615">
        <ele>2.5999999046326</ele>
        <time>2021-03-04T10:52:11.000Z</time>
      </trkpt>
      <trkpt lat="47.29628" lon="-2.39603">
        <ele>2.5999999046326</ele>
        <time>2021-03-04T10:52:13.000Z</time>
      </trkpt>
      <trkpt lat="47.29628" lon="-2.39579">
        <ele>2.5999999046326</ele>
        <time>2021-03-04T10:52:18.000Z</time>
      </trkpt>
      <trkpt lat="47.2962" lon="-2.39576">
        <ele>2.5999999046326</ele>
        <time>2021-03-04T10:52:22.000Z</time>
      </trkpt>
      <trkpt lat="47.29611" lon="-2.3957">
        <ele>2.5999999046326</ele>
        <time>2021-03-04T10:52:26.000Z</time>
      </trkpt>
      <trkpt lat="47.29613" lon="-2.39568">
        <ele>3</ele>
        <time>2021-03-04T10:52:27.000Z</time>
      </trkpt>
      <trkpt lat="47.29614" lon="-2.39567">
        <ele>3.4000000953674</ele>
        <time>2021-03-04T10:52:28.000Z</time>
      </trkpt>
      <trkpt lat="47.29616" lon="-2.39566">
        <ele>3.7999999523163</ele>
        <time>2021-03-04T10:52:29.000Z</time>
      </trkpt>
      <trkpt lat="47.29617" lon="-2.39566">
        <ele>4.4000000953674</ele>
        <time>2021-03-04T10:52:30.000Z</time>
      </trkpt>
      <trkpt lat="47.29619" lon="-2.39565">
        <ele>4.8000001907349</ele>
        <time>2021-03-04T10:52:31.000Z</time>
      </trkpt>
      <trkpt lat="47.2962" lon="-2.39565">
        <ele>4.8000001907349</ele>
        <time>2021-03-04T10:52:32.000Z</time>
      </trkpt>
      <trkpt lat="47.29624" lon="-2.39561">
        <ele>4.8000001907349</ele>
        <time>2021-03-04T10:52:35.000Z</time>
      </trkpt>
      <trkpt lat="47.29625" lon="-2.39558">
        <ele>4.8000001907349</ele>
        <time>2021-03-04T10:52:36.000Z</time>
      </trkpt>
      <trkpt lat="47.29622" lon="-2.39555">
        <ele>4.8000001907349</ele>
        <time>2021-03-04T10:52:38.000Z</time>
      </trkpt>
      <trkpt lat="47.29619" lon="-2.39556">
        <ele>5.1999998092651</ele>
        <time>2021-03-04T10:52:39.000Z</time>
      </trkpt>
      <trkpt lat="47.29616" lon="-2.39556">
        <ele>5.5999999046326</ele>
        <time>2021-03-04T10:52:40.000Z</time>
      </trkpt>
      <trkpt lat="47.29613" lon="-2.39556">
        <ele>6</ele>
        <time>2021-03-04T10:52:41.000Z</time>
      </trkpt>
      <trkpt lat="47.2961" lon="-2.39556">
        <ele>6.4000000953674</ele>
        <time>2021-03-04T10:52:42.000Z</time>
      </trkpt>
      <trkpt lat="47.29608" lon="-2.39555">
        <ele>7</ele>
        <time>2021-03-04T10:52:43.000Z</time>
      </trkpt>
      <trkpt lat="47.29592" lon="-2.3955">
        <ele>7.4000000953674</ele>
        <time>2021-03-04T10:52:50.000Z</time>
      </trkpt>
      <trkpt lat="47.29589" lon="-2.3955">
        <ele>7.8000001907349</ele>
        <time>2021-03-04T10:52:51.000Z</time>
      </trkpt>
      <trkpt lat="47.29586" lon="-2.39549">
        <ele>8.1999998092651</ele>
        <time>2021-03-04T10:52:52.000Z</time>
      </trkpt>
      <trkpt lat="47.29581" lon="-2.39548">
        <ele>8.6000003814697</ele>
        <time>2021-03-04T10:52:53.000Z</time>
      </trkpt>
      <trkpt lat="47.29577" lon="-2.39547">
        <ele>9</ele>
        <time>2021-03-04T10:52:54.000Z</time>
      </trkpt>
      <trkpt lat="47.29572" lon="-2.39546">
        <ele>9</ele>
        <time>2021-03-04T10:52:55.000Z</time>
      </trkpt>
      <trkpt lat="47.29545" lon="-2.39539">
        <ele>9</ele>
        <time>2021-03-04T10:52:59.000Z</time>
      </trkpt>
      <trkpt lat="47.29513" lon="-2.39533">
        <ele>8.6000003814697</ele>
        <time>2021-03-04T10:53:03.000Z</time>
      </trkpt>
      <trkpt lat="47.29505" lon="-2.39532">
        <ele>8.1999998092651</ele>
        <time>2021-03-04T10:53:04.000Z</time>
      </trkpt>
      <trkpt lat="47.29497" lon="-2.3953">
        <ele>7.8000001907349</ele>
        <time>2021-03-04T10:53:05.000Z</time>
      </trkpt>
      <trkpt lat="47.2949" lon="-2.39529">
        <ele>7.1999998092651</ele>
        <time>2021-03-04T10:53:06.000Z</time>
      </trkpt>
      <trkpt lat="47.29482" lon="-2.39528">
        <ele>6.8000001907349</ele>
        <time>2021-03-04T10:53:07.000Z</time>
      </trkpt>
      <trkpt lat="47.29453" lon="-2.39523">
        <ele>6.4000000953674</ele>
        <time>2021-03-04T10:53:11.000Z</time>
      </trkpt>
      <trkpt lat="47.29445" lon="-2.39521">
        <ele>6</ele>
        <time>2021-03-04T10:53:12.000Z</time>
      </trkpt>
      <trkpt lat="47.29438" lon="-2.3952">
        <ele>5.5999999046326</ele>
        <time>2021-03-04T10:53:13.000Z</time>
      </trkpt>
      <trkpt lat="47.2943" lon="-2.39518">
        <ele>5.1999998092651</ele>
        <time>2021-03-04T10:53:14.000Z</time>
      </trkpt>
      <trkpt lat="47.29423" lon="-2.39517">
        <ele>4.8000001907349</ele>
        <time>2021-03-04T10:53:15.000Z</time>
      </trkpt>
      <trkpt lat="47.29385" lon="-2.39507">
        <ele>4.8000001907349</ele>
        <time>2021-03-04T10:53:20.000Z</time>
      </trkpt>
      <trkpt lat="47.29325" lon="-2.39497">
        <ele>4.8000001907349</ele>
        <time>2021-03-04T10:53:28.000Z</time>
      </trkpt>
      <trkpt lat="47.29268" lon="-2.39486">
        <ele>4.8000001907349</ele>
        <time>2021-03-04T10:53:36.000Z</time>
      </trkpt>
      <trkpt lat="47.29226" lon="-2.39477">
        <ele>4.8000001907349</ele>
        <time>2021-03-04T10:53:43.000Z</time>
      </trkpt>
      <trkpt lat="47.29183" lon="-2.39469">
        <ele>4.8000001907349</ele>
        <time>2021-03-04T10:53:51.000Z</time>
      </trkpt>
      <trkpt lat="47.29148" lon="-2.39462">
        <ele>4.8000001907349</ele>
        <time>2021-03-04T10:53:59.000Z</time>
      </trkpt>
      <trkpt lat="47.29139" lon="-2.39458">
        <ele>4.8000001907349</ele>
        <time>2021-03-04T10:54:02.000Z</time>
      </trkpt>
      <trkpt lat="47.29139" lon="-2.39454">
        <ele>4.4000000953674</ele>
        <time>2021-03-04T10:54:03.000Z</time>
      </trkpt>
      <trkpt lat="47.29139" lon="-2.39449">
        <ele>4</ele>
        <time>2021-03-04T10:54:04.000Z</time>
      </trkpt>
      <trkpt lat="47.29139" lon="-2.39444">
        <ele>3.5999999046326</ele>
        <time>2021-03-04T10:54:05.000Z</time>
      </trkpt>
      <trkpt lat="47.29139" lon="-2.39438">
        <ele>3.2000000476837</ele>
        <time>2021-03-04T10:54:06.000Z</time>
      </trkpt>
      <trkpt lat="47.29139" lon="-2.39432">
        <ele>2.7999999523163</ele>
        <time>2021-03-04T10:54:07.000Z</time>
      </trkpt>
      <trkpt lat="47.29141" lon="-2.39395">
        <ele>2.7999999523163</ele>
        <time>2021-03-04T10:54:13.000Z</time>
      </trkpt>
      <trkpt lat="47.2914" lon="-2.39386">
        <ele>2.7999999523163</ele>
        <time>2021-03-04T10:54:16.000Z</time>
      </trkpt>
      <trkpt lat="47.29131" lon="-2.39374">
        <ele>2.7999999523163</ele>
        <time>2021-03-04T10:54:22.000Z</time>
      </trkpt>
      <trkpt lat="47.29117" lon="-2.39371">
        <ele>2.7999999523163</ele>
        <time>2021-03-04T10:54:26.000Z</time>
      </trkpt>
      <trkpt lat="47.29106" lon="-2.3938">
        <ele>2.7999999523163</ele>
        <time>2021-03-04T10:54:30.000Z</time>
      </trkpt>
      <trkpt lat="47.291" lon="-2.39381">
        <ele>3.2000000476837</ele>
        <time>2021-03-04T10:54:32.000Z</time>
      </trkpt>
      <trkpt lat="47.29097" lon="-2.3938">
        <ele>3.5999999046326</ele>
        <time>2021-03-04T10:54:33.000Z</time>
      </trkpt>
      <trkpt lat="47.29094" lon="-2.39379">
        <ele>4</ele>
        <time>2021-03-04T10:54:34.000Z</time>
      </trkpt>
      <trkpt lat="47.29091" lon="-2.39376">
        <ele>4.4000000953674</ele>
        <time>2021-03-04T10:54:35.000Z</time>
      </trkpt>
      <trkpt lat="47.29088" lon="-2.39373">
        <ele>5</ele>
        <time>2021-03-04T10:54:36.000Z</time>
      </trkpt>
      <trkpt lat="47.29084" lon="-2.39369">
        <ele>5</ele>
        <time>2021-03-04T10:54:37.000Z</time>
      </trkpt>
      <trkpt lat="47.29076" lon="-2.39362">
        <ele>5</ele>
        <time>2021-03-04T10:54:39.000Z</time>
      </trkpt>
      <trkpt lat="47.29066" lon="-2.39356">
        <ele>5</ele>
        <time>2021-03-04T10:54:41.000Z</time>
      </trkpt>
      <trkpt lat="47.29047" lon="-2.39346">
        <ele>5</ele>
        <time>2021-03-04T10:54:44.000Z</time>
      </trkpt>
      <trkpt lat="47.28994" lon="-2.39323">
        <ele>5</ele>
        <time>2021-03-04T10:54:52.000Z</time>
      </trkpt>
      <trkpt lat="47.28976" lon="-2.39319">
        <ele>5</ele>
        <time>2021-03-04T10:54:55.000Z</time>
      </trkpt>
      <trkpt lat="47.28964" lon="-2.3932">
        <ele>5</ele>
        <time>2021-03-04T10:54:57.000Z</time>
      </trkpt>
      <trkpt lat="47.28953" lon="-2.39319">
        <ele>5</ele>
        <time>2021-03-04T10:54:59.000Z</time>
      </trkpt>
      <trkpt lat="47.28945" lon="-2.3931">
        <ele>5</ele>
        <time>2021-03-04T10:55:01.000Z</time>
      </trkpt>
      <trkpt lat="47.28936" lon="-2.39277">
        <ele>5</ele>
        <time>2021-03-04T10:55:05.000Z</time>
      </trkpt>
      <trkpt lat="47.28935" lon="-2.39268">
        <ele>5</ele>
        <time>2021-03-04T10:55:06.000Z</time>
      </trkpt>
      <trkpt lat="47.28932" lon="-2.39214">
        <ele>5</ele>
        <time>2021-03-04T10:55:12.000Z</time>
      </trkpt>
      <trkpt lat="47.28932" lon="-2.39158">
        <ele>5</ele>
        <time>2021-03-04T10:55:18.000Z</time>
      </trkpt>
      <trkpt lat="47.28939" lon="-2.39101">
        <ele>5</ele>
        <time>2021-03-04T10:55:24.000Z</time>
      </trkpt>
      <trkpt lat="47.28949" lon="-2.39016">
        <ele>5</ele>
        <time>2021-03-04T10:55:33.000Z</time>
      </trkpt>
      <trkpt lat="47.28953" lon="-2.38938">
        <ele>5</ele>
        <time>2021-03-04T10:55:41.000Z</time>
      </trkpt>
      <trkpt lat="47.28958" lon="-2.3887">
        <ele>5</ele>
        <time>2021-03-04T10:55:48.000Z</time>
      </trkpt>
      <trkpt lat="47.2896" lon="-2.38831">
        <ele>5</ele>
        <time>2021-03-04T10:55:52.000Z</time>
      </trkpt>
      <trkpt lat="47.2896" lon="-2.38822">
        <ele>5</ele>
        <time>2021-03-04T10:55:53.000Z</time>
      </trkpt>
      <trkpt lat="47.28959" lon="-2.38754">
        <ele>5</ele>
        <time>2021-03-04T10:56:00.000Z</time>
      </trkpt>
      <trkpt lat="47.28958" lon="-2.38686">
        <ele>5</ele>
        <time>2021-03-04T10:56:07.000Z</time>
      </trkpt>
      <trkpt lat="47.28957" lon="-2.38604">
        <ele>5</ele>
        <time>2021-03-04T10:56:16.000Z</time>
      </trkpt>
      <trkpt lat="47.28956" lon="-2.38593">
        <ele>5</ele>
        <time>2021-03-04T10:56:17.000Z</time>
      </trkpt>
      <trkpt lat="47.2895" lon="-2.38522">
        <ele>5</ele>
        <time>2021-03-04T10:56:24.000Z</time>
      </trkpt>
      <trkpt lat="47.28943" lon="-2.38451">
        <ele>5</ele>
        <time>2021-03-04T10:56:31.000Z</time>
      </trkpt>
      <trkpt lat="47.28936" lon="-2.38365">
        <ele>5</ele>
        <time>2021-03-04T10:56:40.000Z</time>
      </trkpt>
      <trkpt lat="47.28934" lon="-2.38288">
        <ele>5</ele>
        <time>2021-03-04T10:56:48.000Z</time>
      </trkpt>
      <trkpt lat="47.28938" lon="-2.38245">
        <ele>5</ele>
        <time>2021-03-04T10:56:53.000Z</time>
      </trkpt>
      <trkpt lat="47.2893" lon="-2.38224">
        <ele>5</ele>
        <time>2021-03-04T10:56:56.000Z</time>
      </trkpt>
      <trkpt lat="47.28914" lon="-2.38213">
        <ele>5</ele>
        <time>2021-03-04T10:56:59.000Z</time>
      </trkpt>
      <trkpt lat="47.2891" lon="-2.38209">
        <ele>5</ele>
        <time>2021-03-04T10:57:00.000Z</time>
      </trkpt>
      <trkpt lat="47.28905" lon="-2.38204">
        <ele>5</ele>
        <time>2021-03-04T10:57:01.000Z</time>
      </trkpt>
      <trkpt lat="47.289" lon="-2.38182">
        <ele>5</ele>
        <time>2021-03-04T10:57:04.000Z</time>
      </trkpt>
      <trkpt lat="47.289" lon="-2.38173">
        <ele>5</ele>
        <time>2021-03-04T10:57:05.000Z</time>
      </trkpt>
      <trkpt lat="47.28904" lon="-2.3813">
        <ele>5</ele>
        <time>2021-03-04T10:57:10.000Z</time>
      </trkpt>
      <trkpt lat="47.28908" lon="-2.38059">
        <ele>5</ele>
        <time>2021-03-04T10:57:18.000Z</time>
      </trkpt>
      <trkpt lat="47.28912" lon="-2.37985">
        <ele>5</ele>
        <time>2021-03-04T10:57:26.000Z</time>
      </trkpt>
      <trkpt lat="47.28916" lon="-2.37923">
        <ele>5</ele>
        <time>2021-03-04T10:57:33.000Z</time>
      </trkpt>
      <trkpt lat="47.28917" lon="-2.37915">
        <ele>5</ele>
        <time>2021-03-04T10:57:34.000Z</time>
      </trkpt>
      <trkpt lat="47.28921" lon="-2.3784">
        <ele>5</ele>
        <time>2021-03-04T10:57:43.000Z</time>
      </trkpt>
      <trkpt lat="47.28923" lon="-2.37823">
        <ele>5</ele>
        <time>2021-03-04T10:57:45.000Z</time>
      </trkpt>
      <trkpt lat="47.28927" lon="-2.37787">
        <ele>5</ele>
        <time>2021-03-04T10:57:49.000Z</time>
      </trkpt>
      <trkpt lat="47.28932" lon="-2.37716">
        <ele>5</ele>
        <time>2021-03-04T10:57:57.000Z</time>
      </trkpt>
      <trkpt lat="47.28938" lon="-2.37647">
        <ele>5</ele>
        <time>2021-03-04T10:58:05.000Z</time>
      </trkpt>
      <trkpt lat="47.2894" lon="-2.37593">
        <ele>5</ele>
        <time>2021-03-04T10:58:11.000Z</time>
      </trkpt>
      <trkpt lat="47.28942" lon="-2.37547">
        <ele>5</ele>
        <time>2021-03-04T10:58:16.000Z</time>
      </trkpt>
      <trkpt lat="47.28947" lon="-2.37483">
        <ele>5</ele>
        <time>2021-03-04T10:58:23.000Z</time>
      </trkpt>
      <trkpt lat="47.28951" lon="-2.37434">
        <ele>5</ele>
        <time>2021-03-04T10:58:29.000Z</time>
      </trkpt>
      <trkpt lat="47.2895" lon="-2.37428">
        <ele>5</ele>
        <time>2021-03-04T10:58:30.000Z</time>
      </trkpt>
      <trkpt lat="47.28945" lon="-2.37419">
        <ele>5</ele>
        <time>2021-03-04T10:58:32.000Z</time>
      </trkpt>
      <trkpt lat="47.28941" lon="-2.37411">
        <ele>5</ele>
        <time>2021-03-04T10:58:34.000Z</time>
      </trkpt>
      <trkpt lat="47.28941" lon="-2.374">
        <ele>5.4000000953674</ele>
        <time>2021-03-04T10:58:36.000Z</time>
      </trkpt>
      <trkpt lat="47.28943" lon="-2.37394">
        <ele>5.8000001907349</ele>
        <time>2021-03-04T10:58:37.000Z</time>
      </trkpt>
      <trkpt lat="47.28944" lon="-2.37388">
        <ele>6.1999998092651</ele>
        <time>2021-03-04T10:58:38.000Z</time>
      </trkpt>
      <trkpt lat="47.28946" lon="-2.37382">
        <ele>6.5999999046326</ele>
        <time>2021-03-04T10:58:39.000Z</time>
      </trkpt>
      <trkpt lat="47.28948" lon="-2.37375">
        <ele>7</ele>
        <time>2021-03-04T10:58:40.000Z</time>
      </trkpt>
      <trkpt lat="47.28949" lon="-2.37368">
        <ele>7</ele>
        <time>2021-03-04T10:58:41.000Z</time>
      </trkpt>
      <trkpt lat="47.28956" lon="-2.37324">
        <ele>7</ele>
        <time>2021-03-04T10:58:47.000Z</time>
      </trkpt>
      <trkpt lat="47.28961" lon="-2.37268">
        <ele>7.4000000953674</ele>
        <time>2021-03-04T10:58:55.000Z</time>
      </trkpt>
      <trkpt lat="47.28962" lon="-2.37261">
        <ele>8</ele>
        <time>2021-03-04T10:58:56.000Z</time>
      </trkpt>
      <trkpt lat="47.28962" lon="-2.37255">
        <ele>8.8000001907349</ele>
        <time>2021-03-04T10:58:57.000Z</time>
      </trkpt>
      <trkpt lat="47.28962" lon="-2.37249">
        <ele>9.1999998092651</ele>
        <time>2021-03-04T10:58:58.000Z</time>
      </trkpt>
      <trkpt lat="47.28962" lon="-2.37237">
        <ele>9.1999998092651</ele>
        <time>2021-03-04T10:59:00.000Z</time>
      </trkpt>
      <trkpt lat="47.28963" lon="-2.37231">
        <ele>9.1999998092651</ele>
        <time>2021-03-04T10:59:01.000Z</time>
      </trkpt>
      <trkpt lat="47.28962" lon="-2.37209">
        <ele>9.6000003814697</ele>
        <time>2021-03-04T10:59:05.000Z</time>
      </trkpt>
      <trkpt lat="47.28963" lon="-2.37205">
        <ele>10</ele>
        <time>2021-03-04T10:59:06.000Z</time>
      </trkpt>
      <trkpt lat="47.28962" lon="-2.37201">
        <ele>10.39999961853</ele>
        <time>2021-03-04T10:59:07.000Z</time>
      </trkpt>
      <trkpt lat="47.2896" lon="-2.37199">
        <ele>10.800000190735</ele>
        <time>2021-03-04T10:59:08.000Z</time>
      </trkpt>
      <trkpt lat="47.28957" lon="-2.372">
        <ele>11.199999809265</ele>
        <time>2021-03-04T10:59:09.000Z</time>
      </trkpt>
      <trkpt lat="47.28954" lon="-2.37201">
        <ele>11.199999809265</ele>
        <time>2021-03-04T10:59:10.000Z</time>
      </trkpt>
      <trkpt lat="47.2893" lon="-2.37212">
        <ele>11.199999809265</ele>
        <time>2021-03-04T10:59:15.000Z</time>
      </trkpt>
      <trkpt lat="47.28893" lon="-2.37228">
        <ele>10.800000190735</ele>
        <time>2021-03-04T10:59:21.000Z</time>
      </trkpt>
      <trkpt lat="47.28887" lon="-2.37231">
        <ele>10</ele>
        <time>2021-03-04T10:59:22.000Z</time>
      </trkpt>
      <trkpt lat="47.2888" lon="-2.37233">
        <ele>9.3999996185303</ele>
        <time>2021-03-04T10:59:23.000Z</time>
      </trkpt>
      <trkpt lat="47.28874" lon="-2.37236">
        <ele>9</ele>
        <time>2021-03-04T10:59:24.000Z</time>
      </trkpt>
      <trkpt lat="47.28851" lon="-2.37244">
        <ele>9</ele>
        <time>2021-03-04T10:59:28.000Z</time>
      </trkpt>
      <trkpt lat="47.28847" lon="-2.37243">
        <ele>9</ele>
        <time>2021-03-04T10:59:29.000Z</time>
      </trkpt>
      <trkpt lat="47.28841" lon="-2.37236">
        <ele>9</ele>
        <time>2021-03-04T10:59:31.000Z</time>
      </trkpt>
      <trkpt lat="47.28839" lon="-2.37227">
        <ele>9</ele>
        <time>2021-03-04T10:59:33.000Z</time>
      </trkpt>
      <trkpt lat="47.28837" lon="-2.37215">
        <ele>9</ele>
        <time>2021-03-04T10:59:35.000Z</time>
      </trkpt>
      <trkpt lat="47.28831" lon="-2.37177">
        <ele>9</ele>
        <time>2021-03-04T10:59:42.000Z</time>
      </trkpt>
      <trkpt lat="47.28826" lon="-2.37151">
        <ele>9</ele>
        <time>2021-03-04T10:59:48.000Z</time>
      </trkpt>
      <trkpt lat="47.28826" lon="-2.37139">
        <ele>9</ele>
        <time>2021-03-04T10:59:53.000Z</time>
      </trkpt>
      <trkpt lat="47.28828" lon="-2.3712">
        <ele>9</ele>
        <time>2021-03-04T10:59:58.000Z</time>
      </trkpt>
      <trkpt lat="47.28828" lon="-2.37097">
        <ele>9</ele>
        <time>2021-03-04T11:00:03.000Z</time>
      </trkpt>
      <trkpt lat="47.28824" lon="-2.37068">
        <ele>9</ele>
        <time>2021-03-04T11:00:08.000Z</time>
      </trkpt>
      <trkpt lat="47.28816" lon="-2.3705">
        <ele>9</ele>
        <time>2021-03-04T11:00:11.000Z</time>
      </trkpt>
      <trkpt lat="47.28812" lon="-2.37038">
        <ele>9</ele>
        <time>2021-03-04T11:00:13.000Z</time>
      </trkpt>
      <trkpt lat="47.28806" lon="-2.37012">
        <ele>9</ele>
        <time>2021-03-04T11:00:17.000Z</time>
      </trkpt>
      <trkpt lat="47.28792" lon="-2.36969">
        <ele>9</ele>
        <time>2021-03-04T11:00:23.000Z</time>
      </trkpt>
      <trkpt lat="47.28783" lon="-2.36933">
        <ele>9</ele>
        <time>2021-03-04T11:00:28.000Z</time>
      </trkpt>
      <trkpt lat="47.28782" lon="-2.36927">
        <ele>9</ele>
        <time>2021-03-04T11:00:29.000Z</time>
      </trkpt>
      <trkpt lat="47.28778" lon="-2.36918">
        <ele>9</ele>
        <time>2021-03-04T11:00:32.000Z</time>
      </trkpt>
      <trkpt lat="47.28765" lon="-2.36915">
        <ele>9</ele>
        <time>2021-03-04T11:00:37.000Z</time>
      </trkpt>
      <trkpt lat="47.28751" lon="-2.36912">
        <ele>9.6000003814697</ele>
        <time>2021-03-04T11:00:42.000Z</time>
      </trkpt>
      <trkpt lat="47.28748" lon="-2.36912">
        <ele>10</ele>
        <time>2021-03-04T11:00:43.000Z</time>
      </trkpt>
      <trkpt lat="47.28747" lon="-2.36912">
        <ele>10.39999961853</ele>
        <time>2021-03-04T11:00:44.000Z</time>
      </trkpt>
      <trkpt lat="47.28745" lon="-2.36913">
        <ele>11</ele>
        <time>2021-03-04T11:00:45.000Z</time>
      </trkpt>
      <trkpt lat="47.28743" lon="-2.36915">
        <ele>11.39999961853</ele>
        <time>2021-03-04T11:00:46.000Z</time>
      </trkpt>
      <trkpt lat="47.28741" lon="-2.36916">
        <ele>11.39999961853</ele>
        <time>2021-03-04T11:00:47.000Z</time>
      </trkpt>
      <trkpt lat="47.28737" lon="-2.36913">
        <ele>11.39999961853</ele>
        <time>2021-03-04T11:00:49.000Z</time>
      </trkpt>
      <trkpt lat="47.28736" lon="-2.36911">
        <ele>11.800000190735</ele>
        <time>2021-03-04T11:00:50.000Z</time>
      </trkpt>
      <trkpt lat="47.28734" lon="-2.36907">
        <ele>12.39999961853</ele>
        <time>2021-03-04T11:00:51.000Z</time>
      </trkpt>
      <trkpt lat="47.28733" lon="-2.36905">
        <ele>12.800000190735</ele>
        <time>2021-03-04T11:00:52.000Z</time>
      </trkpt>
      <trkpt lat="47.28732" lon="-2.36903">
        <ele>13.199999809265</ele>
        <time>2021-03-04T11:00:53.000Z</time>
      </trkpt>
      <trkpt lat="47.28731" lon="-2.36901">
        <ele>13.800000190735</ele>
        <time>2021-03-04T11:00:54.000Z</time>
      </trkpt>
      <trkpt lat="47.2873" lon="-2.36899">
        <ele>14.199999809265</ele>
        <time>2021-03-04T11:00:55.000Z</time>
      </trkpt>
      <trkpt lat="47.28729" lon="-2.36897">
        <ele>14.60000038147</ele>
        <time>2021-03-04T11:00:56.000Z</time>
      </trkpt>
      <trkpt lat="47.28728" lon="-2.36895">
        <ele>15</ele>
        <time>2021-03-04T11:00:57.000Z</time>
      </trkpt>
      <trkpt lat="47.28727" lon="-2.36892">
        <ele>15.39999961853</ele>
        <time>2021-03-04T11:00:58.000Z</time>
      </trkpt>
      <trkpt lat="47.28726" lon="-2.3689">
        <ele>15.800000190735</ele>
        <time>2021-03-04T11:00:59.000Z</time>
      </trkpt>
      <trkpt lat="47.28719" lon="-2.36879">
        <ele>16.200000762939</ele>
        <time>2021-03-04T11:01:02.000Z</time>
      </trkpt>
      <trkpt lat="47.28717" lon="-2.36876">
        <ele>16.60000038147</ele>
        <time>2021-03-04T11:01:03.000Z</time>
      </trkpt>
      <trkpt lat="47.28716" lon="-2.36871">
        <ele>17</ele>
        <time>2021-03-04T11:01:04.000Z</time>
      </trkpt>
      <trkpt lat="47.28715" lon="-2.36866">
        <ele>17.39999961853</ele>
        <time>2021-03-04T11:01:05.000Z</time>
      </trkpt>
      <trkpt lat="47.28714" lon="-2.36862">
        <ele>17.799999237061</ele>
        <time>2021-03-04T11:01:06.000Z</time>
      </trkpt>
      <trkpt lat="47.28713" lon="-2.36858">
        <ele>17.799999237061</ele>
        <time>2021-03-04T11:01:07.000Z</time>
      </trkpt>
      <trkpt lat="47.28706" lon="-2.3684">
        <ele>17.799999237061</ele>
        <time>2021-03-04T11:01:13.000Z</time>
      </trkpt>
      <trkpt lat="47.28704" lon="-2.36833">
        <ele>18.200000762939</ele>
        <time>2021-03-04T11:01:15.000Z</time>
      </trkpt>
      <trkpt lat="47.28704" lon="-2.3683">
        <ele>18.799999237061</ele>
        <time>2021-03-04T11:01:16.000Z</time>
      </trkpt>
      <trkpt lat="47.28703" lon="-2.36827">
        <ele>19.200000762939</ele>
        <time>2021-03-04T11:01:17.000Z</time>
      </trkpt>
      <trkpt lat="47.28702" lon="-2.36823">
        <ele>19.60000038147</ele>
        <time>2021-03-04T11:01:18.000Z</time>
      </trkpt>
      <trkpt lat="47.28702" lon="-2.3682">
        <ele>20</ele>
        <time>2021-03-04T11:01:19.000Z</time>
      </trkpt>
      <trkpt lat="47.287" lon="-2.36816">
        <ele>20</ele>
        <time>2021-03-04T11:01:21.000Z</time>
      </trkpt>
      <trkpt lat="47.28696" lon="-2.36809">
        <ele>20</ele>
        <time>2021-03-04T11:01:25.000Z</time>
      </trkpt>
      <trkpt lat="47.28697" lon="-2.368">
        <ele>20</ele>
        <time>2021-03-04T11:01:57.000Z</time>
      </trkpt>
      <trkpt lat="47.28699" lon="-2.36797">
        <ele>20.60000038147</ele>
        <time>2021-03-04T11:01:59.000Z</time>
      </trkpt>
      <trkpt lat="47.28699" lon="-2.36796">
        <ele>21</ele>
        <time>2021-03-04T11:02:00.000Z</time>
      </trkpt>
      <trkpt lat="47.28699" lon="-2.36794">
        <ele>21.39999961853</ele>
        <time>2021-03-04T11:02:01.000Z</time>
      </trkpt>
      <trkpt lat="47.287" lon="-2.36791">
        <ele>21.799999237061</ele>
        <time>2021-03-04T11:02:02.000Z</time>
      </trkpt>
      <trkpt lat="47.287" lon="-2.36789">
        <ele>22.200000762939</ele>
        <time>2021-03-04T11:02:03.000Z</time>
      </trkpt>
      <trkpt lat="47.28699" lon="-2.3678">
        <ele>22.200000762939</ele>
        <time>2021-03-04T11:02:05.000Z</time>
      </trkpt>
      <trkpt lat="47.28702" lon="-2.36754">
        <ele>22.60000038147</ele>
        <time>2021-03-04T11:02:10.000Z</time>
      </trkpt>
      <trkpt lat="47.28703" lon="-2.36748">
        <ele>23</ele>
        <time>2021-03-04T11:02:11.000Z</time>
      </trkpt>
      <trkpt lat="47.28704" lon="-2.36742">
        <ele>23.39999961853</ele>
        <time>2021-03-04T11:02:12.000Z</time>
      </trkpt>
      <trkpt lat="47.28706" lon="-2.36738">
        <ele>23.799999237061</ele>
        <time>2021-03-04T11:02:13.000Z</time>
      </trkpt>
      <trkpt lat="47.28708" lon="-2.36734">
        <ele>24.200000762939</ele>
        <time>2021-03-04T11:02:14.000Z</time>
      </trkpt>
      <trkpt lat="47.28714" lon="-2.36722">
        <ele>24.200000762939</ele>
        <time>2021-03-04T11:02:17.000Z</time>
      </trkpt>
      <trkpt lat="47.28724" lon="-2.36701">
        <ele>24.200000762939</ele>
        <time>2021-03-04T11:02:23.000Z</time>
      </trkpt>
      <trkpt lat="47.28728" lon="-2.36693">
        <ele>24.799999237061</ele>
        <time>2021-03-04T11:02:26.000Z</time>
      </trkpt>
      <trkpt lat="47.28729" lon="-2.3669">
        <ele>25.200000762939</ele>
        <time>2021-03-04T11:02:27.000Z</time>
      </trkpt>
      <trkpt lat="47.2873" lon="-2.36688">
        <ele>25.60000038147</ele>
        <time>2021-03-04T11:02:28.000Z</time>
      </trkpt>
      <trkpt lat="47.28732" lon="-2.36685">
        <ele>26</ele>
        <time>2021-03-04T11:02:29.000Z</time>
      </trkpt>
      <trkpt lat="47.28733" lon="-2.36683">
        <ele>26.39999961853</ele>
        <time>2021-03-04T11:02:30.000Z</time>
      </trkpt>
      <trkpt lat="47.2874" lon="-2.36673">
        <ele>26.799999237061</ele>
        <time>2021-03-04T11:02:34.000Z</time>
      </trkpt>
      <trkpt lat="47.28742" lon="-2.36669">
        <ele>27.200000762939</ele>
        <time>2021-03-04T11:02:35.000Z</time>
      </trkpt>
      <trkpt lat="47.28745" lon="-2.36665">
        <ele>27.60000038147</ele>
        <time>2021-03-04T11:02:36.000Z</time>
      </trkpt>
      <trkpt lat="47.28749" lon="-2.36661">
        <ele>28</ele>
        <time>2021-03-04T11:02:37.000Z</time>
      </trkpt>
      <trkpt lat="47.28752" lon="-2.36657">
        <ele>28.60000038147</ele>
        <time>2021-03-04T11:02:38.000Z</time>
      </trkpt>
      <trkpt lat="47.28767" lon="-2.36631">
        <ele>28.60000038147</ele>
        <time>2021-03-04T11:02:45.000Z</time>
      </trkpt>
      <trkpt lat="47.28769" lon="-2.36625">
        <ele>29</ele>
        <time>2021-03-04T11:02:47.000Z</time>
      </trkpt>
      <trkpt lat="47.28769" lon="-2.36621">
        <ele>29.39999961853</ele>
        <time>2021-03-04T11:02:48.000Z</time>
      </trkpt>
      <trkpt lat="47.28768" lon="-2.36617">
        <ele>29.799999237061</ele>
        <time>2021-03-04T11:02:49.000Z</time>
      </trkpt>
      <trkpt lat="47.28766" lon="-2.36612">
        <ele>30.200000762939</ele>
        <time>2021-03-04T11:02:50.000Z</time>
      </trkpt>
      <trkpt lat="47.28764" lon="-2.36608">
        <ele>30.60000038147</ele>
        <time>2021-03-04T11:02:51.000Z</time>
      </trkpt>
      <trkpt lat="47.28754" lon="-2.3659">
        <ele>30.60000038147</ele>
        <time>2021-03-04T11:02:57.000Z</time>
      </trkpt>
      <trkpt lat="47.28756" lon="-2.36571">
        <ele>30.60000038147</ele>
        <time>2021-03-04T11:03:02.000Z</time>
      </trkpt>
      <trkpt lat="47.28763" lon="-2.36561">
        <ele>30.60000038147</ele>
        <time>2021-03-04T11:03:05.000Z</time>
      </trkpt>
      <trkpt lat="47.28768" lon="-2.36556">
        <ele>30.60000038147</ele>
        <time>2021-03-04T11:03:07.000Z</time>
      </trkpt>
      <trkpt lat="47.28785" lon="-2.36541">
        <ele>30.60000038147</ele>
        <time>2021-03-04T11:03:13.000Z</time>
      </trkpt>
      <trkpt lat="47.2879" lon="-2.36525">
        <ele>30.60000038147</ele>
        <time>2021-03-04T11:03:18.000Z</time>
      </trkpt>
      <trkpt lat="47.28794" lon="-2.36519">
        <ele>31</ele>
        <time>2021-03-04T11:03:20.000Z</time>
      </trkpt>
      <trkpt lat="47.28796" lon="-2.36515">
        <ele>31.39999961853</ele>
        <time>2021-03-04T11:03:21.000Z</time>
      </trkpt>
      <trkpt lat="47.28798" lon="-2.36513">
        <ele>31.799999237061</ele>
        <time>2021-03-04T11:03:22.000Z</time>
      </trkpt>
      <trkpt lat="47.28799" lon="-2.36509">
        <ele>32.200000762939</ele>
        <time>2021-03-04T11:03:23.000Z</time>
      </trkpt>
      <trkpt lat="47.288" lon="-2.36506">
        <ele>32.599998474121</ele>
        <time>2021-03-04T11:03:24.000Z</time>
      </trkpt>
      <trkpt lat="47.28801" lon="-2.36488">
        <ele>33</ele>
        <time>2021-03-04T11:03:29.000Z</time>
      </trkpt>
      <trkpt lat="47.28801" lon="-2.36483">
        <ele>33.400001525879</ele>
        <time>2021-03-04T11:03:30.000Z</time>
      </trkpt>
      <trkpt lat="47.28801" lon="-2.36479">
        <ele>34</ele>
        <time>2021-03-04T11:03:31.000Z</time>
      </trkpt>
      <trkpt lat="47.28802" lon="-2.36474">
        <ele>34.400001525879</ele>
        <time>2021-03-04T11:03:32.000Z</time>
      </trkpt>
      <trkpt lat="47.28802" lon="-2.3647">
        <ele>34.799999237061</ele>
        <time>2021-03-04T11:03:33.000Z</time>
      </trkpt>
      <trkpt lat="47.28803" lon="-2.36448">
        <ele>34.799999237061</ele>
        <time>2021-03-04T11:03:38.000Z</time>
      </trkpt>
      <trkpt lat="47.28804" lon="-2.36423">
        <ele>35.200000762939</ele>
        <time>2021-03-04T11:03:44.000Z</time>
      </trkpt>
      <trkpt lat="47.28805" lon="-2.36418">
        <ele>35.599998474121</ele>
        <time>2021-03-04T11:03:45.000Z</time>
      </trkpt>
      <trkpt lat="47.28807" lon="-2.36412">
        <ele>36</ele>
        <time>2021-03-04T11:03:46.000Z</time>
      </trkpt>
      <trkpt lat="47.28809" lon="-2.36406">
        <ele>36.400001525879</ele>
        <time>2021-03-04T11:03:47.000Z</time>
      </trkpt>
      <trkpt lat="47.28811" lon="-2.364">
        <ele>36.799999237061</ele>
        <time>2021-03-04T11:03:48.000Z</time>
      </trkpt>
      <trkpt lat="47.28813" lon="-2.36394">
        <ele>36.799999237061</ele>
        <time>2021-03-04T11:03:49.000Z</time>
      </trkpt>
      <trkpt lat="47.2882" lon="-2.36376">
        <ele>36.799999237061</ele>
        <time>2021-03-04T11:03:52.000Z</time>
      </trkpt>
      <trkpt lat="47.28832" lon="-2.36358">
        <ele>36.799999237061</ele>
        <time>2021-03-04T11:03:55.000Z</time>
      </trkpt>
      <trkpt lat="47.28846" lon="-2.36337">
        <ele>36.400001525879</ele>
        <time>2021-03-04T11:03:59.000Z</time>
      </trkpt>
      <trkpt lat="47.28847" lon="-2.36332">
        <ele>36</ele>
        <time>2021-03-04T11:04:00.000Z</time>
      </trkpt>
      <trkpt lat="47.28847" lon="-2.36326">
        <ele>35.400001525879</ele>
        <time>2021-03-04T11:04:01.000Z</time>
      </trkpt>
      <trkpt lat="47.28846" lon="-2.36321">
        <ele>35</ele>
        <time>2021-03-04T11:04:02.000Z</time>
      </trkpt>
      <trkpt lat="47.28843" lon="-2.36316">
        <ele>34.599998474121</ele>
        <time>2021-03-04T11:04:03.000Z</time>
      </trkpt>
      <trkpt lat="47.28833" lon="-2.36306">
        <ele>34.599998474121</ele>
        <time>2021-03-04T11:04:05.000Z</time>
      </trkpt>
      <trkpt lat="47.28823" lon="-2.36296">
        <ele>34.599998474121</ele>
        <time>2021-03-04T11:04:07.000Z</time>
      </trkpt>
      <trkpt lat="47.28794" lon="-2.36268">
        <ele>34.599998474121</ele>
        <time>2021-03-04T11:04:14.000Z</time>
      </trkpt>
      <trkpt lat="47.28772" lon="-2.36242">
        <ele>34.599998474121</ele>
        <time>2021-03-04T11:04:21.000Z</time>
      </trkpt>
      <trkpt lat="47.28769" lon="-2.36237">
        <ele>34.599998474121</ele>
        <time>2021-03-04T11:04:22.000Z</time>
      </trkpt>
      <trkpt lat="47.28766" lon="-2.36232">
        <ele>34.599998474121</ele>
        <time>2021-03-04T11:04:23.000Z</time>
      </trkpt>
      <trkpt lat="47.28754" lon="-2.36226">
        <ele>34.599998474121</ele>
        <time>2021-03-04T11:04:26.000Z</time>
      </trkpt>
      <trkpt lat="47.28743" lon="-2.36233">
        <ele>34.599998474121</ele>
        <time>2021-03-04T11:04:29.000Z</time>
      </trkpt>
      <trkpt lat="47.28739" lon="-2.36236">
        <ele>34.599998474121</ele>
        <time>2021-03-04T11:04:30.000Z</time>
      </trkpt>
      <trkpt lat="47.28726" lon="-2.36252">
        <ele>34.599998474121</ele>
        <time>2021-03-04T11:04:35.000Z</time>
      </trkpt>
      <trkpt lat="47.28717" lon="-2.36262">
        <ele>35</ele>
        <time>2021-03-04T11:04:39.000Z</time>
      </trkpt>
      <trkpt lat="47.28714" lon="-2.36264">
        <ele>35.400001525879</ele>
        <time>2021-03-04T11:04:40.000Z</time>
      </trkpt>
      <trkpt lat="47.28711" lon="-2.36266">
        <ele>35.799999237061</ele>
        <time>2021-03-04T11:04:41.000Z</time>
      </trkpt>
      <trkpt lat="47.28709" lon="-2.36268">
        <ele>36.200000762939</ele>
        <time>2021-03-04T11:04:42.000Z</time>
      </trkpt>
      <trkpt lat="47.28706" lon="-2.3627">
        <ele>36.599998474121</ele>
        <time>2021-03-04T11:04:43.000Z</time>
      </trkpt>
      <trkpt lat="47.28702" lon="-2.36272">
        <ele>36.599998474121</ele>
        <time>2021-03-04T11:04:45.000Z</time>
      </trkpt>
      <trkpt lat="47.28689" lon="-2.36275">
        <ele>37</ele>
        <time>2021-03-04T11:04:50.000Z</time>
      </trkpt>
      <trkpt lat="47.28686" lon="-2.36275">
        <ele>37.599998474121</ele>
        <time>2021-03-04T11:04:51.000Z</time>
      </trkpt>
      <trkpt lat="47.28684" lon="-2.36275">
        <ele>38</ele>
        <time>2021-03-04T11:04:52.000Z</time>
      </trkpt>
      <trkpt lat="47.28681" lon="-2.36274">
        <ele>38.400001525879</ele>
        <time>2021-03-04T11:04:53.000Z</time>
      </trkpt>
      <trkpt lat="47.28678" lon="-2.36273">
        <ele>38.799999237061</ele>
        <time>2021-03-04T11:04:54.000Z</time>
      </trkpt>
      <trkpt lat="47.28673" lon="-2.36268">
        <ele>38.799999237061</ele>
        <time>2021-03-04T11:04:56.000Z</time>
      </trkpt>
      <trkpt lat="47.28669" lon="-2.36254">
        <ele>38.799999237061</ele>
        <time>2021-03-04T11:05:01.000Z</time>
      </trkpt>
      <trkpt lat="47.2867" lon="-2.36237">
        <ele>39.599998474121</ele>
        <time>2021-03-04T11:05:06.000Z</time>
      </trkpt>
      <trkpt lat="47.28671" lon="-2.36234">
        <ele>40</ele>
        <time>2021-03-04T11:05:07.000Z</time>
      </trkpt>
      <trkpt lat="47.28671" lon="-2.36231">
        <ele>40.599998474121</ele>
        <time>2021-03-04T11:05:08.000Z</time>
      </trkpt>
      <trkpt lat="47.28671" lon="-2.36228">
        <ele>41</ele>
        <time>2021-03-04T11:05:09.000Z</time>
      </trkpt>
      <trkpt lat="47.28669" lon="-2.36206">
        <ele>41</ele>
        <time>2021-03-04T11:05:15.000Z</time>
      </trkpt>
      <trkpt lat="47.28659" lon="-2.36187">
        <ele>41</ele>
        <time>2021-03-04T11:05:21.000Z</time>
      </trkpt>
      <trkpt lat="47.28652" lon="-2.36181">
        <ele>41.400001525879</ele>
        <time>2021-03-04T11:05:25.000Z</time>
      </trkpt>
      <trkpt lat="47.2865" lon="-2.36179">
        <ele>41.799999237061</ele>
        <time>2021-03-04T11:05:26.000Z</time>
      </trkpt>
      <trkpt lat="47.28649" lon="-2.36177">
        <ele>42.200000762939</ele>
        <time>2021-03-04T11:05:27.000Z</time>
      </trkpt>
      <trkpt lat="47.28648" lon="-2.36175">
        <ele>42.599998474121</ele>
        <time>2021-03-04T11:05:28.000Z</time>
      </trkpt>
      <trkpt lat="47.28647" lon="-2.36172">
        <ele>43</ele>
        <time>2021-03-04T11:05:29.000Z</time>
      </trkpt>
      <trkpt lat="47.28641" lon="-2.36161">
        <ele>43.400001525879</ele>
        <time>2021-03-04T11:05:33.000Z</time>
      </trkpt>
      <trkpt lat="47.28639" lon="-2.36159">
        <ele>43.799999237061</ele>
        <time>2021-03-04T11:05:34.000Z</time>
      </trkpt>
      <trkpt lat="47.28637" lon="-2.36157">
        <ele>44.200000762939</ele>
        <time>2021-03-04T11:05:35.000Z</time>
      </trkpt>
      <trkpt lat="47.28634" lon="-2.36157">
        <ele>44.599998474121</ele>
        <time>2021-03-04T11:05:36.000Z</time>
      </trkpt>
      <trkpt lat="47.28631" lon="-2.36156">
        <ele>45</ele>
        <time>2021-03-04T11:05:37.000Z</time>
      </trkpt>
      <trkpt lat="47.28629" lon="-2.36155">
        <ele>45</ele>
        <time>2021-03-04T11:05:38.000Z</time>
      </trkpt>
      <trkpt lat="47.28613" lon="-2.36159">
        <ele>45</ele>
        <time>2021-03-04T11:05:43.000Z</time>
      </trkpt>
      <trkpt lat="47.28598" lon="-2.36158">
        <ele>45</ele>
        <time>2021-03-04T11:05:47.000Z</time>
      </trkpt>
      <trkpt lat="47.2858" lon="-2.36149">
        <ele>45</ele>
        <time>2021-03-04T11:05:53.000Z</time>
      </trkpt>
      <trkpt lat="47.28571" lon="-2.36148">
        <ele>45</ele>
        <time>2021-03-04T11:05:55.000Z</time>
      </trkpt>
      <trkpt lat="47.28561" lon="-2.36152">
        <ele>45</ele>
        <time>2021-03-04T11:05:57.000Z</time>
      </trkpt>
      <trkpt lat="47.28551" lon="-2.36153">
        <ele>44.599998474121</ele>
        <time>2021-03-04T11:05:59.000Z</time>
      </trkpt>
      <trkpt lat="47.28547" lon="-2.3615">
        <ele>44.200000762939</ele>
        <time>2021-03-04T11:06:00.000Z</time>
      </trkpt>
      <trkpt lat="47.28543" lon="-2.36146">
        <ele>43.799999237061</ele>
        <time>2021-03-04T11:06:01.000Z</time>
      </trkpt>
      <trkpt lat="47.2854" lon="-2.3614">
        <ele>43.200000762939</ele>
        <time>2021-03-04T11:06:02.000Z</time>
      </trkpt>
      <trkpt lat="47.28538" lon="-2.36134">
        <ele>42.799999237061</ele>
        <time>2021-03-04T11:06:03.000Z</time>
      </trkpt>
      <trkpt lat="47.28536" lon="-2.36121">
        <ele>42.799999237061</ele>
        <time>2021-03-04T11:06:05.000Z</time>
      </trkpt>
      <trkpt lat="47.28535" lon="-2.36114">
        <ele>42.799999237061</ele>
        <time>2021-03-04T11:06:06.000Z</time>
      </trkpt>
      <trkpt lat="47.28532" lon="-2.36093">
        <ele>42.799999237061</ele>
        <time>2021-03-04T11:06:10.000Z</time>
      </trkpt>
      <trkpt lat="47.28523" lon="-2.36072">
        <ele>42.799999237061</ele>
        <time>2021-03-04T11:06:16.000Z</time>
      </trkpt>
      <trkpt lat="47.28507" lon="-2.36049">
        <ele>42.799999237061</ele>
        <time>2021-03-04T11:06:22.000Z</time>
      </trkpt>
      <trkpt lat="47.28491" lon="-2.36036">
        <ele>42.799999237061</ele>
        <time>2021-03-04T11:06:27.000Z</time>
      </trkpt>
      <trkpt lat="47.28472" lon="-2.3602">
        <ele>42.799999237061</ele>
        <time>2021-03-04T11:06:31.000Z</time>
      </trkpt>
      <trkpt lat="47.28458" lon="-2.35989">
        <ele>42.799999237061</ele>
        <time>2021-03-04T11:06:36.000Z</time>
      </trkpt>
      <trkpt lat="47.28462" lon="-2.35949">
        <ele>42.799999237061</ele>
        <time>2021-03-04T11:06:41.000Z</time>
      </trkpt>
      <trkpt lat="47.28466" lon="-2.35941">
        <ele>42.799999237061</ele>
        <time>2021-03-04T11:06:42.000Z</time>
      </trkpt>
      <trkpt lat="47.28469" lon="-2.35933">
        <ele>42.200000762939</ele>
        <time>2021-03-04T11:06:43.000Z</time>
      </trkpt>
      <trkpt lat="47.28472" lon="-2.35927">
        <ele>41.599998474121</ele>
        <time>2021-03-04T11:06:44.000Z</time>
      </trkpt>
      <trkpt lat="47.28474" lon="-2.35921">
        <ele>40.200000762939</ele>
        <time>2021-03-04T11:06:45.000Z</time>
      </trkpt>
      <trkpt lat="47.28474" lon="-2.35916">
        <ele>39.400001525879</ele>
        <time>2021-03-04T11:06:46.000Z</time>
      </trkpt>
      <trkpt lat="47.28472" lon="-2.3591">
        <ele>38.799999237061</ele>
        <time>2021-03-04T11:06:47.000Z</time>
      </trkpt>
      <trkpt lat="47.2847" lon="-2.35905">
        <ele>37.799999237061</ele>
        <time>2021-03-04T11:06:48.000Z</time>
      </trkpt>
      <trkpt lat="47.28466" lon="-2.35899">
        <ele>37</ele>
        <time>2021-03-04T11:06:49.000Z</time>
      </trkpt>
      <trkpt lat="47.28462" lon="-2.35894">
        <ele>36.200000762939</ele>
        <time>2021-03-04T11:06:50.000Z</time>
      </trkpt>
      <trkpt lat="47.28457" lon="-2.3589">
        <ele>35.400001525879</ele>
        <time>2021-03-04T11:06:51.000Z</time>
      </trkpt>
      <trkpt lat="47.28452" lon="-2.35887">
        <ele>34.799999237061</ele>
        <time>2021-03-04T11:06:52.000Z</time>
      </trkpt>
      <trkpt lat="47.28447" lon="-2.35885">
        <ele>34.200000762939</ele>
        <time>2021-03-04T11:06:53.000Z</time>
      </trkpt>
      <trkpt lat="47.28442" lon="-2.35881">
        <ele>33.599998474121</ele>
        <time>2021-03-04T11:06:54.000Z</time>
      </trkpt>
      <trkpt lat="47.28438" lon="-2.35877">
        <ele>33</ele>
        <time>2021-03-04T11:06:55.000Z</time>
      </trkpt>
      <trkpt lat="47.28435" lon="-2.35872">
        <ele>32.400001525879</ele>
        <time>2021-03-04T11:06:56.000Z</time>
      </trkpt>
      <trkpt lat="47.2843" lon="-2.35862">
        <ele>32.400001525879</ele>
        <time>2021-03-04T11:06:58.000Z</time>
      </trkpt>
      <trkpt lat="47.28412" lon="-2.35829">
        <ele>32.400001525879</ele>
        <time>2021-03-04T11:07:04.000Z</time>
      </trkpt>
      <trkpt lat="47.28409" lon="-2.35824">
        <ele>32.400001525879</ele>
        <time>2021-03-04T11:07:05.000Z</time>
      </trkpt>
      <trkpt lat="47.28394" lon="-2.3581">
        <ele>32.400001525879</ele>
        <time>2021-03-04T11:07:09.000Z</time>
      </trkpt>
      <trkpt lat="47.2839" lon="-2.35808">
        <ele>32.400001525879</ele>
        <time>2021-03-04T11:07:10.000Z</time>
      </trkpt>
      <trkpt lat="47.2838" lon="-2.35801">
        <ele>32.400001525879</ele>
        <time>2021-03-04T11:07:13.000Z</time>
      </trkpt>
      <trkpt lat="47.28373" lon="-2.35801">
        <ele>32</ele>
        <time>2021-03-04T11:07:15.000Z</time>
      </trkpt>
      <trkpt lat="47.28369" lon="-2.35802">
        <ele>31.39999961853</ele>
        <time>2021-03-04T11:07:16.000Z</time>
      </trkpt>
      <trkpt lat="47.28364" lon="-2.35806">
        <ele>31</ele>
        <time>2021-03-04T11:07:17.000Z</time>
      </trkpt>
      <trkpt lat="47.2836" lon="-2.35809">
        <ele>30.60000038147</ele>
        <time>2021-03-04T11:07:18.000Z</time>
      </trkpt>
      <trkpt lat="47.28356" lon="-2.35812">
        <ele>30.200000762939</ele>
        <time>2021-03-04T11:07:19.000Z</time>
      </trkpt>
      <trkpt lat="47.28342" lon="-2.35822">
        <ele>30.200000762939</ele>
        <time>2021-03-04T11:07:23.000Z</time>
      </trkpt>
      <trkpt lat="47.2832" lon="-2.35841">
        <ele>30.200000762939</ele>
        <time>2021-03-04T11:07:29.000Z</time>
      </trkpt>
      <trkpt lat="47.28301" lon="-2.3586">
        <ele>30.200000762939</ele>
        <time>2021-03-04T11:07:33.000Z</time>
      </trkpt>
      <trkpt lat="47.28295" lon="-2.35864">
        <ele>29.799999237061</ele>
        <time>2021-03-04T11:07:34.000Z</time>
      </trkpt>
      <trkpt lat="47.2829" lon="-2.35869">
        <ele>29</ele>
        <time>2021-03-04T11:07:35.000Z</time>
      </trkpt>
      <trkpt lat="47.28285" lon="-2.35872">
        <ele>28.60000038147</ele>
        <time>2021-03-04T11:07:36.000Z</time>
      </trkpt>
      <trkpt lat="47.28279" lon="-2.35874">
        <ele>28.200000762939</ele>
        <time>2021-03-04T11:07:37.000Z</time>
      </trkpt>
      <trkpt lat="47.28274" lon="-2.35877">
        <ele>28.200000762939</ele>
        <time>2021-03-04T11:07:38.000Z</time>
      </trkpt>
      <trkpt lat="47.28255" lon="-2.35891">
        <ele>28.200000762939</ele>
        <time>2021-03-04T11:07:43.000Z</time>
      </trkpt>
      <trkpt lat="47.28233" lon="-2.35897">
        <ele>27.799999237061</ele>
        <time>2021-03-04T11:07:48.000Z</time>
      </trkpt>
      <trkpt lat="47.28227" lon="-2.35897">
        <ele>27.39999961853</ele>
        <time>2021-03-04T11:07:49.000Z</time>
      </trkpt>
      <trkpt lat="47.28223" lon="-2.35896">
        <ele>27</ele>
        <time>2021-03-04T11:07:50.000Z</time>
      </trkpt>
      <trkpt lat="47.28219" lon="-2.35894">
        <ele>26.60000038147</ele>
        <time>2021-03-04T11:07:51.000Z</time>
      </trkpt>
      <trkpt lat="47.28215" lon="-2.35892">
        <ele>26.200000762939</ele>
        <time>2021-03-04T11:07:52.000Z</time>
      </trkpt>
      <trkpt lat="47.28208" lon="-2.3588">
        <ele>26.200000762939</ele>
        <time>2021-03-04T11:07:55.000Z</time>
      </trkpt>
      <trkpt lat="47.28197" lon="-2.35848">
        <ele>26.200000762939</ele>
        <time>2021-03-04T11:08:01.000Z</time>
      </trkpt>
      <trkpt lat="47.2819" lon="-2.35833">
        <ele>26.200000762939</ele>
        <time>2021-03-04T11:08:04.000Z</time>
      </trkpt>
      <trkpt lat="47.28186" lon="-2.35829">
        <ele>26.200000762939</ele>
        <time>2021-03-04T11:08:05.000Z</time>
      </trkpt>
      <trkpt lat="47.2817" lon="-2.35828">
        <ele>26.200000762939</ele>
        <time>2021-03-04T11:08:09.000Z</time>
      </trkpt>
      <trkpt lat="47.28154" lon="-2.35817">
        <ele>26.200000762939</ele>
        <time>2021-03-04T11:08:13.000Z</time>
      </trkpt>
      <trkpt lat="47.28147" lon="-2.35806">
        <ele>26.200000762939</ele>
        <time>2021-03-04T11:08:15.000Z</time>
      </trkpt>
      <trkpt lat="47.28144" lon="-2.35793">
        <ele>26.200000762939</ele>
        <time>2021-03-04T11:08:17.000Z</time>
      </trkpt>
      <trkpt lat="47.28143" lon="-2.35767">
        <ele>26.200000762939</ele>
        <time>2021-03-04T11:08:21.000Z</time>
      </trkpt>
      <trkpt lat="47.28136" lon="-2.35756">
        <ele>25.200000762939</ele>
        <time>2021-03-04T11:08:24.000Z</time>
      </trkpt>
      <trkpt lat="47.28134" lon="-2.35757">
        <ele>24.799999237061</ele>
        <time>2021-03-04T11:08:25.000Z</time>
      </trkpt>
      <trkpt lat="47.28131" lon="-2.35757">
        <ele>24.39999961853</ele>
        <time>2021-03-04T11:08:26.000Z</time>
      </trkpt>
      <trkpt lat="47.28126" lon="-2.35759">
        <ele>23.799999237061</ele>
        <time>2021-03-04T11:08:27.000Z</time>
      </trkpt>
      <trkpt lat="47.28118" lon="-2.35764">
        <ele>23.799999237061</ele>
        <time>2021-03-04T11:08:29.000Z</time>
      </trkpt>
      <trkpt lat="47.28108" lon="-2.35782">
        <ele>23.799999237061</ele>
        <time>2021-03-04T11:08:33.000Z</time>
      </trkpt>
      <trkpt lat="47.28093" lon="-2.35806">
        <ele>23.799999237061</ele>
        <time>2021-03-04T11:08:40.000Z</time>
      </trkpt>
      <trkpt lat="47.28083" lon="-2.35796">
        <ele>23.799999237061</ele>
        <time>2021-03-04T11:08:44.000Z</time>
      </trkpt>
      <trkpt lat="47.28086" lon="-2.35778">
        <ele>23.799999237061</ele>
        <time>2021-03-04T11:08:48.000Z</time>
      </trkpt>
      <trkpt lat="47.28087" lon="-2.35775">
        <ele>24.200000762939</ele>
        <time>2021-03-04T11:08:49.000Z</time>
      </trkpt>
      <trkpt lat="47.28088" lon="-2.35771">
        <ele>24.60000038147</ele>
        <time>2021-03-04T11:08:50.000Z</time>
      </trkpt>
      <trkpt lat="47.28089" lon="-2.35767">
        <ele>25</ele>
        <time>2021-03-04T11:08:51.000Z</time>
      </trkpt>
      <trkpt lat="47.28089" lon="-2.35763">
        <ele>25.60000038147</ele>
        <time>2021-03-04T11:08:52.000Z</time>
      </trkpt>
      <trkpt lat="47.2809" lon="-2.35759">
        <ele>26</ele>
        <time>2021-03-04T11:08:53.000Z</time>
      </trkpt>
      <trkpt lat="47.2809" lon="-2.3575">
        <ele>26</ele>
        <time>2021-03-04T11:08:55.000Z</time>
      </trkpt>
      <trkpt lat="47.28092" lon="-2.35726">
        <ele>26.39999961853</ele>
        <time>2021-03-04T11:09:00.000Z</time>
      </trkpt>
      <trkpt lat="47.28093" lon="-2.35722">
        <ele>26.799999237061</ele>
        <time>2021-03-04T11:09:01.000Z</time>
      </trkpt>
      <trkpt lat="47.28094" lon="-2.35718">
        <ele>27.200000762939</ele>
        <time>2021-03-04T11:09:02.000Z</time>
      </trkpt>
      <trkpt lat="47.28094" lon="-2.35714">
        <ele>27.60000038147</ele>
        <time>2021-03-04T11:09:03.000Z</time>
      </trkpt>
      <trkpt lat="47.28094" lon="-2.3571">
        <ele>28</ele>
        <time>2021-03-04T11:09:04.000Z</time>
      </trkpt>
      <trkpt lat="47.28092" lon="-2.35695">
        <ele>28</ele>
        <time>2021-03-04T11:09:07.000Z</time>
      </trkpt>
      <trkpt lat="47.28091" lon="-2.35689">
        <ele>28</ele>
        <time>2021-03-04T11:09:08.000Z</time>
      </trkpt>
      <trkpt lat="47.28085" lon="-2.35664">
        <ele>28</ele>
        <time>2021-03-04T11:09:11.000Z</time>
      </trkpt>
      <trkpt lat="47.2808" lon="-2.35647">
        <ele>27.60000038147</ele>
        <time>2021-03-04T11:09:14.000Z</time>
      </trkpt>
      <trkpt lat="47.28079" lon="-2.35642">
        <ele>27.200000762939</ele>
        <time>2021-03-04T11:09:15.000Z</time>
      </trkpt>
      <trkpt lat="47.28078" lon="-2.35636">
        <ele>26.799999237061</ele>
        <time>2021-03-04T11:09:16.000Z</time>
      </trkpt>
      <trkpt lat="47.28078" lon="-2.3563">
        <ele>26.200000762939</ele>
        <time>2021-03-04T11:09:17.000Z</time>
      </trkpt>
      <trkpt lat="47.28079" lon="-2.35624">
        <ele>25.60000038147</ele>
        <time>2021-03-04T11:09:18.000Z</time>
      </trkpt>
      <trkpt lat="47.28079" lon="-2.3562">
        <ele>25</ele>
        <time>2021-03-04T11:09:19.000Z</time>
      </trkpt>
      <trkpt lat="47.2808" lon="-2.35616">
        <ele>24.39999961853</ele>
        <time>2021-03-04T11:09:20.000Z</time>
      </trkpt>
      <trkpt lat="47.28082" lon="-2.35614">
        <ele>23.799999237061</ele>
        <time>2021-03-04T11:09:21.000Z</time>
      </trkpt>
      <trkpt lat="47.28084" lon="-2.35615">
        <ele>23.200000762939</ele>
        <time>2021-03-04T11:09:22.000Z</time>
      </trkpt>
      <trkpt lat="47.28085" lon="-2.35614">
        <ele>23.200000762939</ele>
        <time>2021-03-04T11:09:23.000Z</time>
      </trkpt>
      <trkpt lat="47.28086" lon="-2.35616">
        <ele>23.200000762939</ele>
        <time>2021-03-04T11:09:24.000Z</time>
      </trkpt>
      <trkpt lat="47.28087" lon="-2.3562">
        <ele>23.200000762939</ele>
        <time>2021-03-04T11:09:27.000Z</time>
      </trkpt>
      <trkpt lat="47.28087" lon="-2.3562">
        <ele>23.200000762939</ele>
        <time>2021-03-04T11:09:29.000Z</time>
      </trkpt>
      <trkpt lat="47.28084" lon="-2.35617">
        <ele>23.200000762939</ele>
        <time>2021-03-04T11:17:59.000Z</time>
      </trkpt>
      <trkpt lat="47.28083" lon="-2.35615">
        <ele>23.200000762939</ele>
        <time>2021-03-04T11:18:00.000Z</time>
      </trkpt>
      <trkpt lat="47.28077" lon="-2.35609">
        <ele>23.200000762939</ele>
        <time>2021-03-04T11:18:03.000Z</time>
      </trkpt>
      <trkpt lat="47.28073" lon="-2.35603">
        <ele>23.200000762939</ele>
        <time>2021-03-04T11:18:05.000Z</time>
      </trkpt>
      <trkpt lat="47.28062" lon="-2.35586">
        <ele>23.200000762939</ele>
        <time>2021-03-04T11:18:10.000Z</time>
      </trkpt>
      <trkpt lat="47.28048" lon="-2.35579">
        <ele>23.200000762939</ele>
        <time>2021-03-04T11:18:14.000Z</time>
      </trkpt>
      <trkpt lat="47.28044" lon="-2.35577">
        <ele>23.200000762939</ele>
        <time>2021-03-04T11:18:15.000Z</time>
      </trkpt>
      <trkpt lat="47.28034" lon="-2.35574">
        <ele>23.200000762939</ele>
        <time>2021-03-04T11:18:17.000Z</time>
      </trkpt>
      <trkpt lat="47.28026" lon="-2.35565">
        <ele>23.200000762939</ele>
        <time>2021-03-04T11:18:19.000Z</time>
      </trkpt>
      <trkpt lat="47.28022" lon="-2.35561">
        <ele>23.200000762939</ele>
        <time>2021-03-04T11:18:20.000Z</time>
      </trkpt>
      <trkpt lat="47.28017" lon="-2.35559">
        <ele>22.799999237061</ele>
        <time>2021-03-04T11:18:21.000Z</time>
      </trkpt>
      <trkpt lat="47.28012" lon="-2.35559">
        <ele>22.39999961853</ele>
        <time>2021-03-04T11:18:22.000Z</time>
      </trkpt>
      <trkpt lat="47.28007" lon="-2.35561">
        <ele>22</ele>
        <time>2021-03-04T11:18:23.000Z</time>
      </trkpt>
      <trkpt lat="47.28002" lon="-2.35562">
        <ele>21.60000038147</ele>
        <time>2021-03-04T11:18:24.000Z</time>
      </trkpt>
      <trkpt lat="47.27997" lon="-2.35564">
        <ele>21.200000762939</ele>
        <time>2021-03-04T11:18:25.000Z</time>
      </trkpt>
      <trkpt lat="47.2797" lon="-2.35574">
        <ele>21.200000762939</ele>
        <time>2021-03-04T11:18:30.000Z</time>
      </trkpt>
      <trkpt lat="47.27924" lon="-2.35587">
        <ele>21.200000762939</ele>
        <time>2021-03-04T11:18:38.000Z</time>
      </trkpt>
      <trkpt lat="47.27881" lon="-2.35599">
        <ele>21.200000762939</ele>
        <time>2021-03-04T11:18:45.000Z</time>
      </trkpt>
      <trkpt lat="47.27874" lon="-2.35601">
        <ele>20.60000038147</ele>
        <time>2021-03-04T11:18:46.000Z</time>
      </trkpt>
      <trkpt lat="47.27868" lon="-2.35603">
        <ele>20.200000762939</ele>
        <time>2021-03-04T11:18:47.000Z</time>
      </trkpt>
      <trkpt lat="47.27861" lon="-2.35605">
        <ele>19.799999237061</ele>
        <time>2021-03-04T11:18:48.000Z</time>
      </trkpt>
      <trkpt lat="47.27854" lon="-2.35606">
        <ele>19.39999961853</ele>
        <time>2021-03-04T11:18:49.000Z</time>
      </trkpt>
      <trkpt lat="47.27847" lon="-2.35608">
        <ele>18.799999237061</ele>
        <time>2021-03-04T11:18:50.000Z</time>
      </trkpt>
      <trkpt lat="47.27807" lon="-2.3562">
        <ele>18.39999961853</ele>
        <time>2021-03-04T11:18:56.000Z</time>
      </trkpt>
      <trkpt lat="47.278" lon="-2.35622">
        <ele>18</ele>
        <time>2021-03-04T11:18:57.000Z</time>
      </trkpt>
      <trkpt lat="47.27793" lon="-2.35625">
        <ele>17.60000038147</ele>
        <time>2021-03-04T11:18:58.000Z</time>
      </trkpt>
      <trkpt lat="47.27787" lon="-2.35628">
        <ele>17.200000762939</ele>
        <time>2021-03-04T11:18:59.000Z</time>
      </trkpt>
      <trkpt lat="47.2778" lon="-2.35632">
        <ele>16.799999237061</ele>
        <time>2021-03-04T11:19:00.000Z</time>
      </trkpt>
      <trkpt lat="47.27774" lon="-2.35637">
        <ele>16.799999237061</ele>
        <time>2021-03-04T11:19:01.000Z</time>
      </trkpt>
      <trkpt lat="47.27754" lon="-2.3566">
        <ele>16.799999237061</ele>
        <time>2021-03-04T11:19:05.000Z</time>
      </trkpt>
      <trkpt lat="47.2775" lon="-2.35666">
        <ele>16.799999237061</ele>
        <time>2021-03-04T11:19:06.000Z</time>
      </trkpt>
      <trkpt lat="47.27741" lon="-2.3568">
        <ele>16.39999961853</ele>
        <time>2021-03-04T11:19:08.000Z</time>
      </trkpt>
      <trkpt lat="47.27736" lon="-2.35687">
        <ele>15.800000190735</ele>
        <time>2021-03-04T11:19:09.000Z</time>
      </trkpt>
      <trkpt lat="47.27731" lon="-2.35694">
        <ele>15.39999961853</ele>
        <time>2021-03-04T11:19:10.000Z</time>
      </trkpt>
      <trkpt lat="47.27727" lon="-2.35701">
        <ele>15</ele>
        <time>2021-03-04T11:19:11.000Z</time>
      </trkpt>
      <trkpt lat="47.27722" lon="-2.35708">
        <ele>14.60000038147</ele>
        <time>2021-03-04T11:19:12.000Z</time>
      </trkpt>
      <trkpt lat="47.27717" lon="-2.35714">
        <ele>14.60000038147</ele>
        <time>2021-03-04T11:19:13.000Z</time>
      </trkpt>
      <trkpt lat="47.27683" lon="-2.35746">
        <ele>14.60000038147</ele>
        <time>2021-03-04T11:19:19.000Z</time>
      </trkpt>
      <trkpt lat="47.27672" lon="-2.35747">
        <ele>14.199999809265</ele>
        <time>2021-03-04T11:19:21.000Z</time>
      </trkpt>
      <trkpt lat="47.27667" lon="-2.35742">
        <ele>13.800000190735</ele>
        <time>2021-03-04T11:19:22.000Z</time>
      </trkpt>
      <trkpt lat="47.27663" lon="-2.35735">
        <ele>13.39999961853</ele>
        <time>2021-03-04T11:19:23.000Z</time>
      </trkpt>
      <trkpt lat="47.27659" lon="-2.3573">
        <ele>13</ele>
        <time>2021-03-04T11:19:24.000Z</time>
      </trkpt>
      <trkpt lat="47.27654" lon="-2.35725">
        <ele>12.60000038147</ele>
        <time>2021-03-04T11:19:25.000Z</time>
      </trkpt>
      <trkpt lat="47.27648" lon="-2.35722">
        <ele>12.60000038147</ele>
        <time>2021-03-04T11:19:26.000Z</time>
      </trkpt>
      <trkpt lat="47.27635" lon="-2.35716">
        <ele>12.60000038147</ele>
        <time>2021-03-04T11:19:28.000Z</time>
      </trkpt>
      <trkpt lat="47.27622" lon="-2.35712">
        <ele>12.199999809265</ele>
        <time>2021-03-04T11:19:30.000Z</time>
      </trkpt>
      <trkpt lat="47.27615" lon="-2.35711">
        <ele>11.39999961853</ele>
        <time>2021-03-04T11:19:31.000Z</time>
      </trkpt>
      <trkpt lat="47.27608" lon="-2.35709">
        <ele>11</ele>
        <time>2021-03-04T11:19:32.000Z</time>
      </trkpt>
      <trkpt lat="47.27601" lon="-2.35708">
        <ele>10.60000038147</ele>
        <time>2021-03-04T11:19:33.000Z</time>
      </trkpt>
      <trkpt lat="47.27547" lon="-2.35695">
        <ele>10.60000038147</ele>
        <time>2021-03-04T11:19:41.000Z</time>
      </trkpt>
      <trkpt lat="47.27522" lon="-2.3569">
        <ele>10.199999809265</ele>
        <time>2021-03-04T11:19:45.000Z</time>
      </trkpt>
      <trkpt lat="47.27515" lon="-2.35688">
        <ele>9.8000001907349</ele>
        <time>2021-03-04T11:19:46.000Z</time>
      </trkpt>
      <trkpt lat="47.27509" lon="-2.35687">
        <ele>9.1999998092651</ele>
        <time>2021-03-04T11:19:47.000Z</time>
      </trkpt>
      <trkpt lat="47.27502" lon="-2.35685">
        <ele>8.8000001907349</ele>
        <time>2021-03-04T11:19:48.000Z</time>
      </trkpt>
      <trkpt lat="47.27496" lon="-2.35683">
        <ele>8.3999996185303</ele>
        <time>2021-03-04T11:19:49.000Z</time>
      </trkpt>
      <trkpt lat="47.27464" lon="-2.35677">
        <ele>8.3999996185303</ele>
        <time>2021-03-04T11:19:54.000Z</time>
      </trkpt>
      <trkpt lat="47.27446" lon="-2.35673">
        <ele>8</ele>
        <time>2021-03-04T11:19:57.000Z</time>
      </trkpt>
      <trkpt lat="47.2744" lon="-2.35672">
        <ele>7.5999999046326</ele>
        <time>2021-03-04T11:19:58.000Z</time>
      </trkpt>
      <trkpt lat="47.27435" lon="-2.35672">
        <ele>7.1999998092651</ele>
        <time>2021-03-04T11:19:59.000Z</time>
      </trkpt>
      <trkpt lat="47.27429" lon="-2.35671">
        <ele>6.8000001907349</ele>
        <time>2021-03-04T11:20:00.000Z</time>
      </trkpt>
      <trkpt lat="47.27424" lon="-2.3567">
        <ele>6.4000000953674</ele>
        <time>2021-03-04T11:20:01.000Z</time>
      </trkpt>
      <trkpt lat="47.27419" lon="-2.3567">
        <ele>6.4000000953674</ele>
        <time>2021-03-04T11:20:02.000Z</time>
      </trkpt>
      <trkpt lat="47.27407" lon="-2.35672">
        <ele>6.4000000953674</ele>
        <time>2021-03-04T11:20:04.000Z</time>
      </trkpt>
      <trkpt lat="47.27395" lon="-2.35678">
        <ele>6.4000000953674</ele>
        <time>2021-03-04T11:20:06.000Z</time>
      </trkpt>
      <trkpt lat="47.27378" lon="-2.35687">
        <ele>6.4000000953674</ele>
        <time>2021-03-04T11:20:09.000Z</time>
      </trkpt>
      <trkpt lat="47.27333" lon="-2.35718">
        <ele>6.4000000953674</ele>
        <time>2021-03-04T11:20:17.000Z</time>
      </trkpt>
      <trkpt lat="47.27329" lon="-2.35722">
        <ele>6.4000000953674</ele>
        <time>2021-03-04T11:20:18.000Z</time>
      </trkpt>
      <trkpt lat="47.2732" lon="-2.35736">
        <ele>6.4000000953674</ele>
        <time>2021-03-04T11:20:21.000Z</time>
      </trkpt>
      <trkpt lat="47.27313" lon="-2.35741">
        <ele>6.4000000953674</ele>
        <time>2021-03-04T11:20:23.000Z</time>
      </trkpt>
      <trkpt lat="47.27309" lon="-2.35739">
        <ele>6.4000000953674</ele>
        <time>2021-03-04T11:20:24.000Z</time>
      </trkpt>
      <trkpt lat="47.27301" lon="-2.35723">
        <ele>6.4000000953674</ele>
        <time>2021-03-04T11:20:27.000Z</time>
      </trkpt>
      <trkpt lat="47.2729" lon="-2.35696">
        <ele>6.4000000953674</ele>
        <time>2021-03-04T11:20:31.000Z</time>
      </trkpt>
      <trkpt lat="47.27287" lon="-2.35689">
        <ele>6.4000000953674</ele>
        <time>2021-03-04T11:20:32.000Z</time>
      </trkpt>
      <trkpt lat="47.27262" lon="-2.35633">
        <ele>6.4000000953674</ele>
        <time>2021-03-04T11:20:40.000Z</time>
      </trkpt>
      <trkpt lat="47.27235" lon="-2.35571">
        <ele>6.4000000953674</ele>
        <time>2021-03-04T11:20:49.000Z</time>
      </trkpt>
      <trkpt lat="47.27206" lon="-2.35507">
        <ele>6.4000000953674</ele>
        <time>2021-03-04T11:20:58.000Z</time>
      </trkpt>
      <trkpt lat="47.27174" lon="-2.35441">
        <ele>6.4000000953674</ele>
        <time>2021-03-04T11:21:07.000Z</time>
      </trkpt>
      <trkpt lat="47.27144" lon="-2.35384">
        <ele>6.4000000953674</ele>
        <time>2021-03-04T11:21:15.000Z</time>
      </trkpt>
      <trkpt lat="47.27108" lon="-2.35324">
        <ele>6.4000000953674</ele>
        <time>2021-03-04T11:21:24.000Z</time>
      </trkpt>
      <trkpt lat="47.27103" lon="-2.35317">
        <ele>6.4000000953674</ele>
        <time>2021-03-04T11:21:25.000Z</time>
      </trkpt>
      <trkpt lat="47.27065" lon="-2.35258">
        <ele>6.4000000953674</ele>
        <time>2021-03-04T11:21:34.000Z</time>
      </trkpt>
      <trkpt lat="47.27057" lon="-2.35244">
        <ele>6.4000000953674</ele>
        <time>2021-03-04T11:21:36.000Z</time>
      </trkpt>
      <trkpt lat="47.27019" lon="-2.35184">
        <ele>6.4000000953674</ele>
        <time>2021-03-04T11:21:45.000Z</time>
      </trkpt>
      <trkpt lat="47.2701" lon="-2.35172">
        <ele>6.4000000953674</ele>
        <time>2021-03-04T11:21:47.000Z</time>
      </trkpt>
      <trkpt lat="47.26972" lon="-2.35114">
        <ele>6.4000000953674</ele>
        <time>2021-03-04T11:21:56.000Z</time>
      </trkpt>
      <trkpt lat="47.26937" lon="-2.35063">
        <ele>6.4000000953674</ele>
        <time>2021-03-04T11:22:04.000Z</time>
      </trkpt>
      <trkpt lat="47.26895" lon="-2.35">
        <ele>6.4000000953674</ele>
        <time>2021-03-04T11:22:14.000Z</time>
      </trkpt>
      <trkpt lat="47.26857" lon="-2.34942">
        <ele>6.4000000953674</ele>
        <time>2021-03-04T11:22:23.000Z</time>
      </trkpt>
      <trkpt lat="47.26822" lon="-2.3489">
        <ele>6.4000000953674</ele>
        <time>2021-03-04T11:22:31.000Z</time>
      </trkpt>
      <trkpt lat="47.26788" lon="-2.34839">
        <ele>6.4000000953674</ele>
        <time>2021-03-04T11:22:39.000Z</time>
      </trkpt>
      <trkpt lat="47.26753" lon="-2.34792">
        <ele>6.4000000953674</ele>
        <time>2021-03-04T11:22:47.000Z</time>
      </trkpt>
      <trkpt lat="47.26715" lon="-2.34746">
        <ele>6.4000000953674</ele>
        <time>2021-03-04T11:22:55.000Z</time>
      </trkpt>
      <trkpt lat="47.26674" lon="-2.34695">
        <ele>6.4000000953674</ele>
        <time>2021-03-04T11:23:04.000Z</time>
      </trkpt>
      <trkpt lat="47.26669" lon="-2.34689">
        <ele>6.4000000953674</ele>
        <time>2021-03-04T11:23:05.000Z</time>
      </trkpt>
      <trkpt lat="47.26632" lon="-2.34644">
        <ele>6.4000000953674</ele>
        <time>2021-03-04T11:23:13.000Z</time>
      </trkpt>
      <trkpt lat="47.26595" lon="-2.34598">
        <ele>6.4000000953674</ele>
        <time>2021-03-04T11:23:21.000Z</time>
      </trkpt>
      <trkpt lat="47.26585" lon="-2.34586">
        <ele>6.4000000953674</ele>
        <time>2021-03-04T11:23:23.000Z</time>
      </trkpt>
      <trkpt lat="47.2656" lon="-2.34559">
        <ele>6.4000000953674</ele>
        <time>2021-03-04T11:23:28.000Z</time>
      </trkpt>
      <trkpt lat="47.26519" lon="-2.34522">
        <ele>6.4000000953674</ele>
        <time>2021-03-04T11:23:36.000Z</time>
      </trkpt>
      <trkpt lat="47.26476" lon="-2.3449">
        <ele>6.4000000953674</ele>
        <time>2021-03-04T11:23:44.000Z</time>
      </trkpt>
      <trkpt lat="47.26437" lon="-2.34463">
        <ele>6.4000000953674</ele>
        <time>2021-03-04T11:23:51.000Z</time>
      </trkpt>
      <trkpt lat="47.26392" lon="-2.34429">
        <ele>6.4000000953674</ele>
        <time>2021-03-04T11:23:59.000Z</time>
      </trkpt>
      <trkpt lat="47.26362" lon="-2.34402">
        <ele>6.4000000953674</ele>
        <time>2021-03-04T11:24:05.000Z</time>
      </trkpt>
      <trkpt lat="47.26337" lon="-2.3438">
        <ele>6.4000000953674</ele>
        <time>2021-03-04T11:24:10.000Z</time>
      </trkpt>
      <trkpt lat="47.26331" lon="-2.34378">
        <ele>6.4000000953674</ele>
        <time>2021-03-04T11:24:11.000Z</time>
      </trkpt>
      <trkpt lat="47.26319" lon="-2.34368">
        <ele>6.4000000953674</ele>
        <time>2021-03-04T11:24:14.000Z</time>
      </trkpt>
      <trkpt lat="47.26304" lon="-2.34346">
        <ele>6.4000000953674</ele>
        <time>2021-03-04T11:24:18.000Z</time>
      </trkpt>
      <trkpt lat="47.26299" lon="-2.34342">
        <ele>6.4000000953674</ele>
        <time>2021-03-04T11:24:19.000Z</time>
      </trkpt>
      <trkpt lat="47.26269" lon="-2.3431">
        <ele>6.4000000953674</ele>
        <time>2021-03-04T11:24:26.000Z</time>
      </trkpt>
      <trkpt lat="47.26239" lon="-2.34278">
        <ele>6.4000000953674</ele>
        <time>2021-03-04T11:24:33.000Z</time>
      </trkpt>
      <trkpt lat="47.26194" lon="-2.34232">
        <ele>6.4000000953674</ele>
        <time>2021-03-04T11:24:43.000Z</time>
      </trkpt>
      <trkpt lat="47.26168" lon="-2.34207">
        <ele>6.4000000953674</ele>
        <time>2021-03-04T11:24:49.000Z</time>
      </trkpt>
      <trkpt lat="47.26146" lon="-2.34188">
        <ele>6.4000000953674</ele>
        <time>2021-03-04T11:24:55.000Z</time>
      </trkpt>
      <trkpt lat="47.26142" lon="-2.34186">
        <ele>6.4000000953674</ele>
        <time>2021-03-04T11:24:56.000Z</time>
      </trkpt>
      <trkpt lat="47.26134" lon="-2.34185">
        <ele>6.4000000953674</ele>
        <time>2021-03-04T11:24:59.000Z</time>
      </trkpt>
      <trkpt lat="47.26131" lon="-2.34186">
        <ele>6.4000000953674</ele>
        <time>2021-03-04T11:25:00.000Z</time>
      </trkpt>
      <trkpt lat="47.26124" lon="-2.34184">
        <ele>6.4000000953674</ele>
        <time>2021-03-04T11:25:04.000Z</time>
      </trkpt>
      <trkpt lat="47.26123" lon="-2.34183">
        <ele>6.4000000953674</ele>
        <time>2021-03-04T11:25:05.000Z</time>
      </trkpt>
      <trkpt lat="47.26123" lon="-2.34183">
        <ele>6.4000000953674</ele>
        <time>2021-03-04T11:25:06.000Z</time>
      </trkpt>
      <trkpt lat="47.26122" lon="-2.3418">
        <ele>6.4000000953674</ele>
        <time>2021-03-04T11:30:43.000Z</time>
      </trkpt>
      <trkpt lat="47.26119" lon="-2.34177">
        <ele>6.4000000953674</ele>
        <time>2021-03-04T11:30:45.000Z</time>
      </trkpt>
      <trkpt lat="47.26108" lon="-2.34164">
        <ele>6.4000000953674</ele>
        <time>2021-03-04T11:30:51.000Z</time>
      </trkpt>
      <trkpt lat="47.26087" lon="-2.34151">
        <ele>6.4000000953674</ele>
        <time>2021-03-04T11:30:58.000Z</time>
      </trkpt>
      <trkpt lat="47.26069" lon="-2.34142">
        <ele>6.4000000953674</ele>
        <time>2021-03-04T11:31:03.000Z</time>
      </trkpt>
      <trkpt lat="47.26059" lon="-2.34138">
        <ele>6.4000000953674</ele>
        <time>2021-03-04T11:31:05.000Z</time>
      </trkpt>
      <trkpt lat="47.26034" lon="-2.34124">
        <ele>6.4000000953674</ele>
        <time>2021-03-04T11:31:11.000Z</time>
      </trkpt>
      <trkpt lat="47.26032" lon="-2.3412">
        <ele>6.4000000953674</ele>
        <time>2021-03-04T11:31:12.000Z</time>
      </trkpt>
      <trkpt lat="47.26028" lon="-2.34116">
        <ele>6.4000000953674</ele>
        <time>2021-03-04T11:31:14.000Z</time>
      </trkpt>
      <trkpt lat="47.26009" lon="-2.34107">
        <ele>6.4000000953674</ele>
        <time>2021-03-04T11:31:19.000Z</time>
      </trkpt>
      <trkpt lat="47.25974" lon="-2.3409">
        <ele>6.4000000953674</ele>
        <time>2021-03-04T11:31:26.000Z</time>
      </trkpt>
      <trkpt lat="47.25931" lon="-2.34073">
        <ele>6.4000000953674</ele>
        <time>2021-03-04T11:31:35.000Z</time>
      </trkpt>
      <trkpt lat="47.25925" lon="-2.34072">
        <ele>6.4000000953674</ele>
        <time>2021-03-04T11:31:36.000Z</time>
      </trkpt>
      <trkpt lat="47.2591" lon="-2.34071">
        <ele>6.4000000953674</ele>
        <time>2021-03-04T11:31:39.000Z</time>
      </trkpt>
      <trkpt lat="47.25905" lon="-2.34068">
        <ele>6.4000000953674</ele>
        <time>2021-03-04T11:31:40.000Z</time>
      </trkpt>
      <trkpt lat="47.25898" lon="-2.34047">
        <ele>6</ele>
        <time>2021-03-04T11:31:43.000Z</time>
      </trkpt>
      <trkpt lat="47.25898" lon="-2.34039">
        <ele>5.5999999046326</ele>
        <time>2021-03-04T11:31:44.000Z</time>
      </trkpt>
      <trkpt lat="47.259" lon="-2.34032">
        <ele>5.1999998092651</ele>
        <time>2021-03-04T11:31:45.000Z</time>
      </trkpt>
      <trkpt lat="47.25902" lon="-2.34025">
        <ele>4.8000001907349</ele>
        <time>2021-03-04T11:31:46.000Z</time>
      </trkpt>
      <trkpt lat="47.25905" lon="-2.34018">
        <ele>4.4000000953674</ele>
        <time>2021-03-04T11:31:47.000Z</time>
      </trkpt>
      <trkpt lat="47.25907" lon="-2.34012">
        <ele>4.4000000953674</ele>
        <time>2021-03-04T11:31:48.000Z</time>
      </trkpt>
      <trkpt lat="47.25914" lon="-2.33983">
        <ele>4.4000000953674</ele>
        <time>2021-03-04T11:31:52.000Z</time>
      </trkpt>
      <trkpt lat="47.25917" lon="-2.33976">
        <ele>4.4000000953674</ele>
        <time>2021-03-04T11:31:53.000Z</time>
      </trkpt>
      <trkpt lat="47.25928" lon="-2.33948">
        <ele>4.4000000953674</ele>
        <time>2021-03-04T11:31:57.000Z</time>
      </trkpt>
      <trkpt lat="47.25938" lon="-2.3393">
        <ele>4.4000000953674</ele>
        <time>2021-03-04T11:32:00.000Z</time>
      </trkpt>
      <trkpt lat="47.25943" lon="-2.33921">
        <ele>4.4000000953674</ele>
        <time>2021-03-04T11:32:02.000Z</time>
      </trkpt>
      <trkpt lat="47.25949" lon="-2.33898">
        <ele>4.4000000953674</ele>
        <time>2021-03-04T11:32:06.000Z</time>
      </trkpt>
      <trkpt lat="47.2596" lon="-2.33865">
        <ele>4.4000000953674</ele>
        <time>2021-03-04T11:32:11.000Z</time>
      </trkpt>
      <trkpt lat="47.25962" lon="-2.33858">
        <ele>4.4000000953674</ele>
        <time>2021-03-04T11:32:12.000Z</time>
      </trkpt>
      <trkpt lat="47.25968" lon="-2.33837">
        <ele>4.4000000953674</ele>
        <time>2021-03-04T11:32:15.000Z</time>
      </trkpt>
      <trkpt lat="47.25974" lon="-2.33815">
        <ele>4.4000000953674</ele>
        <time>2021-03-04T11:32:18.000Z</time>
      </trkpt>
      <trkpt lat="47.25979" lon="-2.33801">
        <ele>4.4000000953674</ele>
        <time>2021-03-04T11:32:20.000Z</time>
      </trkpt>
      <trkpt lat="47.25993" lon="-2.33758">
        <ele>4.4000000953674</ele>
        <time>2021-03-04T11:32:26.000Z</time>
      </trkpt>
      <trkpt lat="47.25997" lon="-2.33743">
        <ele>4.4000000953674</ele>
        <time>2021-03-04T11:32:28.000Z</time>
      </trkpt>
      <trkpt lat="47.26011" lon="-2.33694">
        <ele>4.4000000953674</ele>
        <time>2021-03-04T11:32:35.000Z</time>
      </trkpt>
      <trkpt lat="47.2602" lon="-2.33654">
        <ele>4.4000000953674</ele>
        <time>2021-03-04T11:32:41.000Z</time>
      </trkpt>
      <trkpt lat="47.2602" lon="-2.33646">
        <ele>4.4000000953674</ele>
        <time>2021-03-04T11:32:42.000Z</time>
      </trkpt>
      <trkpt lat="47.26018" lon="-2.3362">
        <ele>4.4000000953674</ele>
        <time>2021-03-04T11:32:45.000Z</time>
      </trkpt>
      <trkpt lat="47.26013" lon="-2.33602">
        <ele>4.4000000953674</ele>
        <time>2021-03-04T11:32:47.000Z</time>
      </trkpt>
      <trkpt lat="47.26005" lon="-2.33577">
        <ele>4.4000000953674</ele>
        <time>2021-03-04T11:32:50.000Z</time>
      </trkpt>
      <trkpt lat="47.25978" lon="-2.33522">
        <ele>4.4000000953674</ele>
        <time>2021-03-04T11:32:57.000Z</time>
      </trkpt>
      <trkpt lat="47.25971" lon="-2.33507">
        <ele>4.4000000953674</ele>
        <time>2021-03-04T11:32:59.000Z</time>
      </trkpt>
      <trkpt lat="47.25962" lon="-2.33494">
        <ele>4.4000000953674</ele>
        <time>2021-03-04T11:33:01.000Z</time>
      </trkpt>
      <trkpt lat="47.25957" lon="-2.33479">
        <ele>4.4000000953674</ele>
        <time>2021-03-04T11:33:03.000Z</time>
      </trkpt>
      <trkpt lat="47.25948" lon="-2.33457">
        <ele>4.4000000953674</ele>
        <time>2021-03-04T11:33:06.000Z</time>
      </trkpt>
      <trkpt lat="47.25932" lon="-2.33422">
        <ele>4.4000000953674</ele>
        <time>2021-03-04T11:33:11.000Z</time>
      </trkpt>
      <trkpt lat="47.25927" lon="-2.33408">
        <ele>4.4000000953674</ele>
        <time>2021-03-04T11:33:13.000Z</time>
      </trkpt>
      <trkpt lat="47.25914" lon="-2.33361">
        <ele>4.4000000953674</ele>
        <time>2021-03-04T11:33:19.000Z</time>
      </trkpt>
      <trkpt lat="47.25904" lon="-2.33294">
        <ele>4.4000000953674</ele>
        <time>2021-03-04T11:33:27.000Z</time>
      </trkpt>
      <trkpt lat="47.25903" lon="-2.33216">
        <ele>4.4000000953674</ele>
        <time>2021-03-04T11:33:36.000Z</time>
      </trkpt>
      <trkpt lat="47.25899" lon="-2.33165">
        <ele>4.4000000953674</ele>
        <time>2021-03-04T11:33:42.000Z</time>
      </trkpt>
      <trkpt lat="47.25898" lon="-2.33156">
        <ele>4.4000000953674</ele>
        <time>2021-03-04T11:33:43.000Z</time>
      </trkpt>
      <trkpt lat="47.25892" lon="-2.33125">
        <ele>4.4000000953674</ele>
        <time>2021-03-04T11:33:47.000Z</time>
      </trkpt>
      <trkpt lat="47.2588" lon="-2.33082">
        <ele>4.4000000953674</ele>
        <time>2021-03-04T11:33:53.000Z</time>
      </trkpt>
      <trkpt lat="47.25866" lon="-2.33034">
        <ele>4.4000000953674</ele>
        <time>2021-03-04T11:34:00.000Z</time>
      </trkpt>
      <trkpt lat="47.25863" lon="-2.33027">
        <ele>4.8000001907349</ele>
        <time>2021-03-04T11:34:01.000Z</time>
      </trkpt>
      <trkpt lat="47.25861" lon="-2.3302">
        <ele>5.1999998092651</ele>
        <time>2021-03-04T11:34:02.000Z</time>
      </trkpt>
      <trkpt lat="47.25858" lon="-2.33014">
        <ele>5.5999999046326</ele>
        <time>2021-03-04T11:34:03.000Z</time>
      </trkpt>
      <trkpt lat="47.25856" lon="-2.33008">
        <ele>6</ele>
        <time>2021-03-04T11:34:04.000Z</time>
      </trkpt>
      <trkpt lat="47.25853" lon="-2.33002">
        <ele>6.4000000953674</ele>
        <time>2021-03-04T11:34:05.000Z</time>
      </trkpt>
      <trkpt lat="47.25846" lon="-2.3299">
        <ele>6.4000000953674</ele>
        <time>2021-03-04T11:34:07.000Z</time>
      </trkpt>
      <trkpt lat="47.25842" lon="-2.32985">
        <ele>6.4000000953674</ele>
        <time>2021-03-04T11:34:08.000Z</time>
      </trkpt>
      <trkpt lat="47.25826" lon="-2.32964">
        <ele>6.4000000953674</ele>
        <time>2021-03-04T11:34:12.000Z</time>
      </trkpt>
      <trkpt lat="47.25803" lon="-2.32934">
        <ele>6.4000000953674</ele>
        <time>2021-03-04T11:34:18.000Z</time>
      </trkpt>
      <trkpt lat="47.25799" lon="-2.32929">
        <ele>7</ele>
        <time>2021-03-04T11:34:19.000Z</time>
      </trkpt>
      <trkpt lat="47.25796" lon="-2.32924">
        <ele>7.4000000953674</ele>
        <time>2021-03-04T11:34:20.000Z</time>
      </trkpt>
      <trkpt lat="47.25792" lon="-2.32919">
        <ele>7.8000001907349</ele>
        <time>2021-03-04T11:34:21.000Z</time>
      </trkpt>
      <trkpt lat="47.25788" lon="-2.32913">
        <ele>8.1999998092651</ele>
        <time>2021-03-04T11:34:22.000Z</time>
      </trkpt>
      <trkpt lat="47.25784" lon="-2.32908">
        <ele>8.6000003814697</ele>
        <time>2021-03-04T11:34:23.000Z</time>
      </trkpt>
      <trkpt lat="47.25777" lon="-2.32897">
        <ele>8.6000003814697</ele>
        <time>2021-03-04T11:34:25.000Z</time>
      </trkpt>
      <trkpt lat="47.2577" lon="-2.32887">
        <ele>8.6000003814697</ele>
        <time>2021-03-04T11:34:27.000Z</time>
      </trkpt>
      <trkpt lat="47.25754" lon="-2.32855">
        <ele>8.6000003814697</ele>
        <time>2021-03-04T11:34:33.000Z</time>
      </trkpt>
      <trkpt lat="47.25751" lon="-2.3285">
        <ele>8.6000003814697</ele>
        <time>2021-03-04T11:34:34.000Z</time>
      </trkpt>
      <trkpt lat="47.25743" lon="-2.32827">
        <ele>9</ele>
        <time>2021-03-04T11:34:38.000Z</time>
      </trkpt>
      <trkpt lat="47.25741" lon="-2.32822">
        <ele>9.3999996185303</ele>
        <time>2021-03-04T11:34:39.000Z</time>
      </trkpt>
      <trkpt lat="47.2574" lon="-2.32816">
        <ele>9.8000001907349</ele>
        <time>2021-03-04T11:34:40.000Z</time>
      </trkpt>
      <trkpt lat="47.25739" lon="-2.32809">
        <ele>10.199999809265</ele>
        <time>2021-03-04T11:34:41.000Z</time>
      </trkpt>
      <trkpt lat="47.25737" lon="-2.32803">
        <ele>10.60000038147</ele>
        <time>2021-03-04T11:34:42.000Z</time>
      </trkpt>
      <trkpt lat="47.25734" lon="-2.32788">
        <ele>10.60000038147</ele>
        <time>2021-03-04T11:34:44.000Z</time>
      </trkpt>
      <trkpt lat="47.25725" lon="-2.32734">
        <ele>10.60000038147</ele>
        <time>2021-03-04T11:34:51.000Z</time>
      </trkpt>
      <trkpt lat="47.25721" lon="-2.32681">
        <ele>10.60000038147</ele>
        <time>2021-03-04T11:34:57.000Z</time>
      </trkpt>
      <trkpt lat="47.25711" lon="-2.32617">
        <ele>10.60000038147</ele>
        <time>2021-03-04T11:35:04.000Z</time>
      </trkpt>
      <trkpt lat="47.257" lon="-2.32575">
        <ele>10.199999809265</ele>
        <time>2021-03-04T11:35:09.000Z</time>
      </trkpt>
      <trkpt lat="47.25698" lon="-2.32566">
        <ele>9.8000001907349</ele>
        <time>2021-03-04T11:35:10.000Z</time>
      </trkpt>
      <trkpt lat="47.25695" lon="-2.32558">
        <ele>9.3999996185303</ele>
        <time>2021-03-04T11:35:11.000Z</time>
      </trkpt>
      <trkpt lat="47.25693" lon="-2.3255">
        <ele>9</ele>
        <time>2021-03-04T11:35:12.000Z</time>
      </trkpt>
      <trkpt lat="47.2569" lon="-2.32541">
        <ele>8.6000003814697</ele>
        <time>2021-03-04T11:35:13.000Z</time>
      </trkpt>
      <trkpt lat="47.25675" lon="-2.32493">
        <ele>8.6000003814697</ele>
        <time>2021-03-04T11:35:18.000Z</time>
      </trkpt>
      <trkpt lat="47.25668" lon="-2.32474">
        <ele>8.1999998092651</ele>
        <time>2021-03-04T11:35:20.000Z</time>
      </trkpt>
      <trkpt lat="47.25666" lon="-2.32464">
        <ele>7.8000001907349</ele>
        <time>2021-03-04T11:35:21.000Z</time>
      </trkpt>
      <trkpt lat="47.25663" lon="-2.32453">
        <ele>7.1999998092651</ele>
        <time>2021-03-04T11:35:22.000Z</time>
      </trkpt>
      <trkpt lat="47.25662" lon="-2.32442">
        <ele>6.8000001907349</ele>
        <time>2021-03-04T11:35:23.000Z</time>
      </trkpt>
      <trkpt lat="47.2566" lon="-2.32431">
        <ele>6.4000000953674</ele>
        <time>2021-03-04T11:35:24.000Z</time>
      </trkpt>
      <trkpt lat="47.25657" lon="-2.32423">
        <ele>6.4000000953674</ele>
        <time>2021-03-04T11:35:25.000Z</time>
      </trkpt>
      <trkpt lat="47.25655" lon="-2.32408">
        <ele>6.4000000953674</ele>
        <time>2021-03-04T11:35:27.000Z</time>
      </trkpt>
      <trkpt lat="47.25661" lon="-2.32402">
        <ele>6.4000000953674</ele>
        <time>2021-03-04T11:35:29.000Z</time>
      </trkpt>
      <trkpt lat="47.25672" lon="-2.32414">
        <ele>6.4000000953674</ele>
        <time>2021-03-04T11:35:32.000Z</time>
      </trkpt>
      <trkpt lat="47.25687" lon="-2.32422">
        <ele>6.4000000953674</ele>
        <time>2021-03-04T11:35:35.000Z</time>
      </trkpt>
      <trkpt lat="47.25694" lon="-2.32423">
        <ele>6.4000000953674</ele>
        <time>2021-03-04T11:35:36.000Z</time>
      </trkpt>
      <trkpt lat="47.2572" lon="-2.32423">
        <ele>6.4000000953674</ele>
        <time>2021-03-04T11:35:40.000Z</time>
      </trkpt>
      <trkpt lat="47.25726" lon="-2.32423">
        <ele>6</ele>
        <time>2021-03-04T11:35:41.000Z</time>
      </trkpt>
      <trkpt lat="47.25732" lon="-2.32423">
        <ele>5.5999999046326</ele>
        <time>2021-03-04T11:35:42.000Z</time>
      </trkpt>
      <trkpt lat="47.25738" lon="-2.32423">
        <ele>5.1999998092651</ele>
        <time>2021-03-04T11:35:43.000Z</time>
      </trkpt>
      <trkpt lat="47.25745" lon="-2.32423">
        <ele>4.8000001907349</ele>
        <time>2021-03-04T11:35:44.000Z</time>
      </trkpt>
      <trkpt lat="47.2575" lon="-2.32423">
        <ele>4.4000000953674</ele>
        <time>2021-03-04T11:35:45.000Z</time>
      </trkpt>
      <trkpt lat="47.25756" lon="-2.32421">
        <ele>4.4000000953674</ele>
        <time>2021-03-04T11:35:46.000Z</time>
      </trkpt>
      <trkpt lat="47.25761" lon="-2.32419">
        <ele>4.4000000953674</ele>
        <time>2021-03-04T11:35:47.000Z</time>
      </trkpt>
      <trkpt lat="47.25777" lon="-2.32414">
        <ele>4.4000000953674</ele>
        <time>2021-03-04T11:35:50.000Z</time>
      </trkpt>
      <trkpt lat="47.25783" lon="-2.32418">
        <ele>4.4000000953674</ele>
        <time>2021-03-04T11:35:51.000Z</time>
      </trkpt>
      <trkpt lat="47.25795" lon="-2.3244">
        <ele>4.4000000953674</ele>
        <time>2021-03-04T11:35:54.000Z</time>
      </trkpt>
      <trkpt lat="47.25805" lon="-2.32452">
        <ele>4.4000000953674</ele>
        <time>2021-03-04T11:35:56.000Z</time>
      </trkpt>
      <trkpt lat="47.25817" lon="-2.32461">
        <ele>4.4000000953674</ele>
        <time>2021-03-04T11:35:58.000Z</time>
      </trkpt>
      <trkpt lat="47.25842" lon="-2.32474">
        <ele>4.4000000953674</ele>
        <time>2021-03-04T11:36:02.000Z</time>
      </trkpt>
      <trkpt lat="47.25848" lon="-2.32475">
        <ele>4.4000000953674</ele>
        <time>2021-03-04T11:36:03.000Z</time>
      </trkpt>
      <trkpt lat="47.25873" lon="-2.32473">
        <ele>4.4000000953674</ele>
        <time>2021-03-04T11:36:07.000Z</time>
      </trkpt>
      <trkpt lat="47.2588" lon="-2.32472">
        <ele>4.4000000953674</ele>
        <time>2021-03-04T11:36:08.000Z</time>
      </trkpt>
      <trkpt lat="47.25893" lon="-2.32467">
        <ele>4.4000000953674</ele>
        <time>2021-03-04T11:36:10.000Z</time>
      </trkpt>
      <trkpt lat="47.25905" lon="-2.32457">
        <ele>4.4000000953674</ele>
        <time>2021-03-04T11:36:12.000Z</time>
      </trkpt>
      <trkpt lat="47.25916" lon="-2.32444">
        <ele>4.4000000953674</ele>
        <time>2021-03-04T11:36:14.000Z</time>
      </trkpt>
      <trkpt lat="47.25931" lon="-2.32426">
        <ele>4.4000000953674</ele>
        <time>2021-03-04T11:36:17.000Z</time>
      </trkpt>
      <trkpt lat="47.25973" lon="-2.32367">
        <ele>4.4000000953674</ele>
        <time>2021-03-04T11:36:26.000Z</time>
      </trkpt>
      <trkpt lat="47.2601" lon="-2.32317">
        <ele>4.4000000953674</ele>
        <time>2021-03-04T11:36:34.000Z</time>
      </trkpt>
      <trkpt lat="47.26046" lon="-2.32272">
        <ele>4.4000000953674</ele>
        <time>2021-03-04T11:36:42.000Z</time>
      </trkpt>
      <trkpt lat="47.26077" lon="-2.32234">
        <ele>4.4000000953674</ele>
        <time>2021-03-04T11:36:49.000Z</time>
      </trkpt>
      <trkpt lat="47.26104" lon="-2.32188">
        <ele>4.4000000953674</ele>
        <time>2021-03-04T11:36:56.000Z</time>
      </trkpt>
      <trkpt lat="47.2611" lon="-2.32174">
        <ele>4.4000000953674</ele>
        <time>2021-03-04T11:36:58.000Z</time>
      </trkpt>
      <trkpt lat="47.26119" lon="-2.32151">
        <ele>4.4000000953674</ele>
        <time>2021-03-04T11:37:01.000Z</time>
      </trkpt>
      <trkpt lat="47.26136" lon="-2.32097">
        <ele>4.4000000953674</ele>
        <time>2021-03-04T11:37:08.000Z</time>
      </trkpt>
      <trkpt lat="47.26146" lon="-2.32059">
        <ele>4.4000000953674</ele>
        <time>2021-03-04T11:37:13.000Z</time>
      </trkpt>
      <trkpt lat="47.2615" lon="-2.32044">
        <ele>4.4000000953674</ele>
        <time>2021-03-04T11:37:15.000Z</time>
      </trkpt>
      <trkpt lat="47.26153" lon="-2.32028">
        <ele>4.4000000953674</ele>
        <time>2021-03-04T11:37:17.000Z</time>
      </trkpt>
      <trkpt lat="47.26156" lon="-2.32003">
        <ele>4.4000000953674</ele>
        <time>2021-03-04T11:37:20.000Z</time>
      </trkpt>
      <trkpt lat="47.26156" lon="-2.31995">
        <ele>4.4000000953674</ele>
        <time>2021-03-04T11:37:21.000Z</time>
      </trkpt>
      <trkpt lat="47.26153" lon="-2.31972">
        <ele>4.4000000953674</ele>
        <time>2021-03-04T11:37:24.000Z</time>
      </trkpt>
      <trkpt lat="47.26151" lon="-2.31956">
        <ele>4.4000000953674</ele>
        <time>2021-03-04T11:37:26.000Z</time>
      </trkpt>
      <trkpt lat="47.2615" lon="-2.3194">
        <ele>4.4000000953674</ele>
        <time>2021-03-04T11:37:28.000Z</time>
      </trkpt>
      <trkpt lat="47.26147" lon="-2.31898">
        <ele>4.4000000953674</ele>
        <time>2021-03-04T11:37:33.000Z</time>
      </trkpt>
      <trkpt lat="47.26139" lon="-2.31833">
        <ele>4.4000000953674</ele>
        <time>2021-03-04T11:37:41.000Z</time>
      </trkpt>
      <trkpt lat="47.26133" lon="-2.31775">
        <ele>4.4000000953674</ele>
        <time>2021-03-04T11:37:48.000Z</time>
      </trkpt>
      <trkpt lat="47.26126" lon="-2.31714">
        <ele>4.4000000953674</ele>
        <time>2021-03-04T11:37:56.000Z</time>
      </trkpt>
      <trkpt lat="47.26125" lon="-2.31706">
        <ele>4.4000000953674</ele>
        <time>2021-03-04T11:37:57.000Z</time>
      </trkpt>
      <trkpt lat="47.26124" lon="-2.31699">
        <ele>4.4000000953674</ele>
        <time>2021-03-04T11:37:58.000Z</time>
      </trkpt>
      <trkpt lat="47.26123" lon="-2.31672">
        <ele>4.4000000953674</ele>
        <time>2021-03-04T11:38:02.000Z</time>
      </trkpt>
      <trkpt lat="47.26115" lon="-2.3163">
        <ele>4.4000000953674</ele>
        <time>2021-03-04T11:38:08.000Z</time>
      </trkpt>
      <trkpt lat="47.2612" lon="-2.31613">
        <ele>4.4000000953674</ele>
        <time>2021-03-04T11:38:11.000Z</time>
      </trkpt>
      <trkpt lat="47.26134" lon="-2.3161">
        <ele>4.4000000953674</ele>
        <time>2021-03-04T11:38:14.000Z</time>
      </trkpt>
      <trkpt lat="47.26166" lon="-2.316">
        <ele>4.4000000953674</ele>
        <time>2021-03-04T11:38:20.000Z</time>
      </trkpt>
      <trkpt lat="47.26212" lon="-2.31588">
        <ele>4.4000000953674</ele>
        <time>2021-03-04T11:38:29.000Z</time>
      </trkpt>
      <trkpt lat="47.26216" lon="-2.31589">
        <ele>4.4000000953674</ele>
        <time>2021-03-04T11:38:30.000Z</time>
      </trkpt>
      <trkpt lat="47.26225" lon="-2.31591">
        <ele>4.4000000953674</ele>
        <time>2021-03-04T11:38:32.000Z</time>
      </trkpt>
      <trkpt lat="47.26229" lon="-2.31593">
        <ele>4.4000000953674</ele>
        <time>2021-03-04T11:38:33.000Z</time>
      </trkpt>
      <trkpt lat="47.26237" lon="-2.316">
        <ele>4.4000000953674</ele>
        <time>2021-03-04T11:38:35.000Z</time>
      </trkpt>
      <trkpt lat="47.26248" lon="-2.31612">
        <ele>4.4000000953674</ele>
        <time>2021-03-04T11:38:38.000Z</time>
      </trkpt>
      <trkpt lat="47.26266" lon="-2.31645">
        <ele>4.4000000953674</ele>
        <time>2021-03-04T11:38:44.000Z</time>
      </trkpt>
      <trkpt lat="47.26267" lon="-2.31651">
        <ele>4.4000000953674</ele>
        <time>2021-03-04T11:38:45.000Z</time>
      </trkpt>
      <trkpt lat="47.26272" lon="-2.31662">
        <ele>4.4000000953674</ele>
        <time>2021-03-04T11:38:47.000Z</time>
      </trkpt>
      <trkpt lat="47.26285" lon="-2.31687">
        <ele>4.4000000953674</ele>
        <time>2021-03-04T11:38:51.000Z</time>
      </trkpt>
      <trkpt lat="47.26297" lon="-2.31704">
        <ele>4.4000000953674</ele>
        <time>2021-03-04T11:38:54.000Z</time>
      </trkpt>
      <trkpt lat="47.26307" lon="-2.31707">
        <ele>4.4000000953674</ele>
        <time>2021-03-04T11:38:56.000Z</time>
      </trkpt>
      <trkpt lat="47.2632" lon="-2.317">
        <ele>4.4000000953674</ele>
        <time>2021-03-04T11:38:59.000Z</time>
      </trkpt>
      <trkpt lat="47.26324" lon="-2.31699">
        <ele>4.4000000953674</ele>
        <time>2021-03-04T11:39:00.000Z</time>
      </trkpt>
      <trkpt lat="47.26331" lon="-2.3169">
        <ele>4.4000000953674</ele>
        <time>2021-03-04T11:39:03.000Z</time>
      </trkpt>
      <trkpt lat="47.26333" lon="-2.31686">
        <ele>4.4000000953674</ele>
        <time>2021-03-04T11:39:04.000Z</time>
      </trkpt>
      <trkpt lat="47.26337" lon="-2.3168">
        <ele>4.4000000953674</ele>
        <time>2021-03-04T11:39:06.000Z</time>
      </trkpt>
      <trkpt lat="47.26344" lon="-2.31678">
        <ele>4.4000000953674</ele>
        <time>2021-03-04T11:39:08.000Z</time>
      </trkpt>
      <trkpt lat="47.26363" lon="-2.31669">
        <ele>4.8000001907349</ele>
        <time>2021-03-04T11:39:13.000Z</time>
      </trkpt>
      <trkpt lat="47.26367" lon="-2.31667">
        <ele>5.5999999046326</ele>
        <time>2021-03-04T11:39:14.000Z</time>
      </trkpt>
      <trkpt lat="47.26371" lon="-2.31667">
        <ele>6</ele>
        <time>2021-03-04T11:39:15.000Z</time>
      </trkpt>
      <trkpt lat="47.26375" lon="-2.31666">
        <ele>6.4000000953674</ele>
        <time>2021-03-04T11:39:16.000Z</time>
      </trkpt>
      <trkpt lat="47.26396" lon="-2.31653">
        <ele>6.4000000953674</ele>
        <time>2021-03-04T11:39:22.000Z</time>
      </trkpt>
      <trkpt lat="47.2641" lon="-2.31641">
        <ele>6.4000000953674</ele>
        <time>2021-03-04T11:39:27.000Z</time>
      </trkpt>
      <trkpt lat="47.2641" lon="-2.31636">
        <ele>6.4000000953674</ele>
        <time>2021-03-04T11:39:28.000Z</time>
      </trkpt>
      <trkpt lat="47.2641" lon="-2.31613">
        <ele>6.4000000953674</ele>
        <time>2021-03-04T11:39:33.000Z</time>
      </trkpt>
      <trkpt lat="47.2641" lon="-2.31586">
        <ele>6.4000000953674</ele>
        <time>2021-03-04T11:39:39.000Z</time>
      </trkpt>
      <trkpt lat="47.2641" lon="-2.31554">
        <ele>6.4000000953674</ele>
        <time>2021-03-04T11:39:46.000Z</time>
      </trkpt>
      <trkpt lat="47.26413" lon="-2.31548">
        <ele>6.4000000953674</ele>
        <time>2021-03-04T11:39:48.000Z</time>
      </trkpt>
      <trkpt lat="47.26414" lon="-2.31547">
        <ele>6.4000000953674</ele>
        <time>2021-03-04T11:39:49.000Z</time>
      </trkpt>
      <trkpt lat="47.26416" lon="-2.31548">
        <ele>7</ele>
        <time>2021-03-04T11:39:51.000Z</time>
      </trkpt>
      <trkpt lat="47.26416" lon="-2.31548">
        <ele>7.4000000953674</ele>
        <time>2021-03-04T11:39:52.000Z</time>
      </trkpt>
      <trkpt lat="47.26417" lon="-2.31549">
        <ele>7.8000001907349</ele>
        <time>2021-03-04T11:39:53.000Z</time>
      </trkpt>
    </trkseg>
  </trk>
</gpx>